<?xml version="1.0" encoding="UTF-8" standalone="no" ?>
<gpx xmlns="http://www.topografix.com/GPX/1/1" xmlns:xsi="http://www.w3.org/2001/XMLSchema-instance" xsi:schemaLocation="http://www.topografix.com/GPX/1/1 http://www.topografix.com/GPX/1/1/gpx.xsd" version="1.1" creator="VisuGPX - https://www.visugpx.com">
  <metadata>
    <name>Randonnée Ymare</name>
    <desc><![CDATA[Circuit au départ de Ymare avec un retour par Igoville]]></desc>
  </metadata>
  <trk>
    <name><![CDATA[Randonnée Ymare_1]]></name>
    <trkseg>
      <trkpt lat="49.35126" lon="1.17685">
        <ele>139</ele>
        <time>2017-04-25T13:49:06Z</time>
      </trkpt>
      <trkpt lat="49.35124" lon="1.17686">
        <ele>139</ele>
        <time>2017-04-25T13:49:06Z</time>
      </trkpt>
      <trkpt lat="49.35124" lon="1.17688">
        <ele>139</ele>
        <time>2017-04-25T13:49:06Z</time>
      </trkpt>
      <trkpt lat="49.35124" lon="1.17689">
        <ele>139</ele>
        <time>2017-04-25T13:49:06Z</time>
      </trkpt>
      <trkpt lat="49.35122" lon="1.17689">
        <ele>139</ele>
        <time>2017-04-25T13:49:07Z</time>
      </trkpt>
      <trkpt lat="49.35118" lon="1.17693">
        <ele>139</ele>
        <time>2017-04-25T13:52:30Z</time>
      </trkpt>
      <trkpt lat="49.35117" lon="1.17693">
        <ele>139</ele>
        <time>2017-04-25T13:52:30Z</time>
      </trkpt>
      <trkpt lat="49.35116" lon="1.17694">
        <ele>139</ele>
        <time>2017-04-25T13:52:30Z</time>
      </trkpt>
      <trkpt lat="49.35112" lon="1.17694">
        <ele>139</ele>
        <time>2017-04-25T13:52:30Z</time>
      </trkpt>
      <trkpt lat="49.35109" lon="1.17694">
        <ele>139</ele>
        <time>2017-04-25T13:52:30Z</time>
      </trkpt>
      <trkpt lat="49.35105" lon="1.17695">
        <ele>139</ele>
        <time>2017-04-25T13:52:50Z</time>
      </trkpt>
      <trkpt lat="49.35102" lon="1.17695">
        <ele>139</ele>
        <time>2017-04-25T13:52:50Z</time>
      </trkpt>
      <trkpt lat="49.35101" lon="1.17695">
        <ele>139</ele>
        <time>2017-04-25T13:52:50Z</time>
      </trkpt>
      <trkpt lat="49.35097" lon="1.17696">
        <ele>139</ele>
        <time>2017-04-25T13:52:50Z</time>
      </trkpt>
      <trkpt lat="49.35095" lon="1.17696">
        <ele>139</ele>
        <time>2017-04-25T13:52:50Z</time>
      </trkpt>
      <trkpt lat="49.35088" lon="1.17698">
        <ele>139</ele>
        <time>2017-04-25T13:53:06Z</time>
      </trkpt>
      <trkpt lat="49.35079" lon="1.17701">
        <ele>139</ele>
        <time>2017-04-25T13:53:06Z</time>
      </trkpt>
      <trkpt lat="49.35074" lon="1.17704">
        <ele>139</ele>
        <time>2017-04-25T13:53:06Z</time>
      </trkpt>
      <trkpt lat="49.3507" lon="1.17706">
        <ele>139</ele>
        <time>2017-04-25T13:53:06Z</time>
      </trkpt>
      <trkpt lat="49.35066" lon="1.17708">
        <ele>139</ele>
        <time>2017-04-25T13:53:22Z</time>
      </trkpt>
      <trkpt lat="49.35062" lon="1.17709">
        <ele>140</ele>
        <time>2017-04-25T13:53:22Z</time>
      </trkpt>
      <trkpt lat="49.35057" lon="1.17713">
        <ele>140</ele>
        <time>2017-04-25T13:53:22Z</time>
      </trkpt>
      <trkpt lat="49.35052" lon="1.17716">
        <ele>140</ele>
        <time>2017-04-25T13:53:22Z</time>
      </trkpt>
      <trkpt lat="49.35046" lon="1.1772">
        <ele>140</ele>
        <time>2017-04-25T13:53:38Z</time>
      </trkpt>
      <trkpt lat="49.35043" lon="1.17723">
        <ele>140</ele>
        <time>2017-04-25T13:53:38Z</time>
      </trkpt>
      <trkpt lat="49.3504" lon="1.17725">
        <ele>136</ele>
        <time>2017-04-25T13:53:38Z</time>
      </trkpt>
      <trkpt lat="49.35033" lon="1.17726">
        <ele>136</ele>
        <time>2017-04-25T13:53:38Z</time>
      </trkpt>
      <trkpt lat="49.35029" lon="1.17726">
        <ele>136</ele>
        <time>2017-04-25T13:53:54Z</time>
      </trkpt>
      <trkpt lat="49.35024" lon="1.17727">
        <ele>136</ele>
        <time>2017-04-25T13:53:54Z</time>
      </trkpt>
      <trkpt lat="49.35018" lon="1.17725">
        <ele>136</ele>
        <time>2017-04-25T13:53:54Z</time>
      </trkpt>
      <trkpt lat="49.35014" lon="1.17722">
        <ele>136</ele>
        <time>2017-04-25T13:53:55Z</time>
      </trkpt>
      <trkpt lat="49.35011" lon="1.17715">
        <ele>136</ele>
        <time>2017-04-25T13:54:10Z</time>
      </trkpt>
      <trkpt lat="49.35009" lon="1.17709">
        <ele>136</ele>
        <time>2017-04-25T13:54:10Z</time>
      </trkpt>
      <trkpt lat="49.35007" lon="1.17703">
        <ele>135</ele>
        <time>2017-04-25T13:54:10Z</time>
      </trkpt>
      <trkpt lat="49.35005" lon="1.17698">
        <ele>135</ele>
        <time>2017-04-25T13:54:11Z</time>
      </trkpt>
      <trkpt lat="49.35002" lon="1.17692">
        <ele>135</ele>
        <time>2017-04-25T13:54:26Z</time>
      </trkpt>
      <trkpt lat="49.35" lon="1.17686">
        <ele>135</ele>
        <time>2017-04-25T13:54:26Z</time>
      </trkpt>
      <trkpt lat="49.34997" lon="1.17682">
        <ele>135</ele>
        <time>2017-04-25T13:54:26Z</time>
      </trkpt>
      <trkpt lat="49.34996" lon="1.17676">
        <ele>135</ele>
        <time>2017-04-25T13:54:26Z</time>
      </trkpt>
      <trkpt lat="49.34994" lon="1.17672">
        <ele>135</ele>
        <time>2017-04-25T13:54:42Z</time>
      </trkpt>
      <trkpt lat="49.34991" lon="1.17664">
        <ele>135</ele>
        <time>2017-04-25T13:54:42Z</time>
      </trkpt>
      <trkpt lat="49.3499" lon="1.17658">
        <ele>135</ele>
        <time>2017-04-25T13:54:42Z</time>
      </trkpt>
      <trkpt lat="49.34987" lon="1.17649">
        <ele>135</ele>
        <time>2017-04-25T13:54:42Z</time>
      </trkpt>
      <trkpt lat="49.34984" lon="1.17642">
        <ele>135</ele>
        <time>2017-04-25T13:54:58Z</time>
      </trkpt>
      <trkpt lat="49.34982" lon="1.17637">
        <ele>135</ele>
        <time>2017-04-25T13:54:58Z</time>
      </trkpt>
      <trkpt lat="49.3498" lon="1.17632">
        <ele>135</ele>
        <time>2017-04-25T13:54:58Z</time>
      </trkpt>
      <trkpt lat="49.34978" lon="1.17627">
        <ele>135</ele>
        <time>2017-04-25T13:54:58Z</time>
      </trkpt>
      <trkpt lat="49.34975" lon="1.17619">
        <ele>135</ele>
        <time>2017-04-25T13:55:14Z</time>
      </trkpt>
      <trkpt lat="49.34973" lon="1.17613">
        <ele>135</ele>
        <time>2017-04-25T13:55:14Z</time>
      </trkpt>
      <trkpt lat="49.3497" lon="1.17606">
        <ele>135</ele>
        <time>2017-04-25T13:55:14Z</time>
      </trkpt>
      <trkpt lat="49.34967" lon="1.17599">
        <ele>135</ele>
        <time>2017-04-25T13:55:14Z</time>
      </trkpt>
      <trkpt lat="49.34965" lon="1.17595">
        <ele>135</ele>
        <time>2017-04-25T13:55:30Z</time>
      </trkpt>
      <trkpt lat="49.34962" lon="1.17589">
        <ele>135</ele>
        <time>2017-04-25T13:55:30Z</time>
      </trkpt>
      <trkpt lat="49.34958" lon="1.17584">
        <ele>132</ele>
        <time>2017-04-25T13:55:30Z</time>
      </trkpt>
      <trkpt lat="49.34957" lon="1.17577">
        <ele>132</ele>
        <time>2017-04-25T13:55:30Z</time>
      </trkpt>
      <trkpt lat="49.34953" lon="1.17572">
        <ele>132</ele>
        <time>2017-04-25T13:55:46Z</time>
      </trkpt>
      <trkpt lat="49.3495" lon="1.17568">
        <ele>132</ele>
        <time>2017-04-25T13:55:46Z</time>
      </trkpt>
      <trkpt lat="49.34946" lon="1.17562">
        <ele>132</ele>
        <time>2017-04-25T13:55:46Z</time>
      </trkpt>
      <trkpt lat="49.34942" lon="1.17559">
        <ele>132</ele>
        <time>2017-04-25T13:55:46Z</time>
      </trkpt>
      <trkpt lat="49.3494" lon="1.17555">
        <ele>132</ele>
        <time>2017-04-25T13:56:02Z</time>
      </trkpt>
      <trkpt lat="49.34935" lon="1.17551">
        <ele>132</ele>
        <time>2017-04-25T13:56:02Z</time>
      </trkpt>
      <trkpt lat="49.34931" lon="1.17548">
        <ele>132</ele>
        <time>2017-04-25T13:56:02Z</time>
      </trkpt>
      <trkpt lat="49.34929" lon="1.17544">
        <ele>132</ele>
        <time>2017-04-25T13:56:02Z</time>
      </trkpt>
      <trkpt lat="49.34925" lon="1.1754">
        <ele>131</ele>
        <time>2017-04-25T13:56:18Z</time>
      </trkpt>
      <trkpt lat="49.3492" lon="1.17537">
        <ele>131</ele>
        <time>2017-04-25T13:56:18Z</time>
      </trkpt>
      <trkpt lat="49.34916" lon="1.17534">
        <ele>131</ele>
        <time>2017-04-25T13:56:18Z</time>
      </trkpt>
      <trkpt lat="49.34913" lon="1.17531">
        <ele>131</ele>
        <time>2017-04-25T13:56:18Z</time>
      </trkpt>
      <trkpt lat="49.34908" lon="1.17527">
        <ele>131</ele>
        <time>2017-04-25T13:56:34Z</time>
      </trkpt>
      <trkpt lat="49.34903" lon="1.17522">
        <ele>131</ele>
        <time>2017-04-25T13:56:34Z</time>
      </trkpt>
      <trkpt lat="49.34899" lon="1.1752">
        <ele>131</ele>
        <time>2017-04-25T13:56:34Z</time>
      </trkpt>
      <trkpt lat="49.34895" lon="1.17516">
        <ele>131</ele>
        <time>2017-04-25T13:56:34Z</time>
      </trkpt>
      <trkpt lat="49.34892" lon="1.17514">
        <ele>131</ele>
        <time>2017-04-25T13:56:50Z</time>
      </trkpt>
      <trkpt lat="49.34889" lon="1.17514">
        <ele>131</ele>
        <time>2017-04-25T13:56:50Z</time>
      </trkpt>
      <trkpt lat="49.34885" lon="1.17519">
        <ele>131</ele>
        <time>2017-04-25T13:56:50Z</time>
      </trkpt>
      <trkpt lat="49.34882" lon="1.17522">
        <ele>131</ele>
        <time>2017-04-25T13:56:51Z</time>
      </trkpt>
      <trkpt lat="49.34877" lon="1.17526">
        <ele>131</ele>
        <time>2017-04-25T13:57:06Z</time>
      </trkpt>
      <trkpt lat="49.34872" lon="1.1753">
        <ele>128</ele>
        <time>2017-04-25T13:57:06Z</time>
      </trkpt>
      <trkpt lat="49.34867" lon="1.17533">
        <ele>128</ele>
        <time>2017-04-25T13:57:06Z</time>
      </trkpt>
      <trkpt lat="49.34863" lon="1.17533">
        <ele>128</ele>
        <time>2017-04-25T13:57:07Z</time>
      </trkpt>
      <trkpt lat="49.34858" lon="1.17535">
        <ele>128</ele>
        <time>2017-04-25T13:57:22Z</time>
      </trkpt>
      <trkpt lat="49.34855" lon="1.17535">
        <ele>128</ele>
        <time>2017-04-25T13:57:22Z</time>
      </trkpt>
      <trkpt lat="49.34852" lon="1.17534">
        <ele>128</ele>
        <time>2017-04-25T13:57:22Z</time>
      </trkpt>
      <trkpt lat="49.34845" lon="1.17534">
        <ele>128</ele>
        <time>2017-04-25T13:57:22Z</time>
      </trkpt>
      <trkpt lat="49.34839" lon="1.1753">
        <ele>128</ele>
        <time>2017-04-25T13:57:38Z</time>
      </trkpt>
      <trkpt lat="49.34834" lon="1.17528">
        <ele>128</ele>
        <time>2017-04-25T13:57:39Z</time>
      </trkpt>
      <trkpt lat="49.34829" lon="1.17525">
        <ele>128</ele>
        <time>2017-04-25T13:57:39Z</time>
      </trkpt>
      <trkpt lat="49.34825" lon="1.17521">
        <ele>128</ele>
        <time>2017-04-25T13:57:39Z</time>
      </trkpt>
      <trkpt lat="49.3482" lon="1.17517">
        <ele>128</ele>
        <time>2017-04-25T13:57:54Z</time>
      </trkpt>
      <trkpt lat="49.34816" lon="1.17513">
        <ele>128</ele>
        <time>2017-04-25T13:57:54Z</time>
      </trkpt>
      <trkpt lat="49.34811" lon="1.17511">
        <ele>128</ele>
        <time>2017-04-25T13:57:54Z</time>
      </trkpt>
      <trkpt lat="49.34806" lon="1.17507">
        <ele>128</ele>
        <time>2017-04-25T13:57:55Z</time>
      </trkpt>
      <trkpt lat="49.34803" lon="1.17505">
        <ele>128</ele>
        <time>2017-04-25T13:58:10Z</time>
      </trkpt>
      <trkpt lat="49.34799" lon="1.17501">
        <ele>128</ele>
        <time>2017-04-25T13:58:10Z</time>
      </trkpt>
      <trkpt lat="49.34794" lon="1.17495">
        <ele>128</ele>
        <time>2017-04-25T13:58:10Z</time>
      </trkpt>
      <trkpt lat="49.3479" lon="1.17491">
        <ele>130</ele>
        <time>2017-04-25T13:58:10Z</time>
      </trkpt>
      <trkpt lat="49.34785" lon="1.17486">
        <ele>130</ele>
        <time>2017-04-25T13:58:26Z</time>
      </trkpt>
      <trkpt lat="49.34783" lon="1.17482">
        <ele>130</ele>
        <time>2017-04-25T13:58:26Z</time>
      </trkpt>
      <trkpt lat="49.34779" lon="1.17477">
        <ele>130</ele>
        <time>2017-04-25T13:58:26Z</time>
      </trkpt>
      <trkpt lat="49.34776" lon="1.17472">
        <ele>130</ele>
        <time>2017-04-25T13:58:27Z</time>
      </trkpt>
      <trkpt lat="49.3477" lon="1.17466">
        <ele>130</ele>
        <time>2017-04-25T13:58:42Z</time>
      </trkpt>
      <trkpt lat="49.34766" lon="1.17463">
        <ele>130</ele>
        <time>2017-04-25T13:58:42Z</time>
      </trkpt>
      <trkpt lat="49.34762" lon="1.17459">
        <ele>130</ele>
        <time>2017-04-25T13:58:42Z</time>
      </trkpt>
      <trkpt lat="49.3476" lon="1.17455">
        <ele>126</ele>
        <time>2017-04-25T13:58:42Z</time>
      </trkpt>
      <trkpt lat="49.34758" lon="1.17449">
        <ele>126</ele>
        <time>2017-04-25T13:58:58Z</time>
      </trkpt>
      <trkpt lat="49.34755" lon="1.17444">
        <ele>126</ele>
        <time>2017-04-25T13:58:58Z</time>
      </trkpt>
      <trkpt lat="49.3475" lon="1.17439">
        <ele>126</ele>
        <time>2017-04-25T13:58:58Z</time>
      </trkpt>
      <trkpt lat="49.34743" lon="1.17437">
        <ele>126</ele>
        <time>2017-04-25T13:58:58Z</time>
      </trkpt>
      <trkpt lat="49.34738" lon="1.17432">
        <ele>126</ele>
        <time>2017-04-25T13:59:14Z</time>
      </trkpt>
      <trkpt lat="49.34734" lon="1.17427">
        <ele>126</ele>
        <time>2017-04-25T13:59:14Z</time>
      </trkpt>
      <trkpt lat="49.34729" lon="1.17421">
        <ele>126</ele>
        <time>2017-04-25T13:59:14Z</time>
      </trkpt>
      <trkpt lat="49.34723" lon="1.17418">
        <ele>126</ele>
        <time>2017-04-25T13:59:14Z</time>
      </trkpt>
      <trkpt lat="49.3472" lon="1.17416">
        <ele>126</ele>
        <time>2017-04-25T13:59:30Z</time>
      </trkpt>
      <trkpt lat="49.34715" lon="1.17412">
        <ele>126</ele>
        <time>2017-04-25T13:59:30Z</time>
      </trkpt>
      <trkpt lat="49.34712" lon="1.17408">
        <ele>126</ele>
        <time>2017-04-25T13:59:30Z</time>
      </trkpt>
      <trkpt lat="49.34708" lon="1.17402">
        <ele>128</ele>
        <time>2017-04-25T13:59:30Z</time>
      </trkpt>
      <trkpt lat="49.34704" lon="1.17398">
        <ele>128</ele>
        <time>2017-04-25T13:59:46Z</time>
      </trkpt>
      <trkpt lat="49.347" lon="1.17393">
        <ele>128</ele>
        <time>2017-04-25T13:59:46Z</time>
      </trkpt>
      <trkpt lat="49.34697" lon="1.17387">
        <ele>128</ele>
        <time>2017-04-25T13:59:46Z</time>
      </trkpt>
      <trkpt lat="49.34693" lon="1.17381">
        <ele>128</ele>
        <time>2017-04-25T13:59:46Z</time>
      </trkpt>
      <trkpt lat="49.34689" lon="1.17374">
        <ele>127</ele>
        <time>2017-04-25T14:00:02Z</time>
      </trkpt>
      <trkpt lat="49.34687" lon="1.17367">
        <ele>127</ele>
        <time>2017-04-25T14:00:02Z</time>
      </trkpt>
      <trkpt lat="49.34683" lon="1.17359">
        <ele>127</ele>
        <time>2017-04-25T14:00:02Z</time>
      </trkpt>
      <trkpt lat="49.34681" lon="1.17353">
        <ele>127</ele>
        <time>2017-04-25T14:00:02Z</time>
      </trkpt>
      <trkpt lat="49.34679" lon="1.17345">
        <ele>127</ele>
        <time>2017-04-25T14:00:18Z</time>
      </trkpt>
      <trkpt lat="49.34677" lon="1.17339">
        <ele>127</ele>
        <time>2017-04-25T14:00:18Z</time>
      </trkpt>
      <trkpt lat="49.34675" lon="1.17331">
        <ele>127</ele>
        <time>2017-04-25T14:00:18Z</time>
      </trkpt>
      <trkpt lat="49.34673" lon="1.17324">
        <ele>127</ele>
        <time>2017-04-25T14:00:18Z</time>
      </trkpt>
      <trkpt lat="49.34671" lon="1.17317">
        <ele>127</ele>
        <time>2017-04-25T14:00:34Z</time>
      </trkpt>
      <trkpt lat="49.3467" lon="1.17311">
        <ele>127</ele>
        <time>2017-04-25T14:00:34Z</time>
      </trkpt>
      <trkpt lat="49.34669" lon="1.17303">
        <ele>127</ele>
        <time>2017-04-25T14:00:34Z</time>
      </trkpt>
      <trkpt lat="49.34667" lon="1.17298">
        <ele>127</ele>
        <time>2017-04-25T14:00:34Z</time>
      </trkpt>
      <trkpt lat="49.34666" lon="1.1729">
        <ele>126</ele>
        <time>2017-04-25T14:00:50Z</time>
      </trkpt>
      <trkpt lat="49.34664" lon="1.17283">
        <ele>126</ele>
        <time>2017-04-25T14:00:50Z</time>
      </trkpt>
      <trkpt lat="49.34661" lon="1.17275">
        <ele>126</ele>
        <time>2017-04-25T14:00:50Z</time>
      </trkpt>
      <trkpt lat="49.34659" lon="1.17269">
        <ele>126</ele>
        <time>2017-04-25T14:00:51Z</time>
      </trkpt>
      <trkpt lat="49.34657" lon="1.17263">
        <ele>126</ele>
        <time>2017-04-25T14:01:06Z</time>
      </trkpt>
      <trkpt lat="49.34655" lon="1.17257">
        <ele>126</ele>
        <time>2017-04-25T14:01:06Z</time>
      </trkpt>
      <trkpt lat="49.34651" lon="1.17252">
        <ele>126</ele>
        <time>2017-04-25T14:01:06Z</time>
      </trkpt>
      <trkpt lat="49.34649" lon="1.1725">
        <ele>126</ele>
        <time>2017-04-25T14:01:06Z</time>
      </trkpt>
      <trkpt lat="49.34645" lon="1.17252">
        <ele>126</ele>
        <time>2017-04-25T14:01:22Z</time>
      </trkpt>
      <trkpt lat="49.34641" lon="1.17255">
        <ele>126</ele>
        <time>2017-04-25T14:01:22Z</time>
      </trkpt>
      <trkpt lat="49.34637" lon="1.17256">
        <ele>126</ele>
        <time>2017-04-25T14:01:22Z</time>
      </trkpt>
      <trkpt lat="49.34632" lon="1.17258">
        <ele>126</ele>
        <time>2017-04-25T14:01:22Z</time>
      </trkpt>
      <trkpt lat="49.34628" lon="1.17261">
        <ele>126</ele>
        <time>2017-04-25T14:01:38Z</time>
      </trkpt>
      <trkpt lat="49.34624" lon="1.17261">
        <ele>130</ele>
        <time>2017-04-25T14:01:38Z</time>
      </trkpt>
      <trkpt lat="49.34619" lon="1.17263">
        <ele>130</ele>
        <time>2017-04-25T14:01:38Z</time>
      </trkpt>
      <trkpt lat="49.34614" lon="1.17266">
        <ele>130</ele>
        <time>2017-04-25T14:01:38Z</time>
      </trkpt>
      <trkpt lat="49.34608" lon="1.1727">
        <ele>130</ele>
        <time>2017-04-25T14:01:54Z</time>
      </trkpt>
      <trkpt lat="49.34606" lon="1.17269">
        <ele>130</ele>
        <time>2017-04-25T14:01:54Z</time>
      </trkpt>
      <trkpt lat="49.34602" lon="1.1727">
        <ele>130</ele>
        <time>2017-04-25T14:01:54Z</time>
      </trkpt>
      <trkpt lat="49.34597" lon="1.17273">
        <ele>130</ele>
        <time>2017-04-25T14:01:54Z</time>
      </trkpt>
      <trkpt lat="49.34594" lon="1.17276">
        <ele>130</ele>
        <time>2017-04-25T14:02:10Z</time>
      </trkpt>
      <trkpt lat="49.34588" lon="1.17278">
        <ele>130</ele>
        <time>2017-04-25T14:02:10Z</time>
      </trkpt>
      <trkpt lat="49.34584" lon="1.1728">
        <ele>130</ele>
        <time>2017-04-25T14:02:10Z</time>
      </trkpt>
      <trkpt lat="49.3458" lon="1.17281">
        <ele>130</ele>
        <time>2017-04-25T14:02:10Z</time>
      </trkpt>
      <trkpt lat="49.34577" lon="1.17283">
        <ele>130</ele>
        <time>2017-04-25T14:02:26Z</time>
      </trkpt>
      <trkpt lat="49.34572" lon="1.17285">
        <ele>130</ele>
        <time>2017-04-25T14:02:26Z</time>
      </trkpt>
      <trkpt lat="49.34567" lon="1.17286">
        <ele>130</ele>
        <time>2017-04-25T14:02:26Z</time>
      </trkpt>
      <trkpt lat="49.34563" lon="1.17286">
        <ele>130</ele>
        <time>2017-04-25T14:02:26Z</time>
      </trkpt>
      <trkpt lat="49.34562" lon="1.17285">
        <ele>130</ele>
        <time>2017-04-25T14:02:46Z</time>
      </trkpt>
      <trkpt lat="49.34561" lon="1.17284">
        <ele>130</ele>
        <time>2017-04-25T14:02:46Z</time>
      </trkpt>
      <trkpt lat="49.34559" lon="1.17282">
        <ele>130</ele>
        <time>2017-04-25T14:02:46Z</time>
      </trkpt>
      <trkpt lat="49.34556" lon="1.17277">
        <ele>130</ele>
        <time>2017-04-25T14:02:46Z</time>
      </trkpt>
      <trkpt lat="49.34554" lon="1.17273">
        <ele>130</ele>
        <time>2017-04-25T14:02:47Z</time>
      </trkpt>
      <trkpt lat="49.34552" lon="1.17268">
        <ele>130</ele>
        <time>2017-04-25T14:03:02Z</time>
      </trkpt>
      <trkpt lat="49.3455" lon="1.17259">
        <ele>130</ele>
        <time>2017-04-25T14:03:02Z</time>
      </trkpt>
      <trkpt lat="49.34548" lon="1.17252">
        <ele>130</ele>
        <time>2017-04-25T14:03:02Z</time>
      </trkpt>
      <trkpt lat="49.34546" lon="1.17248">
        <ele>130</ele>
        <time>2017-04-25T14:03:03Z</time>
      </trkpt>
      <trkpt lat="49.34546" lon="1.17237">
        <ele>130</ele>
        <time>2017-04-25T14:03:18Z</time>
      </trkpt>
      <trkpt lat="49.34545" lon="1.17228">
        <ele>130</ele>
        <time>2017-04-25T14:03:18Z</time>
      </trkpt>
      <trkpt lat="49.34543" lon="1.17222">
        <ele>130</ele>
        <time>2017-04-25T14:03:18Z</time>
      </trkpt>
      <trkpt lat="49.34542" lon="1.17213">
        <ele>130</ele>
        <time>2017-04-25T14:03:18Z</time>
      </trkpt>
      <trkpt lat="49.34541" lon="1.17205">
        <ele>128</ele>
        <time>2017-04-25T14:03:34Z</time>
      </trkpt>
      <trkpt lat="49.3454" lon="1.17196">
        <ele>128</ele>
        <time>2017-04-25T14:03:34Z</time>
      </trkpt>
      <trkpt lat="49.34539" lon="1.17187">
        <ele>128</ele>
        <time>2017-04-25T14:03:34Z</time>
      </trkpt>
      <trkpt lat="49.34538" lon="1.1718">
        <ele>128</ele>
        <time>2017-04-25T14:03:34Z</time>
      </trkpt>
      <trkpt lat="49.34537" lon="1.17173">
        <ele>128</ele>
        <time>2017-04-25T14:03:50Z</time>
      </trkpt>
      <trkpt lat="49.34537" lon="1.17165">
        <ele>128</ele>
        <time>2017-04-25T14:03:50Z</time>
      </trkpt>
      <trkpt lat="49.34537" lon="1.17157">
        <ele>128</ele>
        <time>2017-04-25T14:03:50Z</time>
      </trkpt>
      <trkpt lat="49.34537" lon="1.17149">
        <ele>128</ele>
        <time>2017-04-25T14:03:50Z</time>
      </trkpt>
      <trkpt lat="49.34536" lon="1.17142">
        <ele>128</ele>
        <time>2017-04-25T14:04:06Z</time>
      </trkpt>
      <trkpt lat="49.34536" lon="1.17135">
        <ele>128</ele>
        <time>2017-04-25T14:04:06Z</time>
      </trkpt>
      <trkpt lat="49.34534" lon="1.17128">
        <ele>128</ele>
        <time>2017-04-25T14:04:06Z</time>
      </trkpt>
      <trkpt lat="49.34534" lon="1.17121">
        <ele>126</ele>
        <time>2017-04-25T14:04:06Z</time>
      </trkpt>
      <trkpt lat="49.34534" lon="1.17115">
        <ele>126</ele>
        <time>2017-04-25T14:04:22Z</time>
      </trkpt>
      <trkpt lat="49.34533" lon="1.17106">
        <ele>126</ele>
        <time>2017-04-25T14:04:22Z</time>
      </trkpt>
      <trkpt lat="49.34532" lon="1.17096">
        <ele>126</ele>
        <time>2017-04-25T14:04:22Z</time>
      </trkpt>
      <trkpt lat="49.34532" lon="1.17086">
        <ele>126</ele>
        <time>2017-04-25T14:04:22Z</time>
      </trkpt>
      <trkpt lat="49.34531" lon="1.1708">
        <ele>126</ele>
        <time>2017-04-25T14:04:38Z</time>
      </trkpt>
      <trkpt lat="49.34529" lon="1.17073">
        <ele>126</ele>
        <time>2017-04-25T14:04:38Z</time>
      </trkpt>
      <trkpt lat="49.34525" lon="1.17069">
        <ele>126</ele>
        <time>2017-04-25T14:04:38Z</time>
      </trkpt>
      <trkpt lat="49.34523" lon="1.17062">
        <ele>126</ele>
        <time>2017-04-25T14:04:38Z</time>
      </trkpt>
      <trkpt lat="49.3452" lon="1.17054">
        <ele>126</ele>
        <time>2017-04-25T14:04:54Z</time>
      </trkpt>
      <trkpt lat="49.34517" lon="1.17049">
        <ele>126</ele>
        <time>2017-04-25T14:04:54Z</time>
      </trkpt>
      <trkpt lat="49.34514" lon="1.1704">
        <ele>121</ele>
        <time>2017-04-25T14:04:54Z</time>
      </trkpt>
      <trkpt lat="49.34512" lon="1.17036">
        <ele>121</ele>
        <time>2017-04-25T14:04:54Z</time>
      </trkpt>
      <trkpt lat="49.34509" lon="1.17032">
        <ele>121</ele>
        <time>2017-04-25T14:05:10Z</time>
      </trkpt>
      <trkpt lat="49.34506" lon="1.17025">
        <ele>121</ele>
        <time>2017-04-25T14:05:10Z</time>
      </trkpt>
      <trkpt lat="49.34502" lon="1.17019">
        <ele>121</ele>
        <time>2017-04-25T14:05:10Z</time>
      </trkpt>
      <trkpt lat="49.345" lon="1.17011">
        <ele>121</ele>
        <time>2017-04-25T14:05:10Z</time>
      </trkpt>
      <trkpt lat="49.34498" lon="1.17005">
        <ele>121</ele>
        <time>2017-04-25T14:05:26Z</time>
      </trkpt>
      <trkpt lat="49.34494" lon="1.16998">
        <ele>121</ele>
        <time>2017-04-25T14:05:26Z</time>
      </trkpt>
      <trkpt lat="49.34492" lon="1.16989">
        <ele>121</ele>
        <time>2017-04-25T14:05:26Z</time>
      </trkpt>
      <trkpt lat="49.34489" lon="1.16983">
        <ele>121</ele>
        <time>2017-04-25T14:05:26Z</time>
      </trkpt>
      <trkpt lat="49.34485" lon="1.16977">
        <ele>121</ele>
        <time>2017-04-25T14:05:42Z</time>
      </trkpt>
      <trkpt lat="49.34483" lon="1.16971">
        <ele>121</ele>
        <time>2017-04-25T14:05:42Z</time>
      </trkpt>
      <trkpt lat="49.34481" lon="1.16967">
        <ele>121</ele>
        <time>2017-04-25T14:05:42Z</time>
      </trkpt>
      <trkpt lat="49.3448" lon="1.16962">
        <ele>121</ele>
        <time>2017-04-25T14:05:42Z</time>
      </trkpt>
      <trkpt lat="49.34477" lon="1.16956">
        <ele>118</ele>
        <time>2017-04-25T14:05:58Z</time>
      </trkpt>
      <trkpt lat="49.34475" lon="1.16948">
        <ele>118</ele>
        <time>2017-04-25T14:05:58Z</time>
      </trkpt>
      <trkpt lat="49.34473" lon="1.1694">
        <ele>118</ele>
        <time>2017-04-25T14:05:58Z</time>
      </trkpt>
      <trkpt lat="49.34471" lon="1.16933">
        <ele>118</ele>
        <time>2017-04-25T14:05:58Z</time>
      </trkpt>
      <trkpt lat="49.3447" lon="1.16926">
        <ele>118</ele>
        <time>2017-04-25T14:06:14Z</time>
      </trkpt>
      <trkpt lat="49.34468" lon="1.16921">
        <ele>118</ele>
        <time>2017-04-25T14:06:14Z</time>
      </trkpt>
      <trkpt lat="49.34466" lon="1.16916">
        <ele>118</ele>
        <time>2017-04-25T14:06:14Z</time>
      </trkpt>
      <trkpt lat="49.34464" lon="1.16909">
        <ele>118</ele>
        <time>2017-04-25T14:06:14Z</time>
      </trkpt>
      <trkpt lat="49.34459" lon="1.16904">
        <ele>118</ele>
        <time>2017-04-25T14:06:30Z</time>
      </trkpt>
      <trkpt lat="49.34457" lon="1.169">
        <ele>113</ele>
        <time>2017-04-25T14:06:30Z</time>
      </trkpt>
      <trkpt lat="49.34455" lon="1.16891">
        <ele>113</ele>
        <time>2017-04-25T14:06:30Z</time>
      </trkpt>
      <trkpt lat="49.34453" lon="1.16886">
        <ele>113</ele>
        <time>2017-04-25T14:06:30Z</time>
      </trkpt>
      <trkpt lat="49.34453" lon="1.16879">
        <ele>113</ele>
        <time>2017-04-25T14:06:46Z</time>
      </trkpt>
      <trkpt lat="49.34453" lon="1.16872">
        <ele>109</ele>
        <time>2017-04-25T14:06:46Z</time>
      </trkpt>
      <trkpt lat="49.34452" lon="1.16866">
        <ele>109</ele>
        <time>2017-04-25T14:06:46Z</time>
      </trkpt>
      <trkpt lat="49.3445" lon="1.16858">
        <ele>109</ele>
        <time>2017-04-25T14:06:46Z</time>
      </trkpt>
      <trkpt lat="49.34448" lon="1.16849">
        <ele>109</ele>
        <time>2017-04-25T14:07:02Z</time>
      </trkpt>
      <trkpt lat="49.34446" lon="1.16844">
        <ele>109</ele>
        <time>2017-04-25T14:07:02Z</time>
      </trkpt>
      <trkpt lat="49.34445" lon="1.16837">
        <ele>109</ele>
        <time>2017-04-25T14:07:02Z</time>
      </trkpt>
      <trkpt lat="49.34443" lon="1.16829">
        <ele>109</ele>
        <time>2017-04-25T14:07:02Z</time>
      </trkpt>
      <trkpt lat="49.3444" lon="1.16824">
        <ele>109</ele>
        <time>2017-04-25T14:07:18Z</time>
      </trkpt>
      <trkpt lat="49.34439" lon="1.16818">
        <ele>109</ele>
        <time>2017-04-25T14:07:18Z</time>
      </trkpt>
      <trkpt lat="49.34437" lon="1.1681">
        <ele>109</ele>
        <time>2017-04-25T14:07:18Z</time>
      </trkpt>
      <trkpt lat="49.34434" lon="1.16805">
        <ele>109</ele>
        <time>2017-04-25T14:07:19Z</time>
      </trkpt>
      <trkpt lat="49.34432" lon="1.16799">
        <ele>109</ele>
        <time>2017-04-25T14:07:34Z</time>
      </trkpt>
      <trkpt lat="49.34427" lon="1.16792">
        <ele>109</ele>
        <time>2017-04-25T14:07:34Z</time>
      </trkpt>
      <trkpt lat="49.34425" lon="1.16786">
        <ele>104</ele>
        <time>2017-04-25T14:07:34Z</time>
      </trkpt>
      <trkpt lat="49.34424" lon="1.16779">
        <ele>104</ele>
        <time>2017-04-25T14:07:34Z</time>
      </trkpt>
      <trkpt lat="49.34423" lon="1.16774">
        <ele>104</ele>
        <time>2017-04-25T14:07:50Z</time>
      </trkpt>
      <trkpt lat="49.34421" lon="1.16765">
        <ele>104</ele>
        <time>2017-04-25T14:07:50Z</time>
      </trkpt>
      <trkpt lat="49.34419" lon="1.16759">
        <ele>104</ele>
        <time>2017-04-25T14:07:50Z</time>
      </trkpt>
      <trkpt lat="49.34416" lon="1.16751">
        <ele>104</ele>
        <time>2017-04-25T14:07:50Z</time>
      </trkpt>
      <trkpt lat="49.34416" lon="1.16745">
        <ele>104</ele>
        <time>2017-04-25T14:08:06Z</time>
      </trkpt>
      <trkpt lat="49.34415" lon="1.16739">
        <ele>104</ele>
        <time>2017-04-25T14:08:06Z</time>
      </trkpt>
      <trkpt lat="49.34413" lon="1.16734">
        <ele>104</ele>
        <time>2017-04-25T14:08:06Z</time>
      </trkpt>
      <trkpt lat="49.34412" lon="1.16725">
        <ele>104</ele>
        <time>2017-04-25T14:08:06Z</time>
      </trkpt>
      <trkpt lat="49.34409" lon="1.16718">
        <ele>104</ele>
        <time>2017-04-25T14:08:22Z</time>
      </trkpt>
      <trkpt lat="49.34407" lon="1.16714">
        <ele>104</ele>
        <time>2017-04-25T14:08:22Z</time>
      </trkpt>
      <trkpt lat="49.34407" lon="1.16703">
        <ele>101</ele>
        <time>2017-04-25T14:08:22Z</time>
      </trkpt>
      <trkpt lat="49.34406" lon="1.16692">
        <ele>101</ele>
        <time>2017-04-25T14:08:22Z</time>
      </trkpt>
      <trkpt lat="49.34405" lon="1.16683">
        <ele>101</ele>
        <time>2017-04-25T14:08:38Z</time>
      </trkpt>
      <trkpt lat="49.34403" lon="1.16676">
        <ele>101</ele>
        <time>2017-04-25T14:08:38Z</time>
      </trkpt>
      <trkpt lat="49.34403" lon="1.16668">
        <ele>101</ele>
        <time>2017-04-25T14:08:39Z</time>
      </trkpt>
      <trkpt lat="49.34403" lon="1.1666">
        <ele>101</ele>
        <time>2017-04-25T14:08:39Z</time>
      </trkpt>
      <trkpt lat="49.34403" lon="1.16654">
        <ele>101</ele>
        <time>2017-04-25T14:08:54Z</time>
      </trkpt>
      <trkpt lat="49.34404" lon="1.16649">
        <ele>101</ele>
        <time>2017-04-25T14:08:54Z</time>
      </trkpt>
      <trkpt lat="49.34406" lon="1.1664">
        <ele>101</ele>
        <time>2017-04-25T14:08:54Z</time>
      </trkpt>
      <trkpt lat="49.34408" lon="1.16634">
        <ele>101</ele>
        <time>2017-04-25T14:08:54Z</time>
      </trkpt>
      <trkpt lat="49.34409" lon="1.16628">
        <ele>101</ele>
        <time>2017-04-25T14:09:10Z</time>
      </trkpt>
      <trkpt lat="49.34407" lon="1.16617">
        <ele>94</ele>
        <time>2017-04-25T14:09:10Z</time>
      </trkpt>
      <trkpt lat="49.34408" lon="1.16607">
        <ele>94</ele>
        <time>2017-04-25T14:09:10Z</time>
      </trkpt>
      <trkpt lat="49.34407" lon="1.16602">
        <ele>94</ele>
        <time>2017-04-25T14:09:10Z</time>
      </trkpt>
      <trkpt lat="49.34404" lon="1.16597">
        <ele>94</ele>
        <time>2017-04-25T14:09:26Z</time>
      </trkpt>
      <trkpt lat="49.344" lon="1.16593">
        <ele>94</ele>
        <time>2017-04-25T14:09:26Z</time>
      </trkpt>
      <trkpt lat="49.34399" lon="1.16588">
        <ele>94</ele>
        <time>2017-04-25T14:09:26Z</time>
      </trkpt>
      <trkpt lat="49.34397" lon="1.16583">
        <ele>94</ele>
        <time>2017-04-25T14:09:26Z</time>
      </trkpt>
      <trkpt lat="49.34395" lon="1.16575">
        <ele>94</ele>
        <time>2017-04-25T14:09:42Z</time>
      </trkpt>
      <trkpt lat="49.34392" lon="1.16569">
        <ele>94</ele>
        <time>2017-04-25T14:09:42Z</time>
      </trkpt>
      <trkpt lat="49.3439" lon="1.16564">
        <ele>94</ele>
        <time>2017-04-25T14:09:42Z</time>
      </trkpt>
      <trkpt lat="49.34388" lon="1.1656">
        <ele>94</ele>
        <time>2017-04-25T14:09:42Z</time>
      </trkpt>
      <trkpt lat="49.34385" lon="1.16553">
        <ele>94</ele>
        <time>2017-04-25T14:09:58Z</time>
      </trkpt>
      <trkpt lat="49.34379" lon="1.16544">
        <ele>94</ele>
        <time>2017-04-25T14:09:58Z</time>
      </trkpt>
      <trkpt lat="49.34376" lon="1.16539">
        <ele>86</ele>
        <time>2017-04-25T14:09:58Z</time>
      </trkpt>
      <trkpt lat="49.34374" lon="1.16533">
        <ele>87</ele>
        <time>2017-04-25T14:09:58Z</time>
      </trkpt>
      <trkpt lat="49.3437" lon="1.16524">
        <ele>87</ele>
        <time>2017-04-25T14:10:14Z</time>
      </trkpt>
      <trkpt lat="49.34368" lon="1.16519">
        <ele>87</ele>
        <time>2017-04-25T14:10:14Z</time>
      </trkpt>
      <trkpt lat="49.34365" lon="1.16512">
        <ele>87</ele>
        <time>2017-04-25T14:10:14Z</time>
      </trkpt>
      <trkpt lat="49.34362" lon="1.16508">
        <ele>87</ele>
        <time>2017-04-25T14:10:14Z</time>
      </trkpt>
      <trkpt lat="49.3436" lon="1.16501">
        <ele>87</ele>
        <time>2017-04-25T14:10:30Z</time>
      </trkpt>
      <trkpt lat="49.34355" lon="1.16493">
        <ele>87</ele>
        <time>2017-04-25T14:10:30Z</time>
      </trkpt>
      <trkpt lat="49.3435" lon="1.16486">
        <ele>87</ele>
        <time>2017-04-25T14:10:30Z</time>
      </trkpt>
      <trkpt lat="49.34349" lon="1.16481">
        <ele>87</ele>
        <time>2017-04-25T14:10:30Z</time>
      </trkpt>
      <trkpt lat="49.34347" lon="1.16475">
        <ele>87</ele>
        <time>2017-04-25T14:10:46Z</time>
      </trkpt>
      <trkpt lat="49.34345" lon="1.16469">
        <ele>87</ele>
        <time>2017-04-25T14:10:46Z</time>
      </trkpt>
      <trkpt lat="49.34343" lon="1.16462">
        <ele>87</ele>
        <time>2017-04-25T14:10:46Z</time>
      </trkpt>
      <trkpt lat="49.34341" lon="1.16456">
        <ele>81</ele>
        <time>2017-04-25T14:10:46Z</time>
      </trkpt>
      <trkpt lat="49.34343" lon="1.16448">
        <ele>81</ele>
        <time>2017-04-25T14:11:02Z</time>
      </trkpt>
      <trkpt lat="49.34346" lon="1.16443">
        <ele>81</ele>
        <time>2017-04-25T14:11:02Z</time>
      </trkpt>
      <trkpt lat="49.3435" lon="1.1644">
        <ele>81</ele>
        <time>2017-04-25T14:11:02Z</time>
      </trkpt>
      <trkpt lat="49.3435" lon="1.16436">
        <ele>81</ele>
        <time>2017-04-25T14:11:02Z</time>
      </trkpt>
      <trkpt lat="49.34347" lon="1.16433">
        <ele>81</ele>
        <time>2017-04-25T14:11:18Z</time>
      </trkpt>
      <trkpt lat="49.34343" lon="1.16427">
        <ele>81</ele>
        <time>2017-04-25T14:11:18Z</time>
      </trkpt>
      <trkpt lat="49.34339" lon="1.1642">
        <ele>81</ele>
        <time>2017-04-25T14:11:18Z</time>
      </trkpt>
      <trkpt lat="49.34336" lon="1.16416">
        <ele>81</ele>
        <time>2017-04-25T14:11:18Z</time>
      </trkpt>
      <trkpt lat="49.34333" lon="1.16412">
        <ele>81</ele>
        <time>2017-04-25T14:11:34Z</time>
      </trkpt>
      <trkpt lat="49.34328" lon="1.16404">
        <ele>81</ele>
        <time>2017-04-25T14:11:34Z</time>
      </trkpt>
      <trkpt lat="49.34324" lon="1.16398">
        <ele>81</ele>
        <time>2017-04-25T14:11:34Z</time>
      </trkpt>
      <trkpt lat="49.34321" lon="1.16392">
        <ele>81</ele>
        <time>2017-04-25T14:11:34Z</time>
      </trkpt>
      <trkpt lat="49.34319" lon="1.16387">
        <ele>81</ele>
        <time>2017-04-25T14:11:50Z</time>
      </trkpt>
      <trkpt lat="49.34315" lon="1.16382">
        <ele>81</ele>
        <time>2017-04-25T14:11:50Z</time>
      </trkpt>
      <trkpt lat="49.34311" lon="1.16377">
        <ele>81</ele>
        <time>2017-04-25T14:11:50Z</time>
      </trkpt>
      <trkpt lat="49.34307" lon="1.16372">
        <ele>78</ele>
        <time>2017-04-25T14:11:50Z</time>
      </trkpt>
      <trkpt lat="49.34302" lon="1.16366">
        <ele>78</ele>
        <time>2017-04-25T14:12:06Z</time>
      </trkpt>
      <trkpt lat="49.34299" lon="1.1636">
        <ele>78</ele>
        <time>2017-04-25T14:12:06Z</time>
      </trkpt>
      <trkpt lat="49.34295" lon="1.16355">
        <ele>78</ele>
        <time>2017-04-25T14:12:06Z</time>
      </trkpt>
      <trkpt lat="49.34292" lon="1.1635">
        <ele>78</ele>
        <time>2017-04-25T14:12:06Z</time>
      </trkpt>
      <trkpt lat="49.34288" lon="1.16343">
        <ele>77</ele>
        <time>2017-04-25T14:12:22Z</time>
      </trkpt>
      <trkpt lat="49.34284" lon="1.16337">
        <ele>77</ele>
        <time>2017-04-25T14:12:22Z</time>
      </trkpt>
      <trkpt lat="49.3428" lon="1.16333">
        <ele>77</ele>
        <time>2017-04-25T14:12:22Z</time>
      </trkpt>
      <trkpt lat="49.34276" lon="1.16328">
        <ele>77</ele>
        <time>2017-04-25T14:12:23Z</time>
      </trkpt>
      <trkpt lat="49.34273" lon="1.16323">
        <ele>77</ele>
        <time>2017-04-25T14:12:38Z</time>
      </trkpt>
      <trkpt lat="49.34269" lon="1.16317">
        <ele>77</ele>
        <time>2017-04-25T14:12:38Z</time>
      </trkpt>
      <trkpt lat="49.34265" lon="1.1631">
        <ele>77</ele>
        <time>2017-04-25T14:12:38Z</time>
      </trkpt>
      <trkpt lat="49.34261" lon="1.16305">
        <ele>77</ele>
        <time>2017-04-25T14:12:38Z</time>
      </trkpt>
      <trkpt lat="49.34258" lon="1.16299">
        <ele>77</ele>
        <time>2017-04-25T14:12:54Z</time>
      </trkpt>
      <trkpt lat="49.34254" lon="1.16293">
        <ele>77</ele>
        <time>2017-04-25T14:12:54Z</time>
      </trkpt>
      <trkpt lat="49.3425" lon="1.16289">
        <ele>74</ele>
        <time>2017-04-25T14:12:54Z</time>
      </trkpt>
      <trkpt lat="49.34246" lon="1.16285">
        <ele>74</ele>
        <time>2017-04-25T14:12:54Z</time>
      </trkpt>
      <trkpt lat="49.34242" lon="1.16278">
        <ele>74</ele>
        <time>2017-04-25T14:13:10Z</time>
      </trkpt>
      <trkpt lat="49.34239" lon="1.16272">
        <ele>74</ele>
        <time>2017-04-25T14:13:10Z</time>
      </trkpt>
      <trkpt lat="49.34235" lon="1.16266">
        <ele>74</ele>
        <time>2017-04-25T14:13:10Z</time>
      </trkpt>
      <trkpt lat="49.3423" lon="1.16261">
        <ele>74</ele>
        <time>2017-04-25T14:13:10Z</time>
      </trkpt>
      <trkpt lat="49.34227" lon="1.16254">
        <ele>74</ele>
        <time>2017-04-25T14:13:26Z</time>
      </trkpt>
      <trkpt lat="49.34224" lon="1.16249">
        <ele>74</ele>
        <time>2017-04-25T14:13:26Z</time>
      </trkpt>
      <trkpt lat="49.3422" lon="1.16243">
        <ele>74</ele>
        <time>2017-04-25T14:13:27Z</time>
      </trkpt>
      <trkpt lat="49.34216" lon="1.16238">
        <ele>74</ele>
        <time>2017-04-25T14:13:27Z</time>
      </trkpt>
      <trkpt lat="49.34212" lon="1.16231">
        <ele>74</ele>
        <time>2017-04-25T14:13:42Z</time>
      </trkpt>
      <trkpt lat="49.34208" lon="1.16225">
        <ele>73</ele>
        <time>2017-04-25T14:13:42Z</time>
      </trkpt>
      <trkpt lat="49.34204" lon="1.16219">
        <ele>73</ele>
        <time>2017-04-25T14:13:42Z</time>
      </trkpt>
      <trkpt lat="49.34201" lon="1.16214">
        <ele>73</ele>
        <time>2017-04-25T14:13:42Z</time>
      </trkpt>
      <trkpt lat="49.34197" lon="1.16207">
        <ele>73</ele>
        <time>2017-04-25T14:13:58Z</time>
      </trkpt>
      <trkpt lat="49.34194" lon="1.16201">
        <ele>73</ele>
        <time>2017-04-25T14:13:58Z</time>
      </trkpt>
      <trkpt lat="49.3419" lon="1.16196">
        <ele>73</ele>
        <time>2017-04-25T14:13:58Z</time>
      </trkpt>
      <trkpt lat="49.34187" lon="1.16191">
        <ele>73</ele>
        <time>2017-04-25T14:13:58Z</time>
      </trkpt>
      <trkpt lat="49.34183" lon="1.16185">
        <ele>73</ele>
        <time>2017-04-25T14:14:14Z</time>
      </trkpt>
      <trkpt lat="49.34179" lon="1.1618">
        <ele>73</ele>
        <time>2017-04-25T14:14:14Z</time>
      </trkpt>
      <trkpt lat="49.34175" lon="1.16175">
        <ele>73</ele>
        <time>2017-04-25T14:14:15Z</time>
      </trkpt>
      <trkpt lat="49.34171" lon="1.1617">
        <ele>73</ele>
        <time>2017-04-25T14:14:15Z</time>
      </trkpt>
      <trkpt lat="49.34167" lon="1.16164">
        <ele>73</ele>
        <time>2017-04-25T14:14:30Z</time>
      </trkpt>
      <trkpt lat="49.34163" lon="1.16158">
        <ele>73</ele>
        <time>2017-04-25T14:14:30Z</time>
      </trkpt>
      <trkpt lat="49.34158" lon="1.16154">
        <ele>73</ele>
        <time>2017-04-25T14:14:30Z</time>
      </trkpt>
      <trkpt lat="49.34153" lon="1.16148">
        <ele>73</ele>
        <time>2017-04-25T14:14:30Z</time>
      </trkpt>
      <trkpt lat="49.34149" lon="1.16144">
        <ele>73</ele>
        <time>2017-04-25T14:14:46Z</time>
      </trkpt>
      <trkpt lat="49.34146" lon="1.1614">
        <ele>73</ele>
        <time>2017-04-25T14:14:46Z</time>
      </trkpt>
      <trkpt lat="49.3414" lon="1.16137">
        <ele>73</ele>
        <time>2017-04-25T14:14:46Z</time>
      </trkpt>
      <trkpt lat="49.34135" lon="1.16131">
        <ele>73</ele>
        <time>2017-04-25T14:14:46Z</time>
      </trkpt>
      <trkpt lat="49.34132" lon="1.16128">
        <ele>73</ele>
        <time>2017-04-25T14:15:02Z</time>
      </trkpt>
      <trkpt lat="49.34128" lon="1.16124">
        <ele>70</ele>
        <time>2017-04-25T14:15:02Z</time>
      </trkpt>
      <trkpt lat="49.34123" lon="1.16119">
        <ele>68</ele>
        <time>2017-04-25T14:15:02Z</time>
      </trkpt>
      <trkpt lat="49.34117" lon="1.16114">
        <ele>68</ele>
        <time>2017-04-25T14:15:02Z</time>
      </trkpt>
      <trkpt lat="49.34113" lon="1.1611">
        <ele>68</ele>
        <time>2017-04-25T14:15:18Z</time>
      </trkpt>
      <trkpt lat="49.34108" lon="1.16106">
        <ele>68</ele>
        <time>2017-04-25T14:15:18Z</time>
      </trkpt>
      <trkpt lat="49.34104" lon="1.16103">
        <ele>68</ele>
        <time>2017-04-25T14:15:18Z</time>
      </trkpt>
      <trkpt lat="49.341" lon="1.16099">
        <ele>68</ele>
        <time>2017-04-25T14:15:18Z</time>
      </trkpt>
      <trkpt lat="49.34095" lon="1.16095">
        <ele>68</ele>
        <time>2017-04-25T14:15:34Z</time>
      </trkpt>
      <trkpt lat="49.34091" lon="1.16091">
        <ele>68</ele>
        <time>2017-04-25T14:15:34Z</time>
      </trkpt>
      <trkpt lat="49.34088" lon="1.16087">
        <ele>68</ele>
        <time>2017-04-25T14:15:34Z</time>
      </trkpt>
      <trkpt lat="49.34083" lon="1.16083">
        <ele>68</ele>
        <time>2017-04-25T14:15:34Z</time>
      </trkpt>
      <trkpt lat="49.34079" lon="1.16078">
        <ele>68</ele>
        <time>2017-04-25T14:15:50Z</time>
      </trkpt>
      <trkpt lat="49.34075" lon="1.16075">
        <ele>68</ele>
        <time>2017-04-25T14:15:50Z</time>
      </trkpt>
      <trkpt lat="49.34069" lon="1.16071">
        <ele>68</ele>
        <time>2017-04-25T14:15:50Z</time>
      </trkpt>
      <trkpt lat="49.34064" lon="1.16067">
        <ele>68</ele>
        <time>2017-04-25T14:15:50Z</time>
      </trkpt>
      <trkpt lat="49.34059" lon="1.16064">
        <ele>68</ele>
        <time>2017-04-25T14:16:06Z</time>
      </trkpt>
      <trkpt lat="49.34057" lon="1.16061">
        <ele>68</ele>
        <time>2017-04-25T14:16:06Z</time>
      </trkpt>
      <trkpt lat="49.34054" lon="1.16055">
        <ele>68</ele>
        <time>2017-04-25T14:16:06Z</time>
      </trkpt>
      <trkpt lat="49.3405" lon="1.1605">
        <ele>68</ele>
        <time>2017-04-25T14:16:06Z</time>
      </trkpt>
      <trkpt lat="49.34045" lon="1.16045">
        <ele>68</ele>
        <time>2017-04-25T14:16:22Z</time>
      </trkpt>
      <trkpt lat="49.34041" lon="1.16041">
        <ele>66</ele>
        <time>2017-04-25T14:16:22Z</time>
      </trkpt>
      <trkpt lat="49.34038" lon="1.16039">
        <ele>66</ele>
        <time>2017-04-25T14:16:22Z</time>
      </trkpt>
      <trkpt lat="49.34033" lon="1.16034">
        <ele>66</ele>
        <time>2017-04-25T14:16:22Z</time>
      </trkpt>
      <trkpt lat="49.34029" lon="1.16031">
        <ele>66</ele>
        <time>2017-04-25T14:16:38Z</time>
      </trkpt>
      <trkpt lat="49.34024" lon="1.16027">
        <ele>66</ele>
        <time>2017-04-25T14:16:38Z</time>
      </trkpt>
      <trkpt lat="49.3402" lon="1.16023">
        <ele>66</ele>
        <time>2017-04-25T14:16:38Z</time>
      </trkpt>
      <trkpt lat="49.34014" lon="1.1602">
        <ele>66</ele>
        <time>2017-04-25T14:16:38Z</time>
      </trkpt>
      <trkpt lat="49.34007" lon="1.16017">
        <ele>66</ele>
        <time>2017-04-25T14:16:54Z</time>
      </trkpt>
      <trkpt lat="49.34004" lon="1.16014">
        <ele>66</ele>
        <time>2017-04-25T14:16:54Z</time>
      </trkpt>
      <trkpt lat="49.33999" lon="1.1601">
        <ele>66</ele>
        <time>2017-04-25T14:16:54Z</time>
      </trkpt>
      <trkpt lat="49.33995" lon="1.16008">
        <ele>66</ele>
        <time>2017-04-25T14:16:54Z</time>
      </trkpt>
      <trkpt lat="49.3399" lon="1.16006">
        <ele>66</ele>
        <time>2017-04-25T14:17:10Z</time>
      </trkpt>
      <trkpt lat="49.33984" lon="1.16003">
        <ele>66</ele>
        <time>2017-04-25T14:17:10Z</time>
      </trkpt>
      <trkpt lat="49.33979" lon="1.15999">
        <ele>66</ele>
        <time>2017-04-25T14:17:10Z</time>
      </trkpt>
      <trkpt lat="49.33976" lon="1.15995">
        <ele>66</ele>
        <time>2017-04-25T14:17:10Z</time>
      </trkpt>
      <trkpt lat="49.33971" lon="1.15992">
        <ele>66</ele>
        <time>2017-04-25T14:17:26Z</time>
      </trkpt>
      <trkpt lat="49.33966" lon="1.15988">
        <ele>66</ele>
        <time>2017-04-25T14:17:26Z</time>
      </trkpt>
      <trkpt lat="49.33962" lon="1.15984">
        <ele>66</ele>
        <time>2017-04-25T14:17:26Z</time>
      </trkpt>
      <trkpt lat="49.33956" lon="1.1598">
        <ele>64</ele>
        <time>2017-04-25T14:17:26Z</time>
      </trkpt>
      <trkpt lat="49.33951" lon="1.15978">
        <ele>64</ele>
        <time>2017-04-25T14:17:42Z</time>
      </trkpt>
      <trkpt lat="49.33947" lon="1.15975">
        <ele>64</ele>
        <time>2017-04-25T14:17:42Z</time>
      </trkpt>
      <trkpt lat="49.33942" lon="1.15972">
        <ele>64</ele>
        <time>2017-04-25T14:17:42Z</time>
      </trkpt>
      <trkpt lat="49.33939" lon="1.15969">
        <ele>64</ele>
        <time>2017-04-25T14:17:42Z</time>
      </trkpt>
      <trkpt lat="49.33934" lon="1.15965">
        <ele>64</ele>
        <time>2017-04-25T14:17:58Z</time>
      </trkpt>
      <trkpt lat="49.33929" lon="1.15963">
        <ele>64</ele>
        <time>2017-04-25T14:17:58Z</time>
      </trkpt>
      <trkpt lat="49.33923" lon="1.15961">
        <ele>64</ele>
        <time>2017-04-25T14:17:58Z</time>
      </trkpt>
      <trkpt lat="49.33919" lon="1.15958">
        <ele>63</ele>
        <time>2017-04-25T14:17:58Z</time>
      </trkpt>
      <trkpt lat="49.33915" lon="1.15954">
        <ele>63</ele>
        <time>2017-04-25T14:18:14Z</time>
      </trkpt>
      <trkpt lat="49.3391" lon="1.1595">
        <ele>63</ele>
        <time>2017-04-25T14:18:14Z</time>
      </trkpt>
      <trkpt lat="49.33905" lon="1.15947">
        <ele>63</ele>
        <time>2017-04-25T14:18:14Z</time>
      </trkpt>
      <trkpt lat="49.339" lon="1.15945">
        <ele>63</ele>
        <time>2017-04-25T14:18:14Z</time>
      </trkpt>
      <trkpt lat="49.33895" lon="1.15942">
        <ele>63</ele>
        <time>2017-04-25T14:18:30Z</time>
      </trkpt>
      <trkpt lat="49.33891" lon="1.15938">
        <ele>63</ele>
        <time>2017-04-25T14:18:30Z</time>
      </trkpt>
      <trkpt lat="49.33888" lon="1.15933">
        <ele>63</ele>
        <time>2017-04-25T14:18:30Z</time>
      </trkpt>
      <trkpt lat="49.33883" lon="1.15928">
        <ele>63</ele>
        <time>2017-04-25T14:18:30Z</time>
      </trkpt>
      <trkpt lat="49.33878" lon="1.15924">
        <ele>63</ele>
        <time>2017-04-25T14:18:46Z</time>
      </trkpt>
      <trkpt lat="49.33874" lon="1.15918">
        <ele>62</ele>
        <time>2017-04-25T14:18:46Z</time>
      </trkpt>
      <trkpt lat="49.33873" lon="1.15912">
        <ele>62</ele>
        <time>2017-04-25T14:18:46Z</time>
      </trkpt>
      <trkpt lat="49.3387" lon="1.15906">
        <ele>62</ele>
        <time>2017-04-25T14:18:46Z</time>
      </trkpt>
      <trkpt lat="49.33869" lon="1.15902">
        <ele>62</ele>
        <time>2017-04-25T14:19:06Z</time>
      </trkpt>
      <trkpt lat="49.33868" lon="1.15899">
        <ele>62</ele>
        <time>2017-04-25T14:19:06Z</time>
      </trkpt>
      <trkpt lat="49.33866" lon="1.15896">
        <ele>62</ele>
        <time>2017-04-25T14:19:06Z</time>
      </trkpt>
      <trkpt lat="49.33866" lon="1.1589">
        <ele>62</ele>
        <time>2017-04-25T14:19:06Z</time>
      </trkpt>
      <trkpt lat="49.33865" lon="1.15885">
        <ele>62</ele>
        <time>2017-04-25T14:19:06Z</time>
      </trkpt>
      <trkpt lat="49.33863" lon="1.1588">
        <ele>62</ele>
        <time>2017-04-25T14:19:22Z</time>
      </trkpt>
      <trkpt lat="49.33861" lon="1.15875">
        <ele>62</ele>
        <time>2017-04-25T14:19:22Z</time>
      </trkpt>
      <trkpt lat="49.33861" lon="1.15868">
        <ele>62</ele>
        <time>2017-04-25T14:19:22Z</time>
      </trkpt>
      <trkpt lat="49.33859" lon="1.15861">
        <ele>62</ele>
        <time>2017-04-25T14:19:22Z</time>
      </trkpt>
      <trkpt lat="49.33858" lon="1.15855">
        <ele>62</ele>
        <time>2017-04-25T14:19:38Z</time>
      </trkpt>
      <trkpt lat="49.33857" lon="1.15843">
        <ele>62</ele>
        <time>2017-04-25T14:19:38Z</time>
      </trkpt>
      <trkpt lat="49.33856" lon="1.15837">
        <ele>62</ele>
        <time>2017-04-25T14:19:38Z</time>
      </trkpt>
      <trkpt lat="49.33857" lon="1.15831">
        <ele>62</ele>
        <time>2017-04-25T14:19:39Z</time>
      </trkpt>
      <trkpt lat="49.33856" lon="1.15821">
        <ele>62</ele>
        <time>2017-04-25T14:20:02Z</time>
      </trkpt>
      <trkpt lat="49.33855" lon="1.15819">
        <ele>62</ele>
        <time>2017-04-25T14:20:02Z</time>
      </trkpt>
      <trkpt lat="49.33856" lon="1.15818">
        <ele>62</ele>
        <time>2017-04-25T14:20:02Z</time>
      </trkpt>
      <trkpt lat="49.33854" lon="1.15813">
        <ele>62</ele>
        <time>2017-04-25T14:20:02Z</time>
      </trkpt>
      <trkpt lat="49.33853" lon="1.15807">
        <ele>62</ele>
        <time>2017-04-25T14:20:02Z</time>
      </trkpt>
      <trkpt lat="49.33853" lon="1.15803">
        <ele>62</ele>
        <time>2017-04-25T14:20:18Z</time>
      </trkpt>
      <trkpt lat="49.33851" lon="1.15798">
        <ele>62</ele>
        <time>2017-04-25T14:20:18Z</time>
      </trkpt>
      <trkpt lat="49.33848" lon="1.15793">
        <ele>62</ele>
        <time>2017-04-25T14:20:18Z</time>
      </trkpt>
      <trkpt lat="49.33845" lon="1.15786">
        <ele>60</ele>
        <time>2017-04-25T14:20:18Z</time>
      </trkpt>
      <trkpt lat="49.33844" lon="1.15775">
        <ele>60</ele>
        <time>2017-04-25T14:20:34Z</time>
      </trkpt>
      <trkpt lat="49.33842" lon="1.1577">
        <ele>60</ele>
        <time>2017-04-25T14:20:34Z</time>
      </trkpt>
      <trkpt lat="49.33837" lon="1.15766">
        <ele>60</ele>
        <time>2017-04-25T14:20:34Z</time>
      </trkpt>
      <trkpt lat="49.33836" lon="1.15762">
        <ele>60</ele>
        <time>2017-04-25T14:20:34Z</time>
      </trkpt>
      <trkpt lat="49.33833" lon="1.1576">
        <ele>60</ele>
        <time>2017-04-25T14:20:50Z</time>
      </trkpt>
      <trkpt lat="49.33829" lon="1.15757">
        <ele>60</ele>
        <time>2017-04-25T14:20:50Z</time>
      </trkpt>
      <trkpt lat="49.33822" lon="1.15754">
        <ele>60</ele>
        <time>2017-04-25T14:20:50Z</time>
      </trkpt>
      <trkpt lat="49.33816" lon="1.15752">
        <ele>60</ele>
        <time>2017-04-25T14:20:50Z</time>
      </trkpt>
      <trkpt lat="49.3381" lon="1.15749">
        <ele>60</ele>
        <time>2017-04-25T14:21:06Z</time>
      </trkpt>
      <trkpt lat="49.33802" lon="1.15746">
        <ele>60</ele>
        <time>2017-04-25T14:21:06Z</time>
      </trkpt>
      <trkpt lat="49.33797" lon="1.15738">
        <ele>60</ele>
        <time>2017-04-25T14:21:06Z</time>
      </trkpt>
      <trkpt lat="49.33792" lon="1.15732">
        <ele>60</ele>
        <time>2017-04-25T14:21:06Z</time>
      </trkpt>
      <trkpt lat="49.33789" lon="1.15725">
        <ele>58</ele>
        <time>2017-04-25T14:21:22Z</time>
      </trkpt>
      <trkpt lat="49.33788" lon="1.15717">
        <ele>58</ele>
        <time>2017-04-25T14:21:22Z</time>
      </trkpt>
      <trkpt lat="49.33787" lon="1.15712">
        <ele>58</ele>
        <time>2017-04-25T14:21:22Z</time>
      </trkpt>
      <trkpt lat="49.33786" lon="1.15706">
        <ele>56</ele>
        <time>2017-04-25T14:21:22Z</time>
      </trkpt>
      <trkpt lat="49.33785" lon="1.15697">
        <ele>56</ele>
        <time>2017-04-25T14:21:38Z</time>
      </trkpt>
      <trkpt lat="49.33784" lon="1.15689">
        <ele>56</ele>
        <time>2017-04-25T14:21:38Z</time>
      </trkpt>
      <trkpt lat="49.33783" lon="1.15676">
        <ele>56</ele>
        <time>2017-04-25T14:21:38Z</time>
      </trkpt>
      <trkpt lat="49.33783" lon="1.15666">
        <ele>56</ele>
        <time>2017-04-25T14:21:38Z</time>
      </trkpt>
      <trkpt lat="49.33783" lon="1.15654">
        <ele>56</ele>
        <time>2017-04-25T14:21:54Z</time>
      </trkpt>
      <trkpt lat="49.33784" lon="1.15647">
        <ele>56</ele>
        <time>2017-04-25T14:21:54Z</time>
      </trkpt>
      <trkpt lat="49.33785" lon="1.15642">
        <ele>56</ele>
        <time>2017-04-25T14:21:54Z</time>
      </trkpt>
      <trkpt lat="49.33786" lon="1.15635">
        <ele>56</ele>
        <time>2017-04-25T14:21:54Z</time>
      </trkpt>
      <trkpt lat="49.33787" lon="1.15626">
        <ele>56</ele>
        <time>2017-04-25T14:22:10Z</time>
      </trkpt>
      <trkpt lat="49.33787" lon="1.15618">
        <ele>58</ele>
        <time>2017-04-25T14:22:10Z</time>
      </trkpt>
      <trkpt lat="49.33787" lon="1.15608">
        <ele>58</ele>
        <time>2017-04-25T14:22:10Z</time>
      </trkpt>
      <trkpt lat="49.33788" lon="1.156">
        <ele>58</ele>
        <time>2017-04-25T14:22:10Z</time>
      </trkpt>
      <trkpt lat="49.33789" lon="1.1559">
        <ele>58</ele>
        <time>2017-04-25T14:22:26Z</time>
      </trkpt>
      <trkpt lat="49.3379" lon="1.15582">
        <ele>58</ele>
        <time>2017-04-25T14:22:26Z</time>
      </trkpt>
      <trkpt lat="49.3379" lon="1.15573">
        <ele>58</ele>
        <time>2017-04-25T14:22:26Z</time>
      </trkpt>
      <trkpt lat="49.33791" lon="1.15564">
        <ele>58</ele>
        <time>2017-04-25T14:22:26Z</time>
      </trkpt>
      <trkpt lat="49.33791" lon="1.15557">
        <ele>58</ele>
        <time>2017-04-25T14:22:42Z</time>
      </trkpt>
      <trkpt lat="49.33791" lon="1.15549">
        <ele>58</ele>
        <time>2017-04-25T14:22:42Z</time>
      </trkpt>
      <trkpt lat="49.33791" lon="1.15541">
        <ele>61</ele>
        <time>2017-04-25T14:22:42Z</time>
      </trkpt>
      <trkpt lat="49.33791" lon="1.15532">
        <ele>61</ele>
        <time>2017-04-25T14:22:42Z</time>
      </trkpt>
      <trkpt lat="49.33791" lon="1.15522">
        <ele>61</ele>
        <time>2017-04-25T14:22:58Z</time>
      </trkpt>
      <trkpt lat="49.33791" lon="1.15515">
        <ele>61</ele>
        <time>2017-04-25T14:22:58Z</time>
      </trkpt>
      <trkpt lat="49.33792" lon="1.15507">
        <ele>61</ele>
        <time>2017-04-25T14:22:59Z</time>
      </trkpt>
      <trkpt lat="49.33792" lon="1.15501">
        <ele>61</ele>
        <time>2017-04-25T14:22:59Z</time>
      </trkpt>
      <trkpt lat="49.33792" lon="1.15493">
        <ele>61</ele>
        <time>2017-04-25T14:23:14Z</time>
      </trkpt>
      <trkpt lat="49.33791" lon="1.15487">
        <ele>61</ele>
        <time>2017-04-25T14:23:14Z</time>
      </trkpt>
      <trkpt lat="49.33791" lon="1.15478">
        <ele>61</ele>
        <time>2017-04-25T14:23:14Z</time>
      </trkpt>
      <trkpt lat="49.3379" lon="1.15469">
        <ele>61</ele>
        <time>2017-04-25T14:23:14Z</time>
      </trkpt>
      <trkpt lat="49.3379" lon="1.1546">
        <ele>61</ele>
        <time>2017-04-25T14:23:30Z</time>
      </trkpt>
      <trkpt lat="49.33789" lon="1.15451">
        <ele>62</ele>
        <time>2017-04-25T14:23:30Z</time>
      </trkpt>
      <trkpt lat="49.33788" lon="1.15443">
        <ele>62</ele>
        <time>2017-04-25T14:23:30Z</time>
      </trkpt>
      <trkpt lat="49.33788" lon="1.15437">
        <ele>62</ele>
        <time>2017-04-25T14:23:30Z</time>
      </trkpt>
      <trkpt lat="49.33788" lon="1.15429">
        <ele>62</ele>
        <time>2017-04-25T14:23:46Z</time>
      </trkpt>
      <trkpt lat="49.33788" lon="1.15422">
        <ele>62</ele>
        <time>2017-04-25T14:23:46Z</time>
      </trkpt>
      <trkpt lat="49.33788" lon="1.15412">
        <ele>62</ele>
        <time>2017-04-25T14:23:46Z</time>
      </trkpt>
      <trkpt lat="49.33787" lon="1.15404">
        <ele>62</ele>
        <time>2017-04-25T14:23:46Z</time>
      </trkpt>
      <trkpt lat="49.33787" lon="1.15397">
        <ele>62</ele>
        <time>2017-04-25T14:24:02Z</time>
      </trkpt>
      <trkpt lat="49.33787" lon="1.15389">
        <ele>62</ele>
        <time>2017-04-25T14:24:02Z</time>
      </trkpt>
      <trkpt lat="49.33787" lon="1.15382">
        <ele>62</ele>
        <time>2017-04-25T14:24:02Z</time>
      </trkpt>
      <trkpt lat="49.33787" lon="1.15376">
        <ele>62</ele>
        <time>2017-04-25T14:24:02Z</time>
      </trkpt>
      <trkpt lat="49.33787" lon="1.15367">
        <ele>61</ele>
        <time>2017-04-25T14:24:18Z</time>
      </trkpt>
      <trkpt lat="49.33787" lon="1.15359">
        <ele>61</ele>
        <time>2017-04-25T14:24:18Z</time>
      </trkpt>
      <trkpt lat="49.33786" lon="1.1535">
        <ele>61</ele>
        <time>2017-04-25T14:24:18Z</time>
      </trkpt>
      <trkpt lat="49.33785" lon="1.15342">
        <ele>61</ele>
        <time>2017-04-25T14:24:18Z</time>
      </trkpt>
      <trkpt lat="49.33785" lon="1.15333">
        <ele>61</ele>
        <time>2017-04-25T14:24:34Z</time>
      </trkpt>
      <trkpt lat="49.33784" lon="1.15324">
        <ele>61</ele>
        <time>2017-04-25T14:24:34Z</time>
      </trkpt>
      <trkpt lat="49.33783" lon="1.15316">
        <ele>61</ele>
        <time>2017-04-25T14:24:34Z</time>
      </trkpt>
      <trkpt lat="49.33783" lon="1.15309">
        <ele>61</ele>
        <time>2017-04-25T14:24:34Z</time>
      </trkpt>
      <trkpt lat="49.33783" lon="1.15304">
        <ele>61</ele>
        <time>2017-04-25T14:24:50Z</time>
      </trkpt>
      <trkpt lat="49.33781" lon="1.15295">
        <ele>61</ele>
        <time>2017-04-25T14:24:50Z</time>
      </trkpt>
      <trkpt lat="49.33781" lon="1.15288">
        <ele>63</ele>
        <time>2017-04-25T14:24:50Z</time>
      </trkpt>
      <trkpt lat="49.3378" lon="1.1528">
        <ele>63</ele>
        <time>2017-04-25T14:24:50Z</time>
      </trkpt>
      <trkpt lat="49.33779" lon="1.15271">
        <ele>63</ele>
        <time>2017-04-25T14:25:06Z</time>
      </trkpt>
      <trkpt lat="49.33778" lon="1.15265">
        <ele>63</ele>
        <time>2017-04-25T14:25:06Z</time>
      </trkpt>
      <trkpt lat="49.33777" lon="1.15258">
        <ele>63</ele>
        <time>2017-04-25T14:25:06Z</time>
      </trkpt>
      <trkpt lat="49.33775" lon="1.15249">
        <ele>63</ele>
        <time>2017-04-25T14:25:06Z</time>
      </trkpt>
      <trkpt lat="49.33774" lon="1.15242">
        <ele>63</ele>
        <time>2017-04-25T14:25:22Z</time>
      </trkpt>
      <trkpt lat="49.33774" lon="1.15234">
        <ele>63</ele>
        <time>2017-04-25T14:25:23Z</time>
      </trkpt>
      <trkpt lat="49.33774" lon="1.15228">
        <ele>63</ele>
        <time>2017-04-25T14:25:23Z</time>
      </trkpt>
      <trkpt lat="49.33774" lon="1.15225">
        <ele>63</ele>
        <time>2017-04-25T14:25:23Z</time>
      </trkpt>
      <trkpt lat="49.33774" lon="1.15224">
        <ele>63</ele>
        <time>2017-04-25T14:25:38Z</time>
      </trkpt>
      <trkpt lat="49.33772" lon="1.15221">
        <ele>63</ele>
        <time>2017-04-25T14:25:38Z</time>
      </trkpt>
      <trkpt lat="49.3377" lon="1.15213">
        <ele>63</ele>
        <time>2017-04-25T14:25:38Z</time>
      </trkpt>
      <trkpt lat="49.33769" lon="1.15208">
        <ele>66</ele>
        <time>2017-04-25T14:25:38Z</time>
      </trkpt>
      <trkpt lat="49.3377" lon="1.15206">
        <ele>66</ele>
        <time>2017-04-25T14:26:18Z</time>
      </trkpt>
      <trkpt lat="49.33771" lon="1.15205">
        <ele>66</ele>
        <time>2017-04-25T14:26:18Z</time>
      </trkpt>
      <trkpt lat="49.33771" lon="1.15199">
        <ele>66</ele>
        <time>2017-04-25T14:26:18Z</time>
      </trkpt>
      <trkpt lat="49.33771" lon="1.15193">
        <ele>66</ele>
        <time>2017-04-25T14:26:18Z</time>
      </trkpt>
      <trkpt lat="49.3377" lon="1.15187">
        <ele>66</ele>
        <time>2017-04-25T14:26:19Z</time>
      </trkpt>
      <trkpt lat="49.33769" lon="1.15174">
        <ele>66</ele>
        <time>2017-04-25T14:28:50Z</time>
      </trkpt>
      <trkpt lat="49.33768" lon="1.15171">
        <ele>66</ele>
        <time>2017-04-25T14:28:50Z</time>
      </trkpt>
      <trkpt lat="49.33768" lon="1.15165">
        <ele>66</ele>
        <time>2017-04-25T14:28:50Z</time>
      </trkpt>
      <trkpt lat="49.33769" lon="1.15156">
        <ele>66</ele>
        <time>2017-04-25T14:28:50Z</time>
      </trkpt>
      <trkpt lat="49.33769" lon="1.15149">
        <ele>66</ele>
        <time>2017-04-25T14:28:50Z</time>
      </trkpt>
      <trkpt lat="49.33769" lon="1.15143">
        <ele>66</ele>
        <time>2017-04-25T14:29:06Z</time>
      </trkpt>
      <trkpt lat="49.33769" lon="1.15136">
        <ele>66</ele>
        <time>2017-04-25T14:29:06Z</time>
      </trkpt>
      <trkpt lat="49.33768" lon="1.1513">
        <ele>66</ele>
        <time>2017-04-25T14:29:06Z</time>
      </trkpt>
      <trkpt lat="49.33768" lon="1.15124">
        <ele>69</ele>
        <time>2017-04-25T14:29:06Z</time>
      </trkpt>
      <trkpt lat="49.33767" lon="1.15118">
        <ele>69</ele>
        <time>2017-04-25T14:29:22Z</time>
      </trkpt>
      <trkpt lat="49.33767" lon="1.15112">
        <ele>69</ele>
        <time>2017-04-25T14:29:22Z</time>
      </trkpt>
      <trkpt lat="49.33766" lon="1.15105">
        <ele>69</ele>
        <time>2017-04-25T14:29:22Z</time>
      </trkpt>
      <trkpt lat="49.33766" lon="1.15096">
        <ele>69</ele>
        <time>2017-04-25T14:29:22Z</time>
      </trkpt>
      <trkpt lat="49.33765" lon="1.15089">
        <ele>69</ele>
        <time>2017-04-25T14:29:38Z</time>
      </trkpt>
      <trkpt lat="49.33765" lon="1.15085">
        <ele>69</ele>
        <time>2017-04-25T14:29:38Z</time>
      </trkpt>
      <trkpt lat="49.33765" lon="1.15079">
        <ele>69</ele>
        <time>2017-04-25T14:29:38Z</time>
      </trkpt>
      <trkpt lat="49.33765" lon="1.15072">
        <ele>69</ele>
        <time>2017-04-25T14:29:38Z</time>
      </trkpt>
      <trkpt lat="49.33765" lon="1.15066">
        <ele>69</ele>
        <time>2017-04-25T14:29:54Z</time>
      </trkpt>
      <trkpt lat="49.33765" lon="1.15059">
        <ele>69</ele>
        <time>2017-04-25T14:29:54Z</time>
      </trkpt>
      <trkpt lat="49.33765" lon="1.15052">
        <ele>69</ele>
        <time>2017-04-25T14:29:54Z</time>
      </trkpt>
      <trkpt lat="49.33765" lon="1.15047">
        <ele>69</ele>
        <time>2017-04-25T14:29:54Z</time>
      </trkpt>
      <trkpt lat="49.33765" lon="1.15039">
        <ele>73</ele>
        <time>2017-04-25T14:30:10Z</time>
      </trkpt>
      <trkpt lat="49.33765" lon="1.15033">
        <ele>73</ele>
        <time>2017-04-25T14:30:10Z</time>
      </trkpt>
      <trkpt lat="49.33764" lon="1.15025">
        <ele>73</ele>
        <time>2017-04-25T14:30:10Z</time>
      </trkpt>
      <trkpt lat="49.33764" lon="1.1502">
        <ele>73</ele>
        <time>2017-04-25T14:30:10Z</time>
      </trkpt>
      <trkpt lat="49.33764" lon="1.15012">
        <ele>73</ele>
        <time>2017-04-25T14:30:26Z</time>
      </trkpt>
      <trkpt lat="49.33764" lon="1.15005">
        <ele>73</ele>
        <time>2017-04-25T14:30:26Z</time>
      </trkpt>
      <trkpt lat="49.33764" lon="1.14999">
        <ele>73</ele>
        <time>2017-04-25T14:30:26Z</time>
      </trkpt>
      <trkpt lat="49.33764" lon="1.14991">
        <ele>73</ele>
        <time>2017-04-25T14:30:26Z</time>
      </trkpt>
      <trkpt lat="49.33764" lon="1.14985">
        <ele>73</ele>
        <time>2017-04-25T14:30:42Z</time>
      </trkpt>
      <trkpt lat="49.33763" lon="1.14979">
        <ele>73</ele>
        <time>2017-04-25T14:30:42Z</time>
      </trkpt>
      <trkpt lat="49.33763" lon="1.14971">
        <ele>73</ele>
        <time>2017-04-25T14:30:42Z</time>
      </trkpt>
      <trkpt lat="49.33763" lon="1.14965">
        <ele>73</ele>
        <time>2017-04-25T14:30:42Z</time>
      </trkpt>
      <trkpt lat="49.33762" lon="1.14957">
        <ele>76</ele>
        <time>2017-04-25T14:30:58Z</time>
      </trkpt>
      <trkpt lat="49.33762" lon="1.1495">
        <ele>76</ele>
        <time>2017-04-25T14:30:58Z</time>
      </trkpt>
      <trkpt lat="49.33762" lon="1.14942">
        <ele>76</ele>
        <time>2017-04-25T14:30:58Z</time>
      </trkpt>
      <trkpt lat="49.33762" lon="1.14934">
        <ele>76</ele>
        <time>2017-04-25T14:30:58Z</time>
      </trkpt>
      <trkpt lat="49.33761" lon="1.14928">
        <ele>76</ele>
        <time>2017-04-25T14:31:14Z</time>
      </trkpt>
      <trkpt lat="49.3376" lon="1.14921">
        <ele>76</ele>
        <time>2017-04-25T14:31:14Z</time>
      </trkpt>
      <trkpt lat="49.3376" lon="1.14915">
        <ele>76</ele>
        <time>2017-04-25T14:31:14Z</time>
      </trkpt>
      <trkpt lat="49.3376" lon="1.14908">
        <ele>76</ele>
        <time>2017-04-25T14:31:14Z</time>
      </trkpt>
      <trkpt lat="49.33759" lon="1.149">
        <ele>76</ele>
        <time>2017-04-25T14:31:30Z</time>
      </trkpt>
      <trkpt lat="49.33759" lon="1.14895">
        <ele>76</ele>
        <time>2017-04-25T14:31:30Z</time>
      </trkpt>
      <trkpt lat="49.33759" lon="1.14889">
        <ele>76</ele>
        <time>2017-04-25T14:31:30Z</time>
      </trkpt>
      <trkpt lat="49.33759" lon="1.14882">
        <ele>76</ele>
        <time>2017-04-25T14:31:30Z</time>
      </trkpt>
      <trkpt lat="49.33758" lon="1.14876">
        <ele>76</ele>
        <time>2017-04-25T14:31:46Z</time>
      </trkpt>
      <trkpt lat="49.33758" lon="1.1487">
        <ele>79</ele>
        <time>2017-04-25T14:31:46Z</time>
      </trkpt>
      <trkpt lat="49.33758" lon="1.14861">
        <ele>79</ele>
        <time>2017-04-25T14:31:46Z</time>
      </trkpt>
      <trkpt lat="49.33759" lon="1.14855">
        <ele>79</ele>
        <time>2017-04-25T14:31:46Z</time>
      </trkpt>
      <trkpt lat="49.33758" lon="1.14849">
        <ele>79</ele>
        <time>2017-04-25T14:32:02Z</time>
      </trkpt>
      <trkpt lat="49.33759" lon="1.14841">
        <ele>79</ele>
        <time>2017-04-25T14:32:02Z</time>
      </trkpt>
      <trkpt lat="49.33758" lon="1.14834">
        <ele>79</ele>
        <time>2017-04-25T14:32:02Z</time>
      </trkpt>
      <trkpt lat="49.33758" lon="1.14826">
        <ele>79</ele>
        <time>2017-04-25T14:32:02Z</time>
      </trkpt>
      <trkpt lat="49.33758" lon="1.14819">
        <ele>79</ele>
        <time>2017-04-25T14:32:18Z</time>
      </trkpt>
      <trkpt lat="49.33758" lon="1.14813">
        <ele>79</ele>
        <time>2017-04-25T14:32:18Z</time>
      </trkpt>
      <trkpt lat="49.33758" lon="1.14806">
        <ele>79</ele>
        <time>2017-04-25T14:32:18Z</time>
      </trkpt>
      <trkpt lat="49.33757" lon="1.14799">
        <ele>79</ele>
        <time>2017-04-25T14:32:18Z</time>
      </trkpt>
      <trkpt lat="49.33757" lon="1.14793">
        <ele>79</ele>
        <time>2017-04-25T14:32:34Z</time>
      </trkpt>
      <trkpt lat="49.33757" lon="1.14786">
        <ele>82</ele>
        <time>2017-04-25T14:32:34Z</time>
      </trkpt>
      <trkpt lat="49.33757" lon="1.14778">
        <ele>82</ele>
        <time>2017-04-25T14:32:34Z</time>
      </trkpt>
      <trkpt lat="49.33756" lon="1.1477">
        <ele>82</ele>
        <time>2017-04-25T14:32:34Z</time>
      </trkpt>
      <trkpt lat="49.33757" lon="1.14764">
        <ele>82</ele>
        <time>2017-04-25T14:32:50Z</time>
      </trkpt>
      <trkpt lat="49.33757" lon="1.14756">
        <ele>82</ele>
        <time>2017-04-25T14:32:50Z</time>
      </trkpt>
      <trkpt lat="49.33757" lon="1.14749">
        <ele>82</ele>
        <time>2017-04-25T14:32:50Z</time>
      </trkpt>
      <trkpt lat="49.33757" lon="1.14742">
        <ele>82</ele>
        <time>2017-04-25T14:32:50Z</time>
      </trkpt>
      <trkpt lat="49.33758" lon="1.14734">
        <ele>82</ele>
        <time>2017-04-25T14:33:06Z</time>
      </trkpt>
      <trkpt lat="49.33758" lon="1.14727">
        <ele>82</ele>
        <time>2017-04-25T14:33:06Z</time>
      </trkpt>
      <trkpt lat="49.33758" lon="1.1472">
        <ele>82</ele>
        <time>2017-04-25T14:33:06Z</time>
      </trkpt>
      <trkpt lat="49.33759" lon="1.14713">
        <ele>82</ele>
        <time>2017-04-25T14:33:06Z</time>
      </trkpt>
      <trkpt lat="49.33759" lon="1.14707">
        <ele>82</ele>
        <time>2017-04-25T14:33:22Z</time>
      </trkpt>
      <trkpt lat="49.33759" lon="1.14699">
        <ele>82</ele>
        <time>2017-04-25T14:33:22Z</time>
      </trkpt>
      <trkpt lat="49.3376" lon="1.14692">
        <ele>82</ele>
        <time>2017-04-25T14:33:23Z</time>
      </trkpt>
      <trkpt lat="49.33761" lon="1.14685">
        <ele>82</ele>
        <time>2017-04-25T14:33:23Z</time>
      </trkpt>
      <trkpt lat="49.33762" lon="1.14679">
        <ele>82</ele>
        <time>2017-04-25T14:33:38Z</time>
      </trkpt>
      <trkpt lat="49.33762" lon="1.14671">
        <ele>82</ele>
        <time>2017-04-25T14:33:38Z</time>
      </trkpt>
      <trkpt lat="49.33764" lon="1.14664">
        <ele>82</ele>
        <time>2017-04-25T14:33:38Z</time>
      </trkpt>
      <trkpt lat="49.33765" lon="1.14657">
        <ele>82</ele>
        <time>2017-04-25T14:33:38Z</time>
      </trkpt>
      <trkpt lat="49.33765" lon="1.1465">
        <ele>82</ele>
        <time>2017-04-25T14:33:54Z</time>
      </trkpt>
      <trkpt lat="49.33766" lon="1.14644">
        <ele>82</ele>
        <time>2017-04-25T14:33:54Z</time>
      </trkpt>
      <trkpt lat="49.33767" lon="1.14638">
        <ele>82</ele>
        <time>2017-04-25T14:33:54Z</time>
      </trkpt>
      <trkpt lat="49.33767" lon="1.14631">
        <ele>82</ele>
        <time>2017-04-25T14:33:54Z</time>
      </trkpt>
      <trkpt lat="49.33768" lon="1.14625">
        <ele>84</ele>
        <time>2017-04-25T14:34:10Z</time>
      </trkpt>
      <trkpt lat="49.33769" lon="1.14617">
        <ele>84</ele>
        <time>2017-04-25T14:34:10Z</time>
      </trkpt>
      <trkpt lat="49.3377" lon="1.14608">
        <ele>84</ele>
        <time>2017-04-25T14:34:10Z</time>
      </trkpt>
      <trkpt lat="49.33771" lon="1.14601">
        <ele>84</ele>
        <time>2017-04-25T14:34:10Z</time>
      </trkpt>
      <trkpt lat="49.33772" lon="1.14594">
        <ele>84</ele>
        <time>2017-04-25T14:34:26Z</time>
      </trkpt>
      <trkpt lat="49.33773" lon="1.14587">
        <ele>84</ele>
        <time>2017-04-25T14:34:26Z</time>
      </trkpt>
      <trkpt lat="49.33773" lon="1.1458">
        <ele>84</ele>
        <time>2017-04-25T14:34:26Z</time>
      </trkpt>
      <trkpt lat="49.33774" lon="1.14573">
        <ele>84</ele>
        <time>2017-04-25T14:34:26Z</time>
      </trkpt>
      <trkpt lat="49.33776" lon="1.14566">
        <ele>84</ele>
        <time>2017-04-25T14:34:42Z</time>
      </trkpt>
      <trkpt lat="49.33778" lon="1.14559">
        <ele>84</ele>
        <time>2017-04-25T14:34:42Z</time>
      </trkpt>
      <trkpt lat="49.33779" lon="1.14554">
        <ele>84</ele>
        <time>2017-04-25T14:34:42Z</time>
      </trkpt>
      <trkpt lat="49.33781" lon="1.14547">
        <ele>84</ele>
        <time>2017-04-25T14:34:42Z</time>
      </trkpt>
      <trkpt lat="49.33782" lon="1.1454">
        <ele>86</ele>
        <time>2017-04-25T14:34:58Z</time>
      </trkpt>
      <trkpt lat="49.33784" lon="1.14532">
        <ele>86</ele>
        <time>2017-04-25T14:34:58Z</time>
      </trkpt>
      <trkpt lat="49.33784" lon="1.14526">
        <ele>86</ele>
        <time>2017-04-25T14:34:58Z</time>
      </trkpt>
      <trkpt lat="49.33785" lon="1.14519">
        <ele>86</ele>
        <time>2017-04-25T14:34:58Z</time>
      </trkpt>
      <trkpt lat="49.33786" lon="1.14512">
        <ele>86</ele>
        <time>2017-04-25T14:35:14Z</time>
      </trkpt>
      <trkpt lat="49.33787" lon="1.14504">
        <ele>86</ele>
        <time>2017-04-25T14:35:14Z</time>
      </trkpt>
      <trkpt lat="49.33788" lon="1.14498">
        <ele>86</ele>
        <time>2017-04-25T14:35:14Z</time>
      </trkpt>
      <trkpt lat="49.3379" lon="1.1449">
        <ele>86</ele>
        <time>2017-04-25T14:35:14Z</time>
      </trkpt>
      <trkpt lat="49.33791" lon="1.14483">
        <ele>86</ele>
        <time>2017-04-25T14:35:30Z</time>
      </trkpt>
      <trkpt lat="49.33793" lon="1.14476">
        <ele>83</ele>
        <time>2017-04-25T14:35:30Z</time>
      </trkpt>
      <trkpt lat="49.33794" lon="1.1447">
        <ele>83</ele>
        <time>2017-04-25T14:35:30Z</time>
      </trkpt>
      <trkpt lat="49.33795" lon="1.14464">
        <ele>83</ele>
        <time>2017-04-25T14:35:30Z</time>
      </trkpt>
      <trkpt lat="49.33798" lon="1.14457">
        <ele>82</ele>
        <time>2017-04-25T14:35:46Z</time>
      </trkpt>
      <trkpt lat="49.33799" lon="1.14451">
        <ele>82</ele>
        <time>2017-04-25T14:35:46Z</time>
      </trkpt>
      <trkpt lat="49.33802" lon="1.14444">
        <ele>82</ele>
        <time>2017-04-25T14:35:46Z</time>
      </trkpt>
      <trkpt lat="49.33804" lon="1.14437">
        <ele>82</ele>
        <time>2017-04-25T14:35:46Z</time>
      </trkpt>
      <trkpt lat="49.33805" lon="1.14432">
        <ele>82</ele>
        <time>2017-04-25T14:36:02Z</time>
      </trkpt>
      <trkpt lat="49.33808" lon="1.14423">
        <ele>82</ele>
        <time>2017-04-25T14:36:02Z</time>
      </trkpt>
      <trkpt lat="49.3381" lon="1.14416">
        <ele>82</ele>
        <time>2017-04-25T14:36:02Z</time>
      </trkpt>
      <trkpt lat="49.3381" lon="1.14408">
        <ele>82</ele>
        <time>2017-04-25T14:36:03Z</time>
      </trkpt>
      <trkpt lat="49.33812" lon="1.14401">
        <ele>82</ele>
        <time>2017-04-25T14:36:18Z</time>
      </trkpt>
      <trkpt lat="49.33812" lon="1.14393">
        <ele>82</ele>
        <time>2017-04-25T14:36:18Z</time>
      </trkpt>
      <trkpt lat="49.33814" lon="1.14386">
        <ele>82</ele>
        <time>2017-04-25T14:36:18Z</time>
      </trkpt>
      <trkpt lat="49.33815" lon="1.14378">
        <ele>82</ele>
        <time>2017-04-25T14:36:18Z</time>
      </trkpt>
      <trkpt lat="49.33817" lon="1.14368">
        <ele>83</ele>
        <time>2017-04-25T14:36:34Z</time>
      </trkpt>
      <trkpt lat="49.33817" lon="1.14361">
        <ele>83</ele>
        <time>2017-04-25T14:36:34Z</time>
      </trkpt>
      <trkpt lat="49.33818" lon="1.14354">
        <ele>83</ele>
        <time>2017-04-25T14:36:34Z</time>
      </trkpt>
      <trkpt lat="49.33818" lon="1.14348">
        <ele>83</ele>
        <time>2017-04-25T14:36:34Z</time>
      </trkpt>
      <trkpt lat="49.33819" lon="1.14341">
        <ele>83</ele>
        <time>2017-04-25T14:36:50Z</time>
      </trkpt>
      <trkpt lat="49.3382" lon="1.14334">
        <ele>83</ele>
        <time>2017-04-25T14:36:50Z</time>
      </trkpt>
      <trkpt lat="49.33822" lon="1.14326">
        <ele>83</ele>
        <time>2017-04-25T14:36:50Z</time>
      </trkpt>
      <trkpt lat="49.33823" lon="1.14318">
        <ele>83</ele>
        <time>2017-04-25T14:36:50Z</time>
      </trkpt>
      <trkpt lat="49.33824" lon="1.14312">
        <ele>83</ele>
        <time>2017-04-25T14:37:06Z</time>
      </trkpt>
      <trkpt lat="49.33825" lon="1.14304">
        <ele>83</ele>
        <time>2017-04-25T14:37:06Z</time>
      </trkpt>
      <trkpt lat="49.33826" lon="1.14297">
        <ele>83</ele>
        <time>2017-04-25T14:37:06Z</time>
      </trkpt>
      <trkpt lat="49.33827" lon="1.1429">
        <ele>82</ele>
        <time>2017-04-25T14:37:06Z</time>
      </trkpt>
      <trkpt lat="49.33828" lon="1.14283">
        <ele>82</ele>
        <time>2017-04-25T14:37:22Z</time>
      </trkpt>
      <trkpt lat="49.33829" lon="1.14276">
        <ele>82</ele>
        <time>2017-04-25T14:37:22Z</time>
      </trkpt>
      <trkpt lat="49.33831" lon="1.14268">
        <ele>82</ele>
        <time>2017-04-25T14:37:22Z</time>
      </trkpt>
      <trkpt lat="49.33832" lon="1.1426">
        <ele>82</ele>
        <time>2017-04-25T14:37:22Z</time>
      </trkpt>
      <trkpt lat="49.33833" lon="1.14252">
        <ele>82</ele>
        <time>2017-04-25T14:37:38Z</time>
      </trkpt>
      <trkpt lat="49.33834" lon="1.14245">
        <ele>82</ele>
        <time>2017-04-25T14:37:38Z</time>
      </trkpt>
      <trkpt lat="49.33834" lon="1.14239">
        <ele>82</ele>
        <time>2017-04-25T14:37:38Z</time>
      </trkpt>
      <trkpt lat="49.33835" lon="1.1423">
        <ele>82</ele>
        <time>2017-04-25T14:37:38Z</time>
      </trkpt>
      <trkpt lat="49.33836" lon="1.14223">
        <ele>82</ele>
        <time>2017-04-25T14:37:54Z</time>
      </trkpt>
      <trkpt lat="49.33836" lon="1.14215">
        <ele>82</ele>
        <time>2017-04-25T14:37:54Z</time>
      </trkpt>
      <trkpt lat="49.33837" lon="1.14208">
        <ele>82</ele>
        <time>2017-04-25T14:37:54Z</time>
      </trkpt>
      <trkpt lat="49.33838" lon="1.142">
        <ele>82</ele>
        <time>2017-04-25T14:37:54Z</time>
      </trkpt>
      <trkpt lat="49.33839" lon="1.14194">
        <ele>82</ele>
        <time>2017-04-25T14:38:10Z</time>
      </trkpt>
      <trkpt lat="49.33841" lon="1.14185">
        <ele>82</ele>
        <time>2017-04-25T14:38:10Z</time>
      </trkpt>
      <trkpt lat="49.33842" lon="1.14179">
        <ele>82</ele>
        <time>2017-04-25T14:38:10Z</time>
      </trkpt>
      <trkpt lat="49.33842" lon="1.14171">
        <ele>82</ele>
        <time>2017-04-25T14:38:10Z</time>
      </trkpt>
      <trkpt lat="49.33843" lon="1.14162">
        <ele>82</ele>
        <time>2017-04-25T14:38:26Z</time>
      </trkpt>
      <trkpt lat="49.33844" lon="1.14155">
        <ele>82</ele>
        <time>2017-04-25T14:38:26Z</time>
      </trkpt>
      <trkpt lat="49.33845" lon="1.14147">
        <ele>82</ele>
        <time>2017-04-25T14:38:26Z</time>
      </trkpt>
      <trkpt lat="49.33846" lon="1.14139">
        <ele>82</ele>
        <time>2017-04-25T14:38:26Z</time>
      </trkpt>
      <trkpt lat="49.33848" lon="1.14133">
        <ele>82</ele>
        <time>2017-04-25T14:38:42Z</time>
      </trkpt>
      <trkpt lat="49.33849" lon="1.14126">
        <ele>82</ele>
        <time>2017-04-25T14:38:42Z</time>
      </trkpt>
      <trkpt lat="49.3385" lon="1.14117">
        <ele>83</ele>
        <time>2017-04-25T14:38:42Z</time>
      </trkpt>
      <trkpt lat="49.33851" lon="1.1411">
        <ele>83</ele>
        <time>2017-04-25T14:38:42Z</time>
      </trkpt>
      <trkpt lat="49.33852" lon="1.14102">
        <ele>83</ele>
        <time>2017-04-25T14:38:58Z</time>
      </trkpt>
      <trkpt lat="49.33852" lon="1.14095">
        <ele>83</ele>
        <time>2017-04-25T14:38:59Z</time>
      </trkpt>
      <trkpt lat="49.33853" lon="1.14089">
        <ele>83</ele>
        <time>2017-04-25T14:38:59Z</time>
      </trkpt>
      <trkpt lat="49.33853" lon="1.14081">
        <ele>83</ele>
        <time>2017-04-25T14:38:59Z</time>
      </trkpt>
      <trkpt lat="49.33855" lon="1.14073">
        <ele>83</ele>
        <time>2017-04-25T14:39:14Z</time>
      </trkpt>
      <trkpt lat="49.33856" lon="1.14065">
        <ele>83</ele>
        <time>2017-04-25T14:39:14Z</time>
      </trkpt>
      <trkpt lat="49.33857" lon="1.14057">
        <ele>83</ele>
        <time>2017-04-25T14:39:14Z</time>
      </trkpt>
      <trkpt lat="49.33857" lon="1.14051">
        <ele>83</ele>
        <time>2017-04-25T14:39:14Z</time>
      </trkpt>
      <trkpt lat="49.33858" lon="1.14044">
        <ele>83</ele>
        <time>2017-04-25T14:39:30Z</time>
      </trkpt>
      <trkpt lat="49.33858" lon="1.14036">
        <ele>82</ele>
        <time>2017-04-25T14:39:30Z</time>
      </trkpt>
      <trkpt lat="49.33859" lon="1.14031">
        <ele>82</ele>
        <time>2017-04-25T14:39:30Z</time>
      </trkpt>
      <trkpt lat="49.3386" lon="1.14022">
        <ele>82</ele>
        <time>2017-04-25T14:39:30Z</time>
      </trkpt>
      <trkpt lat="49.33861" lon="1.14016">
        <ele>82</ele>
        <time>2017-04-25T14:39:46Z</time>
      </trkpt>
      <trkpt lat="49.33862" lon="1.14008">
        <ele>82</ele>
        <time>2017-04-25T14:39:46Z</time>
      </trkpt>
      <trkpt lat="49.33863" lon="1.14001">
        <ele>82</ele>
        <time>2017-04-25T14:39:46Z</time>
      </trkpt>
      <trkpt lat="49.33864" lon="1.13994">
        <ele>82</ele>
        <time>2017-04-25T14:39:46Z</time>
      </trkpt>
      <trkpt lat="49.33865" lon="1.13987">
        <ele>82</ele>
        <time>2017-04-25T14:40:02Z</time>
      </trkpt>
      <trkpt lat="49.33866" lon="1.1398">
        <ele>82</ele>
        <time>2017-04-25T14:40:02Z</time>
      </trkpt>
      <trkpt lat="49.33867" lon="1.13973">
        <ele>82</ele>
        <time>2017-04-25T14:40:02Z</time>
      </trkpt>
      <trkpt lat="49.33868" lon="1.13964">
        <ele>82</ele>
        <time>2017-04-25T14:40:02Z</time>
      </trkpt>
      <trkpt lat="49.33869" lon="1.13956">
        <ele>80</ele>
        <time>2017-04-25T14:40:18Z</time>
      </trkpt>
      <trkpt lat="49.3387" lon="1.13949">
        <ele>80</ele>
        <time>2017-04-25T14:40:18Z</time>
      </trkpt>
      <trkpt lat="49.3387" lon="1.13944">
        <ele>80</ele>
        <time>2017-04-25T14:40:18Z</time>
      </trkpt>
      <trkpt lat="49.33871" lon="1.13937">
        <ele>80</ele>
        <time>2017-04-25T14:40:18Z</time>
      </trkpt>
      <trkpt lat="49.33872" lon="1.13931">
        <ele>80</ele>
        <time>2017-04-25T14:40:34Z</time>
      </trkpt>
      <trkpt lat="49.33874" lon="1.13924">
        <ele>80</ele>
        <time>2017-04-25T14:40:34Z</time>
      </trkpt>
      <trkpt lat="49.33876" lon="1.13916">
        <ele>81</ele>
        <time>2017-04-25T14:40:34Z</time>
      </trkpt>
      <trkpt lat="49.33877" lon="1.13909">
        <ele>81</ele>
        <time>2017-04-25T14:40:34Z</time>
      </trkpt>
      <trkpt lat="49.33879" lon="1.13902">
        <ele>81</ele>
        <time>2017-04-25T14:40:50Z</time>
      </trkpt>
      <trkpt lat="49.33879" lon="1.13895">
        <ele>81</ele>
        <time>2017-04-25T14:40:50Z</time>
      </trkpt>
      <trkpt lat="49.3388" lon="1.1389">
        <ele>81</ele>
        <time>2017-04-25T14:40:50Z</time>
      </trkpt>
      <trkpt lat="49.33882" lon="1.13882">
        <ele>81</ele>
        <time>2017-04-25T14:40:50Z</time>
      </trkpt>
      <trkpt lat="49.33883" lon="1.13874">
        <ele>81</ele>
        <time>2017-04-25T14:41:06Z</time>
      </trkpt>
      <trkpt lat="49.33884" lon="1.13868">
        <ele>81</ele>
        <time>2017-04-25T14:41:06Z</time>
      </trkpt>
      <trkpt lat="49.33886" lon="1.13859">
        <ele>81</ele>
        <time>2017-04-25T14:41:06Z</time>
      </trkpt>
      <trkpt lat="49.33887" lon="1.13853">
        <ele>81</ele>
        <time>2017-04-25T14:41:06Z</time>
      </trkpt>
      <trkpt lat="49.33889" lon="1.13846">
        <ele>81</ele>
        <time>2017-04-25T14:41:22Z</time>
      </trkpt>
      <trkpt lat="49.33891" lon="1.13839">
        <ele>81</ele>
        <time>2017-04-25T14:41:22Z</time>
      </trkpt>
      <trkpt lat="49.33893" lon="1.13832">
        <ele>81</ele>
        <time>2017-04-25T14:41:22Z</time>
      </trkpt>
      <trkpt lat="49.33895" lon="1.13826">
        <ele>81</ele>
        <time>2017-04-25T14:41:22Z</time>
      </trkpt>
      <trkpt lat="49.33896" lon="1.13818">
        <ele>81</ele>
        <time>2017-04-25T14:41:38Z</time>
      </trkpt>
      <trkpt lat="49.33899" lon="1.1381">
        <ele>81</ele>
        <time>2017-04-25T14:41:38Z</time>
      </trkpt>
      <trkpt lat="49.33902" lon="1.13805">
        <ele>81</ele>
        <time>2017-04-25T14:41:38Z</time>
      </trkpt>
      <trkpt lat="49.33904" lon="1.13798">
        <ele>81</ele>
        <time>2017-04-25T14:41:38Z</time>
      </trkpt>
      <trkpt lat="49.33905" lon="1.13793">
        <ele>81</ele>
        <time>2017-04-25T14:41:54Z</time>
      </trkpt>
      <trkpt lat="49.33906" lon="1.13787">
        <ele>82</ele>
        <time>2017-04-25T14:41:54Z</time>
      </trkpt>
      <trkpt lat="49.3391" lon="1.13779">
        <ele>82</ele>
        <time>2017-04-25T14:41:54Z</time>
      </trkpt>
      <trkpt lat="49.3391" lon="1.13772">
        <ele>82</ele>
        <time>2017-04-25T14:41:54Z</time>
      </trkpt>
      <trkpt lat="49.33913" lon="1.13765">
        <ele>82</ele>
        <time>2017-04-25T14:42:10Z</time>
      </trkpt>
      <trkpt lat="49.33915" lon="1.13758">
        <ele>82</ele>
        <time>2017-04-25T14:42:10Z</time>
      </trkpt>
      <trkpt lat="49.33917" lon="1.1375">
        <ele>82</ele>
        <time>2017-04-25T14:42:10Z</time>
      </trkpt>
      <trkpt lat="49.3392" lon="1.13743">
        <ele>82</ele>
        <time>2017-04-25T14:42:10Z</time>
      </trkpt>
      <trkpt lat="49.33922" lon="1.13737">
        <ele>82</ele>
        <time>2017-04-25T14:42:26Z</time>
      </trkpt>
      <trkpt lat="49.33924" lon="1.1373">
        <ele>82</ele>
        <time>2017-04-25T14:42:26Z</time>
      </trkpt>
      <trkpt lat="49.33926" lon="1.13724">
        <ele>82</ele>
        <time>2017-04-25T14:42:26Z</time>
      </trkpt>
      <trkpt lat="49.33928" lon="1.13718">
        <ele>82</ele>
        <time>2017-04-25T14:42:26Z</time>
      </trkpt>
      <trkpt lat="49.33931" lon="1.13712">
        <ele>82</ele>
        <time>2017-04-25T14:42:42Z</time>
      </trkpt>
      <trkpt lat="49.33933" lon="1.13704">
        <ele>82</ele>
        <time>2017-04-25T14:42:42Z</time>
      </trkpt>
      <trkpt lat="49.33936" lon="1.13697">
        <ele>82</ele>
        <time>2017-04-25T14:42:42Z</time>
      </trkpt>
      <trkpt lat="49.33938" lon="1.13691">
        <ele>82</ele>
        <time>2017-04-25T14:42:42Z</time>
      </trkpt>
      <trkpt lat="49.33941" lon="1.13684">
        <ele>82</ele>
        <time>2017-04-25T14:42:58Z</time>
      </trkpt>
      <trkpt lat="49.33943" lon="1.1368">
        <ele>82</ele>
        <time>2017-04-25T14:42:58Z</time>
      </trkpt>
      <trkpt lat="49.33945" lon="1.13675">
        <ele>82</ele>
        <time>2017-04-25T14:42:58Z</time>
      </trkpt>
      <trkpt lat="49.33947" lon="1.13669">
        <ele>82</ele>
        <time>2017-04-25T14:42:58Z</time>
      </trkpt>
      <trkpt lat="49.33949" lon="1.13663">
        <ele>82</ele>
        <time>2017-04-25T14:43:14Z</time>
      </trkpt>
      <trkpt lat="49.33953" lon="1.13656">
        <ele>82</ele>
        <time>2017-04-25T14:43:14Z</time>
      </trkpt>
      <trkpt lat="49.33956" lon="1.1365">
        <ele>82</ele>
        <time>2017-04-25T14:43:14Z</time>
      </trkpt>
      <trkpt lat="49.33957" lon="1.13644">
        <ele>82</ele>
        <time>2017-04-25T14:43:14Z</time>
      </trkpt>
      <trkpt lat="49.3396" lon="1.13639">
        <ele>83</ele>
        <time>2017-04-25T14:43:30Z</time>
      </trkpt>
      <trkpt lat="49.33963" lon="1.13633">
        <ele>83</ele>
        <time>2017-04-25T14:43:30Z</time>
      </trkpt>
      <trkpt lat="49.33965" lon="1.13627">
        <ele>83</ele>
        <time>2017-04-25T14:43:30Z</time>
      </trkpt>
      <trkpt lat="49.33968" lon="1.13623">
        <ele>84</ele>
        <time>2017-04-25T14:43:30Z</time>
      </trkpt>
      <trkpt lat="49.3397" lon="1.13619">
        <ele>84</ele>
        <time>2017-04-25T14:43:46Z</time>
      </trkpt>
      <trkpt lat="49.33973" lon="1.13612">
        <ele>84</ele>
        <time>2017-04-25T14:43:46Z</time>
      </trkpt>
      <trkpt lat="49.33975" lon="1.13606">
        <ele>84</ele>
        <time>2017-04-25T14:43:46Z</time>
      </trkpt>
      <trkpt lat="49.33978" lon="1.136">
        <ele>84</ele>
        <time>2017-04-25T14:43:46Z</time>
      </trkpt>
      <trkpt lat="49.3398" lon="1.13593">
        <ele>84</ele>
        <time>2017-04-25T14:44:02Z</time>
      </trkpt>
      <trkpt lat="49.33982" lon="1.13587">
        <ele>84</ele>
        <time>2017-04-25T14:44:02Z</time>
      </trkpt>
      <trkpt lat="49.33984" lon="1.13581">
        <ele>84</ele>
        <time>2017-04-25T14:44:02Z</time>
      </trkpt>
      <trkpt lat="49.33987" lon="1.13574">
        <ele>84</ele>
        <time>2017-04-25T14:44:02Z</time>
      </trkpt>
      <trkpt lat="49.33989" lon="1.13568">
        <ele>84</ele>
        <time>2017-04-25T14:44:18Z</time>
      </trkpt>
      <trkpt lat="49.33991" lon="1.13559">
        <ele>84</ele>
        <time>2017-04-25T14:44:18Z</time>
      </trkpt>
      <trkpt lat="49.33993" lon="1.13554">
        <ele>84</ele>
        <time>2017-04-25T14:44:18Z</time>
      </trkpt>
      <trkpt lat="49.33995" lon="1.13549">
        <ele>84</ele>
        <time>2017-04-25T14:44:18Z</time>
      </trkpt>
      <trkpt lat="49.33997" lon="1.13543">
        <ele>84</ele>
        <time>2017-04-25T14:44:34Z</time>
      </trkpt>
      <trkpt lat="49.33999" lon="1.13536">
        <ele>84</ele>
        <time>2017-04-25T14:44:34Z</time>
      </trkpt>
      <trkpt lat="49.34" lon="1.13529">
        <ele>84</ele>
        <time>2017-04-25T14:44:34Z</time>
      </trkpt>
      <trkpt lat="49.34001" lon="1.13521">
        <ele>84</ele>
        <time>2017-04-25T14:44:34Z</time>
      </trkpt>
      <trkpt lat="49.34001" lon="1.13514">
        <ele>84</ele>
        <time>2017-04-25T14:44:50Z</time>
      </trkpt>
      <trkpt lat="49.34002" lon="1.13509">
        <ele>84</ele>
        <time>2017-04-25T14:44:50Z</time>
      </trkpt>
      <trkpt lat="49.34002" lon="1.13502">
        <ele>84</ele>
        <time>2017-04-25T14:44:50Z</time>
      </trkpt>
      <trkpt lat="49.34002" lon="1.13494">
        <ele>84</ele>
        <time>2017-04-25T14:44:50Z</time>
      </trkpt>
      <trkpt lat="49.34002" lon="1.13488">
        <ele>84</ele>
        <time>2017-04-25T14:45:06Z</time>
      </trkpt>
      <trkpt lat="49.34" lon="1.13479">
        <ele>84</ele>
        <time>2017-04-25T14:45:06Z</time>
      </trkpt>
      <trkpt lat="49.34" lon="1.13472">
        <ele>84</ele>
        <time>2017-04-25T14:45:06Z</time>
      </trkpt>
      <trkpt lat="49.33999" lon="1.13465">
        <ele>84</ele>
        <time>2017-04-25T14:45:06Z</time>
      </trkpt>
      <trkpt lat="49.33998" lon="1.1346">
        <ele>84</ele>
        <time>2017-04-25T14:45:22Z</time>
      </trkpt>
      <trkpt lat="49.33994" lon="1.13454">
        <ele>85</ele>
        <time>2017-04-25T14:45:22Z</time>
      </trkpt>
      <trkpt lat="49.33991" lon="1.13452">
        <ele>85</ele>
        <time>2017-04-25T14:45:22Z</time>
      </trkpt>
      <trkpt lat="49.33986" lon="1.13448">
        <ele>85</ele>
        <time>2017-04-25T14:45:22Z</time>
      </trkpt>
      <trkpt lat="49.33982" lon="1.13447">
        <ele>85</ele>
        <time>2017-04-25T14:45:38Z</time>
      </trkpt>
      <trkpt lat="49.33978" lon="1.13446">
        <ele>85</ele>
        <time>2017-04-25T14:45:38Z</time>
      </trkpt>
      <trkpt lat="49.33973" lon="1.13447">
        <ele>85</ele>
        <time>2017-04-25T14:45:38Z</time>
      </trkpt>
      <trkpt lat="49.33969" lon="1.13448">
        <ele>85</ele>
        <time>2017-04-25T14:45:38Z</time>
      </trkpt>
      <trkpt lat="49.33966" lon="1.13448">
        <ele>85</ele>
        <time>2017-04-25T14:45:54Z</time>
      </trkpt>
      <trkpt lat="49.3396" lon="1.13449">
        <ele>85</ele>
        <time>2017-04-25T14:45:54Z</time>
      </trkpt>
      <trkpt lat="49.33955" lon="1.13449">
        <ele>82</ele>
        <time>2017-04-25T14:45:54Z</time>
      </trkpt>
      <trkpt lat="49.3395" lon="1.13449">
        <ele>82</ele>
        <time>2017-04-25T14:45:54Z</time>
      </trkpt>
      <trkpt lat="49.33945" lon="1.13449">
        <ele>82</ele>
        <time>2017-04-25T14:46:10Z</time>
      </trkpt>
      <trkpt lat="49.3394" lon="1.13449">
        <ele>82</ele>
        <time>2017-04-25T14:46:10Z</time>
      </trkpt>
      <trkpt lat="49.33936" lon="1.13451">
        <ele>82</ele>
        <time>2017-04-25T14:46:10Z</time>
      </trkpt>
      <trkpt lat="49.33933" lon="1.13451">
        <ele>82</ele>
        <time>2017-04-25T14:46:11Z</time>
      </trkpt>
      <trkpt lat="49.33928" lon="1.13451">
        <ele>82</ele>
        <time>2017-04-25T14:46:26Z</time>
      </trkpt>
      <trkpt lat="49.33923" lon="1.13451">
        <ele>82</ele>
        <time>2017-04-25T14:46:26Z</time>
      </trkpt>
      <trkpt lat="49.33919" lon="1.13451">
        <ele>82</ele>
        <time>2017-04-25T14:46:26Z</time>
      </trkpt>
      <trkpt lat="49.33914" lon="1.13453">
        <ele>82</ele>
        <time>2017-04-25T14:46:26Z</time>
      </trkpt>
      <trkpt lat="49.33909" lon="1.13454">
        <ele>82</ele>
        <time>2017-04-25T14:46:42Z</time>
      </trkpt>
      <trkpt lat="49.33903" lon="1.13455">
        <ele>82</ele>
        <time>2017-04-25T14:46:42Z</time>
      </trkpt>
      <trkpt lat="49.33898" lon="1.13456">
        <ele>82</ele>
        <time>2017-04-25T14:46:42Z</time>
      </trkpt>
      <trkpt lat="49.33893" lon="1.13456">
        <ele>82</ele>
        <time>2017-04-25T14:46:42Z</time>
      </trkpt>
      <trkpt lat="49.33889" lon="1.13457">
        <ele>82</ele>
        <time>2017-04-25T14:46:58Z</time>
      </trkpt>
      <trkpt lat="49.33884" lon="1.13458">
        <ele>82</ele>
        <time>2017-04-25T14:46:58Z</time>
      </trkpt>
      <trkpt lat="49.33879" lon="1.13459">
        <ele>81</ele>
        <time>2017-04-25T14:46:58Z</time>
      </trkpt>
      <trkpt lat="49.33874" lon="1.13461">
        <ele>82</ele>
        <time>2017-04-25T14:46:58Z</time>
      </trkpt>
      <trkpt lat="49.33869" lon="1.13463">
        <ele>82</ele>
        <time>2017-04-25T14:47:14Z</time>
      </trkpt>
      <trkpt lat="49.33865" lon="1.13463">
        <ele>82</ele>
        <time>2017-04-25T14:47:14Z</time>
      </trkpt>
      <trkpt lat="49.33859" lon="1.13464">
        <ele>82</ele>
        <time>2017-04-25T14:47:14Z</time>
      </trkpt>
      <trkpt lat="49.33856" lon="1.13465">
        <ele>82</ele>
        <time>2017-04-25T14:47:14Z</time>
      </trkpt>
      <trkpt lat="49.33852" lon="1.13465">
        <ele>82</ele>
        <time>2017-04-25T14:47:30Z</time>
      </trkpt>
      <trkpt lat="49.33847" lon="1.13466">
        <ele>82</ele>
        <time>2017-04-25T14:47:30Z</time>
      </trkpt>
      <trkpt lat="49.33841" lon="1.13465">
        <ele>82</ele>
        <time>2017-04-25T14:47:30Z</time>
      </trkpt>
      <trkpt lat="49.33836" lon="1.13466">
        <ele>82</ele>
        <time>2017-04-25T14:47:30Z</time>
      </trkpt>
      <trkpt lat="49.33832" lon="1.13467">
        <ele>82</ele>
        <time>2017-04-25T14:47:46Z</time>
      </trkpt>
      <trkpt lat="49.33828" lon="1.13469">
        <ele>82</ele>
        <time>2017-04-25T14:47:46Z</time>
      </trkpt>
      <trkpt lat="49.33822" lon="1.13471">
        <ele>82</ele>
        <time>2017-04-25T14:47:46Z</time>
      </trkpt>
      <trkpt lat="49.33818" lon="1.13471">
        <ele>82</ele>
        <time>2017-04-25T14:47:46Z</time>
      </trkpt>
      <trkpt lat="49.33813" lon="1.13471">
        <ele>82</ele>
        <time>2017-04-25T14:48:02Z</time>
      </trkpt>
      <trkpt lat="49.33807" lon="1.13471">
        <ele>82</ele>
        <time>2017-04-25T14:48:02Z</time>
      </trkpt>
      <trkpt lat="49.33802" lon="1.13472">
        <ele>82</ele>
        <time>2017-04-25T14:48:02Z</time>
      </trkpt>
      <trkpt lat="49.33799" lon="1.13474">
        <ele>82</ele>
        <time>2017-04-25T14:48:02Z</time>
      </trkpt>
      <trkpt lat="49.33794" lon="1.13475">
        <ele>82</ele>
        <time>2017-04-25T14:48:18Z</time>
      </trkpt>
      <trkpt lat="49.33789" lon="1.13476">
        <ele>81</ele>
        <time>2017-04-25T14:48:18Z</time>
      </trkpt>
      <trkpt lat="49.33784" lon="1.13477">
        <ele>81</ele>
        <time>2017-04-25T14:48:18Z</time>
      </trkpt>
      <trkpt lat="49.3378" lon="1.13477">
        <ele>81</ele>
        <time>2017-04-25T14:48:18Z</time>
      </trkpt>
      <trkpt lat="49.33775" lon="1.1348">
        <ele>81</ele>
        <time>2017-04-25T14:48:34Z</time>
      </trkpt>
      <trkpt lat="49.3377" lon="1.13482">
        <ele>81</ele>
        <time>2017-04-25T14:48:34Z</time>
      </trkpt>
      <trkpt lat="49.33764" lon="1.13483">
        <ele>81</ele>
        <time>2017-04-25T14:48:34Z</time>
      </trkpt>
      <trkpt lat="49.3376" lon="1.13484">
        <ele>81</ele>
        <time>2017-04-25T14:48:34Z</time>
      </trkpt>
      <trkpt lat="49.33755" lon="1.13485">
        <ele>81</ele>
        <time>2017-04-25T14:48:50Z</time>
      </trkpt>
      <trkpt lat="49.33751" lon="1.13485">
        <ele>81</ele>
        <time>2017-04-25T14:48:50Z</time>
      </trkpt>
      <trkpt lat="49.33747" lon="1.13487">
        <ele>81</ele>
        <time>2017-04-25T14:48:50Z</time>
      </trkpt>
      <trkpt lat="49.33743" lon="1.13487">
        <ele>81</ele>
        <time>2017-04-25T14:48:50Z</time>
      </trkpt>
      <trkpt lat="49.33737" lon="1.13488">
        <ele>81</ele>
        <time>2017-04-25T14:49:06Z</time>
      </trkpt>
      <trkpt lat="49.33731" lon="1.13489">
        <ele>81</ele>
        <time>2017-04-25T14:49:06Z</time>
      </trkpt>
      <trkpt lat="49.33727" lon="1.13489">
        <ele>81</ele>
        <time>2017-04-25T14:49:06Z</time>
      </trkpt>
      <trkpt lat="49.33722" lon="1.1349">
        <ele>81</ele>
        <time>2017-04-25T14:49:06Z</time>
      </trkpt>
      <trkpt lat="49.33717" lon="1.13491">
        <ele>81</ele>
        <time>2017-04-25T14:49:22Z</time>
      </trkpt>
      <trkpt lat="49.33712" lon="1.13493">
        <ele>81</ele>
        <time>2017-04-25T14:49:22Z</time>
      </trkpt>
      <trkpt lat="49.33708" lon="1.13495">
        <ele>81</ele>
        <time>2017-04-25T14:49:22Z</time>
      </trkpt>
      <trkpt lat="49.33704" lon="1.13496">
        <ele>81</ele>
        <time>2017-04-25T14:49:22Z</time>
      </trkpt>
      <trkpt lat="49.33699" lon="1.13497">
        <ele>81</ele>
        <time>2017-04-25T14:49:38Z</time>
      </trkpt>
      <trkpt lat="49.33693" lon="1.135">
        <ele>81</ele>
        <time>2017-04-25T14:49:38Z</time>
      </trkpt>
      <trkpt lat="49.33689" lon="1.13503">
        <ele>81</ele>
        <time>2017-04-25T14:49:38Z</time>
      </trkpt>
      <trkpt lat="49.33684" lon="1.13504">
        <ele>81</ele>
        <time>2017-04-25T14:49:38Z</time>
      </trkpt>
      <trkpt lat="49.33679" lon="1.13506">
        <ele>81</ele>
        <time>2017-04-25T14:49:54Z</time>
      </trkpt>
      <trkpt lat="49.33675" lon="1.13507">
        <ele>81</ele>
        <time>2017-04-25T14:49:54Z</time>
      </trkpt>
      <trkpt lat="49.33671" lon="1.13511">
        <ele>81</ele>
        <time>2017-04-25T14:49:54Z</time>
      </trkpt>
      <trkpt lat="49.33665" lon="1.13512">
        <ele>81</ele>
        <time>2017-04-25T14:49:55Z</time>
      </trkpt>
      <trkpt lat="49.33661" lon="1.13513">
        <ele>81</ele>
        <time>2017-04-25T14:50:10Z</time>
      </trkpt>
      <trkpt lat="49.33655" lon="1.13516">
        <ele>81</ele>
        <time>2017-04-25T14:50:10Z</time>
      </trkpt>
      <trkpt lat="49.33651" lon="1.13518">
        <ele>81</ele>
        <time>2017-04-25T14:50:10Z</time>
      </trkpt>
      <trkpt lat="49.33646" lon="1.1352">
        <ele>81</ele>
        <time>2017-04-25T14:50:10Z</time>
      </trkpt>
      <trkpt lat="49.33641" lon="1.13521">
        <ele>81</ele>
        <time>2017-04-25T14:50:26Z</time>
      </trkpt>
      <trkpt lat="49.33635" lon="1.13522">
        <ele>81</ele>
        <time>2017-04-25T14:50:26Z</time>
      </trkpt>
      <trkpt lat="49.33631" lon="1.13525">
        <ele>81</ele>
        <time>2017-04-25T14:50:26Z</time>
      </trkpt>
      <trkpt lat="49.33628" lon="1.13527">
        <ele>81</ele>
        <time>2017-04-25T14:50:27Z</time>
      </trkpt>
      <trkpt lat="49.33622" lon="1.13528">
        <ele>82</ele>
        <time>2017-04-25T14:50:42Z</time>
      </trkpt>
      <trkpt lat="49.33618" lon="1.1353">
        <ele>82</ele>
        <time>2017-04-25T14:50:42Z</time>
      </trkpt>
      <trkpt lat="49.33614" lon="1.13532">
        <ele>82</ele>
        <time>2017-04-25T14:50:42Z</time>
      </trkpt>
      <trkpt lat="49.33609" lon="1.13533">
        <ele>82</ele>
        <time>2017-04-25T14:50:42Z</time>
      </trkpt>
      <trkpt lat="49.33604" lon="1.13534">
        <ele>82</ele>
        <time>2017-04-25T14:50:58Z</time>
      </trkpt>
      <trkpt lat="49.33599" lon="1.13536">
        <ele>82</ele>
        <time>2017-04-25T14:50:58Z</time>
      </trkpt>
      <trkpt lat="49.33595" lon="1.13538">
        <ele>82</ele>
        <time>2017-04-25T14:50:58Z</time>
      </trkpt>
      <trkpt lat="49.33591" lon="1.13541">
        <ele>82</ele>
        <time>2017-04-25T14:50:58Z</time>
      </trkpt>
      <trkpt lat="49.33587" lon="1.13541">
        <ele>82</ele>
        <time>2017-04-25T14:51:14Z</time>
      </trkpt>
      <trkpt lat="49.33582" lon="1.13543">
        <ele>81</ele>
        <time>2017-04-25T14:51:14Z</time>
      </trkpt>
      <trkpt lat="49.33578" lon="1.13545">
        <ele>81</ele>
        <time>2017-04-25T14:51:14Z</time>
      </trkpt>
      <trkpt lat="49.33574" lon="1.13546">
        <ele>81</ele>
        <time>2017-04-25T14:51:14Z</time>
      </trkpt>
      <trkpt lat="49.33569" lon="1.13549">
        <ele>81</ele>
        <time>2017-04-25T14:51:30Z</time>
      </trkpt>
      <trkpt lat="49.33565" lon="1.1355">
        <ele>81</ele>
        <time>2017-04-25T14:51:30Z</time>
      </trkpt>
      <trkpt lat="49.33561" lon="1.13552">
        <ele>81</ele>
        <time>2017-04-25T14:51:30Z</time>
      </trkpt>
      <trkpt lat="49.33555" lon="1.13553">
        <ele>81</ele>
        <time>2017-04-25T14:51:30Z</time>
      </trkpt>
      <trkpt lat="49.33552" lon="1.13554">
        <ele>81</ele>
        <time>2017-04-25T14:51:46Z</time>
      </trkpt>
      <trkpt lat="49.33548" lon="1.13555">
        <ele>81</ele>
        <time>2017-04-25T14:51:46Z</time>
      </trkpt>
      <trkpt lat="49.33546" lon="1.13551">
        <ele>81</ele>
        <time>2017-04-25T14:51:46Z</time>
      </trkpt>
      <trkpt lat="49.33541" lon="1.13547">
        <ele>81</ele>
        <time>2017-04-25T14:51:46Z</time>
      </trkpt>
      <trkpt lat="49.33539" lon="1.13542">
        <ele>81</ele>
        <time>2017-04-25T14:52:02Z</time>
      </trkpt>
      <trkpt lat="49.33536" lon="1.13537">
        <ele>82</ele>
        <time>2017-04-25T14:52:02Z</time>
      </trkpt>
      <trkpt lat="49.33533" lon="1.1353">
        <ele>82</ele>
        <time>2017-04-25T14:52:02Z</time>
      </trkpt>
      <trkpt lat="49.33531" lon="1.13522">
        <ele>82</ele>
        <time>2017-04-25T14:52:02Z</time>
      </trkpt>
      <trkpt lat="49.33529" lon="1.13516">
        <ele>82</ele>
        <time>2017-04-25T14:52:18Z</time>
      </trkpt>
      <trkpt lat="49.33527" lon="1.13511">
        <ele>82</ele>
        <time>2017-04-25T14:52:18Z</time>
      </trkpt>
      <trkpt lat="49.33524" lon="1.13506">
        <ele>82</ele>
        <time>2017-04-25T14:52:18Z</time>
      </trkpt>
      <trkpt lat="49.3352" lon="1.135">
        <ele>82</ele>
        <time>2017-04-25T14:52:18Z</time>
      </trkpt>
      <trkpt lat="49.33518" lon="1.13494">
        <ele>82</ele>
        <time>2017-04-25T14:52:34Z</time>
      </trkpt>
      <trkpt lat="49.33516" lon="1.13487">
        <ele>82</ele>
        <time>2017-04-25T14:52:34Z</time>
      </trkpt>
      <trkpt lat="49.33515" lon="1.13481">
        <ele>82</ele>
        <time>2017-04-25T14:52:34Z</time>
      </trkpt>
      <trkpt lat="49.33513" lon="1.13475">
        <ele>82</ele>
        <time>2017-04-25T14:52:34Z</time>
      </trkpt>
      <trkpt lat="49.3351" lon="1.13468">
        <ele>82</ele>
        <time>2017-04-25T14:52:50Z</time>
      </trkpt>
      <trkpt lat="49.33508" lon="1.13461">
        <ele>82</ele>
        <time>2017-04-25T14:52:50Z</time>
      </trkpt>
      <trkpt lat="49.33505" lon="1.13453">
        <ele>82</ele>
        <time>2017-04-25T14:52:50Z</time>
      </trkpt>
      <trkpt lat="49.33504" lon="1.13447">
        <ele>82</ele>
        <time>2017-04-25T14:52:50Z</time>
      </trkpt>
      <trkpt lat="49.33502" lon="1.1344">
        <ele>82</ele>
        <time>2017-04-25T14:53:06Z</time>
      </trkpt>
      <trkpt lat="49.33501" lon="1.13434">
        <ele>82</ele>
        <time>2017-04-25T14:53:06Z</time>
      </trkpt>
      <trkpt lat="49.33498" lon="1.13427">
        <ele>82</ele>
        <time>2017-04-25T14:53:06Z</time>
      </trkpt>
      <trkpt lat="49.33497" lon="1.1342">
        <ele>82</ele>
        <time>2017-04-25T14:53:06Z</time>
      </trkpt>
      <trkpt lat="49.33495" lon="1.13414">
        <ele>82</ele>
        <time>2017-04-25T14:53:22Z</time>
      </trkpt>
      <trkpt lat="49.33494" lon="1.13406">
        <ele>82</ele>
        <time>2017-04-25T14:53:22Z</time>
      </trkpt>
      <trkpt lat="49.33493" lon="1.13401">
        <ele>82</ele>
        <time>2017-04-25T14:53:22Z</time>
      </trkpt>
      <trkpt lat="49.33491" lon="1.13392">
        <ele>82</ele>
        <time>2017-04-25T14:53:22Z</time>
      </trkpt>
      <trkpt lat="49.33489" lon="1.13388">
        <ele>82</ele>
        <time>2017-04-25T14:53:38Z</time>
      </trkpt>
      <trkpt lat="49.33487" lon="1.13382">
        <ele>82</ele>
        <time>2017-04-25T14:53:38Z</time>
      </trkpt>
      <trkpt lat="49.33484" lon="1.13375">
        <ele>82</ele>
        <time>2017-04-25T14:53:38Z</time>
      </trkpt>
      <trkpt lat="49.33483" lon="1.13368">
        <ele>83</ele>
        <time>2017-04-25T14:53:38Z</time>
      </trkpt>
      <trkpt lat="49.3348" lon="1.1336">
        <ele>83</ele>
        <time>2017-04-25T14:53:54Z</time>
      </trkpt>
      <trkpt lat="49.33478" lon="1.13354">
        <ele>83</ele>
        <time>2017-04-25T14:53:54Z</time>
      </trkpt>
      <trkpt lat="49.33476" lon="1.13349">
        <ele>83</ele>
        <time>2017-04-25T14:53:54Z</time>
      </trkpt>
      <trkpt lat="49.33473" lon="1.1334">
        <ele>83</ele>
        <time>2017-04-25T14:53:54Z</time>
      </trkpt>
      <trkpt lat="49.33471" lon="1.13334">
        <ele>83</ele>
        <time>2017-04-25T14:54:10Z</time>
      </trkpt>
      <trkpt lat="49.33469" lon="1.13327">
        <ele>83</ele>
        <time>2017-04-25T14:54:10Z</time>
      </trkpt>
      <trkpt lat="49.33467" lon="1.13319">
        <ele>83</ele>
        <time>2017-04-25T14:54:10Z</time>
      </trkpt>
      <trkpt lat="49.33466" lon="1.13314">
        <ele>83</ele>
        <time>2017-04-25T14:54:10Z</time>
      </trkpt>
      <trkpt lat="49.33465" lon="1.13306">
        <ele>83</ele>
        <time>2017-04-25T14:54:26Z</time>
      </trkpt>
      <trkpt lat="49.33464" lon="1.13299">
        <ele>83</ele>
        <time>2017-04-25T14:54:26Z</time>
      </trkpt>
      <trkpt lat="49.33462" lon="1.13292">
        <ele>83</ele>
        <time>2017-04-25T14:54:26Z</time>
      </trkpt>
      <trkpt lat="49.3346" lon="1.13286">
        <ele>84</ele>
        <time>2017-04-25T14:54:26Z</time>
      </trkpt>
      <trkpt lat="49.33458" lon="1.13279">
        <ele>83</ele>
        <time>2017-04-25T14:54:42Z</time>
      </trkpt>
      <trkpt lat="49.33455" lon="1.13271">
        <ele>83</ele>
        <time>2017-04-25T14:54:42Z</time>
      </trkpt>
      <trkpt lat="49.33452" lon="1.13265">
        <ele>83</ele>
        <time>2017-04-25T14:54:42Z</time>
      </trkpt>
      <trkpt lat="49.33451" lon="1.13259">
        <ele>83</ele>
        <time>2017-04-25T14:54:42Z</time>
      </trkpt>
      <trkpt lat="49.33451" lon="1.13254">
        <ele>83</ele>
        <time>2017-04-25T14:55:02Z</time>
      </trkpt>
      <trkpt lat="49.33452" lon="1.1325">
        <ele>83</ele>
        <time>2017-04-25T14:55:02Z</time>
      </trkpt>
      <trkpt lat="49.33452" lon="1.13246">
        <ele>83</ele>
        <time>2017-04-25T14:55:02Z</time>
      </trkpt>
      <trkpt lat="49.33451" lon="1.13242">
        <ele>83</ele>
        <time>2017-04-25T14:55:02Z</time>
      </trkpt>
      <trkpt lat="49.33451" lon="1.13237">
        <ele>83</ele>
        <time>2017-04-25T14:55:02Z</time>
      </trkpt>
      <trkpt lat="49.33449" lon="1.1323">
        <ele>83</ele>
        <time>2017-04-25T14:55:18Z</time>
      </trkpt>
      <trkpt lat="49.33448" lon="1.13224">
        <ele>83</ele>
        <time>2017-04-25T14:55:18Z</time>
      </trkpt>
      <trkpt lat="49.33448" lon="1.13216">
        <ele>83</ele>
        <time>2017-04-25T14:55:18Z</time>
      </trkpt>
      <trkpt lat="49.33447" lon="1.13211">
        <ele>83</ele>
        <time>2017-04-25T14:55:18Z</time>
      </trkpt>
      <trkpt lat="49.33445" lon="1.13205">
        <ele>84</ele>
        <time>2017-04-25T14:55:34Z</time>
      </trkpt>
      <trkpt lat="49.33441" lon="1.13197">
        <ele>84</ele>
        <time>2017-04-25T14:55:35Z</time>
      </trkpt>
      <trkpt lat="49.33438" lon="1.13191">
        <ele>84</ele>
        <time>2017-04-25T14:55:35Z</time>
      </trkpt>
      <trkpt lat="49.33436" lon="1.13183">
        <ele>84</ele>
        <time>2017-04-25T14:55:35Z</time>
      </trkpt>
      <trkpt lat="49.33435" lon="1.13179">
        <ele>84</ele>
        <time>2017-04-25T14:55:50Z</time>
      </trkpt>
      <trkpt lat="49.33433" lon="1.13171">
        <ele>84</ele>
        <time>2017-04-25T14:55:50Z</time>
      </trkpt>
      <trkpt lat="49.33432" lon="1.13166">
        <ele>84</ele>
        <time>2017-04-25T14:55:50Z</time>
      </trkpt>
      <trkpt lat="49.3343" lon="1.13158">
        <ele>84</ele>
        <time>2017-04-25T14:55:50Z</time>
      </trkpt>
      <trkpt lat="49.3343" lon="1.13151">
        <ele>84</ele>
        <time>2017-04-25T14:56:06Z</time>
      </trkpt>
      <trkpt lat="49.33429" lon="1.13146">
        <ele>84</ele>
        <time>2017-04-25T14:56:06Z</time>
      </trkpt>
      <trkpt lat="49.33427" lon="1.13139">
        <ele>84</ele>
        <time>2017-04-25T14:56:06Z</time>
      </trkpt>
      <trkpt lat="49.33424" lon="1.13132">
        <ele>84</ele>
        <time>2017-04-25T14:56:06Z</time>
      </trkpt>
      <trkpt lat="49.33417" lon="1.13124">
        <ele>83</ele>
        <time>2017-04-25T14:56:50Z</time>
      </trkpt>
      <trkpt lat="49.33416" lon="1.13123">
        <ele>83</ele>
        <time>2017-04-25T14:56:50Z</time>
      </trkpt>
      <trkpt lat="49.33415" lon="1.13124">
        <ele>83</ele>
        <time>2017-04-25T14:56:50Z</time>
      </trkpt>
      <trkpt lat="49.33415" lon="1.13126">
        <ele>84</ele>
        <time>2017-04-25T14:56:50Z</time>
      </trkpt>
      <trkpt lat="49.33414" lon="1.13126">
        <ele>84</ele>
        <time>2017-04-25T14:56:50Z</time>
      </trkpt>
      <trkpt lat="49.33413" lon="1.13122">
        <ele>83</ele>
        <time>2017-04-25T14:57:34Z</time>
      </trkpt>
      <trkpt lat="49.33411" lon="1.13122">
        <ele>83</ele>
        <time>2017-04-25T14:57:34Z</time>
      </trkpt>
      <trkpt lat="49.33408" lon="1.13122">
        <ele>83</ele>
        <time>2017-04-25T14:57:34Z</time>
      </trkpt>
      <trkpt lat="49.33405" lon="1.13123">
        <ele>83</ele>
        <time>2017-04-25T14:57:34Z</time>
      </trkpt>
      <trkpt lat="49.33401" lon="1.13123">
        <ele>83</ele>
        <time>2017-04-25T14:57:34Z</time>
      </trkpt>
      <trkpt lat="49.33399" lon="1.13124">
        <ele>83</ele>
        <time>2017-04-25T14:57:50Z</time>
      </trkpt>
      <trkpt lat="49.33396" lon="1.13124">
        <ele>83</ele>
        <time>2017-04-25T14:57:50Z</time>
      </trkpt>
      <trkpt lat="49.33391" lon="1.13125">
        <ele>84</ele>
        <time>2017-04-25T14:57:50Z</time>
      </trkpt>
      <trkpt lat="49.33385" lon="1.1313">
        <ele>84</ele>
        <time>2017-04-25T14:57:50Z</time>
      </trkpt>
      <trkpt lat="49.33381" lon="1.13132">
        <ele>84</ele>
        <time>2017-04-25T14:58:06Z</time>
      </trkpt>
      <trkpt lat="49.33379" lon="1.13132">
        <ele>84</ele>
        <time>2017-04-25T14:58:06Z</time>
      </trkpt>
      <trkpt lat="49.33375" lon="1.13132">
        <ele>84</ele>
        <time>2017-04-25T14:58:06Z</time>
      </trkpt>
      <trkpt lat="49.3337" lon="1.13132">
        <ele>83</ele>
        <time>2017-04-25T14:58:06Z</time>
      </trkpt>
      <trkpt lat="49.33365" lon="1.13135">
        <ele>83</ele>
        <time>2017-04-25T14:58:22Z</time>
      </trkpt>
      <trkpt lat="49.33362" lon="1.13138">
        <ele>83</ele>
        <time>2017-04-25T14:58:22Z</time>
      </trkpt>
      <trkpt lat="49.3336" lon="1.13138">
        <ele>83</ele>
        <time>2017-04-25T14:58:22Z</time>
      </trkpt>
      <trkpt lat="49.33356" lon="1.1314">
        <ele>83</ele>
        <time>2017-04-25T14:58:22Z</time>
      </trkpt>
      <trkpt lat="49.33351" lon="1.13142">
        <ele>83</ele>
        <time>2017-04-25T14:58:38Z</time>
      </trkpt>
      <trkpt lat="49.33347" lon="1.13144">
        <ele>83</ele>
        <time>2017-04-25T14:58:38Z</time>
      </trkpt>
      <trkpt lat="49.33342" lon="1.13143">
        <ele>83</ele>
        <time>2017-04-25T14:58:38Z</time>
      </trkpt>
      <trkpt lat="49.33337" lon="1.13143">
        <ele>83</ele>
        <time>2017-04-25T14:58:38Z</time>
      </trkpt>
      <trkpt lat="49.33333" lon="1.13145">
        <ele>83</ele>
        <time>2017-04-25T14:58:54Z</time>
      </trkpt>
      <trkpt lat="49.33331" lon="1.13147">
        <ele>83</ele>
        <time>2017-04-25T14:58:54Z</time>
      </trkpt>
      <trkpt lat="49.33326" lon="1.13149">
        <ele>83</ele>
        <time>2017-04-25T14:58:54Z</time>
      </trkpt>
      <trkpt lat="49.33322" lon="1.1315">
        <ele>83</ele>
        <time>2017-04-25T14:58:54Z</time>
      </trkpt>
      <trkpt lat="49.33319" lon="1.13151">
        <ele>83</ele>
        <time>2017-04-25T14:59:10Z</time>
      </trkpt>
      <trkpt lat="49.33314" lon="1.1315">
        <ele>83</ele>
        <time>2017-04-25T14:59:10Z</time>
      </trkpt>
      <trkpt lat="49.33309" lon="1.13153">
        <ele>83</ele>
        <time>2017-04-25T14:59:11Z</time>
      </trkpt>
      <trkpt lat="49.33302" lon="1.13156">
        <ele>83</ele>
        <time>2017-04-25T14:59:11Z</time>
      </trkpt>
      <trkpt lat="49.33297" lon="1.13158">
        <ele>83</ele>
        <time>2017-04-25T14:59:26Z</time>
      </trkpt>
      <trkpt lat="49.33291" lon="1.13162">
        <ele>85</ele>
        <time>2017-04-25T14:59:26Z</time>
      </trkpt>
      <trkpt lat="49.33288" lon="1.13164">
        <ele>85</ele>
        <time>2017-04-25T14:59:26Z</time>
      </trkpt>
      <trkpt lat="49.33282" lon="1.13165">
        <ele>85</ele>
        <time>2017-04-25T14:59:27Z</time>
      </trkpt>
      <trkpt lat="49.33277" lon="1.13166">
        <ele>85</ele>
        <time>2017-04-25T14:59:42Z</time>
      </trkpt>
      <trkpt lat="49.33276" lon="1.13167">
        <ele>85</ele>
        <time>2017-04-25T14:59:42Z</time>
      </trkpt>
      <trkpt lat="49.33271" lon="1.13168">
        <ele>85</ele>
        <time>2017-04-25T14:59:42Z</time>
      </trkpt>
      <trkpt lat="49.33265" lon="1.1317">
        <ele>85</ele>
        <time>2017-04-25T14:59:42Z</time>
      </trkpt>
      <trkpt lat="49.33261" lon="1.13172">
        <ele>85</ele>
        <time>2017-04-25T14:59:58Z</time>
      </trkpt>
      <trkpt lat="49.33256" lon="1.13174">
        <ele>85</ele>
        <time>2017-04-25T14:59:58Z</time>
      </trkpt>
      <trkpt lat="49.3325" lon="1.13177">
        <ele>85</ele>
        <time>2017-04-25T14:59:58Z</time>
      </trkpt>
      <trkpt lat="49.33244" lon="1.13179">
        <ele>85</ele>
        <time>2017-04-25T14:59:58Z</time>
      </trkpt>
      <trkpt lat="49.33239" lon="1.13181">
        <ele>85</ele>
        <time>2017-04-25T15:00:14Z</time>
      </trkpt>
      <trkpt lat="49.33234" lon="1.13183">
        <ele>85</ele>
        <time>2017-04-25T15:00:14Z</time>
      </trkpt>
      <trkpt lat="49.33231" lon="1.13185">
        <ele>85</ele>
        <time>2017-04-25T15:00:14Z</time>
      </trkpt>
      <trkpt lat="49.33226" lon="1.13187">
        <ele>85</ele>
        <time>2017-04-25T15:00:14Z</time>
      </trkpt>
      <trkpt lat="49.33223" lon="1.13188">
        <ele>85</ele>
        <time>2017-04-25T15:00:30Z</time>
      </trkpt>
      <trkpt lat="49.33217" lon="1.13189">
        <ele>85</ele>
        <time>2017-04-25T15:00:30Z</time>
      </trkpt>
      <trkpt lat="49.33211" lon="1.1319">
        <ele>85</ele>
        <time>2017-04-25T15:00:30Z</time>
      </trkpt>
      <trkpt lat="49.33207" lon="1.13191">
        <ele>84</ele>
        <time>2017-04-25T15:00:30Z</time>
      </trkpt>
      <trkpt lat="49.33203" lon="1.13194">
        <ele>84</ele>
        <time>2017-04-25T15:00:46Z</time>
      </trkpt>
      <trkpt lat="49.33197" lon="1.13197">
        <ele>84</ele>
        <time>2017-04-25T15:00:46Z</time>
      </trkpt>
      <trkpt lat="49.33191" lon="1.13197">
        <ele>84</ele>
        <time>2017-04-25T15:00:46Z</time>
      </trkpt>
      <trkpt lat="49.33188" lon="1.132">
        <ele>84</ele>
        <time>2017-04-25T15:00:46Z</time>
      </trkpt>
      <trkpt lat="49.33184" lon="1.13203">
        <ele>84</ele>
        <time>2017-04-25T15:01:02Z</time>
      </trkpt>
      <trkpt lat="49.3318" lon="1.13206">
        <ele>84</ele>
        <time>2017-04-25T15:01:02Z</time>
      </trkpt>
      <trkpt lat="49.33177" lon="1.13206">
        <ele>84</ele>
        <time>2017-04-25T15:01:02Z</time>
      </trkpt>
      <trkpt lat="49.33172" lon="1.13206">
        <ele>84</ele>
        <time>2017-04-25T15:01:02Z</time>
      </trkpt>
      <trkpt lat="49.33168" lon="1.13209">
        <ele>80</ele>
        <time>2017-04-25T15:01:18Z</time>
      </trkpt>
      <trkpt lat="49.33163" lon="1.1321">
        <ele>80</ele>
        <time>2017-04-25T15:01:18Z</time>
      </trkpt>
      <trkpt lat="49.33159" lon="1.13215">
        <ele>80</ele>
        <time>2017-04-25T15:01:18Z</time>
      </trkpt>
      <trkpt lat="49.33153" lon="1.13217">
        <ele>80</ele>
        <time>2017-04-25T15:01:18Z</time>
      </trkpt>
      <trkpt lat="49.33148" lon="1.13218">
        <ele>80</ele>
        <time>2017-04-25T15:01:34Z</time>
      </trkpt>
      <trkpt lat="49.33145" lon="1.13218">
        <ele>80</ele>
        <time>2017-04-25T15:01:34Z</time>
      </trkpt>
      <trkpt lat="49.33139" lon="1.13219">
        <ele>80</ele>
        <time>2017-04-25T15:01:34Z</time>
      </trkpt>
      <trkpt lat="49.33134" lon="1.1322">
        <ele>80</ele>
        <time>2017-04-25T15:01:34Z</time>
      </trkpt>
      <trkpt lat="49.33129" lon="1.13222">
        <ele>80</ele>
        <time>2017-04-25T15:01:50Z</time>
      </trkpt>
      <trkpt lat="49.33124" lon="1.13223">
        <ele>83</ele>
        <time>2017-04-25T15:01:50Z</time>
      </trkpt>
      <trkpt lat="49.33121" lon="1.13225">
        <ele>83</ele>
        <time>2017-04-25T15:01:51Z</time>
      </trkpt>
      <trkpt lat="49.33116" lon="1.13227">
        <ele>83</ele>
        <time>2017-04-25T15:01:51Z</time>
      </trkpt>
      <trkpt lat="49.33113" lon="1.13226">
        <ele>83</ele>
        <time>2017-04-25T15:02:06Z</time>
      </trkpt>
      <trkpt lat="49.33107" lon="1.1323">
        <ele>83</ele>
        <time>2017-04-25T15:02:06Z</time>
      </trkpt>
      <trkpt lat="49.33102" lon="1.1323">
        <ele>83</ele>
        <time>2017-04-25T15:02:06Z</time>
      </trkpt>
      <trkpt lat="49.33097" lon="1.13233">
        <ele>83</ele>
        <time>2017-04-25T15:02:06Z</time>
      </trkpt>
      <trkpt lat="49.33092" lon="1.13234">
        <ele>83</ele>
        <time>2017-04-25T15:02:22Z</time>
      </trkpt>
      <trkpt lat="49.33088" lon="1.13233">
        <ele>83</ele>
        <time>2017-04-25T15:02:22Z</time>
      </trkpt>
      <trkpt lat="49.33083" lon="1.13235">
        <ele>83</ele>
        <time>2017-04-25T15:02:22Z</time>
      </trkpt>
      <trkpt lat="49.33078" lon="1.13237">
        <ele>83</ele>
        <time>2017-04-25T15:02:22Z</time>
      </trkpt>
      <trkpt lat="49.33075" lon="1.13238">
        <ele>83</ele>
        <time>2017-04-25T15:02:38Z</time>
      </trkpt>
      <trkpt lat="49.33074" lon="1.13234">
        <ele>83</ele>
        <time>2017-04-25T15:02:38Z</time>
      </trkpt>
      <trkpt lat="49.33073" lon="1.13229">
        <ele>83</ele>
        <time>2017-04-25T15:02:38Z</time>
      </trkpt>
      <trkpt lat="49.33073" lon="1.13224">
        <ele>83</ele>
        <time>2017-04-25T15:02:38Z</time>
      </trkpt>
      <trkpt lat="49.3307" lon="1.13222">
        <ele>83</ele>
        <time>2017-04-25T15:03:06Z</time>
      </trkpt>
      <trkpt lat="49.33068" lon="1.13222">
        <ele>83</ele>
        <time>2017-04-25T15:03:06Z</time>
      </trkpt>
      <trkpt lat="49.33066" lon="1.13222">
        <ele>83</ele>
        <time>2017-04-25T15:03:06Z</time>
      </trkpt>
      <trkpt lat="49.33064" lon="1.13224">
        <ele>83</ele>
        <time>2017-04-25T15:03:06Z</time>
      </trkpt>
      <trkpt lat="49.33062" lon="1.13223">
        <ele>83</ele>
        <time>2017-04-25T15:03:07Z</time>
      </trkpt>
      <trkpt lat="49.33062" lon="1.13219">
        <ele>83</ele>
        <time>2017-04-25T15:03:22Z</time>
      </trkpt>
      <trkpt lat="49.33061" lon="1.13213">
        <ele>83</ele>
        <time>2017-04-25T15:03:22Z</time>
      </trkpt>
      <trkpt lat="49.3306" lon="1.13207">
        <ele>86</ele>
        <time>2017-04-25T15:03:22Z</time>
      </trkpt>
      <trkpt lat="49.3306" lon="1.13201">
        <ele>86</ele>
        <time>2017-04-25T15:03:22Z</time>
      </trkpt>
      <trkpt lat="49.33059" lon="1.13196">
        <ele>86</ele>
        <time>2017-04-25T15:03:38Z</time>
      </trkpt>
      <trkpt lat="49.33059" lon="1.13189">
        <ele>86</ele>
        <time>2017-04-25T15:03:38Z</time>
      </trkpt>
      <trkpt lat="49.33057" lon="1.13183">
        <ele>86</ele>
        <time>2017-04-25T15:03:38Z</time>
      </trkpt>
      <trkpt lat="49.33056" lon="1.1318">
        <ele>86</ele>
        <time>2017-04-25T15:03:38Z</time>
      </trkpt>
      <trkpt lat="49.33054" lon="1.13174">
        <ele>86</ele>
        <time>2017-04-25T15:03:54Z</time>
      </trkpt>
      <trkpt lat="49.33053" lon="1.13168">
        <ele>86</ele>
        <time>2017-04-25T15:03:54Z</time>
      </trkpt>
      <trkpt lat="49.33052" lon="1.1316">
        <ele>86</ele>
        <time>2017-04-25T15:03:54Z</time>
      </trkpt>
      <trkpt lat="49.33048" lon="1.13151">
        <ele>86</ele>
        <time>2017-04-25T15:03:54Z</time>
      </trkpt>
      <trkpt lat="49.33047" lon="1.13136">
        <ele>86</ele>
        <time>2017-04-25T15:04:30Z</time>
      </trkpt>
      <trkpt lat="49.33047" lon="1.13133">
        <ele>86</ele>
        <time>2017-04-25T15:04:30Z</time>
      </trkpt>
      <trkpt lat="49.33047" lon="1.13128">
        <ele>86</ele>
        <time>2017-04-25T15:04:30Z</time>
      </trkpt>
      <trkpt lat="49.33046" lon="1.13125">
        <ele>86</ele>
        <time>2017-04-25T15:04:31Z</time>
      </trkpt>
      <trkpt lat="49.33045" lon="1.13124">
        <ele>84</ele>
        <time>2017-04-25T15:04:31Z</time>
      </trkpt>
      <trkpt lat="49.33044" lon="1.13118">
        <ele>84</ele>
        <time>2017-04-25T15:05:10Z</time>
      </trkpt>
      <trkpt lat="49.33044" lon="1.13117">
        <ele>84</ele>
        <time>2017-04-25T15:05:10Z</time>
      </trkpt>
      <trkpt lat="49.33043" lon="1.13115">
        <ele>84</ele>
        <time>2017-04-25T15:05:10Z</time>
      </trkpt>
      <trkpt lat="49.33043" lon="1.13115">
        <ele>84</ele>
        <time>2017-04-25T15:05:10Z</time>
      </trkpt>
      <trkpt lat="49.33043" lon="1.13109">
        <ele>84</ele>
        <time>2017-04-25T15:05:11Z</time>
      </trkpt>
      <trkpt lat="49.33043" lon="1.13107">
        <ele>84</ele>
        <time>2017-04-25T15:05:26Z</time>
      </trkpt>
      <trkpt lat="49.33041" lon="1.13096">
        <ele>86</ele>
        <time>2017-04-25T15:05:26Z</time>
      </trkpt>
      <trkpt lat="49.33039" lon="1.13088">
        <ele>86</ele>
        <time>2017-04-25T15:05:26Z</time>
      </trkpt>
      <trkpt lat="49.33038" lon="1.13081">
        <ele>86</ele>
        <time>2017-04-25T15:05:26Z</time>
      </trkpt>
      <trkpt lat="49.33037" lon="1.13076">
        <ele>86</ele>
        <time>2017-04-25T15:05:42Z</time>
      </trkpt>
      <trkpt lat="49.33036" lon="1.13069">
        <ele>86</ele>
        <time>2017-04-25T15:05:42Z</time>
      </trkpt>
      <trkpt lat="49.33036" lon="1.13062">
        <ele>86</ele>
        <time>2017-04-25T15:05:42Z</time>
      </trkpt>
      <trkpt lat="49.33036" lon="1.13056">
        <ele>86</ele>
        <time>2017-04-25T15:05:42Z</time>
      </trkpt>
      <trkpt lat="49.33035" lon="1.13047">
        <ele>86</ele>
        <time>2017-04-25T15:05:58Z</time>
      </trkpt>
      <trkpt lat="49.33034" lon="1.13042">
        <ele>86</ele>
        <time>2017-04-25T15:05:58Z</time>
      </trkpt>
      <trkpt lat="49.33034" lon="1.13036">
        <ele>87</ele>
        <time>2017-04-25T15:05:58Z</time>
      </trkpt>
      <trkpt lat="49.33034" lon="1.13032">
        <ele>87</ele>
        <time>2017-04-25T15:05:58Z</time>
      </trkpt>
      <trkpt lat="49.33033" lon="1.13024">
        <ele>87</ele>
        <time>2017-04-25T15:06:14Z</time>
      </trkpt>
      <trkpt lat="49.33031" lon="1.13019">
        <ele>87</ele>
        <time>2017-04-25T15:06:14Z</time>
      </trkpt>
      <trkpt lat="49.3303" lon="1.13015">
        <ele>87</ele>
        <time>2017-04-25T15:06:14Z</time>
      </trkpt>
      <trkpt lat="49.3303" lon="1.1301">
        <ele>87</ele>
        <time>2017-04-25T15:06:14Z</time>
      </trkpt>
      <trkpt lat="49.33029" lon="1.13002">
        <ele>87</ele>
        <time>2017-04-25T15:06:30Z</time>
      </trkpt>
      <trkpt lat="49.33028" lon="1.12995">
        <ele>87</ele>
        <time>2017-04-25T15:06:30Z</time>
      </trkpt>
      <trkpt lat="49.33027" lon="1.12986">
        <ele>87</ele>
        <time>2017-04-25T15:06:30Z</time>
      </trkpt>
      <trkpt lat="49.33026" lon="1.1298">
        <ele>87</ele>
        <time>2017-04-25T15:06:30Z</time>
      </trkpt>
      <trkpt lat="49.33024" lon="1.12973">
        <ele>87</ele>
        <time>2017-04-25T15:06:46Z</time>
      </trkpt>
      <trkpt lat="49.33022" lon="1.12969">
        <ele>87</ele>
        <time>2017-04-25T15:06:46Z</time>
      </trkpt>
      <trkpt lat="49.33021" lon="1.12962">
        <ele>87</ele>
        <time>2017-04-25T15:06:46Z</time>
      </trkpt>
      <trkpt lat="49.3302" lon="1.12956">
        <ele>87</ele>
        <time>2017-04-25T15:06:46Z</time>
      </trkpt>
      <trkpt lat="49.3302" lon="1.1295">
        <ele>87</ele>
        <time>2017-04-25T15:07:02Z</time>
      </trkpt>
      <trkpt lat="49.33019" lon="1.12944">
        <ele>87</ele>
        <time>2017-04-25T15:07:02Z</time>
      </trkpt>
      <trkpt lat="49.33019" lon="1.12938">
        <ele>87</ele>
        <time>2017-04-25T15:07:02Z</time>
      </trkpt>
      <trkpt lat="49.3302" lon="1.12931">
        <ele>87</ele>
        <time>2017-04-25T15:07:02Z</time>
      </trkpt>
      <trkpt lat="49.33019" lon="1.12924">
        <ele>87</ele>
        <time>2017-04-25T15:07:18Z</time>
      </trkpt>
      <trkpt lat="49.33017" lon="1.12918">
        <ele>87</ele>
        <time>2017-04-25T15:07:18Z</time>
      </trkpt>
      <trkpt lat="49.33015" lon="1.12909">
        <ele>87</ele>
        <time>2017-04-25T15:07:18Z</time>
      </trkpt>
      <trkpt lat="49.33015" lon="1.129">
        <ele>87</ele>
        <time>2017-04-25T15:07:18Z</time>
      </trkpt>
      <trkpt lat="49.33015" lon="1.12893">
        <ele>87</ele>
        <time>2017-04-25T15:07:34Z</time>
      </trkpt>
      <trkpt lat="49.33014" lon="1.12884">
        <ele>87</ele>
        <time>2017-04-25T15:07:34Z</time>
      </trkpt>
      <trkpt lat="49.33013" lon="1.12874">
        <ele>86</ele>
        <time>2017-04-25T15:07:34Z</time>
      </trkpt>
      <trkpt lat="49.33012" lon="1.12869">
        <ele>86</ele>
        <time>2017-04-25T15:07:34Z</time>
      </trkpt>
      <trkpt lat="49.33012" lon="1.12865">
        <ele>86</ele>
        <time>2017-04-25T15:07:54Z</time>
      </trkpt>
      <trkpt lat="49.33011" lon="1.1286">
        <ele>86</ele>
        <time>2017-04-25T15:07:54Z</time>
      </trkpt>
      <trkpt lat="49.33011" lon="1.12855">
        <ele>86</ele>
        <time>2017-04-25T15:07:54Z</time>
      </trkpt>
      <trkpt lat="49.33012" lon="1.12851">
        <ele>86</ele>
        <time>2017-04-25T15:07:54Z</time>
      </trkpt>
      <trkpt lat="49.33011" lon="1.12848">
        <ele>86</ele>
        <time>2017-04-25T15:07:55Z</time>
      </trkpt>
      <trkpt lat="49.3301" lon="1.12843">
        <ele>86</ele>
        <time>2017-04-25T15:08:14Z</time>
      </trkpt>
      <trkpt lat="49.33008" lon="1.12838">
        <ele>86</ele>
        <time>2017-04-25T15:08:14Z</time>
      </trkpt>
      <trkpt lat="49.33005" lon="1.12835">
        <ele>86</ele>
        <time>2017-04-25T15:08:15Z</time>
      </trkpt>
      <trkpt lat="49.33003" lon="1.12836">
        <ele>86</ele>
        <time>2017-04-25T15:08:15Z</time>
      </trkpt>
      <trkpt lat="49.33002" lon="1.12833">
        <ele>86</ele>
        <time>2017-04-25T15:08:15Z</time>
      </trkpt>
      <trkpt lat="49.33001" lon="1.12829">
        <ele>86</ele>
        <time>2017-04-25T15:08:34Z</time>
      </trkpt>
      <trkpt lat="49.32998" lon="1.12826">
        <ele>86</ele>
        <time>2017-04-25T15:08:34Z</time>
      </trkpt>
      <trkpt lat="49.32997" lon="1.12822">
        <ele>86</ele>
        <time>2017-04-25T15:08:34Z</time>
      </trkpt>
      <trkpt lat="49.32996" lon="1.12817">
        <ele>86</ele>
        <time>2017-04-25T15:08:34Z</time>
      </trkpt>
      <trkpt lat="49.32996" lon="1.12813">
        <ele>86</ele>
        <time>2017-04-25T15:08:34Z</time>
      </trkpt>
      <trkpt lat="49.32995" lon="1.12807">
        <ele>86</ele>
        <time>2017-04-25T15:08:50Z</time>
      </trkpt>
      <trkpt lat="49.32995" lon="1.12803">
        <ele>86</ele>
        <time>2017-04-25T15:08:50Z</time>
      </trkpt>
      <trkpt lat="49.32995" lon="1.12799">
        <ele>86</ele>
        <time>2017-04-25T15:08:50Z</time>
      </trkpt>
      <trkpt lat="49.32993" lon="1.12786">
        <ele>87</ele>
        <time>2017-04-25T15:08:50Z</time>
      </trkpt>
      <trkpt lat="49.32992" lon="1.12778">
        <ele>87</ele>
        <time>2017-04-25T15:09:06Z</time>
      </trkpt>
      <trkpt lat="49.32991" lon="1.1277">
        <ele>87</ele>
        <time>2017-04-25T15:09:06Z</time>
      </trkpt>
      <trkpt lat="49.3299" lon="1.12764">
        <ele>87</ele>
        <time>2017-04-25T15:09:06Z</time>
      </trkpt>
      <trkpt lat="49.3299" lon="1.12762">
        <ele>87</ele>
        <time>2017-04-25T15:09:06Z</time>
      </trkpt>
      <trkpt lat="49.3299" lon="1.12756">
        <ele>87</ele>
        <time>2017-04-25T15:09:22Z</time>
      </trkpt>
      <trkpt lat="49.32989" lon="1.1275">
        <ele>87</ele>
        <time>2017-04-25T15:09:22Z</time>
      </trkpt>
      <trkpt lat="49.32987" lon="1.12743">
        <ele>87</ele>
        <time>2017-04-25T15:09:22Z</time>
      </trkpt>
      <trkpt lat="49.32985" lon="1.12734">
        <ele>87</ele>
        <time>2017-04-25T15:09:22Z</time>
      </trkpt>
      <trkpt lat="49.32984" lon="1.12729">
        <ele>87</ele>
        <time>2017-04-25T15:09:38Z</time>
      </trkpt>
      <trkpt lat="49.32984" lon="1.12724">
        <ele>87</ele>
        <time>2017-04-25T15:09:38Z</time>
      </trkpt>
      <trkpt lat="49.32983" lon="1.12717">
        <ele>87</ele>
        <time>2017-04-25T15:09:38Z</time>
      </trkpt>
      <trkpt lat="49.32982" lon="1.1271">
        <ele>87</ele>
        <time>2017-04-25T15:09:38Z</time>
      </trkpt>
      <trkpt lat="49.3298" lon="1.127">
        <ele>88</ele>
        <time>2017-04-25T15:09:54Z</time>
      </trkpt>
      <trkpt lat="49.32979" lon="1.1269">
        <ele>88</ele>
        <time>2017-04-25T15:09:54Z</time>
      </trkpt>
      <trkpt lat="49.32978" lon="1.12682">
        <ele>88</ele>
        <time>2017-04-25T15:09:54Z</time>
      </trkpt>
      <trkpt lat="49.32978" lon="1.12678">
        <ele>88</ele>
        <time>2017-04-25T15:09:54Z</time>
      </trkpt>
      <trkpt lat="49.32978" lon="1.12672">
        <ele>88</ele>
        <time>2017-04-25T15:10:10Z</time>
      </trkpt>
      <trkpt lat="49.32977" lon="1.12667">
        <ele>88</ele>
        <time>2017-04-25T15:10:10Z</time>
      </trkpt>
      <trkpt lat="49.32976" lon="1.12661">
        <ele>88</ele>
        <time>2017-04-25T15:10:10Z</time>
      </trkpt>
      <trkpt lat="49.32975" lon="1.12653">
        <ele>88</ele>
        <time>2017-04-25T15:10:10Z</time>
      </trkpt>
      <trkpt lat="49.32974" lon="1.12645">
        <ele>88</ele>
        <time>2017-04-25T15:10:26Z</time>
      </trkpt>
      <trkpt lat="49.32974" lon="1.12637">
        <ele>88</ele>
        <time>2017-04-25T15:10:26Z</time>
      </trkpt>
      <trkpt lat="49.32973" lon="1.12632">
        <ele>88</ele>
        <time>2017-04-25T15:10:26Z</time>
      </trkpt>
      <trkpt lat="49.32974" lon="1.12627">
        <ele>88</ele>
        <time>2017-04-25T15:10:26Z</time>
      </trkpt>
      <trkpt lat="49.32974" lon="1.1262">
        <ele>82</ele>
        <time>2017-04-25T15:10:42Z</time>
      </trkpt>
      <trkpt lat="49.32974" lon="1.12613">
        <ele>82</ele>
        <time>2017-04-25T15:10:42Z</time>
      </trkpt>
      <trkpt lat="49.32972" lon="1.12607">
        <ele>82</ele>
        <time>2017-04-25T15:10:42Z</time>
      </trkpt>
      <trkpt lat="49.32969" lon="1.126">
        <ele>82</ele>
        <time>2017-04-25T15:10:42Z</time>
      </trkpt>
      <trkpt lat="49.32968" lon="1.12593">
        <ele>82</ele>
        <time>2017-04-25T15:10:58Z</time>
      </trkpt>
      <trkpt lat="49.32966" lon="1.12592">
        <ele>82</ele>
        <time>2017-04-25T15:10:58Z</time>
      </trkpt>
      <trkpt lat="49.32963" lon="1.12587">
        <ele>82</ele>
        <time>2017-04-25T15:10:58Z</time>
      </trkpt>
      <trkpt lat="49.32962" lon="1.12582">
        <ele>82</ele>
        <time>2017-04-25T15:10:58Z</time>
      </trkpt>
      <trkpt lat="49.32961" lon="1.12578">
        <ele>82</ele>
        <time>2017-04-25T15:11:18Z</time>
      </trkpt>
      <trkpt lat="49.32962" lon="1.12576">
        <ele>82</ele>
        <time>2017-04-25T15:11:18Z</time>
      </trkpt>
      <trkpt lat="49.32963" lon="1.12572">
        <ele>82</ele>
        <time>2017-04-25T15:11:18Z</time>
      </trkpt>
      <trkpt lat="49.32964" lon="1.12566">
        <ele>82</ele>
        <time>2017-04-25T15:11:18Z</time>
      </trkpt>
      <trkpt lat="49.32965" lon="1.12564">
        <ele>82</ele>
        <time>2017-04-25T15:11:18Z</time>
      </trkpt>
      <trkpt lat="49.32967" lon="1.12561">
        <ele>82</ele>
        <time>2017-04-25T15:11:38Z</time>
      </trkpt>
      <trkpt lat="49.32966" lon="1.12555">
        <ele>82</ele>
        <time>2017-04-25T15:11:38Z</time>
      </trkpt>
      <trkpt lat="49.32966" lon="1.12552">
        <ele>82</ele>
        <time>2017-04-25T15:11:38Z</time>
      </trkpt>
      <trkpt lat="49.32966" lon="1.12547">
        <ele>82</ele>
        <time>2017-04-25T15:11:38Z</time>
      </trkpt>
      <trkpt lat="49.32968" lon="1.12543">
        <ele>82</ele>
        <time>2017-04-25T15:11:39Z</time>
      </trkpt>
      <trkpt lat="49.32963" lon="1.12545">
        <ele>82</ele>
        <time>2017-04-25T15:12:22Z</time>
      </trkpt>
      <trkpt lat="49.32962" lon="1.12545">
        <ele>82</ele>
        <time>2017-04-25T15:12:22Z</time>
      </trkpt>
      <trkpt lat="49.32961" lon="1.12543">
        <ele>82</ele>
        <time>2017-04-25T15:12:22Z</time>
      </trkpt>
      <trkpt lat="49.3296" lon="1.12541">
        <ele>73</ele>
        <time>2017-04-25T15:12:22Z</time>
      </trkpt>
      <trkpt lat="49.3296" lon="1.12537">
        <ele>73</ele>
        <time>2017-04-25T15:12:23Z</time>
      </trkpt>
      <trkpt lat="49.32963" lon="1.1253">
        <ele>73</ele>
        <time>2017-04-25T15:12:46Z</time>
      </trkpt>
      <trkpt lat="49.32964" lon="1.1253">
        <ele>73</ele>
        <time>2017-04-25T15:12:46Z</time>
      </trkpt>
      <trkpt lat="49.32964" lon="1.12527">
        <ele>73</ele>
        <time>2017-04-25T15:12:46Z</time>
      </trkpt>
      <trkpt lat="49.32961" lon="1.12522">
        <ele>73</ele>
        <time>2017-04-25T15:12:46Z</time>
      </trkpt>
      <trkpt lat="49.32956" lon="1.12516">
        <ele>75</ele>
        <time>2017-04-25T15:12:46Z</time>
      </trkpt>
      <trkpt lat="49.32951" lon="1.1251">
        <ele>75</ele>
        <time>2017-04-25T15:13:14Z</time>
      </trkpt>
      <trkpt lat="49.3295" lon="1.12508">
        <ele>75</ele>
        <time>2017-04-25T15:13:14Z</time>
      </trkpt>
      <trkpt lat="49.32954" lon="1.12504">
        <ele>75</ele>
        <time>2017-04-25T15:13:14Z</time>
      </trkpt>
      <trkpt lat="49.32957" lon="1.12502">
        <ele>75</ele>
        <time>2017-04-25T15:13:14Z</time>
      </trkpt>
      <trkpt lat="49.32958" lon="1.125">
        <ele>75</ele>
        <time>2017-04-25T15:13:14Z</time>
      </trkpt>
      <trkpt lat="49.32959" lon="1.12502">
        <ele>73</ele>
        <time>2017-04-25T15:13:34Z</time>
      </trkpt>
      <trkpt lat="49.3296" lon="1.12501">
        <ele>73</ele>
        <time>2017-04-25T15:13:34Z</time>
      </trkpt>
      <trkpt lat="49.32963" lon="1.12496">
        <ele>73</ele>
        <time>2017-04-25T15:13:34Z</time>
      </trkpt>
      <trkpt lat="49.32963" lon="1.12493">
        <ele>73</ele>
        <time>2017-04-25T15:13:34Z</time>
      </trkpt>
      <trkpt lat="49.32964" lon="1.12491">
        <ele>73</ele>
        <time>2017-04-25T15:13:35Z</time>
      </trkpt>
      <trkpt lat="49.32964" lon="1.12486">
        <ele>73</ele>
        <time>2017-04-25T15:14:02Z</time>
      </trkpt>
      <trkpt lat="49.32963" lon="1.12483">
        <ele>73</ele>
        <time>2017-04-25T15:14:02Z</time>
      </trkpt>
      <trkpt lat="49.32963" lon="1.12481">
        <ele>73</ele>
        <time>2017-04-25T15:14:02Z</time>
      </trkpt>
      <trkpt lat="49.32965" lon="1.12478">
        <ele>73</ele>
        <time>2017-04-25T15:14:02Z</time>
      </trkpt>
      <trkpt lat="49.32967" lon="1.12472">
        <ele>73</ele>
        <time>2017-04-25T15:14:02Z</time>
      </trkpt>
      <trkpt lat="49.3297" lon="1.12458">
        <ele>73</ele>
        <time>2017-04-25T15:14:38Z</time>
      </trkpt>
      <trkpt lat="49.3297" lon="1.12457">
        <ele>73</ele>
        <time>2017-04-25T15:14:38Z</time>
      </trkpt>
      <trkpt lat="49.3297" lon="1.12455">
        <ele>73</ele>
        <time>2017-04-25T15:14:38Z</time>
      </trkpt>
      <trkpt lat="49.3297" lon="1.12454">
        <ele>73</ele>
        <time>2017-04-25T15:14:39Z</time>
      </trkpt>
      <trkpt lat="49.3297" lon="1.12453">
        <ele>73</ele>
        <time>2017-04-25T15:14:39Z</time>
      </trkpt>
      <trkpt lat="49.32973" lon="1.12447">
        <ele>73</ele>
        <time>2017-04-25T15:15:02Z</time>
      </trkpt>
      <trkpt lat="49.32972" lon="1.12443">
        <ele>73</ele>
        <time>2017-04-25T15:15:02Z</time>
      </trkpt>
      <trkpt lat="49.32971" lon="1.12441">
        <ele>73</ele>
        <time>2017-04-25T15:15:02Z</time>
      </trkpt>
      <trkpt lat="49.32969" lon="1.12438">
        <ele>73</ele>
        <time>2017-04-25T15:15:02Z</time>
      </trkpt>
      <trkpt lat="49.32969" lon="1.12436">
        <ele>73</ele>
        <time>2017-04-25T15:15:02Z</time>
      </trkpt>
      <trkpt lat="49.32971" lon="1.12434">
        <ele>73</ele>
        <time>2017-04-25T15:15:26Z</time>
      </trkpt>
      <trkpt lat="49.32971" lon="1.12432">
        <ele>73</ele>
        <time>2017-04-25T15:15:26Z</time>
      </trkpt>
      <trkpt lat="49.32968" lon="1.12429">
        <ele>73</ele>
        <time>2017-04-25T15:15:26Z</time>
      </trkpt>
      <trkpt lat="49.32968" lon="1.12424">
        <ele>73</ele>
        <time>2017-04-25T15:15:26Z</time>
      </trkpt>
      <trkpt lat="49.32969" lon="1.1242">
        <ele>73</ele>
        <time>2017-04-25T15:15:26Z</time>
      </trkpt>
      <trkpt lat="49.32972" lon="1.12411">
        <ele>73</ele>
        <time>2017-04-25T15:16:02Z</time>
      </trkpt>
      <trkpt lat="49.32973" lon="1.1241">
        <ele>73</ele>
        <time>2017-04-25T15:16:02Z</time>
      </trkpt>
      <trkpt lat="49.32974" lon="1.12411">
        <ele>73</ele>
        <time>2017-04-25T15:16:02Z</time>
      </trkpt>
      <trkpt lat="49.32975" lon="1.12411">
        <ele>73</ele>
        <time>2017-04-25T15:16:02Z</time>
      </trkpt>
      <trkpt lat="49.32977" lon="1.1241">
        <ele>73</ele>
        <time>2017-04-25T15:16:02Z</time>
      </trkpt>
      <trkpt lat="49.32974" lon="1.12402">
        <ele>73</ele>
        <time>2017-04-25T15:16:30Z</time>
      </trkpt>
      <trkpt lat="49.32973" lon="1.12401">
        <ele>73</ele>
        <time>2017-04-25T15:16:30Z</time>
      </trkpt>
      <trkpt lat="49.32971" lon="1.12401">
        <ele>73</ele>
        <time>2017-04-25T15:16:30Z</time>
      </trkpt>
      <trkpt lat="49.3297" lon="1.12401">
        <ele>73</ele>
        <time>2017-04-25T15:16:30Z</time>
      </trkpt>
      <trkpt lat="49.32969" lon="1.12401">
        <ele>73</ele>
        <time>2017-04-25T15:16:31Z</time>
      </trkpt>
      <trkpt lat="49.32965" lon="1.12394">
        <ele>73</ele>
        <time>2017-04-25T15:17:06Z</time>
      </trkpt>
      <trkpt lat="49.32964" lon="1.12392">
        <ele>73</ele>
        <time>2017-04-25T15:17:06Z</time>
      </trkpt>
      <trkpt lat="49.32963" lon="1.1239">
        <ele>73</ele>
        <time>2017-04-25T15:17:06Z</time>
      </trkpt>
      <trkpt lat="49.32963" lon="1.12389">
        <ele>73</ele>
        <time>2017-04-25T15:17:06Z</time>
      </trkpt>
      <trkpt lat="49.32961" lon="1.12387">
        <ele>73</ele>
        <time>2017-04-25T15:17:06Z</time>
      </trkpt>
      <trkpt lat="49.32962" lon="1.12382">
        <ele>73</ele>
        <time>2017-04-25T15:17:38Z</time>
      </trkpt>
      <trkpt lat="49.32961" lon="1.1238">
        <ele>73</ele>
        <time>2017-04-25T15:17:38Z</time>
      </trkpt>
      <trkpt lat="49.32961" lon="1.12377">
        <ele>73</ele>
        <time>2017-04-25T15:17:38Z</time>
      </trkpt>
      <trkpt lat="49.3296" lon="1.12373">
        <ele>74</ele>
        <time>2017-04-25T15:17:38Z</time>
      </trkpt>
      <trkpt lat="49.32958" lon="1.12368">
        <ele>84</ele>
        <time>2017-04-25T15:17:38Z</time>
      </trkpt>
      <trkpt lat="49.32956" lon="1.12365">
        <ele>84</ele>
        <time>2017-04-25T15:17:58Z</time>
      </trkpt>
      <trkpt lat="49.32953" lon="1.12362">
        <ele>84</ele>
        <time>2017-04-25T15:17:58Z</time>
      </trkpt>
      <trkpt lat="49.32953" lon="1.12356">
        <ele>84</ele>
        <time>2017-04-25T15:17:58Z</time>
      </trkpt>
      <trkpt lat="49.32953" lon="1.12353">
        <ele>84</ele>
        <time>2017-04-25T15:17:58Z</time>
      </trkpt>
      <trkpt lat="49.32953" lon="1.12351">
        <ele>84</ele>
        <time>2017-04-25T15:17:58Z</time>
      </trkpt>
      <trkpt lat="49.32953" lon="1.12344">
        <ele>84</ele>
        <time>2017-04-25T15:18:26Z</time>
      </trkpt>
      <trkpt lat="49.32953" lon="1.12341">
        <ele>84</ele>
        <time>2017-04-25T15:18:26Z</time>
      </trkpt>
      <trkpt lat="49.32952" lon="1.12338">
        <ele>84</ele>
        <time>2017-04-25T15:18:26Z</time>
      </trkpt>
      <trkpt lat="49.32952" lon="1.12336">
        <ele>84</ele>
        <time>2017-04-25T15:18:26Z</time>
      </trkpt>
      <trkpt lat="49.32951" lon="1.12335">
        <ele>84</ele>
        <time>2017-04-25T15:18:26Z</time>
      </trkpt>
      <trkpt lat="49.32951" lon="1.12334">
        <ele>84</ele>
        <time>2017-04-25T15:18:42Z</time>
      </trkpt>
      <trkpt lat="49.3295" lon="1.12332">
        <ele>84</ele>
        <time>2017-04-25T15:18:42Z</time>
      </trkpt>
      <trkpt lat="49.32942" lon="1.12331">
        <ele>84</ele>
        <time>2017-04-25T15:18:42Z</time>
      </trkpt>
      <trkpt lat="49.3294" lon="1.12329">
        <ele>84</ele>
        <time>2017-04-25T15:18:42Z</time>
      </trkpt>
      <trkpt lat="49.32934" lon="1.12325">
        <ele>84</ele>
        <time>2017-04-25T15:19:22Z</time>
      </trkpt>
      <trkpt lat="49.32933" lon="1.12327">
        <ele>84</ele>
        <time>2017-04-25T15:19:22Z</time>
      </trkpt>
      <trkpt lat="49.32931" lon="1.12322">
        <ele>84</ele>
        <time>2017-04-25T15:19:22Z</time>
      </trkpt>
      <trkpt lat="49.32932" lon="1.12318">
        <ele>84</ele>
        <time>2017-04-25T15:19:23Z</time>
      </trkpt>
      <trkpt lat="49.32932" lon="1.12311">
        <ele>84</ele>
        <time>2017-04-25T15:19:23Z</time>
      </trkpt>
      <trkpt lat="49.32923" lon="1.12309">
        <ele>84</ele>
        <time>2017-04-25T15:23:06Z</time>
      </trkpt>
      <trkpt lat="49.32923" lon="1.12307">
        <ele>84</ele>
        <time>2017-04-25T15:23:06Z</time>
      </trkpt>
      <trkpt lat="49.32921" lon="1.12302">
        <ele>84</ele>
        <time>2017-04-25T15:23:06Z</time>
      </trkpt>
      <trkpt lat="49.32918" lon="1.12294">
        <ele>84</ele>
        <time>2017-04-25T15:23:06Z</time>
      </trkpt>
      <trkpt lat="49.32916" lon="1.12286">
        <ele>85</ele>
        <time>2017-04-25T15:23:07Z</time>
      </trkpt>
      <trkpt lat="49.32915" lon="1.12277">
        <ele>85</ele>
        <time>2017-04-25T15:23:22Z</time>
      </trkpt>
      <trkpt lat="49.32915" lon="1.12269">
        <ele>85</ele>
        <time>2017-04-25T15:23:22Z</time>
      </trkpt>
      <trkpt lat="49.32913" lon="1.12263">
        <ele>85</ele>
        <time>2017-04-25T15:23:22Z</time>
      </trkpt>
      <trkpt lat="49.32911" lon="1.12259">
        <ele>85</ele>
        <time>2017-04-25T15:23:22Z</time>
      </trkpt>
      <trkpt lat="49.32909" lon="1.12251">
        <ele>85</ele>
        <time>2017-04-25T15:23:38Z</time>
      </trkpt>
      <trkpt lat="49.32907" lon="1.12246">
        <ele>85</ele>
        <time>2017-04-25T15:23:38Z</time>
      </trkpt>
      <trkpt lat="49.32906" lon="1.12242">
        <ele>85</ele>
        <time>2017-04-25T15:23:38Z</time>
      </trkpt>
      <trkpt lat="49.32906" lon="1.12237">
        <ele>85</ele>
        <time>2017-04-25T15:23:38Z</time>
      </trkpt>
      <trkpt lat="49.32906" lon="1.12232">
        <ele>85</ele>
        <time>2017-04-25T15:23:54Z</time>
      </trkpt>
      <trkpt lat="49.32905" lon="1.12225">
        <ele>85</ele>
        <time>2017-04-25T15:23:54Z</time>
      </trkpt>
      <trkpt lat="49.32906" lon="1.12219">
        <ele>85</ele>
        <time>2017-04-25T15:23:54Z</time>
      </trkpt>
      <trkpt lat="49.32906" lon="1.12212">
        <ele>85</ele>
        <time>2017-04-25T15:23:54Z</time>
      </trkpt>
      <trkpt lat="49.32906" lon="1.12206">
        <ele>86</ele>
        <time>2017-04-25T15:24:10Z</time>
      </trkpt>
      <trkpt lat="49.32906" lon="1.12201">
        <ele>86</ele>
        <time>2017-04-25T15:24:10Z</time>
      </trkpt>
      <trkpt lat="49.32906" lon="1.12195">
        <ele>86</ele>
        <time>2017-04-25T15:24:10Z</time>
      </trkpt>
      <trkpt lat="49.32904" lon="1.12192">
        <ele>86</ele>
        <time>2017-04-25T15:24:10Z</time>
      </trkpt>
      <trkpt lat="49.32902" lon="1.1219">
        <ele>86</ele>
        <time>2017-04-25T15:24:26Z</time>
      </trkpt>
      <trkpt lat="49.32899" lon="1.12191">
        <ele>86</ele>
        <time>2017-04-25T15:24:26Z</time>
      </trkpt>
      <trkpt lat="49.32892" lon="1.12193">
        <ele>86</ele>
        <time>2017-04-25T15:24:26Z</time>
      </trkpt>
      <trkpt lat="49.32889" lon="1.12193">
        <ele>86</ele>
        <time>2017-04-25T15:24:26Z</time>
      </trkpt>
      <trkpt lat="49.32886" lon="1.12193">
        <ele>86</ele>
        <time>2017-04-25T15:24:46Z</time>
      </trkpt>
      <trkpt lat="49.32883" lon="1.12193">
        <ele>86</ele>
        <time>2017-04-25T15:24:46Z</time>
      </trkpt>
      <trkpt lat="49.3288" lon="1.12193">
        <ele>86</ele>
        <time>2017-04-25T15:24:46Z</time>
      </trkpt>
      <trkpt lat="49.32879" lon="1.12195">
        <ele>86</ele>
        <time>2017-04-25T15:24:46Z</time>
      </trkpt>
      <trkpt lat="49.32877" lon="1.12198">
        <ele>86</ele>
        <time>2017-04-25T15:24:46Z</time>
      </trkpt>
      <trkpt lat="49.32873" lon="1.12204">
        <ele>87</ele>
        <time>2017-04-25T15:25:02Z</time>
      </trkpt>
      <trkpt lat="49.32871" lon="1.12205">
        <ele>87</ele>
        <time>2017-04-25T15:25:02Z</time>
      </trkpt>
      <trkpt lat="49.32868" lon="1.12205">
        <ele>87</ele>
        <time>2017-04-25T15:25:02Z</time>
      </trkpt>
      <trkpt lat="49.32864" lon="1.12207">
        <ele>87</ele>
        <time>2017-04-25T15:25:03Z</time>
      </trkpt>
      <trkpt lat="49.32858" lon="1.1221">
        <ele>88</ele>
        <time>2017-04-25T15:25:18Z</time>
      </trkpt>
      <trkpt lat="49.32852" lon="1.12212">
        <ele>88</ele>
        <time>2017-04-25T15:25:18Z</time>
      </trkpt>
      <trkpt lat="49.32848" lon="1.12216">
        <ele>88</ele>
        <time>2017-04-25T15:25:18Z</time>
      </trkpt>
      <trkpt lat="49.32845" lon="1.12216">
        <ele>88</ele>
        <time>2017-04-25T15:25:18Z</time>
      </trkpt>
      <trkpt lat="49.32839" lon="1.12218">
        <ele>88</ele>
        <time>2017-04-25T15:25:34Z</time>
      </trkpt>
      <trkpt lat="49.32835" lon="1.1222">
        <ele>88</ele>
        <time>2017-04-25T15:25:34Z</time>
      </trkpt>
      <trkpt lat="49.32829" lon="1.12222">
        <ele>88</ele>
        <time>2017-04-25T15:25:34Z</time>
      </trkpt>
      <trkpt lat="49.32823" lon="1.12223">
        <ele>88</ele>
        <time>2017-04-25T15:25:34Z</time>
      </trkpt>
      <trkpt lat="49.32819" lon="1.12224">
        <ele>88</ele>
        <time>2017-04-25T15:25:50Z</time>
      </trkpt>
      <trkpt lat="49.32814" lon="1.12227">
        <ele>88</ele>
        <time>2017-04-25T15:25:50Z</time>
      </trkpt>
      <trkpt lat="49.32811" lon="1.12231">
        <ele>88</ele>
        <time>2017-04-25T15:25:50Z</time>
      </trkpt>
      <trkpt lat="49.32807" lon="1.12231">
        <ele>88</ele>
        <time>2017-04-25T15:25:51Z</time>
      </trkpt>
      <trkpt lat="49.32803" lon="1.12229">
        <ele>88</ele>
        <time>2017-04-25T15:26:06Z</time>
      </trkpt>
      <trkpt lat="49.32798" lon="1.12229">
        <ele>88</ele>
        <time>2017-04-25T15:26:06Z</time>
      </trkpt>
      <trkpt lat="49.32794" lon="1.12233">
        <ele>88</ele>
        <time>2017-04-25T15:26:06Z</time>
      </trkpt>
      <trkpt lat="49.3279" lon="1.12234">
        <ele>88</ele>
        <time>2017-04-25T15:26:06Z</time>
      </trkpt>
      <trkpt lat="49.32784" lon="1.12236">
        <ele>88</ele>
        <time>2017-04-25T15:26:22Z</time>
      </trkpt>
      <trkpt lat="49.32779" lon="1.12239">
        <ele>88</ele>
        <time>2017-04-25T15:26:22Z</time>
      </trkpt>
      <trkpt lat="49.3277" lon="1.12244">
        <ele>88</ele>
        <time>2017-04-25T15:26:22Z</time>
      </trkpt>
      <trkpt lat="49.32767" lon="1.12245">
        <ele>88</ele>
        <time>2017-04-25T15:26:22Z</time>
      </trkpt>
      <trkpt lat="49.32759" lon="1.12245">
        <ele>88</ele>
        <time>2017-04-25T15:26:58Z</time>
      </trkpt>
      <trkpt lat="49.32757" lon="1.12244">
        <ele>88</ele>
        <time>2017-04-25T15:26:58Z</time>
      </trkpt>
      <trkpt lat="49.32754" lon="1.12242">
        <ele>88</ele>
        <time>2017-04-25T15:26:58Z</time>
      </trkpt>
      <trkpt lat="49.32753" lon="1.12239">
        <ele>88</ele>
        <time>2017-04-25T15:26:59Z</time>
      </trkpt>
      <trkpt lat="49.32752" lon="1.12235">
        <ele>88</ele>
        <time>2017-04-25T15:26:59Z</time>
      </trkpt>
      <trkpt lat="49.32754" lon="1.12236">
        <ele>88</ele>
        <time>2017-04-25T15:27:54Z</time>
      </trkpt>
      <trkpt lat="49.32749" lon="1.12235">
        <ele>88</ele>
        <time>2017-04-25T15:27:54Z</time>
      </trkpt>
      <trkpt lat="49.32747" lon="1.12236">
        <ele>88</ele>
        <time>2017-04-25T15:27:54Z</time>
      </trkpt>
      <trkpt lat="49.32746" lon="1.12234">
        <ele>88</ele>
        <time>2017-04-25T15:27:54Z</time>
      </trkpt>
      <trkpt lat="49.32743" lon="1.12231">
        <ele>88</ele>
        <time>2017-04-25T15:27:54Z</time>
      </trkpt>
      <trkpt lat="49.32739" lon="1.12227">
        <ele>88</ele>
        <time>2017-04-25T15:28:14Z</time>
      </trkpt>
      <trkpt lat="49.32737" lon="1.12223">
        <ele>88</ele>
        <time>2017-04-25T15:28:14Z</time>
      </trkpt>
      <trkpt lat="49.32736" lon="1.1222">
        <ele>88</ele>
        <time>2017-04-25T15:28:14Z</time>
      </trkpt>
      <trkpt lat="49.32737" lon="1.12215">
        <ele>88</ele>
        <time>2017-04-25T15:28:14Z</time>
      </trkpt>
      <trkpt lat="49.32737" lon="1.12209">
        <ele>88</ele>
        <time>2017-04-25T15:28:15Z</time>
      </trkpt>
      <trkpt lat="49.32734" lon="1.12204">
        <ele>88</ele>
        <time>2017-04-25T15:28:30Z</time>
      </trkpt>
      <trkpt lat="49.32733" lon="1.12196">
        <ele>88</ele>
        <time>2017-04-25T15:28:30Z</time>
      </trkpt>
      <trkpt lat="49.32733" lon="1.12188">
        <ele>88</ele>
        <time>2017-04-25T15:28:30Z</time>
      </trkpt>
      <trkpt lat="49.3273" lon="1.12174">
        <ele>88</ele>
        <time>2017-04-25T15:28:30Z</time>
      </trkpt>
      <trkpt lat="49.32728" lon="1.1217">
        <ele>88</ele>
        <time>2017-04-25T15:28:46Z</time>
      </trkpt>
      <trkpt lat="49.32728" lon="1.12168">
        <ele>88</ele>
        <time>2017-04-25T15:28:46Z</time>
      </trkpt>
      <trkpt lat="49.32727" lon="1.12165">
        <ele>88</ele>
        <time>2017-04-25T15:28:46Z</time>
      </trkpt>
      <trkpt lat="49.32726" lon="1.12156">
        <ele>88</ele>
        <time>2017-04-25T15:28:46Z</time>
      </trkpt>
      <trkpt lat="49.32726" lon="1.12148">
        <ele>88</ele>
        <time>2017-04-25T15:29:02Z</time>
      </trkpt>
      <trkpt lat="49.32725" lon="1.12141">
        <ele>88</ele>
        <time>2017-04-25T15:29:02Z</time>
      </trkpt>
      <trkpt lat="49.32724" lon="1.12135">
        <ele>88</ele>
        <time>2017-04-25T15:29:02Z</time>
      </trkpt>
      <trkpt lat="49.32724" lon="1.12129">
        <ele>88</ele>
        <time>2017-04-25T15:29:02Z</time>
      </trkpt>
      <trkpt lat="49.32723" lon="1.12121">
        <ele>85</ele>
        <time>2017-04-25T15:29:18Z</time>
      </trkpt>
      <trkpt lat="49.32723" lon="1.12117">
        <ele>85</ele>
        <time>2017-04-25T15:29:18Z</time>
      </trkpt>
      <trkpt lat="49.32722" lon="1.12111">
        <ele>85</ele>
        <time>2017-04-25T15:29:18Z</time>
      </trkpt>
      <trkpt lat="49.32719" lon="1.12104">
        <ele>85</ele>
        <time>2017-04-25T15:29:18Z</time>
      </trkpt>
      <trkpt lat="49.32718" lon="1.12096">
        <ele>85</ele>
        <time>2017-04-25T15:29:34Z</time>
      </trkpt>
      <trkpt lat="49.32713" lon="1.12089">
        <ele>85</ele>
        <time>2017-04-25T15:29:34Z</time>
      </trkpt>
      <trkpt lat="49.32711" lon="1.12083">
        <ele>85</ele>
        <time>2017-04-25T15:29:34Z</time>
      </trkpt>
      <trkpt lat="49.32711" lon="1.12076">
        <ele>85</ele>
        <time>2017-04-25T15:29:34Z</time>
      </trkpt>
      <trkpt lat="49.32712" lon="1.12069">
        <ele>85</ele>
        <time>2017-04-25T15:29:50Z</time>
      </trkpt>
      <trkpt lat="49.32711" lon="1.12064">
        <ele>85</ele>
        <time>2017-04-25T15:29:50Z</time>
      </trkpt>
      <trkpt lat="49.32711" lon="1.12058">
        <ele>85</ele>
        <time>2017-04-25T15:29:50Z</time>
      </trkpt>
      <trkpt lat="49.32708" lon="1.12051">
        <ele>87</ele>
        <time>2017-04-25T15:29:50Z</time>
      </trkpt>
      <trkpt lat="49.32707" lon="1.12046">
        <ele>87</ele>
        <time>2017-04-25T15:30:06Z</time>
      </trkpt>
      <trkpt lat="49.32705" lon="1.12041">
        <ele>87</ele>
        <time>2017-04-25T15:30:06Z</time>
      </trkpt>
      <trkpt lat="49.32703" lon="1.1203">
        <ele>87</ele>
        <time>2017-04-25T15:30:06Z</time>
      </trkpt>
      <trkpt lat="49.32703" lon="1.12026">
        <ele>87</ele>
        <time>2017-04-25T15:30:06Z</time>
      </trkpt>
      <trkpt lat="49.32697" lon="1.1202">
        <ele>87</ele>
        <time>2017-04-25T15:30:42Z</time>
      </trkpt>
      <trkpt lat="49.32696" lon="1.12022">
        <ele>87</ele>
        <time>2017-04-25T15:30:42Z</time>
      </trkpt>
      <trkpt lat="49.32694" lon="1.12023">
        <ele>87</ele>
        <time>2017-04-25T15:30:42Z</time>
      </trkpt>
      <trkpt lat="49.32694" lon="1.12023">
        <ele>87</ele>
        <time>2017-04-25T15:30:42Z</time>
      </trkpt>
      <trkpt lat="49.32693" lon="1.12022">
        <ele>87</ele>
        <time>2017-04-25T15:30:42Z</time>
      </trkpt>
      <trkpt lat="49.32692" lon="1.12027">
        <ele>87</ele>
        <time>2017-04-25T15:31:46Z</time>
      </trkpt>
      <trkpt lat="49.32694" lon="1.12026">
        <ele>87</ele>
        <time>2017-04-25T15:31:46Z</time>
      </trkpt>
      <trkpt lat="49.32696" lon="1.12023">
        <ele>87</ele>
        <time>2017-04-25T15:31:46Z</time>
      </trkpt>
      <trkpt lat="49.32697" lon="1.12014">
        <ele>87</ele>
        <time>2017-04-25T15:31:46Z</time>
      </trkpt>
      <trkpt lat="49.32696" lon="1.12006">
        <ele>87</ele>
        <time>2017-04-25T15:31:46Z</time>
      </trkpt>
      <trkpt lat="49.32697" lon="1.12001">
        <ele>87</ele>
        <time>2017-04-25T15:32:02Z</time>
      </trkpt>
      <trkpt lat="49.32698" lon="1.11993">
        <ele>87</ele>
        <time>2017-04-25T15:32:02Z</time>
      </trkpt>
      <trkpt lat="49.32699" lon="1.11986">
        <ele>87</ele>
        <time>2017-04-25T15:32:02Z</time>
      </trkpt>
      <trkpt lat="49.32698" lon="1.1198">
        <ele>87</ele>
        <time>2017-04-25T15:32:03Z</time>
      </trkpt>
      <trkpt lat="49.32697" lon="1.11973">
        <ele>87</ele>
        <time>2017-04-25T15:32:18Z</time>
      </trkpt>
      <trkpt lat="49.32695" lon="1.11963">
        <ele>87</ele>
        <time>2017-04-25T15:32:18Z</time>
      </trkpt>
      <trkpt lat="49.32693" lon="1.11957">
        <ele>85</ele>
        <time>2017-04-25T15:32:18Z</time>
      </trkpt>
      <trkpt lat="49.32693" lon="1.11949">
        <ele>85</ele>
        <time>2017-04-25T15:32:19Z</time>
      </trkpt>
      <trkpt lat="49.32691" lon="1.11942">
        <ele>85</ele>
        <time>2017-04-25T15:32:34Z</time>
      </trkpt>
      <trkpt lat="49.3269" lon="1.11935">
        <ele>85</ele>
        <time>2017-04-25T15:32:34Z</time>
      </trkpt>
      <trkpt lat="49.32688" lon="1.11922">
        <ele>85</ele>
        <time>2017-04-25T15:32:34Z</time>
      </trkpt>
      <trkpt lat="49.3269" lon="1.11917">
        <ele>85</ele>
        <time>2017-04-25T15:32:34Z</time>
      </trkpt>
      <trkpt lat="49.32691" lon="1.11908">
        <ele>85</ele>
        <time>2017-04-25T15:32:54Z</time>
      </trkpt>
      <trkpt lat="49.32691" lon="1.11901">
        <ele>85</ele>
        <time>2017-04-25T15:32:54Z</time>
      </trkpt>
      <trkpt lat="49.32691" lon="1.11898">
        <ele>85</ele>
        <time>2017-04-25T15:32:54Z</time>
      </trkpt>
      <trkpt lat="49.32687" lon="1.11897">
        <ele>85</ele>
        <time>2017-04-25T15:32:54Z</time>
      </trkpt>
      <trkpt lat="49.32683" lon="1.119">
        <ele>85</ele>
        <time>2017-04-25T15:32:54Z</time>
      </trkpt>
      <trkpt lat="49.32679" lon="1.11902">
        <ele>85</ele>
        <time>2017-04-25T15:33:10Z</time>
      </trkpt>
      <trkpt lat="49.32674" lon="1.11904">
        <ele>85</ele>
        <time>2017-04-25T15:33:10Z</time>
      </trkpt>
      <trkpt lat="49.32671" lon="1.11905">
        <ele>85</ele>
        <time>2017-04-25T15:33:10Z</time>
      </trkpt>
      <trkpt lat="49.32668" lon="1.11908">
        <ele>85</ele>
        <time>2017-04-25T15:33:10Z</time>
      </trkpt>
      <trkpt lat="49.32664" lon="1.11911">
        <ele>85</ele>
        <time>2017-04-25T15:33:26Z</time>
      </trkpt>
      <trkpt lat="49.32656" lon="1.11914">
        <ele>85</ele>
        <time>2017-04-25T15:33:26Z</time>
      </trkpt>
      <trkpt lat="49.3265" lon="1.11917">
        <ele>85</ele>
        <time>2017-04-25T15:33:27Z</time>
      </trkpt>
      <trkpt lat="49.32645" lon="1.1192">
        <ele>85</ele>
        <time>2017-04-25T15:33:27Z</time>
      </trkpt>
      <trkpt lat="49.3264" lon="1.11921">
        <ele>85</ele>
        <time>2017-04-25T15:33:42Z</time>
      </trkpt>
      <trkpt lat="49.32636" lon="1.11922">
        <ele>85</ele>
        <time>2017-04-25T15:33:42Z</time>
      </trkpt>
      <trkpt lat="49.32629" lon="1.11922">
        <ele>85</ele>
        <time>2017-04-25T15:33:42Z</time>
      </trkpt>
      <trkpt lat="49.32623" lon="1.11923">
        <ele>85</ele>
        <time>2017-04-25T15:33:43Z</time>
      </trkpt>
      <trkpt lat="49.32619" lon="1.11926">
        <ele>85</ele>
        <time>2017-04-25T15:33:58Z</time>
      </trkpt>
      <trkpt lat="49.32609" lon="1.11929">
        <ele>85</ele>
        <time>2017-04-25T15:33:58Z</time>
      </trkpt>
      <trkpt lat="49.32605" lon="1.11932">
        <ele>85</ele>
        <time>2017-04-25T15:33:58Z</time>
      </trkpt>
      <trkpt lat="49.326" lon="1.11936">
        <ele>85</ele>
        <time>2017-04-25T15:33:58Z</time>
      </trkpt>
      <trkpt lat="49.32592" lon="1.11943">
        <ele>85</ele>
        <time>2017-04-25T15:34:34Z</time>
      </trkpt>
      <trkpt lat="49.32591" lon="1.11943">
        <ele>85</ele>
        <time>2017-04-25T15:34:34Z</time>
      </trkpt>
      <trkpt lat="49.32588" lon="1.11946">
        <ele>85</ele>
        <time>2017-04-25T15:34:34Z</time>
      </trkpt>
      <trkpt lat="49.32585" lon="1.11947">
        <ele>85</ele>
        <time>2017-04-25T15:34:34Z</time>
      </trkpt>
      <trkpt lat="49.32582" lon="1.11954">
        <ele>85</ele>
        <time>2017-04-25T15:34:34Z</time>
      </trkpt>
      <trkpt lat="49.32581" lon="1.11955">
        <ele>85</ele>
        <time>2017-04-25T15:34:58Z</time>
      </trkpt>
      <trkpt lat="49.3258" lon="1.11955">
        <ele>85</ele>
        <time>2017-04-25T15:34:58Z</time>
      </trkpt>
      <trkpt lat="49.32578" lon="1.11952">
        <ele>85</ele>
        <time>2017-04-25T15:34:58Z</time>
      </trkpt>
      <trkpt lat="49.32576" lon="1.11953">
        <ele>85</ele>
        <time>2017-04-25T15:34:58Z</time>
      </trkpt>
      <trkpt lat="49.32572" lon="1.11954">
        <ele>85</ele>
        <time>2017-04-25T15:34:58Z</time>
      </trkpt>
      <trkpt lat="49.32569" lon="1.11955">
        <ele>85</ele>
        <time>2017-04-25T15:35:14Z</time>
      </trkpt>
      <trkpt lat="49.32564" lon="1.11956">
        <ele>85</ele>
        <time>2017-04-25T15:35:14Z</time>
      </trkpt>
      <trkpt lat="49.32561" lon="1.1196">
        <ele>86</ele>
        <time>2017-04-25T15:35:14Z</time>
      </trkpt>
      <trkpt lat="49.32555" lon="1.1196">
        <ele>86</ele>
        <time>2017-04-25T15:35:14Z</time>
      </trkpt>
      <trkpt lat="49.32553" lon="1.11961">
        <ele>86</ele>
        <time>2017-04-25T15:35:34Z</time>
      </trkpt>
      <trkpt lat="49.3255" lon="1.11962">
        <ele>86</ele>
        <time>2017-04-25T15:35:34Z</time>
      </trkpt>
      <trkpt lat="49.32548" lon="1.11962">
        <ele>86</ele>
        <time>2017-04-25T15:35:34Z</time>
      </trkpt>
      <trkpt lat="49.32546" lon="1.11963">
        <ele>86</ele>
        <time>2017-04-25T15:35:34Z</time>
      </trkpt>
      <trkpt lat="49.32543" lon="1.11966">
        <ele>86</ele>
        <time>2017-04-25T15:35:34Z</time>
      </trkpt>
      <trkpt lat="49.32541" lon="1.11969">
        <ele>84</ele>
        <time>2017-04-25T15:35:50Z</time>
      </trkpt>
      <trkpt lat="49.32539" lon="1.11972">
        <ele>84</ele>
        <time>2017-04-25T15:35:50Z</time>
      </trkpt>
      <trkpt lat="49.32535" lon="1.11972">
        <ele>84</ele>
        <time>2017-04-25T15:35:50Z</time>
      </trkpt>
      <trkpt lat="49.32532" lon="1.11971">
        <ele>84</ele>
        <time>2017-04-25T15:35:50Z</time>
      </trkpt>
      <trkpt lat="49.32528" lon="1.11973">
        <ele>84</ele>
        <time>2017-04-25T15:36:14Z</time>
      </trkpt>
      <trkpt lat="49.32525" lon="1.11974">
        <ele>84</ele>
        <time>2017-04-25T15:36:14Z</time>
      </trkpt>
      <trkpt lat="49.32524" lon="1.11974">
        <ele>84</ele>
        <time>2017-04-25T15:36:14Z</time>
      </trkpt>
      <trkpt lat="49.32523" lon="1.11975">
        <ele>84</ele>
        <time>2017-04-25T15:36:14Z</time>
      </trkpt>
      <trkpt lat="49.32521" lon="1.11977">
        <ele>84</ele>
        <time>2017-04-25T15:36:14Z</time>
      </trkpt>
      <trkpt lat="49.32519" lon="1.11977">
        <ele>84</ele>
        <time>2017-04-25T15:36:30Z</time>
      </trkpt>
      <trkpt lat="49.32517" lon="1.11979">
        <ele>84</ele>
        <time>2017-04-25T15:36:30Z</time>
      </trkpt>
      <trkpt lat="49.32514" lon="1.11981">
        <ele>84</ele>
        <time>2017-04-25T15:36:30Z</time>
      </trkpt>
      <trkpt lat="49.32511" lon="1.11981">
        <ele>84</ele>
        <time>2017-04-25T15:36:30Z</time>
      </trkpt>
      <trkpt lat="49.32507" lon="1.11981">
        <ele>84</ele>
        <time>2017-04-25T15:36:46Z</time>
      </trkpt>
      <trkpt lat="49.32504" lon="1.11981">
        <ele>84</ele>
        <time>2017-04-25T15:36:46Z</time>
      </trkpt>
      <trkpt lat="49.325" lon="1.11981">
        <ele>84</ele>
        <time>2017-04-25T15:36:46Z</time>
      </trkpt>
      <trkpt lat="49.32496" lon="1.1198">
        <ele>84</ele>
        <time>2017-04-25T15:36:46Z</time>
      </trkpt>
      <trkpt lat="49.32485" lon="1.11983">
        <ele>84</ele>
        <time>2017-04-25T15:38:38Z</time>
      </trkpt>
      <trkpt lat="49.32485" lon="1.1199">
        <ele>84</ele>
        <time>2017-04-25T15:38:38Z</time>
      </trkpt>
      <trkpt lat="49.32483" lon="1.11993">
        <ele>84</ele>
        <time>2017-04-25T15:38:38Z</time>
      </trkpt>
      <trkpt lat="49.32483" lon="1.11998">
        <ele>84</ele>
        <time>2017-04-25T15:38:38Z</time>
      </trkpt>
      <trkpt lat="49.32481" lon="1.12003">
        <ele>84</ele>
        <time>2017-04-25T15:38:39Z</time>
      </trkpt>
      <trkpt lat="49.32481" lon="1.12006">
        <ele>84</ele>
        <time>2017-04-25T15:38:54Z</time>
      </trkpt>
      <trkpt lat="49.32478" lon="1.12014">
        <ele>84</ele>
        <time>2017-04-25T15:38:54Z</time>
      </trkpt>
      <trkpt lat="49.32477" lon="1.12021">
        <ele>84</ele>
        <time>2017-04-25T15:38:54Z</time>
      </trkpt>
      <trkpt lat="49.32475" lon="1.12026">
        <ele>84</ele>
        <time>2017-04-25T15:38:54Z</time>
      </trkpt>
      <trkpt lat="49.32475" lon="1.12032">
        <ele>84</ele>
        <time>2017-04-25T15:39:10Z</time>
      </trkpt>
      <trkpt lat="49.32474" lon="1.12041">
        <ele>84</ele>
        <time>2017-04-25T15:39:10Z</time>
      </trkpt>
      <trkpt lat="49.32473" lon="1.12051">
        <ele>84</ele>
        <time>2017-04-25T15:39:10Z</time>
      </trkpt>
      <trkpt lat="49.32473" lon="1.12059">
        <ele>84</ele>
        <time>2017-04-25T15:39:10Z</time>
      </trkpt>
      <trkpt lat="49.32474" lon="1.12067">
        <ele>84</ele>
        <time>2017-04-25T15:39:26Z</time>
      </trkpt>
      <trkpt lat="49.32473" lon="1.12074">
        <ele>84</ele>
        <time>2017-04-25T15:39:26Z</time>
      </trkpt>
      <trkpt lat="49.32473" lon="1.12081">
        <ele>84</ele>
        <time>2017-04-25T15:39:26Z</time>
      </trkpt>
      <trkpt lat="49.32471" lon="1.12089">
        <ele>84</ele>
        <time>2017-04-25T15:39:26Z</time>
      </trkpt>
      <trkpt lat="49.3247" lon="1.12095">
        <ele>84</ele>
        <time>2017-04-25T15:39:42Z</time>
      </trkpt>
      <trkpt lat="49.32468" lon="1.12103">
        <ele>84</ele>
        <time>2017-04-25T15:39:42Z</time>
      </trkpt>
      <trkpt lat="49.32467" lon="1.12108">
        <ele>84</ele>
        <time>2017-04-25T15:39:42Z</time>
      </trkpt>
      <trkpt lat="49.32468" lon="1.12115">
        <ele>84</ele>
        <time>2017-04-25T15:39:42Z</time>
      </trkpt>
      <trkpt lat="49.32467" lon="1.12124">
        <ele>84</ele>
        <time>2017-04-25T15:39:58Z</time>
      </trkpt>
      <trkpt lat="49.32467" lon="1.12131">
        <ele>84</ele>
        <time>2017-04-25T15:39:58Z</time>
      </trkpt>
      <trkpt lat="49.32467" lon="1.12134">
        <ele>84</ele>
        <time>2017-04-25T15:39:59Z</time>
      </trkpt>
      <trkpt lat="49.32465" lon="1.12142">
        <ele>84</ele>
        <time>2017-04-25T15:39:59Z</time>
      </trkpt>
      <trkpt lat="49.32464" lon="1.12149">
        <ele>84</ele>
        <time>2017-04-25T15:40:14Z</time>
      </trkpt>
      <trkpt lat="49.32463" lon="1.12158">
        <ele>84</ele>
        <time>2017-04-25T15:40:14Z</time>
      </trkpt>
      <trkpt lat="49.32464" lon="1.12166">
        <ele>84</ele>
        <time>2017-04-25T15:40:14Z</time>
      </trkpt>
      <trkpt lat="49.32463" lon="1.12172">
        <ele>84</ele>
        <time>2017-04-25T15:40:14Z</time>
      </trkpt>
      <trkpt lat="49.32461" lon="1.12177">
        <ele>84</ele>
        <time>2017-04-25T15:40:30Z</time>
      </trkpt>
      <trkpt lat="49.3246" lon="1.12189">
        <ele>84</ele>
        <time>2017-04-25T15:40:30Z</time>
      </trkpt>
      <trkpt lat="49.32459" lon="1.12199">
        <ele>84</ele>
        <time>2017-04-25T15:40:30Z</time>
      </trkpt>
      <trkpt lat="49.32457" lon="1.12204">
        <ele>84</ele>
        <time>2017-04-25T15:40:30Z</time>
      </trkpt>
      <trkpt lat="49.32457" lon="1.12206">
        <ele>84</ele>
        <time>2017-04-25T15:40:46Z</time>
      </trkpt>
      <trkpt lat="49.32456" lon="1.12211">
        <ele>84</ele>
        <time>2017-04-25T15:40:46Z</time>
      </trkpt>
      <trkpt lat="49.32456" lon="1.12223">
        <ele>84</ele>
        <time>2017-04-25T15:40:46Z</time>
      </trkpt>
      <trkpt lat="49.32453" lon="1.12231">
        <ele>84</ele>
        <time>2017-04-25T15:40:46Z</time>
      </trkpt>
      <trkpt lat="49.32453" lon="1.12239">
        <ele>84</ele>
        <time>2017-04-25T15:41:02Z</time>
      </trkpt>
      <trkpt lat="49.32453" lon="1.12244">
        <ele>84</ele>
        <time>2017-04-25T15:41:02Z</time>
      </trkpt>
      <trkpt lat="49.32452" lon="1.1225">
        <ele>84</ele>
        <time>2017-04-25T15:41:02Z</time>
      </trkpt>
      <trkpt lat="49.32451" lon="1.12256">
        <ele>84</ele>
        <time>2017-04-25T15:41:02Z</time>
      </trkpt>
      <trkpt lat="49.32449" lon="1.12265">
        <ele>84</ele>
        <time>2017-04-25T15:41:18Z</time>
      </trkpt>
      <trkpt lat="49.32448" lon="1.12274">
        <ele>84</ele>
        <time>2017-04-25T15:41:18Z</time>
      </trkpt>
      <trkpt lat="49.32446" lon="1.12282">
        <ele>84</ele>
        <time>2017-04-25T15:41:18Z</time>
      </trkpt>
      <trkpt lat="49.32446" lon="1.12287">
        <ele>84</ele>
        <time>2017-04-25T15:41:18Z</time>
      </trkpt>
      <trkpt lat="49.32445" lon="1.12297">
        <ele>81</ele>
        <time>2017-04-25T15:41:42Z</time>
      </trkpt>
      <trkpt lat="49.32445" lon="1.12298">
        <ele>81</ele>
        <time>2017-04-25T15:41:42Z</time>
      </trkpt>
      <trkpt lat="49.32443" lon="1.123">
        <ele>81</ele>
        <time>2017-04-25T15:41:42Z</time>
      </trkpt>
      <trkpt lat="49.32444" lon="1.12303">
        <ele>81</ele>
        <time>2017-04-25T15:41:42Z</time>
      </trkpt>
      <trkpt lat="49.32443" lon="1.12308">
        <ele>81</ele>
        <time>2017-04-25T15:41:42Z</time>
      </trkpt>
      <trkpt lat="49.32448" lon="1.12317">
        <ele>81</ele>
        <time>2017-04-25T15:43:14Z</time>
      </trkpt>
      <trkpt lat="49.32447" lon="1.12319">
        <ele>81</ele>
        <time>2017-04-25T15:43:14Z</time>
      </trkpt>
      <trkpt lat="49.32447" lon="1.12321">
        <ele>81</ele>
        <time>2017-04-25T15:43:14Z</time>
      </trkpt>
      <trkpt lat="49.32444" lon="1.12329">
        <ele>81</ele>
        <time>2017-04-25T15:43:14Z</time>
      </trkpt>
      <trkpt lat="49.32442" lon="1.12338">
        <ele>81</ele>
        <time>2017-04-25T15:43:14Z</time>
      </trkpt>
      <trkpt lat="49.32441" lon="1.12343">
        <ele>81</ele>
        <time>2017-04-25T15:43:30Z</time>
      </trkpt>
      <trkpt lat="49.32439" lon="1.12349">
        <ele>81</ele>
        <time>2017-04-25T15:43:30Z</time>
      </trkpt>
      <trkpt lat="49.32437" lon="1.12357">
        <ele>81</ele>
        <time>2017-04-25T15:43:30Z</time>
      </trkpt>
      <trkpt lat="49.32435" lon="1.12362">
        <ele>81</ele>
        <time>2017-04-25T15:43:30Z</time>
      </trkpt>
      <trkpt lat="49.32432" lon="1.12369">
        <ele>81</ele>
        <time>2017-04-25T15:43:46Z</time>
      </trkpt>
      <trkpt lat="49.32429" lon="1.12374">
        <ele>81</ele>
        <time>2017-04-25T15:43:46Z</time>
      </trkpt>
      <trkpt lat="49.32425" lon="1.12378">
        <ele>80</ele>
        <time>2017-04-25T15:43:46Z</time>
      </trkpt>
      <trkpt lat="49.32422" lon="1.12383">
        <ele>80</ele>
        <time>2017-04-25T15:43:46Z</time>
      </trkpt>
      <trkpt lat="49.32418" lon="1.12387">
        <ele>80</ele>
        <time>2017-04-25T15:44:02Z</time>
      </trkpt>
      <trkpt lat="49.32414" lon="1.12394">
        <ele>80</ele>
        <time>2017-04-25T15:44:02Z</time>
      </trkpt>
      <trkpt lat="49.3241" lon="1.12397">
        <ele>80</ele>
        <time>2017-04-25T15:44:02Z</time>
      </trkpt>
      <trkpt lat="49.32405" lon="1.12403">
        <ele>80</ele>
        <time>2017-04-25T15:44:02Z</time>
      </trkpt>
      <trkpt lat="49.32401" lon="1.12407">
        <ele>80</ele>
        <time>2017-04-25T15:44:18Z</time>
      </trkpt>
      <trkpt lat="49.32397" lon="1.12413">
        <ele>80</ele>
        <time>2017-04-25T15:44:18Z</time>
      </trkpt>
      <trkpt lat="49.32394" lon="1.12417">
        <ele>80</ele>
        <time>2017-04-25T15:44:18Z</time>
      </trkpt>
      <trkpt lat="49.32391" lon="1.1242">
        <ele>80</ele>
        <time>2017-04-25T15:44:18Z</time>
      </trkpt>
      <trkpt lat="49.32387" lon="1.12424">
        <ele>80</ele>
        <time>2017-04-25T15:44:34Z</time>
      </trkpt>
      <trkpt lat="49.32383" lon="1.12428">
        <ele>80</ele>
        <time>2017-04-25T15:44:34Z</time>
      </trkpt>
      <trkpt lat="49.32379" lon="1.12432">
        <ele>80</ele>
        <time>2017-04-25T15:44:34Z</time>
      </trkpt>
      <trkpt lat="49.32375" lon="1.12436">
        <ele>77</ele>
        <time>2017-04-25T15:44:34Z</time>
      </trkpt>
      <trkpt lat="49.3237" lon="1.1244">
        <ele>77</ele>
        <time>2017-04-25T15:44:50Z</time>
      </trkpt>
      <trkpt lat="49.32366" lon="1.12443">
        <ele>77</ele>
        <time>2017-04-25T15:44:50Z</time>
      </trkpt>
      <trkpt lat="49.32362" lon="1.12448">
        <ele>77</ele>
        <time>2017-04-25T15:44:50Z</time>
      </trkpt>
      <trkpt lat="49.32358" lon="1.12452">
        <ele>77</ele>
        <time>2017-04-25T15:44:50Z</time>
      </trkpt>
      <trkpt lat="49.32354" lon="1.12457">
        <ele>77</ele>
        <time>2017-04-25T15:45:06Z</time>
      </trkpt>
      <trkpt lat="49.32352" lon="1.1246">
        <ele>80</ele>
        <time>2017-04-25T15:45:06Z</time>
      </trkpt>
      <trkpt lat="49.32349" lon="1.12466">
        <ele>80</ele>
        <time>2017-04-25T15:45:06Z</time>
      </trkpt>
      <trkpt lat="49.32344" lon="1.12471">
        <ele>80</ele>
        <time>2017-04-25T15:45:06Z</time>
      </trkpt>
      <trkpt lat="49.32339" lon="1.12476">
        <ele>80</ele>
        <time>2017-04-25T15:45:22Z</time>
      </trkpt>
      <trkpt lat="49.32335" lon="1.12478">
        <ele>80</ele>
        <time>2017-04-25T15:45:22Z</time>
      </trkpt>
      <trkpt lat="49.32331" lon="1.12481">
        <ele>80</ele>
        <time>2017-04-25T15:45:22Z</time>
      </trkpt>
      <trkpt lat="49.32327" lon="1.12486">
        <ele>80</ele>
        <time>2017-04-25T15:45:22Z</time>
      </trkpt>
      <trkpt lat="49.32324" lon="1.12491">
        <ele>80</ele>
        <time>2017-04-25T15:45:38Z</time>
      </trkpt>
      <trkpt lat="49.32321" lon="1.12495">
        <ele>80</ele>
        <time>2017-04-25T15:45:38Z</time>
      </trkpt>
      <trkpt lat="49.32316" lon="1.12499">
        <ele>80</ele>
        <time>2017-04-25T15:45:38Z</time>
      </trkpt>
      <trkpt lat="49.32312" lon="1.12505">
        <ele>80</ele>
        <time>2017-04-25T15:45:39Z</time>
      </trkpt>
      <trkpt lat="49.32309" lon="1.12509">
        <ele>80</ele>
        <time>2017-04-25T15:45:54Z</time>
      </trkpt>
      <trkpt lat="49.32305" lon="1.12512">
        <ele>80</ele>
        <time>2017-04-25T15:45:54Z</time>
      </trkpt>
      <trkpt lat="49.32302" lon="1.12515">
        <ele>80</ele>
        <time>2017-04-25T15:45:54Z</time>
      </trkpt>
      <trkpt lat="49.32299" lon="1.12519">
        <ele>80</ele>
        <time>2017-04-25T15:45:54Z</time>
      </trkpt>
      <trkpt lat="49.32296" lon="1.12523">
        <ele>80</ele>
        <time>2017-04-25T15:46:10Z</time>
      </trkpt>
      <trkpt lat="49.32293" lon="1.12527">
        <ele>80</ele>
        <time>2017-04-25T15:46:10Z</time>
      </trkpt>
      <trkpt lat="49.3229" lon="1.1253">
        <ele>77</ele>
        <time>2017-04-25T15:46:10Z</time>
      </trkpt>
      <trkpt lat="49.32285" lon="1.12532">
        <ele>77</ele>
        <time>2017-04-25T15:46:10Z</time>
      </trkpt>
      <trkpt lat="49.3228" lon="1.12545">
        <ele>77</ele>
        <time>2017-04-25T15:47:26Z</time>
      </trkpt>
      <trkpt lat="49.3228" lon="1.12547">
        <ele>77</ele>
        <time>2017-04-25T15:47:26Z</time>
      </trkpt>
      <trkpt lat="49.32281" lon="1.12556">
        <ele>77</ele>
        <time>2017-04-25T15:47:26Z</time>
      </trkpt>
      <trkpt lat="49.32283" lon="1.12564">
        <ele>77</ele>
        <time>2017-04-25T15:47:27Z</time>
      </trkpt>
      <trkpt lat="49.32285" lon="1.12574">
        <ele>77</ele>
        <time>2017-04-25T15:47:27Z</time>
      </trkpt>
      <trkpt lat="49.32286" lon="1.12579">
        <ele>77</ele>
        <time>2017-04-25T15:47:42Z</time>
      </trkpt>
      <trkpt lat="49.32288" lon="1.12585">
        <ele>77</ele>
        <time>2017-04-25T15:47:42Z</time>
      </trkpt>
      <trkpt lat="49.32291" lon="1.12592">
        <ele>77</ele>
        <time>2017-04-25T15:47:43Z</time>
      </trkpt>
      <trkpt lat="49.32294" lon="1.12599">
        <ele>82</ele>
        <time>2017-04-25T15:47:43Z</time>
      </trkpt>
      <trkpt lat="49.32297" lon="1.12605">
        <ele>82</ele>
        <time>2017-04-25T15:47:58Z</time>
      </trkpt>
      <trkpt lat="49.32298" lon="1.12609">
        <ele>82</ele>
        <time>2017-04-25T15:47:58Z</time>
      </trkpt>
      <trkpt lat="49.32301" lon="1.12616">
        <ele>82</ele>
        <time>2017-04-25T15:47:58Z</time>
      </trkpt>
      <trkpt lat="49.32303" lon="1.12624">
        <ele>82</ele>
        <time>2017-04-25T15:47:58Z</time>
      </trkpt>
      <trkpt lat="49.32305" lon="1.12632">
        <ele>82</ele>
        <time>2017-04-25T15:48:14Z</time>
      </trkpt>
      <trkpt lat="49.32307" lon="1.12638">
        <ele>82</ele>
        <time>2017-04-25T15:48:14Z</time>
      </trkpt>
      <trkpt lat="49.32309" lon="1.12644">
        <ele>82</ele>
        <time>2017-04-25T15:48:14Z</time>
      </trkpt>
      <trkpt lat="49.32312" lon="1.12651">
        <ele>82</ele>
        <time>2017-04-25T15:48:14Z</time>
      </trkpt>
      <trkpt lat="49.32316" lon="1.12658">
        <ele>82</ele>
        <time>2017-04-25T15:48:30Z</time>
      </trkpt>
      <trkpt lat="49.32318" lon="1.12665">
        <ele>82</ele>
        <time>2017-04-25T15:48:30Z</time>
      </trkpt>
      <trkpt lat="49.3232" lon="1.1267">
        <ele>82</ele>
        <time>2017-04-25T15:48:30Z</time>
      </trkpt>
      <trkpt lat="49.32323" lon="1.12677">
        <ele>82</ele>
        <time>2017-04-25T15:48:31Z</time>
      </trkpt>
      <trkpt lat="49.32324" lon="1.12686">
        <ele>82</ele>
        <time>2017-04-25T15:48:46Z</time>
      </trkpt>
      <trkpt lat="49.32326" lon="1.12695">
        <ele>82</ele>
        <time>2017-04-25T15:48:46Z</time>
      </trkpt>
      <trkpt lat="49.32326" lon="1.127">
        <ele>82</ele>
        <time>2017-04-25T15:48:46Z</time>
      </trkpt>
      <trkpt lat="49.32328" lon="1.12708">
        <ele>82</ele>
        <time>2017-04-25T15:48:46Z</time>
      </trkpt>
      <trkpt lat="49.32329" lon="1.12715">
        <ele>83</ele>
        <time>2017-04-25T15:49:02Z</time>
      </trkpt>
      <trkpt lat="49.3233" lon="1.12722">
        <ele>83</ele>
        <time>2017-04-25T15:49:02Z</time>
      </trkpt>
      <trkpt lat="49.32332" lon="1.12731">
        <ele>83</ele>
        <time>2017-04-25T15:49:02Z</time>
      </trkpt>
      <trkpt lat="49.32334" lon="1.12738">
        <ele>83</ele>
        <time>2017-04-25T15:49:02Z</time>
      </trkpt>
      <trkpt lat="49.32335" lon="1.12744">
        <ele>83</ele>
        <time>2017-04-25T15:49:18Z</time>
      </trkpt>
      <trkpt lat="49.32336" lon="1.12751">
        <ele>83</ele>
        <time>2017-04-25T15:49:18Z</time>
      </trkpt>
      <trkpt lat="49.32337" lon="1.12761">
        <ele>83</ele>
        <time>2017-04-25T15:49:18Z</time>
      </trkpt>
      <trkpt lat="49.32337" lon="1.12766">
        <ele>83</ele>
        <time>2017-04-25T15:49:18Z</time>
      </trkpt>
      <trkpt lat="49.32338" lon="1.12773">
        <ele>83</ele>
        <time>2017-04-25T15:49:34Z</time>
      </trkpt>
      <trkpt lat="49.3234" lon="1.1278">
        <ele>83</ele>
        <time>2017-04-25T15:49:34Z</time>
      </trkpt>
      <trkpt lat="49.32341" lon="1.12786">
        <ele>83</ele>
        <time>2017-04-25T15:49:34Z</time>
      </trkpt>
      <trkpt lat="49.32343" lon="1.12793">
        <ele>84</ele>
        <time>2017-04-25T15:49:34Z</time>
      </trkpt>
      <trkpt lat="49.32345" lon="1.12803">
        <ele>84</ele>
        <time>2017-04-25T15:49:50Z</time>
      </trkpt>
      <trkpt lat="49.32346" lon="1.12809">
        <ele>84</ele>
        <time>2017-04-25T15:49:50Z</time>
      </trkpt>
      <trkpt lat="49.32348" lon="1.12817">
        <ele>84</ele>
        <time>2017-04-25T15:49:50Z</time>
      </trkpt>
      <trkpt lat="49.3235" lon="1.12826">
        <ele>84</ele>
        <time>2017-04-25T15:49:50Z</time>
      </trkpt>
      <trkpt lat="49.32352" lon="1.12834">
        <ele>84</ele>
        <time>2017-04-25T15:50:06Z</time>
      </trkpt>
      <trkpt lat="49.32353" lon="1.1284">
        <ele>84</ele>
        <time>2017-04-25T15:50:06Z</time>
      </trkpt>
      <trkpt lat="49.32355" lon="1.12849">
        <ele>84</ele>
        <time>2017-04-25T15:50:06Z</time>
      </trkpt>
      <trkpt lat="49.32355" lon="1.12855">
        <ele>84</ele>
        <time>2017-04-25T15:50:06Z</time>
      </trkpt>
      <trkpt lat="49.32357" lon="1.12862">
        <ele>84</ele>
        <time>2017-04-25T15:50:22Z</time>
      </trkpt>
      <trkpt lat="49.32359" lon="1.12869">
        <ele>84</ele>
        <time>2017-04-25T15:50:22Z</time>
      </trkpt>
      <trkpt lat="49.32361" lon="1.12877">
        <ele>84</ele>
        <time>2017-04-25T15:50:22Z</time>
      </trkpt>
      <trkpt lat="49.32363" lon="1.12884">
        <ele>84</ele>
        <time>2017-04-25T15:50:23Z</time>
      </trkpt>
      <trkpt lat="49.32365" lon="1.12892">
        <ele>84</ele>
        <time>2017-04-25T15:50:38Z</time>
      </trkpt>
      <trkpt lat="49.32367" lon="1.12898">
        <ele>84</ele>
        <time>2017-04-25T15:50:38Z</time>
      </trkpt>
      <trkpt lat="49.32368" lon="1.12904">
        <ele>84</ele>
        <time>2017-04-25T15:50:38Z</time>
      </trkpt>
      <trkpt lat="49.32369" lon="1.12912">
        <ele>84</ele>
        <time>2017-04-25T15:50:38Z</time>
      </trkpt>
      <trkpt lat="49.3237" lon="1.12918">
        <ele>84</ele>
        <time>2017-04-25T15:50:54Z</time>
      </trkpt>
      <trkpt lat="49.32371" lon="1.12925">
        <ele>84</ele>
        <time>2017-04-25T15:50:54Z</time>
      </trkpt>
      <trkpt lat="49.32374" lon="1.12933">
        <ele>84</ele>
        <time>2017-04-25T15:50:54Z</time>
      </trkpt>
      <trkpt lat="49.32376" lon="1.12941">
        <ele>86</ele>
        <time>2017-04-25T15:50:54Z</time>
      </trkpt>
      <trkpt lat="49.32378" lon="1.12947">
        <ele>86</ele>
        <time>2017-04-25T15:51:10Z</time>
      </trkpt>
      <trkpt lat="49.32379" lon="1.12954">
        <ele>86</ele>
        <time>2017-04-25T15:51:10Z</time>
      </trkpt>
      <trkpt lat="49.32381" lon="1.12963">
        <ele>87</ele>
        <time>2017-04-25T15:51:10Z</time>
      </trkpt>
      <trkpt lat="49.32382" lon="1.12967">
        <ele>87</ele>
        <time>2017-04-25T15:51:10Z</time>
      </trkpt>
      <trkpt lat="49.32384" lon="1.12974">
        <ele>87</ele>
        <time>2017-04-25T15:51:26Z</time>
      </trkpt>
      <trkpt lat="49.32386" lon="1.12981">
        <ele>87</ele>
        <time>2017-04-25T15:51:26Z</time>
      </trkpt>
      <trkpt lat="49.32388" lon="1.12987">
        <ele>87</ele>
        <time>2017-04-25T15:51:26Z</time>
      </trkpt>
      <trkpt lat="49.32391" lon="1.12995">
        <ele>87</ele>
        <time>2017-04-25T15:51:26Z</time>
      </trkpt>
      <trkpt lat="49.32393" lon="1.13005">
        <ele>87</ele>
        <time>2017-04-25T15:51:42Z</time>
      </trkpt>
      <trkpt lat="49.32395" lon="1.13011">
        <ele>87</ele>
        <time>2017-04-25T15:51:42Z</time>
      </trkpt>
      <trkpt lat="49.32396" lon="1.13016">
        <ele>87</ele>
        <time>2017-04-25T15:51:42Z</time>
      </trkpt>
      <trkpt lat="49.32398" lon="1.13024">
        <ele>87</ele>
        <time>2017-04-25T15:51:42Z</time>
      </trkpt>
      <trkpt lat="49.32398" lon="1.13032">
        <ele>87</ele>
        <time>2017-04-25T15:51:58Z</time>
      </trkpt>
      <trkpt lat="49.324" lon="1.13041">
        <ele>87</ele>
        <time>2017-04-25T15:51:58Z</time>
      </trkpt>
      <trkpt lat="49.32402" lon="1.13047">
        <ele>85</ele>
        <time>2017-04-25T15:51:58Z</time>
      </trkpt>
      <trkpt lat="49.32403" lon="1.13053">
        <ele>85</ele>
        <time>2017-04-25T15:51:58Z</time>
      </trkpt>
      <trkpt lat="49.32404" lon="1.13059">
        <ele>85</ele>
        <time>2017-04-25T15:52:14Z</time>
      </trkpt>
      <trkpt lat="49.32407" lon="1.13068">
        <ele>85</ele>
        <time>2017-04-25T15:52:14Z</time>
      </trkpt>
      <trkpt lat="49.3241" lon="1.13075">
        <ele>85</ele>
        <time>2017-04-25T15:52:14Z</time>
      </trkpt>
      <trkpt lat="49.3241" lon="1.13081">
        <ele>85</ele>
        <time>2017-04-25T15:52:14Z</time>
      </trkpt>
      <trkpt lat="49.32411" lon="1.1309">
        <ele>85</ele>
        <time>2017-04-25T15:52:30Z</time>
      </trkpt>
      <trkpt lat="49.32413" lon="1.13096">
        <ele>85</ele>
        <time>2017-04-25T15:52:30Z</time>
      </trkpt>
      <trkpt lat="49.32414" lon="1.13104">
        <ele>85</ele>
        <time>2017-04-25T15:52:30Z</time>
      </trkpt>
      <trkpt lat="49.32416" lon="1.13112">
        <ele>85</ele>
        <time>2017-04-25T15:52:30Z</time>
      </trkpt>
      <trkpt lat="49.32418" lon="1.13118">
        <ele>85</ele>
        <time>2017-04-25T15:52:46Z</time>
      </trkpt>
      <trkpt lat="49.32419" lon="1.13127">
        <ele>84</ele>
        <time>2017-04-25T15:52:46Z</time>
      </trkpt>
      <trkpt lat="49.32421" lon="1.13134">
        <ele>84</ele>
        <time>2017-04-25T15:52:46Z</time>
      </trkpt>
      <trkpt lat="49.32422" lon="1.13141">
        <ele>84</ele>
        <time>2017-04-25T15:52:46Z</time>
      </trkpt>
      <trkpt lat="49.32424" lon="1.13148">
        <ele>84</ele>
        <time>2017-04-25T15:53:02Z</time>
      </trkpt>
      <trkpt lat="49.32426" lon="1.13154">
        <ele>84</ele>
        <time>2017-04-25T15:53:02Z</time>
      </trkpt>
      <trkpt lat="49.32428" lon="1.13162">
        <ele>84</ele>
        <time>2017-04-25T15:53:02Z</time>
      </trkpt>
      <trkpt lat="49.3243" lon="1.13169">
        <ele>84</ele>
        <time>2017-04-25T15:53:02Z</time>
      </trkpt>
      <trkpt lat="49.32431" lon="1.13174">
        <ele>84</ele>
        <time>2017-04-25T15:53:18Z</time>
      </trkpt>
      <trkpt lat="49.32433" lon="1.13181">
        <ele>84</ele>
        <time>2017-04-25T15:53:18Z</time>
      </trkpt>
      <trkpt lat="49.32434" lon="1.13189">
        <ele>84</ele>
        <time>2017-04-25T15:53:18Z</time>
      </trkpt>
      <trkpt lat="49.32436" lon="1.13197">
        <ele>84</ele>
        <time>2017-04-25T15:53:19Z</time>
      </trkpt>
      <trkpt lat="49.32437" lon="1.13203">
        <ele>84</ele>
        <time>2017-04-25T15:53:34Z</time>
      </trkpt>
      <trkpt lat="49.32437" lon="1.13211">
        <ele>85</ele>
        <time>2017-04-25T15:53:34Z</time>
      </trkpt>
      <trkpt lat="49.32438" lon="1.13218">
        <ele>85</ele>
        <time>2017-04-25T15:53:34Z</time>
      </trkpt>
      <trkpt lat="49.3244" lon="1.13225">
        <ele>85</ele>
        <time>2017-04-25T15:53:34Z</time>
      </trkpt>
      <trkpt lat="49.32441" lon="1.13233">
        <ele>85</ele>
        <time>2017-04-25T15:53:50Z</time>
      </trkpt>
      <trkpt lat="49.32442" lon="1.1324">
        <ele>85</ele>
        <time>2017-04-25T15:53:50Z</time>
      </trkpt>
      <trkpt lat="49.32443" lon="1.13245">
        <ele>85</ele>
        <time>2017-04-25T15:53:50Z</time>
      </trkpt>
      <trkpt lat="49.32445" lon="1.13252">
        <ele>85</ele>
        <time>2017-04-25T15:53:50Z</time>
      </trkpt>
      <trkpt lat="49.32446" lon="1.13261">
        <ele>85</ele>
        <time>2017-04-25T15:54:06Z</time>
      </trkpt>
      <trkpt lat="49.32448" lon="1.13269">
        <ele>85</ele>
        <time>2017-04-25T15:54:06Z</time>
      </trkpt>
      <trkpt lat="49.32449" lon="1.13276">
        <ele>85</ele>
        <time>2017-04-25T15:54:06Z</time>
      </trkpt>
      <trkpt lat="49.3245" lon="1.13284">
        <ele>85</ele>
        <time>2017-04-25T15:54:06Z</time>
      </trkpt>
      <trkpt lat="49.32452" lon="1.13292">
        <ele>86</ele>
        <time>2017-04-25T15:54:22Z</time>
      </trkpt>
      <trkpt lat="49.32454" lon="1.133">
        <ele>86</ele>
        <time>2017-04-25T15:54:22Z</time>
      </trkpt>
      <trkpt lat="49.32455" lon="1.13306">
        <ele>86</ele>
        <time>2017-04-25T15:54:22Z</time>
      </trkpt>
      <trkpt lat="49.32457" lon="1.13312">
        <ele>86</ele>
        <time>2017-04-25T15:54:22Z</time>
      </trkpt>
      <trkpt lat="49.32458" lon="1.13319">
        <ele>86</ele>
        <time>2017-04-25T15:54:38Z</time>
      </trkpt>
      <trkpt lat="49.3246" lon="1.13325">
        <ele>85</ele>
        <time>2017-04-25T15:54:38Z</time>
      </trkpt>
      <trkpt lat="49.32462" lon="1.13331">
        <ele>85</ele>
        <time>2017-04-25T15:54:38Z</time>
      </trkpt>
      <trkpt lat="49.32463" lon="1.13337">
        <ele>85</ele>
        <time>2017-04-25T15:54:38Z</time>
      </trkpt>
      <trkpt lat="49.32464" lon="1.13346">
        <ele>85</ele>
        <time>2017-04-25T15:54:54Z</time>
      </trkpt>
      <trkpt lat="49.32466" lon="1.13353">
        <ele>85</ele>
        <time>2017-04-25T15:54:54Z</time>
      </trkpt>
      <trkpt lat="49.32467" lon="1.13358">
        <ele>85</ele>
        <time>2017-04-25T15:54:54Z</time>
      </trkpt>
      <trkpt lat="49.32469" lon="1.13366">
        <ele>85</ele>
        <time>2017-04-25T15:54:55Z</time>
      </trkpt>
      <trkpt lat="49.32471" lon="1.13372">
        <ele>85</ele>
        <time>2017-04-25T15:55:10Z</time>
      </trkpt>
      <trkpt lat="49.32473" lon="1.13381">
        <ele>85</ele>
        <time>2017-04-25T15:55:10Z</time>
      </trkpt>
      <trkpt lat="49.32474" lon="1.13388">
        <ele>85</ele>
        <time>2017-04-25T15:55:10Z</time>
      </trkpt>
      <trkpt lat="49.32475" lon="1.13395">
        <ele>85</ele>
        <time>2017-04-25T15:55:10Z</time>
      </trkpt>
      <trkpt lat="49.32476" lon="1.13403">
        <ele>85</ele>
        <time>2017-04-25T15:55:26Z</time>
      </trkpt>
      <trkpt lat="49.32477" lon="1.13408">
        <ele>85</ele>
        <time>2017-04-25T15:55:26Z</time>
      </trkpt>
      <trkpt lat="49.32479" lon="1.13416">
        <ele>85</ele>
        <time>2017-04-25T15:55:26Z</time>
      </trkpt>
      <trkpt lat="49.3248" lon="1.13424">
        <ele>85</ele>
        <time>2017-04-25T15:55:26Z</time>
      </trkpt>
      <trkpt lat="49.32481" lon="1.13429">
        <ele>85</ele>
        <time>2017-04-25T15:55:42Z</time>
      </trkpt>
      <trkpt lat="49.32482" lon="1.13435">
        <ele>85</ele>
        <time>2017-04-25T15:55:42Z</time>
      </trkpt>
      <trkpt lat="49.32484" lon="1.13441">
        <ele>85</ele>
        <time>2017-04-25T15:55:42Z</time>
      </trkpt>
      <trkpt lat="49.32485" lon="1.13446">
        <ele>85</ele>
        <time>2017-04-25T15:55:42Z</time>
      </trkpt>
      <trkpt lat="49.32486" lon="1.13453">
        <ele>85</ele>
        <time>2017-04-25T15:55:58Z</time>
      </trkpt>
      <trkpt lat="49.32487" lon="1.13464">
        <ele>85</ele>
        <time>2017-04-25T15:55:58Z</time>
      </trkpt>
      <trkpt lat="49.32489" lon="1.13472">
        <ele>85</ele>
        <time>2017-04-25T15:55:58Z</time>
      </trkpt>
      <trkpt lat="49.32491" lon="1.13479">
        <ele>85</ele>
        <time>2017-04-25T15:55:58Z</time>
      </trkpt>
      <trkpt lat="49.32492" lon="1.13487">
        <ele>85</ele>
        <time>2017-04-25T15:56:14Z</time>
      </trkpt>
      <trkpt lat="49.32493" lon="1.13496">
        <ele>85</ele>
        <time>2017-04-25T15:56:14Z</time>
      </trkpt>
      <trkpt lat="49.32495" lon="1.13503">
        <ele>85</ele>
        <time>2017-04-25T15:56:14Z</time>
      </trkpt>
      <trkpt lat="49.32496" lon="1.13511">
        <ele>85</ele>
        <time>2017-04-25T15:56:15Z</time>
      </trkpt>
      <trkpt lat="49.32498" lon="1.13518">
        <ele>85</ele>
        <time>2017-04-25T15:56:30Z</time>
      </trkpt>
      <trkpt lat="49.325" lon="1.13526">
        <ele>85</ele>
        <time>2017-04-25T15:56:30Z</time>
      </trkpt>
      <trkpt lat="49.32502" lon="1.13535">
        <ele>85</ele>
        <time>2017-04-25T15:56:30Z</time>
      </trkpt>
      <trkpt lat="49.32504" lon="1.13539">
        <ele>85</ele>
        <time>2017-04-25T15:56:30Z</time>
      </trkpt>
      <trkpt lat="49.32506" lon="1.13545">
        <ele>86</ele>
        <time>2017-04-25T15:56:46Z</time>
      </trkpt>
      <trkpt lat="49.32509" lon="1.13551">
        <ele>86</ele>
        <time>2017-04-25T15:56:46Z</time>
      </trkpt>
      <trkpt lat="49.32512" lon="1.13561">
        <ele>86</ele>
        <time>2017-04-25T15:56:46Z</time>
      </trkpt>
      <trkpt lat="49.32514" lon="1.13568">
        <ele>86</ele>
        <time>2017-04-25T15:56:46Z</time>
      </trkpt>
      <trkpt lat="49.32516" lon="1.13575">
        <ele>86</ele>
        <time>2017-04-25T15:57:02Z</time>
      </trkpt>
      <trkpt lat="49.32519" lon="1.13582">
        <ele>86</ele>
        <time>2017-04-25T15:57:02Z</time>
      </trkpt>
      <trkpt lat="49.32522" lon="1.13588">
        <ele>86</ele>
        <time>2017-04-25T15:57:02Z</time>
      </trkpt>
      <trkpt lat="49.32524" lon="1.13592">
        <ele>86</ele>
        <time>2017-04-25T15:57:02Z</time>
      </trkpt>
      <trkpt lat="49.32525" lon="1.13598">
        <ele>86</ele>
        <time>2017-04-25T15:57:18Z</time>
      </trkpt>
      <trkpt lat="49.32527" lon="1.13604">
        <ele>86</ele>
        <time>2017-04-25T15:57:18Z</time>
      </trkpt>
      <trkpt lat="49.3253" lon="1.13612">
        <ele>86</ele>
        <time>2017-04-25T15:57:18Z</time>
      </trkpt>
      <trkpt lat="49.32532" lon="1.13619">
        <ele>86</ele>
        <time>2017-04-25T15:57:18Z</time>
      </trkpt>
      <trkpt lat="49.32533" lon="1.13626">
        <ele>85</ele>
        <time>2017-04-25T15:57:34Z</time>
      </trkpt>
      <trkpt lat="49.32536" lon="1.13633">
        <ele>85</ele>
        <time>2017-04-25T15:57:34Z</time>
      </trkpt>
      <trkpt lat="49.32539" lon="1.13639">
        <ele>85</ele>
        <time>2017-04-25T15:57:34Z</time>
      </trkpt>
      <trkpt lat="49.32541" lon="1.13646">
        <ele>85</ele>
        <time>2017-04-25T15:57:34Z</time>
      </trkpt>
      <trkpt lat="49.32543" lon="1.13653">
        <ele>87</ele>
        <time>2017-04-25T15:57:50Z</time>
      </trkpt>
      <trkpt lat="49.32545" lon="1.13658">
        <ele>87</ele>
        <time>2017-04-25T15:57:50Z</time>
      </trkpt>
      <trkpt lat="49.32547" lon="1.13665">
        <ele>87</ele>
        <time>2017-04-25T15:57:50Z</time>
      </trkpt>
      <trkpt lat="49.32549" lon="1.1367">
        <ele>87</ele>
        <time>2017-04-25T15:57:50Z</time>
      </trkpt>
      <trkpt lat="49.32552" lon="1.13676">
        <ele>87</ele>
        <time>2017-04-25T15:58:06Z</time>
      </trkpt>
      <trkpt lat="49.32555" lon="1.13683">
        <ele>87</ele>
        <time>2017-04-25T15:58:06Z</time>
      </trkpt>
      <trkpt lat="49.32556" lon="1.1369">
        <ele>87</ele>
        <time>2017-04-25T15:58:06Z</time>
      </trkpt>
      <trkpt lat="49.32558" lon="1.13691">
        <ele>87</ele>
        <time>2017-04-25T15:58:06Z</time>
      </trkpt>
      <trkpt lat="49.32558" lon="1.13692">
        <ele>87</ele>
        <time>2017-04-25T15:58:30Z</time>
      </trkpt>
      <trkpt lat="49.32561" lon="1.13692">
        <ele>87</ele>
        <time>2017-04-25T15:58:30Z</time>
      </trkpt>
      <trkpt lat="49.32562" lon="1.13694">
        <ele>87</ele>
        <time>2017-04-25T15:58:30Z</time>
      </trkpt>
      <trkpt lat="49.32563" lon="1.13696">
        <ele>87</ele>
        <time>2017-04-25T15:58:30Z</time>
      </trkpt>
      <trkpt lat="49.32565" lon="1.13698">
        <ele>87</ele>
        <time>2017-04-25T15:58:31Z</time>
      </trkpt>
      <trkpt lat="49.32569" lon="1.13696">
        <ele>87</ele>
        <time>2017-04-25T15:59:26Z</time>
      </trkpt>
      <trkpt lat="49.32568" lon="1.13692">
        <ele>87</ele>
        <time>2017-04-25T15:59:26Z</time>
      </trkpt>
      <trkpt lat="49.3257" lon="1.1369">
        <ele>87</ele>
        <time>2017-04-25T15:59:27Z</time>
      </trkpt>
      <trkpt lat="49.32573" lon="1.13688">
        <ele>87</ele>
        <time>2017-04-25T15:59:27Z</time>
      </trkpt>
      <trkpt lat="49.32575" lon="1.13688">
        <ele>87</ele>
        <time>2017-04-25T15:59:27Z</time>
      </trkpt>
      <trkpt lat="49.3258" lon="1.13701">
        <ele>87</ele>
        <time>2017-04-25T16:00:26Z</time>
      </trkpt>
      <trkpt lat="49.32583" lon="1.13702">
        <ele>87</ele>
        <time>2017-04-25T16:00:26Z</time>
      </trkpt>
      <trkpt lat="49.32586" lon="1.13704">
        <ele>87</ele>
        <time>2017-04-25T16:00:26Z</time>
      </trkpt>
      <trkpt lat="49.32589" lon="1.13705">
        <ele>87</ele>
        <time>2017-04-25T16:00:26Z</time>
      </trkpt>
      <trkpt lat="49.32592" lon="1.13708">
        <ele>87</ele>
        <time>2017-04-25T16:00:27Z</time>
      </trkpt>
      <trkpt lat="49.32597" lon="1.1371">
        <ele>90</ele>
        <time>2017-04-25T16:00:42Z</time>
      </trkpt>
      <trkpt lat="49.32601" lon="1.13715">
        <ele>90</ele>
        <time>2017-04-25T16:00:42Z</time>
      </trkpt>
      <trkpt lat="49.32605" lon="1.1372">
        <ele>90</ele>
        <time>2017-04-25T16:00:42Z</time>
      </trkpt>
      <trkpt lat="49.32608" lon="1.13725">
        <ele>90</ele>
        <time>2017-04-25T16:00:42Z</time>
      </trkpt>
      <trkpt lat="49.32612" lon="1.13729">
        <ele>90</ele>
        <time>2017-04-25T16:00:58Z</time>
      </trkpt>
      <trkpt lat="49.32615" lon="1.13731">
        <ele>90</ele>
        <time>2017-04-25T16:00:58Z</time>
      </trkpt>
      <trkpt lat="49.32621" lon="1.13736">
        <ele>90</ele>
        <time>2017-04-25T16:00:58Z</time>
      </trkpt>
      <trkpt lat="49.32625" lon="1.1374">
        <ele>90</ele>
        <time>2017-04-25T16:00:58Z</time>
      </trkpt>
      <trkpt lat="49.32629" lon="1.13743">
        <ele>86</ele>
        <time>2017-04-25T16:01:14Z</time>
      </trkpt>
      <trkpt lat="49.32632" lon="1.13746">
        <ele>86</ele>
        <time>2017-04-25T16:01:14Z</time>
      </trkpt>
      <trkpt lat="49.32637" lon="1.13747">
        <ele>86</ele>
        <time>2017-04-25T16:01:14Z</time>
      </trkpt>
      <trkpt lat="49.32641" lon="1.13752">
        <ele>86</ele>
        <time>2017-04-25T16:01:14Z</time>
      </trkpt>
      <trkpt lat="49.32644" lon="1.13756">
        <ele>86</ele>
        <time>2017-04-25T16:01:30Z</time>
      </trkpt>
      <trkpt lat="49.32647" lon="1.13761">
        <ele>86</ele>
        <time>2017-04-25T16:01:30Z</time>
      </trkpt>
      <trkpt lat="49.3265" lon="1.13764">
        <ele>86</ele>
        <time>2017-04-25T16:01:30Z</time>
      </trkpt>
      <trkpt lat="49.32655" lon="1.13772">
        <ele>86</ele>
        <time>2017-04-25T16:01:30Z</time>
      </trkpt>
      <trkpt lat="49.3266" lon="1.13775">
        <ele>86</ele>
        <time>2017-04-25T16:01:46Z</time>
      </trkpt>
      <trkpt lat="49.32664" lon="1.13779">
        <ele>86</ele>
        <time>2017-04-25T16:01:46Z</time>
      </trkpt>
      <trkpt lat="49.32667" lon="1.13783">
        <ele>86</ele>
        <time>2017-04-25T16:01:46Z</time>
      </trkpt>
      <trkpt lat="49.3267" lon="1.13788">
        <ele>86</ele>
        <time>2017-04-25T16:01:46Z</time>
      </trkpt>
      <trkpt lat="49.32674" lon="1.13792">
        <ele>90</ele>
        <time>2017-04-25T16:02:02Z</time>
      </trkpt>
      <trkpt lat="49.32678" lon="1.13799">
        <ele>90</ele>
        <time>2017-04-25T16:02:02Z</time>
      </trkpt>
      <trkpt lat="49.32681" lon="1.13804">
        <ele>90</ele>
        <time>2017-04-25T16:02:02Z</time>
      </trkpt>
      <trkpt lat="49.32686" lon="1.1381">
        <ele>90</ele>
        <time>2017-04-25T16:02:02Z</time>
      </trkpt>
      <trkpt lat="49.3269" lon="1.13815">
        <ele>90</ele>
        <time>2017-04-25T16:02:18Z</time>
      </trkpt>
      <trkpt lat="49.32694" lon="1.1382">
        <ele>90</ele>
        <time>2017-04-25T16:02:18Z</time>
      </trkpt>
      <trkpt lat="49.32696" lon="1.13821">
        <ele>90</ele>
        <time>2017-04-25T16:02:18Z</time>
      </trkpt>
      <trkpt lat="49.32703" lon="1.13827">
        <ele>90</ele>
        <time>2017-04-25T16:02:18Z</time>
      </trkpt>
      <trkpt lat="49.32707" lon="1.13832">
        <ele>90</ele>
        <time>2017-04-25T16:02:38Z</time>
      </trkpt>
      <trkpt lat="49.3271" lon="1.13835">
        <ele>86</ele>
        <time>2017-04-25T16:02:38Z</time>
      </trkpt>
      <trkpt lat="49.32713" lon="1.13839">
        <ele>86</ele>
        <time>2017-04-25T16:02:38Z</time>
      </trkpt>
      <trkpt lat="49.32715" lon="1.13839">
        <ele>86</ele>
        <time>2017-04-25T16:02:38Z</time>
      </trkpt>
      <trkpt lat="49.3272" lon="1.13843">
        <ele>86</ele>
        <time>2017-04-25T16:02:38Z</time>
      </trkpt>
      <trkpt lat="49.32722" lon="1.13844">
        <ele>86</ele>
        <time>2017-04-25T16:02:54Z</time>
      </trkpt>
      <trkpt lat="49.32726" lon="1.13847">
        <ele>86</ele>
        <time>2017-04-25T16:02:54Z</time>
      </trkpt>
      <trkpt lat="49.32733" lon="1.13855">
        <ele>86</ele>
        <time>2017-04-25T16:02:54Z</time>
      </trkpt>
      <trkpt lat="49.32737" lon="1.13859">
        <ele>86</ele>
        <time>2017-04-25T16:02:54Z</time>
      </trkpt>
      <trkpt lat="49.32742" lon="1.1386">
        <ele>86</ele>
        <time>2017-04-25T16:03:10Z</time>
      </trkpt>
      <trkpt lat="49.32749" lon="1.13861">
        <ele>86</ele>
        <time>2017-04-25T16:03:10Z</time>
      </trkpt>
      <trkpt lat="49.32753" lon="1.13862">
        <ele>86</ele>
        <time>2017-04-25T16:03:10Z</time>
      </trkpt>
      <trkpt lat="49.32758" lon="1.13861">
        <ele>86</ele>
        <time>2017-04-25T16:03:10Z</time>
      </trkpt>
      <trkpt lat="49.32762" lon="1.13862">
        <ele>86</ele>
        <time>2017-04-25T16:03:26Z</time>
      </trkpt>
      <trkpt lat="49.32767" lon="1.13863">
        <ele>86</ele>
        <time>2017-04-25T16:03:26Z</time>
      </trkpt>
      <trkpt lat="49.32769" lon="1.13864">
        <ele>86</ele>
        <time>2017-04-25T16:03:26Z</time>
      </trkpt>
      <trkpt lat="49.32774" lon="1.13865">
        <ele>86</ele>
        <time>2017-04-25T16:03:26Z</time>
      </trkpt>
      <trkpt lat="49.32779" lon="1.13865">
        <ele>86</ele>
        <time>2017-04-25T16:03:42Z</time>
      </trkpt>
      <trkpt lat="49.32784" lon="1.13864">
        <ele>86</ele>
        <time>2017-04-25T16:03:42Z</time>
      </trkpt>
      <trkpt lat="49.3279" lon="1.13865">
        <ele>86</ele>
        <time>2017-04-25T16:03:42Z</time>
      </trkpt>
      <trkpt lat="49.32794" lon="1.13864">
        <ele>83</ele>
        <time>2017-04-25T16:03:42Z</time>
      </trkpt>
      <trkpt lat="49.32798" lon="1.13865">
        <ele>83</ele>
        <time>2017-04-25T16:03:58Z</time>
      </trkpt>
      <trkpt lat="49.32805" lon="1.13866">
        <ele>83</ele>
        <time>2017-04-25T16:03:58Z</time>
      </trkpt>
      <trkpt lat="49.3281" lon="1.13868">
        <ele>83</ele>
        <time>2017-04-25T16:03:58Z</time>
      </trkpt>
      <trkpt lat="49.32814" lon="1.1387">
        <ele>83</ele>
        <time>2017-04-25T16:03:58Z</time>
      </trkpt>
      <trkpt lat="49.32819" lon="1.13869">
        <ele>83</ele>
        <time>2017-04-25T16:04:14Z</time>
      </trkpt>
      <trkpt lat="49.32824" lon="1.13871">
        <ele>83</ele>
        <time>2017-04-25T16:04:14Z</time>
      </trkpt>
      <trkpt lat="49.32829" lon="1.13872">
        <ele>83</ele>
        <time>2017-04-25T16:04:14Z</time>
      </trkpt>
      <trkpt lat="49.32835" lon="1.13872">
        <ele>83</ele>
        <time>2017-04-25T16:04:14Z</time>
      </trkpt>
      <trkpt lat="49.3284" lon="1.13871">
        <ele>83</ele>
        <time>2017-04-25T16:04:30Z</time>
      </trkpt>
      <trkpt lat="49.32843" lon="1.13871">
        <ele>83</ele>
        <time>2017-04-25T16:04:30Z</time>
      </trkpt>
      <trkpt lat="49.32845" lon="1.13871">
        <ele>83</ele>
        <time>2017-04-25T16:04:30Z</time>
      </trkpt>
      <trkpt lat="49.32853" lon="1.13869">
        <ele>83</ele>
        <time>2017-04-25T16:04:30Z</time>
      </trkpt>
      <trkpt lat="49.32858" lon="1.13869">
        <ele>83</ele>
        <time>2017-04-25T16:04:46Z</time>
      </trkpt>
      <trkpt lat="49.32861" lon="1.1387">
        <ele>83</ele>
        <time>2017-04-25T16:04:46Z</time>
      </trkpt>
      <trkpt lat="49.32865" lon="1.13871">
        <ele>83</ele>
        <time>2017-04-25T16:04:46Z</time>
      </trkpt>
      <trkpt lat="49.32868" lon="1.1387">
        <ele>83</ele>
        <time>2017-04-25T16:04:47Z</time>
      </trkpt>
      <trkpt lat="49.32874" lon="1.13869">
        <ele>83</ele>
        <time>2017-04-25T16:05:02Z</time>
      </trkpt>
      <trkpt lat="49.3288" lon="1.13869">
        <ele>84</ele>
        <time>2017-04-25T16:05:02Z</time>
      </trkpt>
      <trkpt lat="49.32883" lon="1.13869">
        <ele>84</ele>
        <time>2017-04-25T16:05:02Z</time>
      </trkpt>
      <trkpt lat="49.32887" lon="1.13868">
        <ele>84</ele>
        <time>2017-04-25T16:05:02Z</time>
      </trkpt>
      <trkpt lat="49.32891" lon="1.13867">
        <ele>84</ele>
        <time>2017-04-25T16:05:18Z</time>
      </trkpt>
      <trkpt lat="49.32898" lon="1.13868">
        <ele>84</ele>
        <time>2017-04-25T16:05:18Z</time>
      </trkpt>
      <trkpt lat="49.32903" lon="1.13871">
        <ele>84</ele>
        <time>2017-04-25T16:05:18Z</time>
      </trkpt>
      <trkpt lat="49.32907" lon="1.13874">
        <ele>84</ele>
        <time>2017-04-25T16:05:18Z</time>
      </trkpt>
      <trkpt lat="49.32913" lon="1.13878">
        <ele>89</ele>
        <time>2017-04-25T16:05:34Z</time>
      </trkpt>
      <trkpt lat="49.32917" lon="1.13883">
        <ele>89</ele>
        <time>2017-04-25T16:05:34Z</time>
      </trkpt>
      <trkpt lat="49.32921" lon="1.13886">
        <ele>89</ele>
        <time>2017-04-25T16:05:35Z</time>
      </trkpt>
      <trkpt lat="49.32924" lon="1.13889">
        <ele>89</ele>
        <time>2017-04-25T16:05:35Z</time>
      </trkpt>
      <trkpt lat="49.32927" lon="1.13895">
        <ele>89</ele>
        <time>2017-04-25T16:05:50Z</time>
      </trkpt>
      <trkpt lat="49.32929" lon="1.139">
        <ele>89</ele>
        <time>2017-04-25T16:05:50Z</time>
      </trkpt>
      <trkpt lat="49.3293" lon="1.13908">
        <ele>89</ele>
        <time>2017-04-25T16:05:50Z</time>
      </trkpt>
      <trkpt lat="49.32932" lon="1.13918">
        <ele>89</ele>
        <time>2017-04-25T16:05:50Z</time>
      </trkpt>
      <trkpt lat="49.32935" lon="1.13922">
        <ele>89</ele>
        <time>2017-04-25T16:06:06Z</time>
      </trkpt>
      <trkpt lat="49.32938" lon="1.13927">
        <ele>89</ele>
        <time>2017-04-25T16:06:06Z</time>
      </trkpt>
      <trkpt lat="49.32939" lon="1.13934">
        <ele>89</ele>
        <time>2017-04-25T16:06:06Z</time>
      </trkpt>
      <trkpt lat="49.3294" lon="1.13939">
        <ele>89</ele>
        <time>2017-04-25T16:06:06Z</time>
      </trkpt>
      <trkpt lat="49.32943" lon="1.13944">
        <ele>89</ele>
        <time>2017-04-25T16:06:22Z</time>
      </trkpt>
      <trkpt lat="49.32947" lon="1.13952">
        <ele>89</ele>
        <time>2017-04-25T16:06:22Z</time>
      </trkpt>
      <trkpt lat="49.32949" lon="1.13955">
        <ele>89</ele>
        <time>2017-04-25T16:06:22Z</time>
      </trkpt>
      <trkpt lat="49.32951" lon="1.13959">
        <ele>91</ele>
        <time>2017-04-25T16:06:22Z</time>
      </trkpt>
      <trkpt lat="49.32953" lon="1.13966">
        <ele>91</ele>
        <time>2017-04-25T16:06:38Z</time>
      </trkpt>
      <trkpt lat="49.32955" lon="1.13971">
        <ele>91</ele>
        <time>2017-04-25T16:06:38Z</time>
      </trkpt>
      <trkpt lat="49.32958" lon="1.13979">
        <ele>91</ele>
        <time>2017-04-25T16:06:38Z</time>
      </trkpt>
      <trkpt lat="49.32959" lon="1.13985">
        <ele>85</ele>
        <time>2017-04-25T16:06:38Z</time>
      </trkpt>
      <trkpt lat="49.32962" lon="1.13994">
        <ele>85</ele>
        <time>2017-04-25T16:06:54Z</time>
      </trkpt>
      <trkpt lat="49.32963" lon="1.13999">
        <ele>85</ele>
        <time>2017-04-25T16:06:54Z</time>
      </trkpt>
      <trkpt lat="49.32967" lon="1.14003">
        <ele>85</ele>
        <time>2017-04-25T16:06:54Z</time>
      </trkpt>
      <trkpt lat="49.32971" lon="1.14012">
        <ele>85</ele>
        <time>2017-04-25T16:06:54Z</time>
      </trkpt>
      <trkpt lat="49.32974" lon="1.14017">
        <ele>85</ele>
        <time>2017-04-25T16:07:10Z</time>
      </trkpt>
      <trkpt lat="49.32975" lon="1.1402">
        <ele>85</ele>
        <time>2017-04-25T16:07:10Z</time>
      </trkpt>
      <trkpt lat="49.32977" lon="1.14025">
        <ele>85</ele>
        <time>2017-04-25T16:07:10Z</time>
      </trkpt>
      <trkpt lat="49.32979" lon="1.14031">
        <ele>85</ele>
        <time>2017-04-25T16:07:10Z</time>
      </trkpt>
      <trkpt lat="49.32981" lon="1.14038">
        <ele>85</ele>
        <time>2017-04-25T16:07:26Z</time>
      </trkpt>
      <trkpt lat="49.32983" lon="1.14047">
        <ele>85</ele>
        <time>2017-04-25T16:07:26Z</time>
      </trkpt>
      <trkpt lat="49.32984" lon="1.14055">
        <ele>85</ele>
        <time>2017-04-25T16:07:26Z</time>
      </trkpt>
      <trkpt lat="49.32986" lon="1.14062">
        <ele>85</ele>
        <time>2017-04-25T16:07:26Z</time>
      </trkpt>
      <trkpt lat="49.32987" lon="1.14071">
        <ele>85</ele>
        <time>2017-04-25T16:07:42Z</time>
      </trkpt>
      <trkpt lat="49.32988" lon="1.14078">
        <ele>85</ele>
        <time>2017-04-25T16:07:42Z</time>
      </trkpt>
      <trkpt lat="49.32988" lon="1.14083">
        <ele>85</ele>
        <time>2017-04-25T16:07:42Z</time>
      </trkpt>
      <trkpt lat="49.32989" lon="1.14092">
        <ele>85</ele>
        <time>2017-04-25T16:07:42Z</time>
      </trkpt>
      <trkpt lat="49.3299" lon="1.14098">
        <ele>85</ele>
        <time>2017-04-25T16:07:58Z</time>
      </trkpt>
      <trkpt lat="49.32992" lon="1.14102">
        <ele>85</ele>
        <time>2017-04-25T16:07:58Z</time>
      </trkpt>
      <trkpt lat="49.32995" lon="1.1411">
        <ele>85</ele>
        <time>2017-04-25T16:07:58Z</time>
      </trkpt>
      <trkpt lat="49.32996" lon="1.14118">
        <ele>85</ele>
        <time>2017-04-25T16:07:58Z</time>
      </trkpt>
      <trkpt lat="49.32996" lon="1.14123">
        <ele>85</ele>
        <time>2017-04-25T16:08:14Z</time>
      </trkpt>
      <trkpt lat="49.32997" lon="1.14131">
        <ele>83</ele>
        <time>2017-04-25T16:08:14Z</time>
      </trkpt>
      <trkpt lat="49.32998" lon="1.14138">
        <ele>83</ele>
        <time>2017-04-25T16:08:14Z</time>
      </trkpt>
      <trkpt lat="49.32999" lon="1.14147">
        <ele>83</ele>
        <time>2017-04-25T16:08:14Z</time>
      </trkpt>
      <trkpt lat="49.32999" lon="1.14156">
        <ele>83</ele>
        <time>2017-04-25T16:08:30Z</time>
      </trkpt>
      <trkpt lat="49.33" lon="1.14165">
        <ele>83</ele>
        <time>2017-04-25T16:08:30Z</time>
      </trkpt>
      <trkpt lat="49.33" lon="1.14172">
        <ele>83</ele>
        <time>2017-04-25T16:08:30Z</time>
      </trkpt>
      <trkpt lat="49.33001" lon="1.1418">
        <ele>83</ele>
        <time>2017-04-25T16:08:30Z</time>
      </trkpt>
      <trkpt lat="49.33" lon="1.14186">
        <ele>83</ele>
        <time>2017-04-25T16:08:46Z</time>
      </trkpt>
      <trkpt lat="49.32999" lon="1.14194">
        <ele>83</ele>
        <time>2017-04-25T16:08:46Z</time>
      </trkpt>
      <trkpt lat="49.32999" lon="1.14199">
        <ele>83</ele>
        <time>2017-04-25T16:08:46Z</time>
      </trkpt>
      <trkpt lat="49.32997" lon="1.14206">
        <ele>83</ele>
        <time>2017-04-25T16:08:46Z</time>
      </trkpt>
      <trkpt lat="49.32996" lon="1.14211">
        <ele>86</ele>
        <time>2017-04-25T16:09:02Z</time>
      </trkpt>
      <trkpt lat="49.32996" lon="1.14215">
        <ele>86</ele>
        <time>2017-04-25T16:09:02Z</time>
      </trkpt>
      <trkpt lat="49.32994" lon="1.14221">
        <ele>86</ele>
        <time>2017-04-25T16:09:02Z</time>
      </trkpt>
      <trkpt lat="49.32992" lon="1.14229">
        <ele>86</ele>
        <time>2017-04-25T16:09:02Z</time>
      </trkpt>
      <trkpt lat="49.32991" lon="1.14236">
        <ele>86</ele>
        <time>2017-04-25T16:09:18Z</time>
      </trkpt>
      <trkpt lat="49.32991" lon="1.14241">
        <ele>86</ele>
        <time>2017-04-25T16:09:18Z</time>
      </trkpt>
      <trkpt lat="49.32991" lon="1.14247">
        <ele>86</ele>
        <time>2017-04-25T16:09:18Z</time>
      </trkpt>
      <trkpt lat="49.3299" lon="1.14254">
        <ele>86</ele>
        <time>2017-04-25T16:09:18Z</time>
      </trkpt>
      <trkpt lat="49.3299" lon="1.14259">
        <ele>86</ele>
        <time>2017-04-25T16:09:34Z</time>
      </trkpt>
      <trkpt lat="49.32989" lon="1.14265">
        <ele>86</ele>
        <time>2017-04-25T16:09:34Z</time>
      </trkpt>
      <trkpt lat="49.32989" lon="1.14272">
        <ele>86</ele>
        <time>2017-04-25T16:09:34Z</time>
      </trkpt>
      <trkpt lat="49.32989" lon="1.14282">
        <ele>86</ele>
        <time>2017-04-25T16:09:34Z</time>
      </trkpt>
      <trkpt lat="49.32988" lon="1.14288">
        <ele>86</ele>
        <time>2017-04-25T16:09:50Z</time>
      </trkpt>
      <trkpt lat="49.32988" lon="1.14296">
        <ele>88</ele>
        <time>2017-04-25T16:09:50Z</time>
      </trkpt>
      <trkpt lat="49.32989" lon="1.14301">
        <ele>88</ele>
        <time>2017-04-25T16:09:50Z</time>
      </trkpt>
      <trkpt lat="49.32988" lon="1.14308">
        <ele>88</ele>
        <time>2017-04-25T16:09:50Z</time>
      </trkpt>
      <trkpt lat="49.32986" lon="1.14312">
        <ele>88</ele>
        <time>2017-04-25T16:10:06Z</time>
      </trkpt>
      <trkpt lat="49.32984" lon="1.14317">
        <ele>88</ele>
        <time>2017-04-25T16:10:06Z</time>
      </trkpt>
      <trkpt lat="49.32982" lon="1.14322">
        <ele>88</ele>
        <time>2017-04-25T16:10:06Z</time>
      </trkpt>
      <trkpt lat="49.32981" lon="1.14327">
        <ele>88</ele>
        <time>2017-04-25T16:10:06Z</time>
      </trkpt>
      <trkpt lat="49.32985" lon="1.14342">
        <ele>88</ele>
        <time>2017-04-25T16:11:42Z</time>
      </trkpt>
      <trkpt lat="49.32982" lon="1.14346">
        <ele>88</ele>
        <time>2017-04-25T16:11:42Z</time>
      </trkpt>
      <trkpt lat="49.3298" lon="1.14346">
        <ele>88</ele>
        <time>2017-04-25T16:11:42Z</time>
      </trkpt>
      <trkpt lat="49.32979" lon="1.14348">
        <ele>88</ele>
        <time>2017-04-25T16:11:42Z</time>
      </trkpt>
      <trkpt lat="49.3298" lon="1.14348">
        <ele>88</ele>
        <time>2017-04-25T16:11:43Z</time>
      </trkpt>
      <trkpt lat="49.32977" lon="1.14353">
        <ele>88</ele>
        <time>2017-04-25T16:12:02Z</time>
      </trkpt>
      <trkpt lat="49.32976" lon="1.14358">
        <ele>88</ele>
        <time>2017-04-25T16:12:02Z</time>
      </trkpt>
      <trkpt lat="49.32975" lon="1.14361">
        <ele>88</ele>
        <time>2017-04-25T16:12:02Z</time>
      </trkpt>
      <trkpt lat="49.32974" lon="1.14364">
        <ele>88</ele>
        <time>2017-04-25T16:12:02Z</time>
      </trkpt>
      <trkpt lat="49.32972" lon="1.14369">
        <ele>88</ele>
        <time>2017-04-25T16:12:03Z</time>
      </trkpt>
      <trkpt lat="49.32971" lon="1.14378">
        <ele>88</ele>
        <time>2017-04-25T16:12:18Z</time>
      </trkpt>
      <trkpt lat="49.32971" lon="1.14382">
        <ele>88</ele>
        <time>2017-04-25T16:12:18Z</time>
      </trkpt>
      <trkpt lat="49.32969" lon="1.14385">
        <ele>88</ele>
        <time>2017-04-25T16:12:18Z</time>
      </trkpt>
      <trkpt lat="49.32965" lon="1.14395">
        <ele>88</ele>
        <time>2017-04-25T16:12:19Z</time>
      </trkpt>
      <trkpt lat="49.32963" lon="1.14403">
        <ele>88</ele>
        <time>2017-04-25T16:12:34Z</time>
      </trkpt>
      <trkpt lat="49.32962" lon="1.14413">
        <ele>88</ele>
        <time>2017-04-25T16:12:34Z</time>
      </trkpt>
      <trkpt lat="49.32961" lon="1.14421">
        <ele>88</ele>
        <time>2017-04-25T16:12:34Z</time>
      </trkpt>
      <trkpt lat="49.32957" lon="1.14432">
        <ele>92</ele>
        <time>2017-04-25T16:12:34Z</time>
      </trkpt>
      <trkpt lat="49.32956" lon="1.14439">
        <ele>92</ele>
        <time>2017-04-25T16:12:50Z</time>
      </trkpt>
      <trkpt lat="49.32955" lon="1.14444">
        <ele>92</ele>
        <time>2017-04-25T16:12:50Z</time>
      </trkpt>
      <trkpt lat="49.32954" lon="1.14451">
        <ele>92</ele>
        <time>2017-04-25T16:12:50Z</time>
      </trkpt>
      <trkpt lat="49.32953" lon="1.14459">
        <ele>92</ele>
        <time>2017-04-25T16:12:50Z</time>
      </trkpt>
      <trkpt lat="49.3295" lon="1.14466">
        <ele>92</ele>
        <time>2017-04-25T16:13:06Z</time>
      </trkpt>
      <trkpt lat="49.32948" lon="1.14471">
        <ele>92</ele>
        <time>2017-04-25T16:13:06Z</time>
      </trkpt>
      <trkpt lat="49.32948" lon="1.14477">
        <ele>92</ele>
        <time>2017-04-25T16:13:06Z</time>
      </trkpt>
      <trkpt lat="49.32947" lon="1.14485">
        <ele>92</ele>
        <time>2017-04-25T16:13:06Z</time>
      </trkpt>
      <trkpt lat="49.32944" lon="1.14496">
        <ele>92</ele>
        <time>2017-04-25T16:13:22Z</time>
      </trkpt>
      <trkpt lat="49.32943" lon="1.14504">
        <ele>92</ele>
        <time>2017-04-25T16:13:23Z</time>
      </trkpt>
      <trkpt lat="49.32941" lon="1.14511">
        <ele>92</ele>
        <time>2017-04-25T16:13:23Z</time>
      </trkpt>
      <trkpt lat="49.32938" lon="1.1452">
        <ele>92</ele>
        <time>2017-04-25T16:13:23Z</time>
      </trkpt>
      <trkpt lat="49.32936" lon="1.14524">
        <ele>92</ele>
        <time>2017-04-25T16:13:38Z</time>
      </trkpt>
      <trkpt lat="49.32932" lon="1.1453">
        <ele>92</ele>
        <time>2017-04-25T16:13:38Z</time>
      </trkpt>
      <trkpt lat="49.32929" lon="1.14535">
        <ele>92</ele>
        <time>2017-04-25T16:13:38Z</time>
      </trkpt>
      <trkpt lat="49.32928" lon="1.14542">
        <ele>84</ele>
        <time>2017-04-25T16:13:38Z</time>
      </trkpt>
      <trkpt lat="49.32927" lon="1.14547">
        <ele>84</ele>
        <time>2017-04-25T16:13:54Z</time>
      </trkpt>
      <trkpt lat="49.32925" lon="1.14551">
        <ele>84</ele>
        <time>2017-04-25T16:13:54Z</time>
      </trkpt>
      <trkpt lat="49.32924" lon="1.14556">
        <ele>84</ele>
        <time>2017-04-25T16:13:54Z</time>
      </trkpt>
      <trkpt lat="49.32923" lon="1.14563">
        <ele>84</ele>
        <time>2017-04-25T16:13:54Z</time>
      </trkpt>
      <trkpt lat="49.32922" lon="1.14569">
        <ele>84</ele>
        <time>2017-04-25T16:14:10Z</time>
      </trkpt>
      <trkpt lat="49.32921" lon="1.14575">
        <ele>84</ele>
        <time>2017-04-25T16:14:10Z</time>
      </trkpt>
      <trkpt lat="49.32919" lon="1.1458">
        <ele>84</ele>
        <time>2017-04-25T16:14:10Z</time>
      </trkpt>
      <trkpt lat="49.32916" lon="1.14587">
        <ele>84</ele>
        <time>2017-04-25T16:14:11Z</time>
      </trkpt>
      <trkpt lat="49.32913" lon="1.14596">
        <ele>84</ele>
        <time>2017-04-25T16:14:26Z</time>
      </trkpt>
      <trkpt lat="49.32909" lon="1.14603">
        <ele>84</ele>
        <time>2017-04-25T16:14:26Z</time>
      </trkpt>
      <trkpt lat="49.32905" lon="1.1461">
        <ele>84</ele>
        <time>2017-04-25T16:14:26Z</time>
      </trkpt>
      <trkpt lat="49.32903" lon="1.14613">
        <ele>84</ele>
        <time>2017-04-25T16:14:26Z</time>
      </trkpt>
      <trkpt lat="49.32904" lon="1.14612">
        <ele>84</ele>
        <time>2017-04-25T16:14:58Z</time>
      </trkpt>
      <trkpt lat="49.32907" lon="1.1461">
        <ele>84</ele>
        <time>2017-04-25T16:14:58Z</time>
      </trkpt>
      <trkpt lat="49.32908" lon="1.1461">
        <ele>84</ele>
        <time>2017-04-25T16:14:58Z</time>
      </trkpt>
      <trkpt lat="49.32908" lon="1.14609">
        <ele>84</ele>
        <time>2017-04-25T16:14:58Z</time>
      </trkpt>
      <trkpt lat="49.3291" lon="1.14608">
        <ele>84</ele>
        <time>2017-04-25T16:14:58Z</time>
      </trkpt>
      <trkpt lat="49.32915" lon="1.14604">
        <ele>84</ele>
        <time>2017-04-25T16:16:30Z</time>
      </trkpt>
      <trkpt lat="49.32918" lon="1.14604">
        <ele>84</ele>
        <time>2017-04-25T16:16:30Z</time>
      </trkpt>
      <trkpt lat="49.32921" lon="1.14601">
        <ele>84</ele>
        <time>2017-04-25T16:16:30Z</time>
      </trkpt>
      <trkpt lat="49.32923" lon="1.14602">
        <ele>84</ele>
        <time>2017-04-25T16:16:30Z</time>
      </trkpt>
      <trkpt lat="49.32925" lon="1.14602">
        <ele>84</ele>
        <time>2017-04-25T16:16:31Z</time>
      </trkpt>
      <trkpt lat="49.3292" lon="1.14601">
        <ele>84</ele>
        <time>2017-04-25T16:27:58Z</time>
      </trkpt>
      <trkpt lat="49.3292" lon="1.14601">
        <ele>84</ele>
        <time>2017-04-25T16:27:58Z</time>
      </trkpt>
      <trkpt lat="49.32915" lon="1.14606">
        <ele>84</ele>
        <time>2017-04-25T16:27:58Z</time>
      </trkpt>
      <trkpt lat="49.32908" lon="1.14613">
        <ele>84</ele>
        <time>2017-04-25T16:27:58Z</time>
      </trkpt>
      <trkpt lat="49.32905" lon="1.1462">
        <ele>84</ele>
        <time>2017-04-25T16:27:59Z</time>
      </trkpt>
      <trkpt lat="49.32902" lon="1.14625">
        <ele>84</ele>
        <time>2017-04-25T16:28:14Z</time>
      </trkpt>
      <trkpt lat="49.32899" lon="1.14632">
        <ele>74</ele>
        <time>2017-04-25T16:28:14Z</time>
      </trkpt>
      <trkpt lat="49.32896" lon="1.14639">
        <ele>74</ele>
        <time>2017-04-25T16:28:14Z</time>
      </trkpt>
      <trkpt lat="49.32893" lon="1.14644">
        <ele>74</ele>
        <time>2017-04-25T16:28:14Z</time>
      </trkpt>
      <trkpt lat="49.32892" lon="1.14648">
        <ele>74</ele>
        <time>2017-04-25T16:28:30Z</time>
      </trkpt>
      <trkpt lat="49.32891" lon="1.14653">
        <ele>74</ele>
        <time>2017-04-25T16:28:30Z</time>
      </trkpt>
      <trkpt lat="49.32888" lon="1.1466">
        <ele>74</ele>
        <time>2017-04-25T16:28:30Z</time>
      </trkpt>
      <trkpt lat="49.32884" lon="1.14663">
        <ele>74</ele>
        <time>2017-04-25T16:28:31Z</time>
      </trkpt>
      <trkpt lat="49.32882" lon="1.14665">
        <ele>74</ele>
        <time>2017-04-25T16:28:46Z</time>
      </trkpt>
      <trkpt lat="49.3288" lon="1.14672">
        <ele>74</ele>
        <time>2017-04-25T16:28:46Z</time>
      </trkpt>
      <trkpt lat="49.32879" lon="1.14679">
        <ele>74</ele>
        <time>2017-04-25T16:28:46Z</time>
      </trkpt>
      <trkpt lat="49.32879" lon="1.1469">
        <ele>74</ele>
        <time>2017-04-25T16:28:46Z</time>
      </trkpt>
      <trkpt lat="49.32877" lon="1.14696">
        <ele>74</ele>
        <time>2017-04-25T16:29:02Z</time>
      </trkpt>
      <trkpt lat="49.32879" lon="1.14707">
        <ele>74</ele>
        <time>2017-04-25T16:29:02Z</time>
      </trkpt>
      <trkpt lat="49.32878" lon="1.14713">
        <ele>72</ele>
        <time>2017-04-25T16:29:02Z</time>
      </trkpt>
      <trkpt lat="49.32877" lon="1.1472">
        <ele>72</ele>
        <time>2017-04-25T16:29:02Z</time>
      </trkpt>
      <trkpt lat="49.32876" lon="1.14727">
        <ele>72</ele>
        <time>2017-04-25T16:29:18Z</time>
      </trkpt>
      <trkpt lat="49.32874" lon="1.14736">
        <ele>70</ele>
        <time>2017-04-25T16:29:18Z</time>
      </trkpt>
      <trkpt lat="49.32874" lon="1.14745">
        <ele>70</ele>
        <time>2017-04-25T16:29:18Z</time>
      </trkpt>
      <trkpt lat="49.32874" lon="1.1475">
        <ele>70</ele>
        <time>2017-04-25T16:29:18Z</time>
      </trkpt>
      <trkpt lat="49.32875" lon="1.1476">
        <ele>72</ele>
        <time>2017-04-25T16:29:34Z</time>
      </trkpt>
      <trkpt lat="49.32873" lon="1.14769">
        <ele>70</ele>
        <time>2017-04-25T16:29:34Z</time>
      </trkpt>
      <trkpt lat="49.32872" lon="1.14776">
        <ele>70</ele>
        <time>2017-04-25T16:29:34Z</time>
      </trkpt>
      <trkpt lat="49.32871" lon="1.14787">
        <ele>70</ele>
        <time>2017-04-25T16:29:34Z</time>
      </trkpt>
      <trkpt lat="49.32869" lon="1.14793">
        <ele>70</ele>
        <time>2017-04-25T16:29:50Z</time>
      </trkpt>
      <trkpt lat="49.3287" lon="1.14802">
        <ele>70</ele>
        <time>2017-04-25T16:29:50Z</time>
      </trkpt>
      <trkpt lat="49.3287" lon="1.14811">
        <ele>70</ele>
        <time>2017-04-25T16:29:50Z</time>
      </trkpt>
      <trkpt lat="49.32871" lon="1.14819">
        <ele>70</ele>
        <time>2017-04-25T16:29:51Z</time>
      </trkpt>
      <trkpt lat="49.32871" lon="1.14831">
        <ele>70</ele>
        <time>2017-04-25T16:30:06Z</time>
      </trkpt>
      <trkpt lat="49.3287" lon="1.14839">
        <ele>70</ele>
        <time>2017-04-25T16:30:06Z</time>
      </trkpt>
      <trkpt lat="49.3287" lon="1.14848">
        <ele>70</ele>
        <time>2017-04-25T16:30:06Z</time>
      </trkpt>
      <trkpt lat="49.32867" lon="1.14857">
        <ele>70</ele>
        <time>2017-04-25T16:30:06Z</time>
      </trkpt>
      <trkpt lat="49.32865" lon="1.14868">
        <ele>70</ele>
        <time>2017-04-25T16:30:22Z</time>
      </trkpt>
      <trkpt lat="49.32863" lon="1.14873">
        <ele>70</ele>
        <time>2017-04-25T16:30:22Z</time>
      </trkpt>
      <trkpt lat="49.3286" lon="1.14881">
        <ele>67</ele>
        <time>2017-04-25T16:30:22Z</time>
      </trkpt>
      <trkpt lat="49.32858" lon="1.14887">
        <ele>67</ele>
        <time>2017-04-25T16:30:23Z</time>
      </trkpt>
      <trkpt lat="49.32856" lon="1.14895">
        <ele>67</ele>
        <time>2017-04-25T16:30:38Z</time>
      </trkpt>
      <trkpt lat="49.32855" lon="1.14902">
        <ele>67</ele>
        <time>2017-04-25T16:30:38Z</time>
      </trkpt>
      <trkpt lat="49.32851" lon="1.1491">
        <ele>67</ele>
        <time>2017-04-25T16:30:38Z</time>
      </trkpt>
      <trkpt lat="49.32849" lon="1.14916">
        <ele>67</ele>
        <time>2017-04-25T16:30:38Z</time>
      </trkpt>
      <trkpt lat="49.32848" lon="1.14922">
        <ele>67</ele>
        <time>2017-04-25T16:30:54Z</time>
      </trkpt>
      <trkpt lat="49.32847" lon="1.14931">
        <ele>67</ele>
        <time>2017-04-25T16:30:54Z</time>
      </trkpt>
      <trkpt lat="49.32846" lon="1.14935">
        <ele>67</ele>
        <time>2017-04-25T16:30:54Z</time>
      </trkpt>
      <trkpt lat="49.32842" lon="1.14943">
        <ele>67</ele>
        <time>2017-04-25T16:30:54Z</time>
      </trkpt>
      <trkpt lat="49.32839" lon="1.1495">
        <ele>67</ele>
        <time>2017-04-25T16:31:10Z</time>
      </trkpt>
      <trkpt lat="49.32835" lon="1.14958">
        <ele>67</ele>
        <time>2017-04-25T16:31:10Z</time>
      </trkpt>
      <trkpt lat="49.32832" lon="1.14967">
        <ele>57</ele>
        <time>2017-04-25T16:31:10Z</time>
      </trkpt>
      <trkpt lat="49.3283" lon="1.14972">
        <ele>57</ele>
        <time>2017-04-25T16:31:10Z</time>
      </trkpt>
      <trkpt lat="49.32828" lon="1.1498">
        <ele>57</ele>
        <time>2017-04-25T16:31:26Z</time>
      </trkpt>
      <trkpt lat="49.32827" lon="1.14987">
        <ele>57</ele>
        <time>2017-04-25T16:31:26Z</time>
      </trkpt>
      <trkpt lat="49.32826" lon="1.14994">
        <ele>57</ele>
        <time>2017-04-25T16:31:26Z</time>
      </trkpt>
      <trkpt lat="49.32824" lon="1.15">
        <ele>57</ele>
        <time>2017-04-25T16:31:26Z</time>
      </trkpt>
      <trkpt lat="49.32822" lon="1.15007">
        <ele>57</ele>
        <time>2017-04-25T16:31:42Z</time>
      </trkpt>
      <trkpt lat="49.32821" lon="1.15015">
        <ele>57</ele>
        <time>2017-04-25T16:31:42Z</time>
      </trkpt>
      <trkpt lat="49.3282" lon="1.1502">
        <ele>57</ele>
        <time>2017-04-25T16:31:42Z</time>
      </trkpt>
      <trkpt lat="49.32817" lon="1.15027">
        <ele>57</ele>
        <time>2017-04-25T16:31:42Z</time>
      </trkpt>
      <trkpt lat="49.32814" lon="1.15037">
        <ele>57</ele>
        <time>2017-04-25T16:31:58Z</time>
      </trkpt>
      <trkpt lat="49.32812" lon="1.15043">
        <ele>54</ele>
        <time>2017-04-25T16:31:58Z</time>
      </trkpt>
      <trkpt lat="49.3281" lon="1.1505">
        <ele>54</ele>
        <time>2017-04-25T16:31:58Z</time>
      </trkpt>
      <trkpt lat="49.32809" lon="1.15053">
        <ele>54</ele>
        <time>2017-04-25T16:31:58Z</time>
      </trkpt>
      <trkpt lat="49.32806" lon="1.15059">
        <ele>54</ele>
        <time>2017-04-25T16:32:14Z</time>
      </trkpt>
      <trkpt lat="49.32804" lon="1.15066">
        <ele>54</ele>
        <time>2017-04-25T16:32:14Z</time>
      </trkpt>
      <trkpt lat="49.328" lon="1.15072">
        <ele>54</ele>
        <time>2017-04-25T16:32:14Z</time>
      </trkpt>
      <trkpt lat="49.32798" lon="1.15077">
        <ele>54</ele>
        <time>2017-04-25T16:32:14Z</time>
      </trkpt>
      <trkpt lat="49.32796" lon="1.15081">
        <ele>54</ele>
        <time>2017-04-25T16:32:30Z</time>
      </trkpt>
      <trkpt lat="49.32793" lon="1.15087">
        <ele>54</ele>
        <time>2017-04-25T16:32:30Z</time>
      </trkpt>
      <trkpt lat="49.32791" lon="1.15094">
        <ele>53</ele>
        <time>2017-04-25T16:32:30Z</time>
      </trkpt>
      <trkpt lat="49.32789" lon="1.15103">
        <ele>53</ele>
        <time>2017-04-25T16:32:30Z</time>
      </trkpt>
      <trkpt lat="49.32786" lon="1.15112">
        <ele>53</ele>
        <time>2017-04-25T16:32:46Z</time>
      </trkpt>
      <trkpt lat="49.32784" lon="1.15116">
        <ele>53</ele>
        <time>2017-04-25T16:32:46Z</time>
      </trkpt>
      <trkpt lat="49.32782" lon="1.15121">
        <ele>53</ele>
        <time>2017-04-25T16:32:46Z</time>
      </trkpt>
      <trkpt lat="49.3278" lon="1.15128">
        <ele>44</ele>
        <time>2017-04-25T16:32:46Z</time>
      </trkpt>
      <trkpt lat="49.32776" lon="1.15138">
        <ele>44</ele>
        <time>2017-04-25T16:33:02Z</time>
      </trkpt>
      <trkpt lat="49.32775" lon="1.15144">
        <ele>44</ele>
        <time>2017-04-25T16:33:02Z</time>
      </trkpt>
      <trkpt lat="49.32773" lon="1.15151">
        <ele>44</ele>
        <time>2017-04-25T16:33:02Z</time>
      </trkpt>
      <trkpt lat="49.32771" lon="1.15157">
        <ele>44</ele>
        <time>2017-04-25T16:33:02Z</time>
      </trkpt>
      <trkpt lat="49.32769" lon="1.15163">
        <ele>44</ele>
        <time>2017-04-25T16:33:18Z</time>
      </trkpt>
      <trkpt lat="49.32767" lon="1.15168">
        <ele>44</ele>
        <time>2017-04-25T16:33:18Z</time>
      </trkpt>
      <trkpt lat="49.32764" lon="1.15176">
        <ele>44</ele>
        <time>2017-04-25T16:33:18Z</time>
      </trkpt>
      <trkpt lat="49.32762" lon="1.15185">
        <ele>44</ele>
        <time>2017-04-25T16:33:18Z</time>
      </trkpt>
      <trkpt lat="49.32759" lon="1.15191">
        <ele>44</ele>
        <time>2017-04-25T16:33:34Z</time>
      </trkpt>
      <trkpt lat="49.32759" lon="1.15195">
        <ele>44</ele>
        <time>2017-04-25T16:33:34Z</time>
      </trkpt>
      <trkpt lat="49.32755" lon="1.15195">
        <ele>44</ele>
        <time>2017-04-25T16:33:34Z</time>
      </trkpt>
      <trkpt lat="49.32747" lon="1.15194">
        <ele>44</ele>
        <time>2017-04-25T16:33:34Z</time>
      </trkpt>
      <trkpt lat="49.32745" lon="1.15191">
        <ele>44</ele>
        <time>2017-04-25T16:33:50Z</time>
      </trkpt>
      <trkpt lat="49.32742" lon="1.15188">
        <ele>44</ele>
        <time>2017-04-25T16:33:50Z</time>
      </trkpt>
      <trkpt lat="49.32738" lon="1.15185">
        <ele>44</ele>
        <time>2017-04-25T16:33:50Z</time>
      </trkpt>
      <trkpt lat="49.32734" lon="1.15182">
        <ele>44</ele>
        <time>2017-04-25T16:33:51Z</time>
      </trkpt>
      <trkpt lat="49.3273" lon="1.1518">
        <ele>44</ele>
        <time>2017-04-25T16:34:06Z</time>
      </trkpt>
      <trkpt lat="49.32727" lon="1.1518">
        <ele>44</ele>
        <time>2017-04-25T16:34:06Z</time>
      </trkpt>
      <trkpt lat="49.32722" lon="1.1518">
        <ele>44</ele>
        <time>2017-04-25T16:34:06Z</time>
      </trkpt>
      <trkpt lat="49.3272" lon="1.15178">
        <ele>44</ele>
        <time>2017-04-25T16:34:06Z</time>
      </trkpt>
      <trkpt lat="49.32717" lon="1.15177">
        <ele>44</ele>
        <time>2017-04-25T16:34:26Z</time>
      </trkpt>
      <trkpt lat="49.32717" lon="1.15175">
        <ele>44</ele>
        <time>2017-04-25T16:34:26Z</time>
      </trkpt>
      <trkpt lat="49.32719" lon="1.15172">
        <ele>44</ele>
        <time>2017-04-25T16:34:26Z</time>
      </trkpt>
      <trkpt lat="49.32713" lon="1.15178">
        <ele>44</ele>
        <time>2017-04-25T16:34:26Z</time>
      </trkpt>
      <trkpt lat="49.32708" lon="1.15184">
        <ele>36</ele>
        <time>2017-04-25T16:34:26Z</time>
      </trkpt>
      <trkpt lat="49.32708" lon="1.15186">
        <ele>36</ele>
        <time>2017-04-25T16:34:54Z</time>
      </trkpt>
      <trkpt lat="49.32708" lon="1.15189">
        <ele>36</ele>
        <time>2017-04-25T16:34:54Z</time>
      </trkpt>
      <trkpt lat="49.32708" lon="1.15189">
        <ele>44</ele>
        <time>2017-04-25T16:34:54Z</time>
      </trkpt>
      <trkpt lat="49.32712" lon="1.15192">
        <ele>44</ele>
        <time>2017-04-25T16:34:54Z</time>
      </trkpt>
      <trkpt lat="49.32716" lon="1.15195">
        <ele>44</ele>
        <time>2017-04-25T16:34:54Z</time>
      </trkpt>
      <trkpt lat="49.32725" lon="1.15206">
        <ele>44</ele>
        <time>2017-04-25T16:35:30Z</time>
      </trkpt>
      <trkpt lat="49.32725" lon="1.1521">
        <ele>35</ele>
        <time>2017-04-25T16:35:30Z</time>
      </trkpt>
      <trkpt lat="49.32723" lon="1.15213">
        <ele>35</ele>
        <time>2017-04-25T16:35:30Z</time>
      </trkpt>
      <trkpt lat="49.32722" lon="1.15215">
        <ele>35</ele>
        <time>2017-04-25T16:35:30Z</time>
      </trkpt>
      <trkpt lat="49.32721" lon="1.15218">
        <ele>35</ele>
        <time>2017-04-25T16:35:31Z</time>
      </trkpt>
      <trkpt lat="49.32723" lon="1.15216">
        <ele>35</ele>
        <time>2017-04-25T16:38:30Z</time>
      </trkpt>
      <trkpt lat="49.32721" lon="1.15215">
        <ele>35</ele>
        <time>2017-04-25T16:38:30Z</time>
      </trkpt>
      <trkpt lat="49.3272" lon="1.15214">
        <ele>35</ele>
        <time>2017-04-25T16:38:30Z</time>
      </trkpt>
      <trkpt lat="49.32716" lon="1.15212">
        <ele>35</ele>
        <time>2017-04-25T16:38:31Z</time>
      </trkpt>
      <trkpt lat="49.32712" lon="1.15207">
        <ele>44</ele>
        <time>2017-04-25T16:38:31Z</time>
      </trkpt>
      <trkpt lat="49.32708" lon="1.15204">
        <ele>36</ele>
        <time>2017-04-25T16:38:46Z</time>
      </trkpt>
      <trkpt lat="49.32704" lon="1.15199">
        <ele>36</ele>
        <time>2017-04-25T16:38:46Z</time>
      </trkpt>
      <trkpt lat="49.32698" lon="1.15197">
        <ele>36</ele>
        <time>2017-04-25T16:38:46Z</time>
      </trkpt>
      <trkpt lat="49.32693" lon="1.15194">
        <ele>36</ele>
        <time>2017-04-25T16:38:46Z</time>
      </trkpt>
      <trkpt lat="49.32686" lon="1.15193">
        <ele>36</ele>
        <time>2017-04-25T16:39:02Z</time>
      </trkpt>
      <trkpt lat="49.32682" lon="1.15191">
        <ele>36</ele>
        <time>2017-04-25T16:39:02Z</time>
      </trkpt>
      <trkpt lat="49.32676" lon="1.15188">
        <ele>36</ele>
        <time>2017-04-25T16:39:03Z</time>
      </trkpt>
      <trkpt lat="49.32672" lon="1.15187">
        <ele>36</ele>
        <time>2017-04-25T16:39:03Z</time>
      </trkpt>
      <trkpt lat="49.32668" lon="1.15186">
        <ele>36</ele>
        <time>2017-04-25T16:39:18Z</time>
      </trkpt>
      <trkpt lat="49.32663" lon="1.15184">
        <ele>36</ele>
        <time>2017-04-25T16:39:18Z</time>
      </trkpt>
      <trkpt lat="49.32657" lon="1.15182">
        <ele>36</ele>
        <time>2017-04-25T16:39:18Z</time>
      </trkpt>
      <trkpt lat="49.32653" lon="1.15183">
        <ele>36</ele>
        <time>2017-04-25T16:39:18Z</time>
      </trkpt>
      <trkpt lat="49.32649" lon="1.15182">
        <ele>36</ele>
        <time>2017-04-25T16:39:34Z</time>
      </trkpt>
      <trkpt lat="49.32644" lon="1.1518">
        <ele>36</ele>
        <time>2017-04-25T16:39:34Z</time>
      </trkpt>
      <trkpt lat="49.32639" lon="1.15179">
        <ele>36</ele>
        <time>2017-04-25T16:39:34Z</time>
      </trkpt>
      <trkpt lat="49.32634" lon="1.15175">
        <ele>36</ele>
        <time>2017-04-25T16:39:34Z</time>
      </trkpt>
      <trkpt lat="49.32629" lon="1.15172">
        <ele>36</ele>
        <time>2017-04-25T16:39:50Z</time>
      </trkpt>
      <trkpt lat="49.32624" lon="1.1517">
        <ele>29</ele>
        <time>2017-04-25T16:39:50Z</time>
      </trkpt>
      <trkpt lat="49.32619" lon="1.15165">
        <ele>29</ele>
        <time>2017-04-25T16:39:50Z</time>
      </trkpt>
      <trkpt lat="49.32616" lon="1.15161">
        <ele>29</ele>
        <time>2017-04-25T16:39:50Z</time>
      </trkpt>
      <trkpt lat="49.32611" lon="1.15159">
        <ele>29</ele>
        <time>2017-04-25T16:40:06Z</time>
      </trkpt>
      <trkpt lat="49.32606" lon="1.15156">
        <ele>29</ele>
        <time>2017-04-25T16:40:06Z</time>
      </trkpt>
      <trkpt lat="49.326" lon="1.15153">
        <ele>29</ele>
        <time>2017-04-25T16:40:06Z</time>
      </trkpt>
      <trkpt lat="49.32595" lon="1.1515">
        <ele>29</ele>
        <time>2017-04-25T16:40:06Z</time>
      </trkpt>
      <trkpt lat="49.32591" lon="1.15147">
        <ele>29</ele>
        <time>2017-04-25T16:40:22Z</time>
      </trkpt>
      <trkpt lat="49.32587" lon="1.15143">
        <ele>29</ele>
        <time>2017-04-25T16:40:22Z</time>
      </trkpt>
      <trkpt lat="49.32583" lon="1.1514">
        <ele>29</ele>
        <time>2017-04-25T16:40:22Z</time>
      </trkpt>
      <trkpt lat="49.32576" lon="1.15136">
        <ele>29</ele>
        <time>2017-04-25T16:40:23Z</time>
      </trkpt>
      <trkpt lat="49.32571" lon="1.15134">
        <ele>29</ele>
        <time>2017-04-25T16:40:38Z</time>
      </trkpt>
      <trkpt lat="49.32567" lon="1.1513">
        <ele>29</ele>
        <time>2017-04-25T16:40:38Z</time>
      </trkpt>
      <trkpt lat="49.32563" lon="1.15127">
        <ele>29</ele>
        <time>2017-04-25T16:40:39Z</time>
      </trkpt>
      <trkpt lat="49.32558" lon="1.15124">
        <ele>37</ele>
        <time>2017-04-25T16:40:39Z</time>
      </trkpt>
      <trkpt lat="49.32553" lon="1.15122">
        <ele>37</ele>
        <time>2017-04-25T16:40:54Z</time>
      </trkpt>
      <trkpt lat="49.32548" lon="1.1512">
        <ele>37</ele>
        <time>2017-04-25T16:40:54Z</time>
      </trkpt>
      <trkpt lat="49.32544" lon="1.15118">
        <ele>37</ele>
        <time>2017-04-25T16:40:54Z</time>
      </trkpt>
      <trkpt lat="49.3254" lon="1.15115">
        <ele>25</ele>
        <time>2017-04-25T16:40:54Z</time>
      </trkpt>
      <trkpt lat="49.32535" lon="1.15112">
        <ele>25</ele>
        <time>2017-04-25T16:41:10Z</time>
      </trkpt>
      <trkpt lat="49.3253" lon="1.1511">
        <ele>25</ele>
        <time>2017-04-25T16:41:10Z</time>
      </trkpt>
      <trkpt lat="49.32525" lon="1.15107">
        <ele>25</ele>
        <time>2017-04-25T16:41:10Z</time>
      </trkpt>
      <trkpt lat="49.3252" lon="1.15106">
        <ele>25</ele>
        <time>2017-04-25T16:41:10Z</time>
      </trkpt>
      <trkpt lat="49.32516" lon="1.15103">
        <ele>25</ele>
        <time>2017-04-25T16:41:26Z</time>
      </trkpt>
      <trkpt lat="49.32511" lon="1.15101">
        <ele>25</ele>
        <time>2017-04-25T16:41:26Z</time>
      </trkpt>
      <trkpt lat="49.32507" lon="1.15099">
        <ele>25</ele>
        <time>2017-04-25T16:41:26Z</time>
      </trkpt>
      <trkpt lat="49.32502" lon="1.15097">
        <ele>25</ele>
        <time>2017-04-25T16:41:26Z</time>
      </trkpt>
      <trkpt lat="49.32497" lon="1.15094">
        <ele>25</ele>
        <time>2017-04-25T16:41:42Z</time>
      </trkpt>
      <trkpt lat="49.32493" lon="1.15091">
        <ele>25</ele>
        <time>2017-04-25T16:41:42Z</time>
      </trkpt>
      <trkpt lat="49.32487" lon="1.15089">
        <ele>25</ele>
        <time>2017-04-25T16:41:42Z</time>
      </trkpt>
      <trkpt lat="49.32483" lon="1.15085">
        <ele>25</ele>
        <time>2017-04-25T16:41:42Z</time>
      </trkpt>
      <trkpt lat="49.32478" lon="1.15082">
        <ele>25</ele>
        <time>2017-04-25T16:41:58Z</time>
      </trkpt>
      <trkpt lat="49.32474" lon="1.15079">
        <ele>25</ele>
        <time>2017-04-25T16:41:58Z</time>
      </trkpt>
      <trkpt lat="49.32468" lon="1.15075">
        <ele>25</ele>
        <time>2017-04-25T16:41:58Z</time>
      </trkpt>
      <trkpt lat="49.32463" lon="1.15071">
        <ele>25</ele>
        <time>2017-04-25T16:41:58Z</time>
      </trkpt>
      <trkpt lat="49.32459" lon="1.15068">
        <ele>25</ele>
        <time>2017-04-25T16:42:14Z</time>
      </trkpt>
      <trkpt lat="49.32454" lon="1.15065">
        <ele>22</ele>
        <time>2017-04-25T16:42:14Z</time>
      </trkpt>
      <trkpt lat="49.3245" lon="1.15062">
        <ele>22</ele>
        <time>2017-04-25T16:42:14Z</time>
      </trkpt>
      <trkpt lat="49.32445" lon="1.15058">
        <ele>22</ele>
        <time>2017-04-25T16:42:15Z</time>
      </trkpt>
      <trkpt lat="49.32441" lon="1.15054">
        <ele>22</ele>
        <time>2017-04-25T16:42:30Z</time>
      </trkpt>
      <trkpt lat="49.32437" lon="1.15051">
        <ele>22</ele>
        <time>2017-04-25T16:42:30Z</time>
      </trkpt>
      <trkpt lat="49.32432" lon="1.15048">
        <ele>22</ele>
        <time>2017-04-25T16:42:30Z</time>
      </trkpt>
      <trkpt lat="49.32427" lon="1.15044">
        <ele>22</ele>
        <time>2017-04-25T16:42:30Z</time>
      </trkpt>
      <trkpt lat="49.32424" lon="1.15041">
        <ele>25</ele>
        <time>2017-04-25T16:42:46Z</time>
      </trkpt>
      <trkpt lat="49.32419" lon="1.15038">
        <ele>25</ele>
        <time>2017-04-25T16:42:46Z</time>
      </trkpt>
      <trkpt lat="49.32414" lon="1.15034">
        <ele>25</ele>
        <time>2017-04-25T16:42:46Z</time>
      </trkpt>
      <trkpt lat="49.32409" lon="1.1503">
        <ele>25</ele>
        <time>2017-04-25T16:42:46Z</time>
      </trkpt>
      <trkpt lat="49.32405" lon="1.15027">
        <ele>25</ele>
        <time>2017-04-25T16:43:02Z</time>
      </trkpt>
      <trkpt lat="49.324" lon="1.15023">
        <ele>25</ele>
        <time>2017-04-25T16:43:02Z</time>
      </trkpt>
      <trkpt lat="49.32396" lon="1.15019">
        <ele>25</ele>
        <time>2017-04-25T16:43:02Z</time>
      </trkpt>
      <trkpt lat="49.32392" lon="1.15015">
        <ele>25</ele>
        <time>2017-04-25T16:43:02Z</time>
      </trkpt>
      <trkpt lat="49.32389" lon="1.15011">
        <ele>25</ele>
        <time>2017-04-25T16:43:18Z</time>
      </trkpt>
      <trkpt lat="49.32384" lon="1.15006">
        <ele>25</ele>
        <time>2017-04-25T16:43:18Z</time>
      </trkpt>
      <trkpt lat="49.3238" lon="1.15001">
        <ele>25</ele>
        <time>2017-04-25T16:43:18Z</time>
      </trkpt>
      <trkpt lat="49.32376" lon="1.14997">
        <ele>25</ele>
        <time>2017-04-25T16:43:18Z</time>
      </trkpt>
      <trkpt lat="49.32372" lon="1.14992">
        <ele>25</ele>
        <time>2017-04-25T16:43:34Z</time>
      </trkpt>
      <trkpt lat="49.32367" lon="1.14987">
        <ele>25</ele>
        <time>2017-04-25T16:43:34Z</time>
      </trkpt>
      <trkpt lat="49.32362" lon="1.14983">
        <ele>25</ele>
        <time>2017-04-25T16:43:34Z</time>
      </trkpt>
      <trkpt lat="49.32357" lon="1.14979">
        <ele>25</ele>
        <time>2017-04-25T16:43:35Z</time>
      </trkpt>
      <trkpt lat="49.32354" lon="1.14977">
        <ele>25</ele>
        <time>2017-04-25T16:43:50Z</time>
      </trkpt>
      <trkpt lat="49.32348" lon="1.14973">
        <ele>25</ele>
        <time>2017-04-25T16:43:50Z</time>
      </trkpt>
      <trkpt lat="49.32344" lon="1.14969">
        <ele>25</ele>
        <time>2017-04-25T16:43:50Z</time>
      </trkpt>
      <trkpt lat="49.3234" lon="1.14964">
        <ele>25</ele>
        <time>2017-04-25T16:43:50Z</time>
      </trkpt>
      <trkpt lat="49.32335" lon="1.1496">
        <ele>25</ele>
        <time>2017-04-25T16:44:06Z</time>
      </trkpt>
      <trkpt lat="49.32332" lon="1.14958">
        <ele>25</ele>
        <time>2017-04-25T16:44:06Z</time>
      </trkpt>
      <trkpt lat="49.32327" lon="1.14955">
        <ele>25</ele>
        <time>2017-04-25T16:44:06Z</time>
      </trkpt>
      <trkpt lat="49.32322" lon="1.14949">
        <ele>25</ele>
        <time>2017-04-25T16:44:06Z</time>
      </trkpt>
      <trkpt lat="49.32319" lon="1.14946">
        <ele>25</ele>
        <time>2017-04-25T16:44:22Z</time>
      </trkpt>
      <trkpt lat="49.32315" lon="1.14942">
        <ele>25</ele>
        <time>2017-04-25T16:44:22Z</time>
      </trkpt>
      <trkpt lat="49.3231" lon="1.14937">
        <ele>25</ele>
        <time>2017-04-25T16:44:23Z</time>
      </trkpt>
      <trkpt lat="49.32306" lon="1.14934">
        <ele>25</ele>
        <time>2017-04-25T16:44:23Z</time>
      </trkpt>
      <trkpt lat="49.32302" lon="1.14931">
        <ele>25</ele>
        <time>2017-04-25T16:44:38Z</time>
      </trkpt>
      <trkpt lat="49.32297" lon="1.14928">
        <ele>25</ele>
        <time>2017-04-25T16:44:39Z</time>
      </trkpt>
      <trkpt lat="49.32294" lon="1.14925">
        <ele>25</ele>
        <time>2017-04-25T16:44:39Z</time>
      </trkpt>
      <trkpt lat="49.3229" lon="1.1492">
        <ele>29</ele>
        <time>2017-04-25T16:44:39Z</time>
      </trkpt>
      <trkpt lat="49.32282" lon="1.14908">
        <ele>29</ele>
        <time>2017-04-25T16:45:26Z</time>
      </trkpt>
      <trkpt lat="49.3228" lon="1.14906">
        <ele>29</ele>
        <time>2017-04-25T16:45:26Z</time>
      </trkpt>
      <trkpt lat="49.32276" lon="1.14911">
        <ele>29</ele>
        <time>2017-04-25T16:45:26Z</time>
      </trkpt>
      <trkpt lat="49.32274" lon="1.14914">
        <ele>29</ele>
        <time>2017-04-25T16:45:26Z</time>
      </trkpt>
      <trkpt lat="49.32274" lon="1.14919">
        <ele>29</ele>
        <time>2017-04-25T16:45:27Z</time>
      </trkpt>
      <trkpt lat="49.32273" lon="1.14925">
        <ele>29</ele>
        <time>2017-04-25T16:45:46Z</time>
      </trkpt>
      <trkpt lat="49.32272" lon="1.14929">
        <ele>29</ele>
        <time>2017-04-25T16:45:46Z</time>
      </trkpt>
      <trkpt lat="49.32272" lon="1.14933">
        <ele>29</ele>
        <time>2017-04-25T16:45:46Z</time>
      </trkpt>
      <trkpt lat="49.32273" lon="1.14937">
        <ele>29</ele>
        <time>2017-04-25T16:45:46Z</time>
      </trkpt>
      <trkpt lat="49.32272" lon="1.14944">
        <ele>29</ele>
        <time>2017-04-25T16:45:46Z</time>
      </trkpt>
      <trkpt lat="49.32269" lon="1.14955">
        <ele>29</ele>
        <time>2017-04-25T16:46:14Z</time>
      </trkpt>
      <trkpt lat="49.32267" lon="1.14955">
        <ele>29</ele>
        <time>2017-04-25T16:46:14Z</time>
      </trkpt>
      <trkpt lat="49.32266" lon="1.14951">
        <ele>29</ele>
        <time>2017-04-25T16:46:14Z</time>
      </trkpt>
      <trkpt lat="49.32264" lon="1.14948">
        <ele>29</ele>
        <time>2017-04-25T16:46:14Z</time>
      </trkpt>
      <trkpt lat="49.32263" lon="1.14944">
        <ele>29</ele>
        <time>2017-04-25T16:46:14Z</time>
      </trkpt>
      <trkpt lat="49.32262" lon="1.14941">
        <ele>29</ele>
        <time>2017-04-25T16:46:30Z</time>
      </trkpt>
      <trkpt lat="49.3226" lon="1.14938">
        <ele>29</ele>
        <time>2017-04-25T16:46:30Z</time>
      </trkpt>
      <trkpt lat="49.32257" lon="1.14935">
        <ele>29</ele>
        <time>2017-04-25T16:46:30Z</time>
      </trkpt>
      <trkpt lat="49.32254" lon="1.14931">
        <ele>29</ele>
        <time>2017-04-25T16:46:30Z</time>
      </trkpt>
      <trkpt lat="49.32251" lon="1.14929">
        <ele>29</ele>
        <time>2017-04-25T16:46:46Z</time>
      </trkpt>
      <trkpt lat="49.32246" lon="1.1493">
        <ele>29</ele>
        <time>2017-04-25T16:46:46Z</time>
      </trkpt>
      <trkpt lat="49.32241" lon="1.14932">
        <ele>29</ele>
        <time>2017-04-25T16:46:46Z</time>
      </trkpt>
      <trkpt lat="49.32237" lon="1.14932">
        <ele>29</ele>
        <time>2017-04-25T16:46:46Z</time>
      </trkpt>
      <trkpt lat="49.32232" lon="1.14933">
        <ele>29</ele>
        <time>2017-04-25T16:47:02Z</time>
      </trkpt>
      <trkpt lat="49.3223" lon="1.14935">
        <ele>29</ele>
        <time>2017-04-25T16:47:02Z</time>
      </trkpt>
      <trkpt lat="49.32225" lon="1.14936">
        <ele>29</ele>
        <time>2017-04-25T16:47:02Z</time>
      </trkpt>
      <trkpt lat="49.3222" lon="1.14938">
        <ele>29</ele>
        <time>2017-04-25T16:47:02Z</time>
      </trkpt>
      <trkpt lat="49.32217" lon="1.1494">
        <ele>29</ele>
        <time>2017-04-25T16:47:18Z</time>
      </trkpt>
      <trkpt lat="49.32213" lon="1.14943">
        <ele>29</ele>
        <time>2017-04-25T16:47:18Z</time>
      </trkpt>
      <trkpt lat="49.32209" lon="1.14945">
        <ele>29</ele>
        <time>2017-04-25T16:47:18Z</time>
      </trkpt>
      <trkpt lat="49.32207" lon="1.14951">
        <ele>26</ele>
        <time>2017-04-25T16:47:18Z</time>
      </trkpt>
      <trkpt lat="49.32206" lon="1.14957">
        <ele>26</ele>
        <time>2017-04-25T16:47:34Z</time>
      </trkpt>
      <trkpt lat="49.32207" lon="1.14963">
        <ele>34</ele>
        <time>2017-04-25T16:47:34Z</time>
      </trkpt>
      <trkpt lat="49.32208" lon="1.14966">
        <ele>34</ele>
        <time>2017-04-25T16:47:34Z</time>
      </trkpt>
      <trkpt lat="49.32209" lon="1.1497">
        <ele>39</ele>
        <time>2017-04-25T16:47:34Z</time>
      </trkpt>
      <trkpt lat="49.3221" lon="1.14974">
        <ele>39</ele>
        <time>2017-04-25T16:47:50Z</time>
      </trkpt>
      <trkpt lat="49.32211" lon="1.14978">
        <ele>39</ele>
        <time>2017-04-25T16:47:50Z</time>
      </trkpt>
      <trkpt lat="49.3221" lon="1.14985">
        <ele>39</ele>
        <time>2017-04-25T16:47:51Z</time>
      </trkpt>
      <trkpt lat="49.32211" lon="1.1499">
        <ele>39</ele>
        <time>2017-04-25T16:47:51Z</time>
      </trkpt>
      <trkpt lat="49.32211" lon="1.14996">
        <ele>39</ele>
        <time>2017-04-25T16:48:06Z</time>
      </trkpt>
      <trkpt lat="49.32213" lon="1.15004">
        <ele>39</ele>
        <time>2017-04-25T16:48:06Z</time>
      </trkpt>
      <trkpt lat="49.32216" lon="1.15011">
        <ele>39</ele>
        <time>2017-04-25T16:48:06Z</time>
      </trkpt>
      <trkpt lat="49.32218" lon="1.15016">
        <ele>39</ele>
        <time>2017-04-25T16:48:06Z</time>
      </trkpt>
      <trkpt lat="49.32219" lon="1.1502">
        <ele>39</ele>
        <time>2017-04-25T16:48:22Z</time>
      </trkpt>
      <trkpt lat="49.32221" lon="1.15025">
        <ele>39</ele>
        <time>2017-04-25T16:48:22Z</time>
      </trkpt>
      <trkpt lat="49.32225" lon="1.15029">
        <ele>39</ele>
        <time>2017-04-25T16:48:22Z</time>
      </trkpt>
      <trkpt lat="49.32227" lon="1.15033">
        <ele>39</ele>
        <time>2017-04-25T16:48:22Z</time>
      </trkpt>
      <trkpt lat="49.32229" lon="1.15037">
        <ele>39</ele>
        <time>2017-04-25T16:48:38Z</time>
      </trkpt>
      <trkpt lat="49.32232" lon="1.15044">
        <ele>46</ele>
        <time>2017-04-25T16:48:38Z</time>
      </trkpt>
      <trkpt lat="49.32233" lon="1.1505">
        <ele>46</ele>
        <time>2017-04-25T16:48:38Z</time>
      </trkpt>
      <trkpt lat="49.32235" lon="1.15053">
        <ele>46</ele>
        <time>2017-04-25T16:48:38Z</time>
      </trkpt>
      <trkpt lat="49.32236" lon="1.15058">
        <ele>46</ele>
        <time>2017-04-25T16:48:54Z</time>
      </trkpt>
      <trkpt lat="49.32239" lon="1.15065">
        <ele>46</ele>
        <time>2017-04-25T16:48:54Z</time>
      </trkpt>
      <trkpt lat="49.32241" lon="1.15074">
        <ele>46</ele>
        <time>2017-04-25T16:48:54Z</time>
      </trkpt>
      <trkpt lat="49.3224" lon="1.15079">
        <ele>46</ele>
        <time>2017-04-25T16:48:54Z</time>
      </trkpt>
      <trkpt lat="49.32244" lon="1.15097">
        <ele>46</ele>
        <time>2017-04-25T16:50:10Z</time>
      </trkpt>
      <trkpt lat="49.32245" lon="1.15096">
        <ele>46</ele>
        <time>2017-04-25T16:50:10Z</time>
      </trkpt>
      <trkpt lat="49.32246" lon="1.15097">
        <ele>46</ele>
        <time>2017-04-25T16:50:10Z</time>
      </trkpt>
      <trkpt lat="49.32248" lon="1.15101">
        <ele>46</ele>
        <time>2017-04-25T16:50:10Z</time>
      </trkpt>
      <trkpt lat="49.3225" lon="1.15105">
        <ele>46</ele>
        <time>2017-04-25T16:50:10Z</time>
      </trkpt>
      <trkpt lat="49.32252" lon="1.1511">
        <ele>46</ele>
        <time>2017-04-25T16:50:26Z</time>
      </trkpt>
      <trkpt lat="49.32254" lon="1.15114">
        <ele>46</ele>
        <time>2017-04-25T16:50:26Z</time>
      </trkpt>
      <trkpt lat="49.32256" lon="1.1512">
        <ele>46</ele>
        <time>2017-04-25T16:50:26Z</time>
      </trkpt>
      <trkpt lat="49.32259" lon="1.15125">
        <ele>46</ele>
        <time>2017-04-25T16:50:26Z</time>
      </trkpt>
      <trkpt lat="49.32262" lon="1.1513">
        <ele>53</ele>
        <time>2017-04-25T16:50:42Z</time>
      </trkpt>
      <trkpt lat="49.32265" lon="1.15136">
        <ele>53</ele>
        <time>2017-04-25T16:50:42Z</time>
      </trkpt>
      <trkpt lat="49.32269" lon="1.15144">
        <ele>53</ele>
        <time>2017-04-25T16:50:42Z</time>
      </trkpt>
      <trkpt lat="49.32271" lon="1.15151">
        <ele>53</ele>
        <time>2017-04-25T16:50:42Z</time>
      </trkpt>
      <trkpt lat="49.32273" lon="1.15154">
        <ele>53</ele>
        <time>2017-04-25T16:50:58Z</time>
      </trkpt>
      <trkpt lat="49.32275" lon="1.15163">
        <ele>53</ele>
        <time>2017-04-25T16:50:58Z</time>
      </trkpt>
      <trkpt lat="49.32277" lon="1.15169">
        <ele>53</ele>
        <time>2017-04-25T16:50:58Z</time>
      </trkpt>
      <trkpt lat="49.32279" lon="1.15176">
        <ele>53</ele>
        <time>2017-04-25T16:50:58Z</time>
      </trkpt>
      <trkpt lat="49.32281" lon="1.1518">
        <ele>53</ele>
        <time>2017-04-25T16:51:14Z</time>
      </trkpt>
      <trkpt lat="49.32284" lon="1.15186">
        <ele>53</ele>
        <time>2017-04-25T16:51:14Z</time>
      </trkpt>
      <trkpt lat="49.32285" lon="1.15192">
        <ele>53</ele>
        <time>2017-04-25T16:51:14Z</time>
      </trkpt>
      <trkpt lat="49.32288" lon="1.15197">
        <ele>53</ele>
        <time>2017-04-25T16:51:14Z</time>
      </trkpt>
      <trkpt lat="49.32291" lon="1.15204">
        <ele>53</ele>
        <time>2017-04-25T16:51:30Z</time>
      </trkpt>
      <trkpt lat="49.32294" lon="1.1521">
        <ele>52</ele>
        <time>2017-04-25T16:51:30Z</time>
      </trkpt>
      <trkpt lat="49.32296" lon="1.15217">
        <ele>52</ele>
        <time>2017-04-25T16:51:30Z</time>
      </trkpt>
      <trkpt lat="49.32299" lon="1.15224">
        <ele>52</ele>
        <time>2017-04-25T16:51:30Z</time>
      </trkpt>
      <trkpt lat="49.32301" lon="1.15231">
        <ele>52</ele>
        <time>2017-04-25T16:51:46Z</time>
      </trkpt>
      <trkpt lat="49.32303" lon="1.15236">
        <ele>52</ele>
        <time>2017-04-25T16:51:46Z</time>
      </trkpt>
      <trkpt lat="49.32306" lon="1.15242">
        <ele>52</ele>
        <time>2017-04-25T16:51:47Z</time>
      </trkpt>
      <trkpt lat="49.32307" lon="1.15249">
        <ele>52</ele>
        <time>2017-04-25T16:51:47Z</time>
      </trkpt>
      <trkpt lat="49.32309" lon="1.15256">
        <ele>52</ele>
        <time>2017-04-25T16:52:02Z</time>
      </trkpt>
      <trkpt lat="49.32311" lon="1.15261">
        <ele>52</ele>
        <time>2017-04-25T16:52:02Z</time>
      </trkpt>
      <trkpt lat="49.32313" lon="1.15268">
        <ele>52</ele>
        <time>2017-04-25T16:52:02Z</time>
      </trkpt>
      <trkpt lat="49.32316" lon="1.15276">
        <ele>52</ele>
        <time>2017-04-25T16:52:02Z</time>
      </trkpt>
      <trkpt lat="49.32319" lon="1.15284">
        <ele>52</ele>
        <time>2017-04-25T16:52:18Z</time>
      </trkpt>
      <trkpt lat="49.32322" lon="1.1529">
        <ele>52</ele>
        <time>2017-04-25T16:52:18Z</time>
      </trkpt>
      <trkpt lat="49.32325" lon="1.15295">
        <ele>58</ele>
        <time>2017-04-25T16:52:18Z</time>
      </trkpt>
      <trkpt lat="49.32326" lon="1.15302">
        <ele>58</ele>
        <time>2017-04-25T16:52:18Z</time>
      </trkpt>
      <trkpt lat="49.32327" lon="1.15304">
        <ele>58</ele>
        <time>2017-04-25T16:52:38Z</time>
      </trkpt>
      <trkpt lat="49.32327" lon="1.15305">
        <ele>58</ele>
        <time>2017-04-25T16:52:38Z</time>
      </trkpt>
      <trkpt lat="49.32327" lon="1.15307">
        <ele>58</ele>
        <time>2017-04-25T16:52:38Z</time>
      </trkpt>
      <trkpt lat="49.3233" lon="1.15314">
        <ele>58</ele>
        <time>2017-04-25T16:52:38Z</time>
      </trkpt>
      <trkpt lat="49.32333" lon="1.15322">
        <ele>58</ele>
        <time>2017-04-25T16:52:39Z</time>
      </trkpt>
      <trkpt lat="49.32335" lon="1.15327">
        <ele>58</ele>
        <time>2017-04-25T16:52:54Z</time>
      </trkpt>
      <trkpt lat="49.32337" lon="1.15334">
        <ele>58</ele>
        <time>2017-04-25T16:52:54Z</time>
      </trkpt>
      <trkpt lat="49.32339" lon="1.15341">
        <ele>58</ele>
        <time>2017-04-25T16:52:54Z</time>
      </trkpt>
      <trkpt lat="49.32342" lon="1.15347">
        <ele>58</ele>
        <time>2017-04-25T16:52:55Z</time>
      </trkpt>
      <trkpt lat="49.32345" lon="1.15353">
        <ele>58</ele>
        <time>2017-04-25T16:53:10Z</time>
      </trkpt>
      <trkpt lat="49.32348" lon="1.15358">
        <ele>58</ele>
        <time>2017-04-25T16:53:10Z</time>
      </trkpt>
      <trkpt lat="49.32351" lon="1.15362">
        <ele>58</ele>
        <time>2017-04-25T16:53:10Z</time>
      </trkpt>
      <trkpt lat="49.32353" lon="1.15368">
        <ele>58</ele>
        <time>2017-04-25T16:53:10Z</time>
      </trkpt>
      <trkpt lat="49.32355" lon="1.15373">
        <ele>58</ele>
        <time>2017-04-25T16:53:26Z</time>
      </trkpt>
      <trkpt lat="49.32358" lon="1.1538">
        <ele>62</ele>
        <time>2017-04-25T16:53:26Z</time>
      </trkpt>
      <trkpt lat="49.3236" lon="1.15386">
        <ele>62</ele>
        <time>2017-04-25T16:53:26Z</time>
      </trkpt>
      <trkpt lat="49.32362" lon="1.15392">
        <ele>62</ele>
        <time>2017-04-25T16:53:26Z</time>
      </trkpt>
      <trkpt lat="49.32364" lon="1.15398">
        <ele>62</ele>
        <time>2017-04-25T16:53:42Z</time>
      </trkpt>
      <trkpt lat="49.32367" lon="1.15405">
        <ele>62</ele>
        <time>2017-04-25T16:53:42Z</time>
      </trkpt>
      <trkpt lat="49.32369" lon="1.15412">
        <ele>62</ele>
        <time>2017-04-25T16:53:42Z</time>
      </trkpt>
      <trkpt lat="49.32372" lon="1.15419">
        <ele>62</ele>
        <time>2017-04-25T16:53:42Z</time>
      </trkpt>
      <trkpt lat="49.32375" lon="1.15425">
        <ele>62</ele>
        <time>2017-04-25T16:53:58Z</time>
      </trkpt>
      <trkpt lat="49.32377" lon="1.15432">
        <ele>60</ele>
        <time>2017-04-25T16:53:58Z</time>
      </trkpt>
      <trkpt lat="49.3238" lon="1.15438">
        <ele>60</ele>
        <time>2017-04-25T16:53:58Z</time>
      </trkpt>
      <trkpt lat="49.32384" lon="1.15446">
        <ele>60</ele>
        <time>2017-04-25T16:53:58Z</time>
      </trkpt>
      <trkpt lat="49.32386" lon="1.15454">
        <ele>60</ele>
        <time>2017-04-25T16:54:14Z</time>
      </trkpt>
      <trkpt lat="49.32389" lon="1.1546">
        <ele>61</ele>
        <time>2017-04-25T16:54:14Z</time>
      </trkpt>
      <trkpt lat="49.32391" lon="1.15466">
        <ele>61</ele>
        <time>2017-04-25T16:54:14Z</time>
      </trkpt>
      <trkpt lat="49.32394" lon="1.15473">
        <ele>61</ele>
        <time>2017-04-25T16:54:14Z</time>
      </trkpt>
      <trkpt lat="49.32398" lon="1.1548">
        <ele>61</ele>
        <time>2017-04-25T16:54:30Z</time>
      </trkpt>
      <trkpt lat="49.32399" lon="1.15484">
        <ele>61</ele>
        <time>2017-04-25T16:54:30Z</time>
      </trkpt>
      <trkpt lat="49.32402" lon="1.15491">
        <ele>61</ele>
        <time>2017-04-25T16:54:30Z</time>
      </trkpt>
      <trkpt lat="49.32406" lon="1.15496">
        <ele>61</ele>
        <time>2017-04-25T16:54:30Z</time>
      </trkpt>
      <trkpt lat="49.32409" lon="1.15506">
        <ele>61</ele>
        <time>2017-04-25T16:54:46Z</time>
      </trkpt>
      <trkpt lat="49.32412" lon="1.15511">
        <ele>61</ele>
        <time>2017-04-25T16:54:46Z</time>
      </trkpt>
      <trkpt lat="49.32415" lon="1.15516">
        <ele>61</ele>
        <time>2017-04-25T16:54:46Z</time>
      </trkpt>
      <trkpt lat="49.32417" lon="1.1552">
        <ele>61</ele>
        <time>2017-04-25T16:54:47Z</time>
      </trkpt>
      <trkpt lat="49.3242" lon="1.15525">
        <ele>61</ele>
        <time>2017-04-25T16:55:02Z</time>
      </trkpt>
      <trkpt lat="49.32425" lon="1.1553">
        <ele>61</ele>
        <time>2017-04-25T16:55:02Z</time>
      </trkpt>
      <trkpt lat="49.32431" lon="1.15536">
        <ele>61</ele>
        <time>2017-04-25T16:55:02Z</time>
      </trkpt>
      <trkpt lat="49.32435" lon="1.15541">
        <ele>61</ele>
        <time>2017-04-25T16:55:02Z</time>
      </trkpt>
      <trkpt lat="49.32439" lon="1.15545">
        <ele>62</ele>
        <time>2017-04-25T16:55:18Z</time>
      </trkpt>
      <trkpt lat="49.3244" lon="1.15547">
        <ele>62</ele>
        <time>2017-04-25T16:55:18Z</time>
      </trkpt>
      <trkpt lat="49.32444" lon="1.15555">
        <ele>62</ele>
        <time>2017-04-25T16:55:18Z</time>
      </trkpt>
      <trkpt lat="49.32448" lon="1.15558">
        <ele>62</ele>
        <time>2017-04-25T16:55:19Z</time>
      </trkpt>
      <trkpt lat="49.32454" lon="1.15563">
        <ele>62</ele>
        <time>2017-04-25T16:55:34Z</time>
      </trkpt>
      <trkpt lat="49.32458" lon="1.15567">
        <ele>62</ele>
        <time>2017-04-25T16:55:34Z</time>
      </trkpt>
      <trkpt lat="49.32461" lon="1.15572">
        <ele>62</ele>
        <time>2017-04-25T16:55:34Z</time>
      </trkpt>
      <trkpt lat="49.32464" lon="1.15575">
        <ele>62</ele>
        <time>2017-04-25T16:55:34Z</time>
      </trkpt>
      <trkpt lat="49.32469" lon="1.1558">
        <ele>62</ele>
        <time>2017-04-25T16:55:50Z</time>
      </trkpt>
      <trkpt lat="49.32473" lon="1.15584">
        <ele>62</ele>
        <time>2017-04-25T16:55:50Z</time>
      </trkpt>
      <trkpt lat="49.32477" lon="1.15586">
        <ele>62</ele>
        <time>2017-04-25T16:55:50Z</time>
      </trkpt>
      <trkpt lat="49.32482" lon="1.1559">
        <ele>62</ele>
        <time>2017-04-25T16:55:50Z</time>
      </trkpt>
      <trkpt lat="49.32487" lon="1.15594">
        <ele>62</ele>
        <time>2017-04-25T16:56:06Z</time>
      </trkpt>
      <trkpt lat="49.32491" lon="1.15597">
        <ele>62</ele>
        <time>2017-04-25T16:56:06Z</time>
      </trkpt>
      <trkpt lat="49.32495" lon="1.15602">
        <ele>62</ele>
        <time>2017-04-25T16:56:06Z</time>
      </trkpt>
      <trkpt lat="49.325" lon="1.15605">
        <ele>62</ele>
        <time>2017-04-25T16:56:06Z</time>
      </trkpt>
      <trkpt lat="49.32504" lon="1.1561">
        <ele>62</ele>
        <time>2017-04-25T16:56:22Z</time>
      </trkpt>
      <trkpt lat="49.32509" lon="1.15614">
        <ele>62</ele>
        <time>2017-04-25T16:56:22Z</time>
      </trkpt>
      <trkpt lat="49.32513" lon="1.15618">
        <ele>62</ele>
        <time>2017-04-25T16:56:22Z</time>
      </trkpt>
      <trkpt lat="49.32517" lon="1.15622">
        <ele>62</ele>
        <time>2017-04-25T16:56:22Z</time>
      </trkpt>
      <trkpt lat="49.32523" lon="1.15628">
        <ele>65</ele>
        <time>2017-04-25T16:56:38Z</time>
      </trkpt>
      <trkpt lat="49.32529" lon="1.15631">
        <ele>65</ele>
        <time>2017-04-25T16:56:38Z</time>
      </trkpt>
      <trkpt lat="49.32534" lon="1.15634">
        <ele>65</ele>
        <time>2017-04-25T16:56:38Z</time>
      </trkpt>
      <trkpt lat="49.32535" lon="1.15636">
        <ele>65</ele>
        <time>2017-04-25T16:56:38Z</time>
      </trkpt>
      <trkpt lat="49.32537" lon="1.15639">
        <ele>65</ele>
        <time>2017-04-25T16:56:54Z</time>
      </trkpt>
      <trkpt lat="49.32539" lon="1.15643">
        <ele>65</ele>
        <time>2017-04-25T16:56:54Z</time>
      </trkpt>
      <trkpt lat="49.32542" lon="1.15649">
        <ele>61</ele>
        <time>2017-04-25T16:56:54Z</time>
      </trkpt>
      <trkpt lat="49.32544" lon="1.15654">
        <ele>61</ele>
        <time>2017-04-25T16:56:54Z</time>
      </trkpt>
      <trkpt lat="49.32548" lon="1.15661">
        <ele>61</ele>
        <time>2017-04-25T16:57:10Z</time>
      </trkpt>
      <trkpt lat="49.32551" lon="1.15667">
        <ele>61</ele>
        <time>2017-04-25T16:57:10Z</time>
      </trkpt>
      <trkpt lat="49.32554" lon="1.15671">
        <ele>61</ele>
        <time>2017-04-25T16:57:10Z</time>
      </trkpt>
      <trkpt lat="49.32557" lon="1.15679">
        <ele>61</ele>
        <time>2017-04-25T16:57:10Z</time>
      </trkpt>
      <trkpt lat="49.32561" lon="1.15685">
        <ele>61</ele>
        <time>2017-04-25T16:57:26Z</time>
      </trkpt>
      <trkpt lat="49.32563" lon="1.15692">
        <ele>61</ele>
        <time>2017-04-25T16:57:26Z</time>
      </trkpt>
      <trkpt lat="49.32566" lon="1.15699">
        <ele>61</ele>
        <time>2017-04-25T16:57:26Z</time>
      </trkpt>
      <trkpt lat="49.32568" lon="1.15706">
        <ele>61</ele>
        <time>2017-04-25T16:57:26Z</time>
      </trkpt>
      <trkpt lat="49.32569" lon="1.15712">
        <ele>64</ele>
        <time>2017-04-25T16:57:42Z</time>
      </trkpt>
      <trkpt lat="49.32573" lon="1.15721">
        <ele>64</ele>
        <time>2017-04-25T16:57:42Z</time>
      </trkpt>
      <trkpt lat="49.32575" lon="1.15728">
        <ele>64</ele>
        <time>2017-04-25T16:57:42Z</time>
      </trkpt>
      <trkpt lat="49.32577" lon="1.15735">
        <ele>64</ele>
        <time>2017-04-25T16:57:42Z</time>
      </trkpt>
      <trkpt lat="49.32581" lon="1.15744">
        <ele>64</ele>
        <time>2017-04-25T16:57:58Z</time>
      </trkpt>
      <trkpt lat="49.32584" lon="1.15752">
        <ele>64</ele>
        <time>2017-04-25T16:57:58Z</time>
      </trkpt>
      <trkpt lat="49.32586" lon="1.15759">
        <ele>64</ele>
        <time>2017-04-25T16:57:58Z</time>
      </trkpt>
      <trkpt lat="49.32587" lon="1.15763">
        <ele>64</ele>
        <time>2017-04-25T16:57:58Z</time>
      </trkpt>
      <trkpt lat="49.32588" lon="1.15771">
        <ele>64</ele>
        <time>2017-04-25T16:58:14Z</time>
      </trkpt>
      <trkpt lat="49.3259" lon="1.15779">
        <ele>64</ele>
        <time>2017-04-25T16:58:14Z</time>
      </trkpt>
      <trkpt lat="49.32592" lon="1.15785">
        <ele>64</ele>
        <time>2017-04-25T16:58:14Z</time>
      </trkpt>
      <trkpt lat="49.32594" lon="1.15793">
        <ele>67</ele>
        <time>2017-04-25T16:58:14Z</time>
      </trkpt>
      <trkpt lat="49.32596" lon="1.15801">
        <ele>67</ele>
        <time>2017-04-25T16:58:30Z</time>
      </trkpt>
      <trkpt lat="49.32598" lon="1.15808">
        <ele>67</ele>
        <time>2017-04-25T16:58:30Z</time>
      </trkpt>
      <trkpt lat="49.32598" lon="1.15815">
        <ele>67</ele>
        <time>2017-04-25T16:58:30Z</time>
      </trkpt>
      <trkpt lat="49.32599" lon="1.15822">
        <ele>67</ele>
        <time>2017-04-25T16:58:30Z</time>
      </trkpt>
      <trkpt lat="49.32598" lon="1.15831">
        <ele>67</ele>
        <time>2017-04-25T16:58:46Z</time>
      </trkpt>
      <trkpt lat="49.32598" lon="1.15837">
        <ele>67</ele>
        <time>2017-04-25T16:58:46Z</time>
      </trkpt>
      <trkpt lat="49.32598" lon="1.15842">
        <ele>67</ele>
        <time>2017-04-25T16:58:46Z</time>
      </trkpt>
      <trkpt lat="49.32597" lon="1.15849">
        <ele>67</ele>
        <time>2017-04-25T16:58:46Z</time>
      </trkpt>
      <trkpt lat="49.32596" lon="1.15857">
        <ele>67</ele>
        <time>2017-04-25T16:59:02Z</time>
      </trkpt>
      <trkpt lat="49.32595" lon="1.15867">
        <ele>67</ele>
        <time>2017-04-25T16:59:02Z</time>
      </trkpt>
      <trkpt lat="49.32595" lon="1.15873">
        <ele>67</ele>
        <time>2017-04-25T16:59:02Z</time>
      </trkpt>
      <trkpt lat="49.32595" lon="1.15881">
        <ele>70</ele>
        <time>2017-04-25T16:59:02Z</time>
      </trkpt>
      <trkpt lat="49.32594" lon="1.15889">
        <ele>70</ele>
        <time>2017-04-25T16:59:18Z</time>
      </trkpt>
      <trkpt lat="49.32593" lon="1.15898">
        <ele>70</ele>
        <time>2017-04-25T16:59:18Z</time>
      </trkpt>
      <trkpt lat="49.32593" lon="1.15904">
        <ele>70</ele>
        <time>2017-04-25T16:59:18Z</time>
      </trkpt>
      <trkpt lat="49.32594" lon="1.15912">
        <ele>70</ele>
        <time>2017-04-25T16:59:18Z</time>
      </trkpt>
      <trkpt lat="49.32593" lon="1.1592">
        <ele>70</ele>
        <time>2017-04-25T16:59:34Z</time>
      </trkpt>
      <trkpt lat="49.32592" lon="1.15927">
        <ele>70</ele>
        <time>2017-04-25T16:59:34Z</time>
      </trkpt>
      <trkpt lat="49.3259" lon="1.15934">
        <ele>70</ele>
        <time>2017-04-25T16:59:34Z</time>
      </trkpt>
      <trkpt lat="49.32589" lon="1.15943">
        <ele>70</ele>
        <time>2017-04-25T16:59:35Z</time>
      </trkpt>
      <trkpt lat="49.32587" lon="1.15951">
        <ele>70</ele>
        <time>2017-04-25T16:59:50Z</time>
      </trkpt>
      <trkpt lat="49.32586" lon="1.15958">
        <ele>70</ele>
        <time>2017-04-25T16:59:50Z</time>
      </trkpt>
      <trkpt lat="49.32586" lon="1.15964">
        <ele>73</ele>
        <time>2017-04-25T16:59:50Z</time>
      </trkpt>
      <trkpt lat="49.32585" lon="1.15972">
        <ele>73</ele>
        <time>2017-04-25T16:59:50Z</time>
      </trkpt>
      <trkpt lat="49.32584" lon="1.15978">
        <ele>73</ele>
        <time>2017-04-25T17:00:06Z</time>
      </trkpt>
      <trkpt lat="49.32584" lon="1.15987">
        <ele>73</ele>
        <time>2017-04-25T17:00:06Z</time>
      </trkpt>
      <trkpt lat="49.32584" lon="1.15993">
        <ele>73</ele>
        <time>2017-04-25T17:00:06Z</time>
      </trkpt>
      <trkpt lat="49.32585" lon="1.15999">
        <ele>73</ele>
        <time>2017-04-25T17:00:06Z</time>
      </trkpt>
      <trkpt lat="49.32584" lon="1.16007">
        <ele>73</ele>
        <time>2017-04-25T17:00:22Z</time>
      </trkpt>
      <trkpt lat="49.32585" lon="1.16016">
        <ele>73</ele>
        <time>2017-04-25T17:00:22Z</time>
      </trkpt>
      <trkpt lat="49.32584" lon="1.16023">
        <ele>73</ele>
        <time>2017-04-25T17:00:22Z</time>
      </trkpt>
      <trkpt lat="49.32585" lon="1.1603">
        <ele>73</ele>
        <time>2017-04-25T17:00:22Z</time>
      </trkpt>
      <trkpt lat="49.32585" lon="1.16038">
        <ele>73</ele>
        <time>2017-04-25T17:00:38Z</time>
      </trkpt>
      <trkpt lat="49.32587" lon="1.16047">
        <ele>75</ele>
        <time>2017-04-25T17:00:38Z</time>
      </trkpt>
      <trkpt lat="49.32588" lon="1.16054">
        <ele>75</ele>
        <time>2017-04-25T17:00:38Z</time>
      </trkpt>
      <trkpt lat="49.32589" lon="1.16061">
        <ele>75</ele>
        <time>2017-04-25T17:00:38Z</time>
      </trkpt>
      <trkpt lat="49.3259" lon="1.16067">
        <ele>75</ele>
        <time>2017-04-25T17:00:54Z</time>
      </trkpt>
      <trkpt lat="49.32591" lon="1.16076">
        <ele>75</ele>
        <time>2017-04-25T17:00:54Z</time>
      </trkpt>
      <trkpt lat="49.32593" lon="1.16083">
        <ele>75</ele>
        <time>2017-04-25T17:00:54Z</time>
      </trkpt>
      <trkpt lat="49.32595" lon="1.16092">
        <ele>75</ele>
        <time>2017-04-25T17:00:54Z</time>
      </trkpt>
      <trkpt lat="49.32597" lon="1.16097">
        <ele>75</ele>
        <time>2017-04-25T17:01:10Z</time>
      </trkpt>
      <trkpt lat="49.32599" lon="1.16103">
        <ele>75</ele>
        <time>2017-04-25T17:01:10Z</time>
      </trkpt>
      <trkpt lat="49.32601" lon="1.16109">
        <ele>75</ele>
        <time>2017-04-25T17:01:10Z</time>
      </trkpt>
      <trkpt lat="49.32604" lon="1.16116">
        <ele>75</ele>
        <time>2017-04-25T17:01:11Z</time>
      </trkpt>
      <trkpt lat="49.32608" lon="1.16121">
        <ele>75</ele>
        <time>2017-04-25T17:01:26Z</time>
      </trkpt>
      <trkpt lat="49.32611" lon="1.16126">
        <ele>80</ele>
        <time>2017-04-25T17:01:26Z</time>
      </trkpt>
      <trkpt lat="49.32615" lon="1.16129">
        <ele>80</ele>
        <time>2017-04-25T17:01:26Z</time>
      </trkpt>
      <trkpt lat="49.3262" lon="1.16132">
        <ele>80</ele>
        <time>2017-04-25T17:01:27Z</time>
      </trkpt>
      <trkpt lat="49.32625" lon="1.16136">
        <ele>80</ele>
        <time>2017-04-25T17:01:42Z</time>
      </trkpt>
      <trkpt lat="49.32628" lon="1.1614">
        <ele>78</ele>
        <time>2017-04-25T17:01:42Z</time>
      </trkpt>
      <trkpt lat="49.32632" lon="1.16143">
        <ele>78</ele>
        <time>2017-04-25T17:01:42Z</time>
      </trkpt>
      <trkpt lat="49.32635" lon="1.16146">
        <ele>78</ele>
        <time>2017-04-25T17:01:42Z</time>
      </trkpt>
      <trkpt lat="49.32639" lon="1.1615">
        <ele>78</ele>
        <time>2017-04-25T17:01:58Z</time>
      </trkpt>
      <trkpt lat="49.32645" lon="1.16153">
        <ele>78</ele>
        <time>2017-04-25T17:01:58Z</time>
      </trkpt>
      <trkpt lat="49.32649" lon="1.16157">
        <ele>78</ele>
        <time>2017-04-25T17:01:58Z</time>
      </trkpt>
      <trkpt lat="49.32653" lon="1.16161">
        <ele>78</ele>
        <time>2017-04-25T17:01:58Z</time>
      </trkpt>
      <trkpt lat="49.32659" lon="1.16163">
        <ele>78</ele>
        <time>2017-04-25T17:02:14Z</time>
      </trkpt>
      <trkpt lat="49.32663" lon="1.16166">
        <ele>78</ele>
        <time>2017-04-25T17:02:14Z</time>
      </trkpt>
      <trkpt lat="49.32668" lon="1.16168">
        <ele>78</ele>
        <time>2017-04-25T17:02:14Z</time>
      </trkpt>
      <trkpt lat="49.32672" lon="1.16169">
        <ele>78</ele>
        <time>2017-04-25T17:02:14Z</time>
      </trkpt>
      <trkpt lat="49.32678" lon="1.1617">
        <ele>78</ele>
        <time>2017-04-25T17:02:30Z</time>
      </trkpt>
      <trkpt lat="49.32682" lon="1.16171">
        <ele>78</ele>
        <time>2017-04-25T17:02:30Z</time>
      </trkpt>
      <trkpt lat="49.32687" lon="1.16173">
        <ele>78</ele>
        <time>2017-04-25T17:02:30Z</time>
      </trkpt>
      <trkpt lat="49.32692" lon="1.16176">
        <ele>78</ele>
        <time>2017-04-25T17:02:31Z</time>
      </trkpt>
      <trkpt lat="49.32698" lon="1.16179">
        <ele>78</ele>
        <time>2017-04-25T17:02:46Z</time>
      </trkpt>
      <trkpt lat="49.32703" lon="1.16181">
        <ele>78</ele>
        <time>2017-04-25T17:02:46Z</time>
      </trkpt>
      <trkpt lat="49.32708" lon="1.16183">
        <ele>78</ele>
        <time>2017-04-25T17:02:46Z</time>
      </trkpt>
      <trkpt lat="49.32712" lon="1.16186">
        <ele>73</ele>
        <time>2017-04-25T17:02:47Z</time>
      </trkpt>
      <trkpt lat="49.32718" lon="1.16187">
        <ele>73</ele>
        <time>2017-04-25T17:03:02Z</time>
      </trkpt>
      <trkpt lat="49.32724" lon="1.1619">
        <ele>73</ele>
        <time>2017-04-25T17:03:02Z</time>
      </trkpt>
      <trkpt lat="49.32728" lon="1.16192">
        <ele>73</ele>
        <time>2017-04-25T17:03:02Z</time>
      </trkpt>
      <trkpt lat="49.32732" lon="1.16194">
        <ele>73</ele>
        <time>2017-04-25T17:03:02Z</time>
      </trkpt>
      <trkpt lat="49.32737" lon="1.16198">
        <ele>73</ele>
        <time>2017-04-25T17:03:18Z</time>
      </trkpt>
      <trkpt lat="49.32741" lon="1.16199">
        <ele>73</ele>
        <time>2017-04-25T17:03:18Z</time>
      </trkpt>
      <trkpt lat="49.32747" lon="1.16203">
        <ele>73</ele>
        <time>2017-04-25T17:03:18Z</time>
      </trkpt>
      <trkpt lat="49.32751" lon="1.16208">
        <ele>73</ele>
        <time>2017-04-25T17:03:18Z</time>
      </trkpt>
      <trkpt lat="49.32757" lon="1.16213">
        <ele>75</ele>
        <time>2017-04-25T17:03:34Z</time>
      </trkpt>
      <trkpt lat="49.3276" lon="1.16217">
        <ele>75</ele>
        <time>2017-04-25T17:03:34Z</time>
      </trkpt>
      <trkpt lat="49.32765" lon="1.16221">
        <ele>75</ele>
        <time>2017-04-25T17:03:34Z</time>
      </trkpt>
      <trkpt lat="49.32769" lon="1.16226">
        <ele>75</ele>
        <time>2017-04-25T17:03:34Z</time>
      </trkpt>
      <trkpt lat="49.32774" lon="1.1623">
        <ele>75</ele>
        <time>2017-04-25T17:03:50Z</time>
      </trkpt>
      <trkpt lat="49.32777" lon="1.16235">
        <ele>75</ele>
        <time>2017-04-25T17:03:50Z</time>
      </trkpt>
      <trkpt lat="49.32782" lon="1.16238">
        <ele>75</ele>
        <time>2017-04-25T17:03:50Z</time>
      </trkpt>
      <trkpt lat="49.32785" lon="1.16243">
        <ele>75</ele>
        <time>2017-04-25T17:03:51Z</time>
      </trkpt>
      <trkpt lat="49.32789" lon="1.16249">
        <ele>75</ele>
        <time>2017-04-25T17:04:06Z</time>
      </trkpt>
      <trkpt lat="49.32792" lon="1.16254">
        <ele>71</ele>
        <time>2017-04-25T17:04:06Z</time>
      </trkpt>
      <trkpt lat="49.32796" lon="1.16257">
        <ele>71</ele>
        <time>2017-04-25T17:04:06Z</time>
      </trkpt>
      <trkpt lat="49.328" lon="1.16263">
        <ele>71</ele>
        <time>2017-04-25T17:04:06Z</time>
      </trkpt>
      <trkpt lat="49.32803" lon="1.16268">
        <ele>71</ele>
        <time>2017-04-25T17:04:22Z</time>
      </trkpt>
      <trkpt lat="49.32807" lon="1.16272">
        <ele>71</ele>
        <time>2017-04-25T17:04:22Z</time>
      </trkpt>
      <trkpt lat="49.32811" lon="1.16279">
        <ele>71</ele>
        <time>2017-04-25T17:04:22Z</time>
      </trkpt>
      <trkpt lat="49.32815" lon="1.16285">
        <ele>71</ele>
        <time>2017-04-25T17:04:22Z</time>
      </trkpt>
      <trkpt lat="49.32818" lon="1.16291">
        <ele>71</ele>
        <time>2017-04-25T17:04:38Z</time>
      </trkpt>
      <trkpt lat="49.32821" lon="1.16295">
        <ele>79</ele>
        <time>2017-04-25T17:04:38Z</time>
      </trkpt>
      <trkpt lat="49.32825" lon="1.163">
        <ele>79</ele>
        <time>2017-04-25T17:04:38Z</time>
      </trkpt>
      <trkpt lat="49.3283" lon="1.16306">
        <ele>79</ele>
        <time>2017-04-25T17:04:38Z</time>
      </trkpt>
      <trkpt lat="49.32833" lon="1.16311">
        <ele>79</ele>
        <time>2017-04-25T17:04:54Z</time>
      </trkpt>
      <trkpt lat="49.32836" lon="1.16315">
        <ele>79</ele>
        <time>2017-04-25T17:04:54Z</time>
      </trkpt>
      <trkpt lat="49.32839" lon="1.1632">
        <ele>79</ele>
        <time>2017-04-25T17:04:54Z</time>
      </trkpt>
      <trkpt lat="49.32841" lon="1.16326">
        <ele>79</ele>
        <time>2017-04-25T17:04:54Z</time>
      </trkpt>
      <trkpt lat="49.32845" lon="1.1633">
        <ele>79</ele>
        <time>2017-04-25T17:05:10Z</time>
      </trkpt>
      <trkpt lat="49.3285" lon="1.16335">
        <ele>79</ele>
        <time>2017-04-25T17:05:10Z</time>
      </trkpt>
      <trkpt lat="49.32852" lon="1.16339">
        <ele>79</ele>
        <time>2017-04-25T17:05:10Z</time>
      </trkpt>
      <trkpt lat="49.32856" lon="1.16343">
        <ele>79</ele>
        <time>2017-04-25T17:05:10Z</time>
      </trkpt>
      <trkpt lat="49.32858" lon="1.16345">
        <ele>79</ele>
        <time>2017-04-25T17:05:26Z</time>
      </trkpt>
      <trkpt lat="49.32864" lon="1.1635">
        <ele>79</ele>
        <time>2017-04-25T17:05:26Z</time>
      </trkpt>
      <trkpt lat="49.32868" lon="1.16352">
        <ele>79</ele>
        <time>2017-04-25T17:05:26Z</time>
      </trkpt>
      <trkpt lat="49.3287" lon="1.16353">
        <ele>79</ele>
        <time>2017-04-25T17:05:26Z</time>
      </trkpt>
      <trkpt lat="49.32873" lon="1.16353">
        <ele>79</ele>
        <time>2017-04-25T17:05:42Z</time>
      </trkpt>
      <trkpt lat="49.32878" lon="1.16355">
        <ele>80</ele>
        <time>2017-04-25T17:05:42Z</time>
      </trkpt>
      <trkpt lat="49.32882" lon="1.16356">
        <ele>80</ele>
        <time>2017-04-25T17:05:42Z</time>
      </trkpt>
      <trkpt lat="49.32886" lon="1.16359">
        <ele>80</ele>
        <time>2017-04-25T17:05:42Z</time>
      </trkpt>
      <trkpt lat="49.32891" lon="1.16359">
        <ele>80</ele>
        <time>2017-04-25T17:05:58Z</time>
      </trkpt>
      <trkpt lat="49.32895" lon="1.1636">
        <ele>80</ele>
        <time>2017-04-25T17:05:58Z</time>
      </trkpt>
      <trkpt lat="49.32902" lon="1.16361">
        <ele>80</ele>
        <time>2017-04-25T17:05:58Z</time>
      </trkpt>
      <trkpt lat="49.32907" lon="1.1636">
        <ele>80</ele>
        <time>2017-04-25T17:05:58Z</time>
      </trkpt>
      <trkpt lat="49.32912" lon="1.1636">
        <ele>80</ele>
        <time>2017-04-25T17:06:14Z</time>
      </trkpt>
      <trkpt lat="49.32917" lon="1.16363">
        <ele>80</ele>
        <time>2017-04-25T17:06:14Z</time>
      </trkpt>
      <trkpt lat="49.32922" lon="1.16365">
        <ele>80</ele>
        <time>2017-04-25T17:06:14Z</time>
      </trkpt>
      <trkpt lat="49.32926" lon="1.16367">
        <ele>80</ele>
        <time>2017-04-25T17:06:14Z</time>
      </trkpt>
      <trkpt lat="49.32931" lon="1.16369">
        <ele>80</ele>
        <time>2017-04-25T17:06:30Z</time>
      </trkpt>
      <trkpt lat="49.32937" lon="1.16372">
        <ele>80</ele>
        <time>2017-04-25T17:06:30Z</time>
      </trkpt>
      <trkpt lat="49.32944" lon="1.16372">
        <ele>80</ele>
        <time>2017-04-25T17:06:30Z</time>
      </trkpt>
      <trkpt lat="49.32949" lon="1.16374">
        <ele>80</ele>
        <time>2017-04-25T17:06:30Z</time>
      </trkpt>
      <trkpt lat="49.32954" lon="1.16378">
        <ele>87</ele>
        <time>2017-04-25T17:06:46Z</time>
      </trkpt>
      <trkpt lat="49.32956" lon="1.16378">
        <ele>87</ele>
        <time>2017-04-25T17:06:46Z</time>
      </trkpt>
      <trkpt lat="49.3296" lon="1.16378">
        <ele>87</ele>
        <time>2017-04-25T17:06:46Z</time>
      </trkpt>
      <trkpt lat="49.32964" lon="1.16378">
        <ele>87</ele>
        <time>2017-04-25T17:06:47Z</time>
      </trkpt>
      <trkpt lat="49.32968" lon="1.1638">
        <ele>87</ele>
        <time>2017-04-25T17:07:02Z</time>
      </trkpt>
      <trkpt lat="49.32971" lon="1.1638">
        <ele>87</ele>
        <time>2017-04-25T17:07:02Z</time>
      </trkpt>
      <trkpt lat="49.32973" lon="1.16383">
        <ele>87</ele>
        <time>2017-04-25T17:07:02Z</time>
      </trkpt>
      <trkpt lat="49.32976" lon="1.16386">
        <ele>87</ele>
        <time>2017-04-25T17:07:02Z</time>
      </trkpt>
      <trkpt lat="49.32981" lon="1.16387">
        <ele>87</ele>
        <time>2017-04-25T17:07:18Z</time>
      </trkpt>
      <trkpt lat="49.32984" lon="1.16388">
        <ele>87</ele>
        <time>2017-04-25T17:07:18Z</time>
      </trkpt>
      <trkpt lat="49.32993" lon="1.16392">
        <ele>87</ele>
        <time>2017-04-25T17:07:18Z</time>
      </trkpt>
      <trkpt lat="49.33" lon="1.16394">
        <ele>87</ele>
        <time>2017-04-25T17:07:19Z</time>
      </trkpt>
      <trkpt lat="49.33005" lon="1.16396">
        <ele>87</ele>
        <time>2017-04-25T17:07:34Z</time>
      </trkpt>
      <trkpt lat="49.33007" lon="1.16396">
        <ele>87</ele>
        <time>2017-04-25T17:07:34Z</time>
      </trkpt>
      <trkpt lat="49.33012" lon="1.16402">
        <ele>87</ele>
        <time>2017-04-25T17:07:34Z</time>
      </trkpt>
      <trkpt lat="49.33017" lon="1.16404">
        <ele>87</ele>
        <time>2017-04-25T17:07:34Z</time>
      </trkpt>
      <trkpt lat="49.33021" lon="1.1641">
        <ele>87</ele>
        <time>2017-04-25T17:07:50Z</time>
      </trkpt>
      <trkpt lat="49.33027" lon="1.16418">
        <ele>87</ele>
        <time>2017-04-25T17:07:50Z</time>
      </trkpt>
      <trkpt lat="49.33031" lon="1.16421">
        <ele>87</ele>
        <time>2017-04-25T17:07:50Z</time>
      </trkpt>
      <trkpt lat="49.33032" lon="1.16424">
        <ele>87</ele>
        <time>2017-04-25T17:07:50Z</time>
      </trkpt>
      <trkpt lat="49.33034" lon="1.16427">
        <ele>87</ele>
        <time>2017-04-25T17:08:06Z</time>
      </trkpt>
      <trkpt lat="49.33035" lon="1.16428">
        <ele>87</ele>
        <time>2017-04-25T17:08:06Z</time>
      </trkpt>
      <trkpt lat="49.33039" lon="1.16435">
        <ele>87</ele>
        <time>2017-04-25T17:08:06Z</time>
      </trkpt>
      <trkpt lat="49.33039" lon="1.16441">
        <ele>87</ele>
        <time>2017-04-25T17:08:06Z</time>
      </trkpt>
      <trkpt lat="49.33033" lon="1.16445">
        <ele>87</ele>
        <time>2017-04-25T17:08:34Z</time>
      </trkpt>
      <trkpt lat="49.33036" lon="1.16453">
        <ele>87</ele>
        <time>2017-04-25T17:08:34Z</time>
      </trkpt>
      <trkpt lat="49.33039" lon="1.16454">
        <ele>87</ele>
        <time>2017-04-25T17:08:34Z</time>
      </trkpt>
      <trkpt lat="49.33044" lon="1.16457">
        <ele>84</ele>
        <time>2017-04-25T17:08:34Z</time>
      </trkpt>
      <trkpt lat="49.33047" lon="1.16458">
        <ele>84</ele>
        <time>2017-04-25T17:08:34Z</time>
      </trkpt>
      <trkpt lat="49.33054" lon="1.16466">
        <ele>85</ele>
        <time>2017-04-25T17:08:50Z</time>
      </trkpt>
      <trkpt lat="49.33059" lon="1.16471">
        <ele>85</ele>
        <time>2017-04-25T17:08:51Z</time>
      </trkpt>
      <trkpt lat="49.33063" lon="1.16478">
        <ele>85</ele>
        <time>2017-04-25T17:08:51Z</time>
      </trkpt>
      <trkpt lat="49.33067" lon="1.16482">
        <ele>85</ele>
        <time>2017-04-25T17:08:51Z</time>
      </trkpt>
      <trkpt lat="49.33072" lon="1.16487">
        <ele>85</ele>
        <time>2017-04-25T17:09:06Z</time>
      </trkpt>
      <trkpt lat="49.33075" lon="1.1649">
        <ele>85</ele>
        <time>2017-04-25T17:09:06Z</time>
      </trkpt>
      <trkpt lat="49.33079" lon="1.16492">
        <ele>85</ele>
        <time>2017-04-25T17:09:06Z</time>
      </trkpt>
      <trkpt lat="49.33084" lon="1.16494">
        <ele>85</ele>
        <time>2017-04-25T17:09:07Z</time>
      </trkpt>
      <trkpt lat="49.33089" lon="1.16497">
        <ele>85</ele>
        <time>2017-04-25T17:09:22Z</time>
      </trkpt>
      <trkpt lat="49.33095" lon="1.16498">
        <ele>85</ele>
        <time>2017-04-25T17:09:22Z</time>
      </trkpt>
      <trkpt lat="49.331" lon="1.16499">
        <ele>85</ele>
        <time>2017-04-25T17:09:22Z</time>
      </trkpt>
      <trkpt lat="49.33103" lon="1.165">
        <ele>85</ele>
        <time>2017-04-25T17:09:22Z</time>
      </trkpt>
      <trkpt lat="49.33108" lon="1.16502">
        <ele>85</ele>
        <time>2017-04-25T17:09:38Z</time>
      </trkpt>
      <trkpt lat="49.33113" lon="1.16503">
        <ele>85</ele>
        <time>2017-04-25T17:09:38Z</time>
      </trkpt>
      <trkpt lat="49.33117" lon="1.16505">
        <ele>85</ele>
        <time>2017-04-25T17:09:38Z</time>
      </trkpt>
      <trkpt lat="49.33122" lon="1.16508">
        <ele>85</ele>
        <time>2017-04-25T17:09:39Z</time>
      </trkpt>
      <trkpt lat="49.33128" lon="1.16511">
        <ele>82</ele>
        <time>2017-04-25T17:09:54Z</time>
      </trkpt>
      <trkpt lat="49.33131" lon="1.16511">
        <ele>82</ele>
        <time>2017-04-25T17:09:54Z</time>
      </trkpt>
      <trkpt lat="49.33136" lon="1.16514">
        <ele>82</ele>
        <time>2017-04-25T17:09:54Z</time>
      </trkpt>
      <trkpt lat="49.33142" lon="1.16519">
        <ele>82</ele>
        <time>2017-04-25T17:09:54Z</time>
      </trkpt>
      <trkpt lat="49.33146" lon="1.1652">
        <ele>82</ele>
        <time>2017-04-25T17:10:10Z</time>
      </trkpt>
      <trkpt lat="49.33151" lon="1.1652">
        <ele>82</ele>
        <time>2017-04-25T17:10:10Z</time>
      </trkpt>
      <trkpt lat="49.33156" lon="1.16521">
        <ele>82</ele>
        <time>2017-04-25T17:10:10Z</time>
      </trkpt>
      <trkpt lat="49.33162" lon="1.16523">
        <ele>82</ele>
        <time>2017-04-25T17:10:10Z</time>
      </trkpt>
      <trkpt lat="49.33167" lon="1.16524">
        <ele>82</ele>
        <time>2017-04-25T17:10:26Z</time>
      </trkpt>
      <trkpt lat="49.3317" lon="1.16525">
        <ele>82</ele>
        <time>2017-04-25T17:10:26Z</time>
      </trkpt>
      <trkpt lat="49.33174" lon="1.16527">
        <ele>82</ele>
        <time>2017-04-25T17:10:26Z</time>
      </trkpt>
      <trkpt lat="49.33181" lon="1.16529">
        <ele>82</ele>
        <time>2017-04-25T17:10:26Z</time>
      </trkpt>
      <trkpt lat="49.33187" lon="1.16529">
        <ele>82</ele>
        <time>2017-04-25T17:10:42Z</time>
      </trkpt>
      <trkpt lat="49.33191" lon="1.16531">
        <ele>82</ele>
        <time>2017-04-25T17:10:42Z</time>
      </trkpt>
      <trkpt lat="49.33195" lon="1.16532">
        <ele>82</ele>
        <time>2017-04-25T17:10:42Z</time>
      </trkpt>
      <trkpt lat="49.33202" lon="1.16535">
        <ele>82</ele>
        <time>2017-04-25T17:10:43Z</time>
      </trkpt>
      <trkpt lat="49.33206" lon="1.16538">
        <ele>82</ele>
        <time>2017-04-25T17:10:58Z</time>
      </trkpt>
      <trkpt lat="49.33211" lon="1.1654">
        <ele>79</ele>
        <time>2017-04-25T17:10:58Z</time>
      </trkpt>
      <trkpt lat="49.33214" lon="1.16539">
        <ele>79</ele>
        <time>2017-04-25T17:10:58Z</time>
      </trkpt>
      <trkpt lat="49.33218" lon="1.16539">
        <ele>79</ele>
        <time>2017-04-25T17:10:58Z</time>
      </trkpt>
      <trkpt lat="49.33223" lon="1.16541">
        <ele>79</ele>
        <time>2017-04-25T17:11:14Z</time>
      </trkpt>
      <trkpt lat="49.33228" lon="1.16544">
        <ele>89</ele>
        <time>2017-04-25T17:11:14Z</time>
      </trkpt>
      <trkpt lat="49.33234" lon="1.16548">
        <ele>89</ele>
        <time>2017-04-25T17:11:14Z</time>
      </trkpt>
      <trkpt lat="49.33241" lon="1.16549">
        <ele>89</ele>
        <time>2017-04-25T17:11:14Z</time>
      </trkpt>
      <trkpt lat="49.33246" lon="1.16552">
        <ele>89</ele>
        <time>2017-04-25T17:11:30Z</time>
      </trkpt>
      <trkpt lat="49.33251" lon="1.16555">
        <ele>89</ele>
        <time>2017-04-25T17:11:30Z</time>
      </trkpt>
      <trkpt lat="49.33257" lon="1.16557">
        <ele>89</ele>
        <time>2017-04-25T17:11:30Z</time>
      </trkpt>
      <trkpt lat="49.33259" lon="1.16558">
        <ele>89</ele>
        <time>2017-04-25T17:11:30Z</time>
      </trkpt>
      <trkpt lat="49.33264" lon="1.16561">
        <ele>89</ele>
        <time>2017-04-25T17:11:46Z</time>
      </trkpt>
      <trkpt lat="49.33269" lon="1.16563">
        <ele>89</ele>
        <time>2017-04-25T17:11:46Z</time>
      </trkpt>
      <trkpt lat="49.33273" lon="1.16566">
        <ele>89</ele>
        <time>2017-04-25T17:11:46Z</time>
      </trkpt>
      <trkpt lat="49.33277" lon="1.1657">
        <ele>89</ele>
        <time>2017-04-25T17:11:46Z</time>
      </trkpt>
      <trkpt lat="49.3328" lon="1.16575">
        <ele>89</ele>
        <time>2017-04-25T17:12:02Z</time>
      </trkpt>
      <trkpt lat="49.33286" lon="1.16581">
        <ele>89</ele>
        <time>2017-04-25T17:12:02Z</time>
      </trkpt>
      <trkpt lat="49.33289" lon="1.16583">
        <ele>89</ele>
        <time>2017-04-25T17:12:02Z</time>
      </trkpt>
      <trkpt lat="49.33294" lon="1.16587">
        <ele>86</ele>
        <time>2017-04-25T17:12:02Z</time>
      </trkpt>
      <trkpt lat="49.33297" lon="1.16591">
        <ele>86</ele>
        <time>2017-04-25T17:12:18Z</time>
      </trkpt>
      <trkpt lat="49.333" lon="1.16597">
        <ele>86</ele>
        <time>2017-04-25T17:12:18Z</time>
      </trkpt>
      <trkpt lat="49.33302" lon="1.16602">
        <ele>86</ele>
        <time>2017-04-25T17:12:18Z</time>
      </trkpt>
      <trkpt lat="49.33307" lon="1.16608">
        <ele>86</ele>
        <time>2017-04-25T17:12:18Z</time>
      </trkpt>
      <trkpt lat="49.33312" lon="1.16616">
        <ele>86</ele>
        <time>2017-04-25T17:12:34Z</time>
      </trkpt>
      <trkpt lat="49.33314" lon="1.16621">
        <ele>86</ele>
        <time>2017-04-25T17:12:34Z</time>
      </trkpt>
      <trkpt lat="49.33319" lon="1.16625">
        <ele>92</ele>
        <time>2017-04-25T17:12:34Z</time>
      </trkpt>
      <trkpt lat="49.33322" lon="1.1663">
        <ele>92</ele>
        <time>2017-04-25T17:12:34Z</time>
      </trkpt>
      <trkpt lat="49.33325" lon="1.16634">
        <ele>92</ele>
        <time>2017-04-25T17:12:50Z</time>
      </trkpt>
      <trkpt lat="49.33329" lon="1.16641">
        <ele>92</ele>
        <time>2017-04-25T17:12:50Z</time>
      </trkpt>
      <trkpt lat="49.33332" lon="1.16645">
        <ele>92</ele>
        <time>2017-04-25T17:12:50Z</time>
      </trkpt>
      <trkpt lat="49.33337" lon="1.16648">
        <ele>92</ele>
        <time>2017-04-25T17:12:51Z</time>
      </trkpt>
      <trkpt lat="49.3334" lon="1.16653">
        <ele>92</ele>
        <time>2017-04-25T17:13:06Z</time>
      </trkpt>
      <trkpt lat="49.33345" lon="1.16658">
        <ele>92</ele>
        <time>2017-04-25T17:13:06Z</time>
      </trkpt>
      <trkpt lat="49.33349" lon="1.16664">
        <ele>92</ele>
        <time>2017-04-25T17:13:06Z</time>
      </trkpt>
      <trkpt lat="49.33353" lon="1.16668">
        <ele>92</ele>
        <time>2017-04-25T17:13:06Z</time>
      </trkpt>
      <trkpt lat="49.33356" lon="1.16674">
        <ele>92</ele>
        <time>2017-04-25T17:13:22Z</time>
      </trkpt>
      <trkpt lat="49.33359" lon="1.16682">
        <ele>92</ele>
        <time>2017-04-25T17:13:22Z</time>
      </trkpt>
      <trkpt lat="49.33362" lon="1.16687">
        <ele>92</ele>
        <time>2017-04-25T17:13:22Z</time>
      </trkpt>
      <trkpt lat="49.33365" lon="1.16693">
        <ele>92</ele>
        <time>2017-04-25T17:13:22Z</time>
      </trkpt>
      <trkpt lat="49.33366" lon="1.16698">
        <ele>92</ele>
        <time>2017-04-25T17:13:38Z</time>
      </trkpt>
      <trkpt lat="49.33369" lon="1.16706">
        <ele>92</ele>
        <time>2017-04-25T17:13:38Z</time>
      </trkpt>
      <trkpt lat="49.3337" lon="1.16712">
        <ele>96</ele>
        <time>2017-04-25T17:13:38Z</time>
      </trkpt>
      <trkpt lat="49.33371" lon="1.16717">
        <ele>96</ele>
        <time>2017-04-25T17:13:38Z</time>
      </trkpt>
      <trkpt lat="49.33371" lon="1.16725">
        <ele>96</ele>
        <time>2017-04-25T17:13:54Z</time>
      </trkpt>
      <trkpt lat="49.33373" lon="1.16739">
        <ele>96</ele>
        <time>2017-04-25T17:13:54Z</time>
      </trkpt>
      <trkpt lat="49.33373" lon="1.16747">
        <ele>96</ele>
        <time>2017-04-25T17:13:55Z</time>
      </trkpt>
      <trkpt lat="49.33373" lon="1.16753">
        <ele>96</ele>
        <time>2017-04-25T17:13:55Z</time>
      </trkpt>
      <trkpt lat="49.33371" lon="1.16761">
        <ele>96</ele>
        <time>2017-04-25T17:14:14Z</time>
      </trkpt>
      <trkpt lat="49.33373" lon="1.16769">
        <ele>96</ele>
        <time>2017-04-25T17:14:14Z</time>
      </trkpt>
      <trkpt lat="49.33371" lon="1.16773">
        <ele>96</ele>
        <time>2017-04-25T17:14:14Z</time>
      </trkpt>
      <trkpt lat="49.33369" lon="1.16774">
        <ele>96</ele>
        <time>2017-04-25T17:14:15Z</time>
      </trkpt>
      <trkpt lat="49.33367" lon="1.16775">
        <ele>96</ele>
        <time>2017-04-25T17:14:15Z</time>
      </trkpt>
      <trkpt lat="49.33368" lon="1.16776">
        <ele>96</ele>
        <time>2017-04-25T17:14:42Z</time>
      </trkpt>
      <trkpt lat="49.33369" lon="1.16777">
        <ele>96</ele>
        <time>2017-04-25T17:14:42Z</time>
      </trkpt>
      <trkpt lat="49.33371" lon="1.16778">
        <ele>96</ele>
        <time>2017-04-25T17:14:42Z</time>
      </trkpt>
      <trkpt lat="49.33373" lon="1.16783">
        <ele>96</ele>
        <time>2017-04-25T17:14:42Z</time>
      </trkpt>
      <trkpt lat="49.33375" lon="1.16786">
        <ele>95</ele>
        <time>2017-04-25T17:14:42Z</time>
      </trkpt>
      <trkpt lat="49.33384" lon="1.16797">
        <ele>94</ele>
        <time>2017-04-25T17:14:58Z</time>
      </trkpt>
      <trkpt lat="49.33387" lon="1.16801">
        <ele>94</ele>
        <time>2017-04-25T17:14:58Z</time>
      </trkpt>
      <trkpt lat="49.33392" lon="1.16806">
        <ele>94</ele>
        <time>2017-04-25T17:14:58Z</time>
      </trkpt>
      <trkpt lat="49.33395" lon="1.16808">
        <ele>94</ele>
        <time>2017-04-25T17:14:58Z</time>
      </trkpt>
      <trkpt lat="49.33398" lon="1.1681">
        <ele>94</ele>
        <time>2017-04-25T17:15:14Z</time>
      </trkpt>
      <trkpt lat="49.33402" lon="1.16811">
        <ele>94</ele>
        <time>2017-04-25T17:15:14Z</time>
      </trkpt>
      <trkpt lat="49.33407" lon="1.16813">
        <ele>94</ele>
        <time>2017-04-25T17:15:14Z</time>
      </trkpt>
      <trkpt lat="49.33412" lon="1.16814">
        <ele>94</ele>
        <time>2017-04-25T17:15:14Z</time>
      </trkpt>
      <trkpt lat="49.3342" lon="1.16817">
        <ele>94</ele>
        <time>2017-04-25T17:15:30Z</time>
      </trkpt>
      <trkpt lat="49.33422" lon="1.16817">
        <ele>94</ele>
        <time>2017-04-25T17:15:30Z</time>
      </trkpt>
      <trkpt lat="49.33425" lon="1.16817">
        <ele>94</ele>
        <time>2017-04-25T17:15:30Z</time>
      </trkpt>
      <trkpt lat="49.3343" lon="1.16818">
        <ele>94</ele>
        <time>2017-04-25T17:15:31Z</time>
      </trkpt>
      <trkpt lat="49.33433" lon="1.16817">
        <ele>94</ele>
        <time>2017-04-25T17:15:46Z</time>
      </trkpt>
      <trkpt lat="49.33436" lon="1.1682">
        <ele>94</ele>
        <time>2017-04-25T17:15:46Z</time>
      </trkpt>
      <trkpt lat="49.33442" lon="1.16822">
        <ele>94</ele>
        <time>2017-04-25T17:15:46Z</time>
      </trkpt>
      <trkpt lat="49.33446" lon="1.16825">
        <ele>94</ele>
        <time>2017-04-25T17:15:47Z</time>
      </trkpt>
      <trkpt lat="49.33451" lon="1.16827">
        <ele>94</ele>
        <time>2017-04-25T17:16:02Z</time>
      </trkpt>
      <trkpt lat="49.33455" lon="1.16828">
        <ele>94</ele>
        <time>2017-04-25T17:16:02Z</time>
      </trkpt>
      <trkpt lat="49.33459" lon="1.16829">
        <ele>100</ele>
        <time>2017-04-25T17:16:02Z</time>
      </trkpt>
      <trkpt lat="49.33463" lon="1.16831">
        <ele>100</ele>
        <time>2017-04-25T17:16:02Z</time>
      </trkpt>
      <trkpt lat="49.33466" lon="1.16836">
        <ele>100</ele>
        <time>2017-04-25T17:16:18Z</time>
      </trkpt>
      <trkpt lat="49.33472" lon="1.16838">
        <ele>100</ele>
        <time>2017-04-25T17:16:18Z</time>
      </trkpt>
      <trkpt lat="49.33477" lon="1.16839">
        <ele>100</ele>
        <time>2017-04-25T17:16:18Z</time>
      </trkpt>
      <trkpt lat="49.33482" lon="1.16839">
        <ele>100</ele>
        <time>2017-04-25T17:16:18Z</time>
      </trkpt>
      <trkpt lat="49.33486" lon="1.1684">
        <ele>100</ele>
        <time>2017-04-25T17:16:34Z</time>
      </trkpt>
      <trkpt lat="49.33492" lon="1.16842">
        <ele>100</ele>
        <time>2017-04-25T17:16:34Z</time>
      </trkpt>
      <trkpt lat="49.33496" lon="1.16845">
        <ele>100</ele>
        <time>2017-04-25T17:16:34Z</time>
      </trkpt>
      <trkpt lat="49.33498" lon="1.16846">
        <ele>100</ele>
        <time>2017-04-25T17:16:34Z</time>
      </trkpt>
      <trkpt lat="49.33506" lon="1.16848">
        <ele>100</ele>
        <time>2017-04-25T17:16:50Z</time>
      </trkpt>
      <trkpt lat="49.33513" lon="1.16847">
        <ele>100</ele>
        <time>2017-04-25T17:16:50Z</time>
      </trkpt>
      <trkpt lat="49.33517" lon="1.16847">
        <ele>100</ele>
        <time>2017-04-25T17:16:50Z</time>
      </trkpt>
      <trkpt lat="49.33522" lon="1.16847">
        <ele>100</ele>
        <time>2017-04-25T17:16:50Z</time>
      </trkpt>
      <trkpt lat="49.33525" lon="1.16848">
        <ele>100</ele>
        <time>2017-04-25T17:17:06Z</time>
      </trkpt>
      <trkpt lat="49.33528" lon="1.16851">
        <ele>100</ele>
        <time>2017-04-25T17:17:06Z</time>
      </trkpt>
      <trkpt lat="49.33532" lon="1.16852">
        <ele>100</ele>
        <time>2017-04-25T17:17:06Z</time>
      </trkpt>
      <trkpt lat="49.33536" lon="1.16853">
        <ele>100</ele>
        <time>2017-04-25T17:17:06Z</time>
      </trkpt>
      <trkpt lat="49.33541" lon="1.16856">
        <ele>100</ele>
        <time>2017-04-25T17:17:22Z</time>
      </trkpt>
      <trkpt lat="49.33546" lon="1.16858">
        <ele>106</ele>
        <time>2017-04-25T17:17:22Z</time>
      </trkpt>
      <trkpt lat="49.33549" lon="1.16863">
        <ele>106</ele>
        <time>2017-04-25T17:17:22Z</time>
      </trkpt>
      <trkpt lat="49.33553" lon="1.16864">
        <ele>106</ele>
        <time>2017-04-25T17:17:22Z</time>
      </trkpt>
      <trkpt lat="49.33559" lon="1.16865">
        <ele>106</ele>
        <time>2017-04-25T17:17:38Z</time>
      </trkpt>
      <trkpt lat="49.33566" lon="1.16866">
        <ele>106</ele>
        <time>2017-04-25T17:17:38Z</time>
      </trkpt>
      <trkpt lat="49.33571" lon="1.16866">
        <ele>106</ele>
        <time>2017-04-25T17:17:38Z</time>
      </trkpt>
      <trkpt lat="49.33578" lon="1.16867">
        <ele>106</ele>
        <time>2017-04-25T17:17:38Z</time>
      </trkpt>
      <trkpt lat="49.33581" lon="1.16867">
        <ele>106</ele>
        <time>2017-04-25T17:17:54Z</time>
      </trkpt>
      <trkpt lat="49.33588" lon="1.16868">
        <ele>106</ele>
        <time>2017-04-25T17:17:54Z</time>
      </trkpt>
      <trkpt lat="49.33591" lon="1.16868">
        <ele>106</ele>
        <time>2017-04-25T17:17:54Z</time>
      </trkpt>
      <trkpt lat="49.33595" lon="1.16868">
        <ele>106</ele>
        <time>2017-04-25T17:17:54Z</time>
      </trkpt>
      <trkpt lat="49.33603" lon="1.16869">
        <ele>106</ele>
        <time>2017-04-25T17:18:18Z</time>
      </trkpt>
      <trkpt lat="49.33605" lon="1.1687">
        <ele>106</ele>
        <time>2017-04-25T17:18:18Z</time>
      </trkpt>
      <trkpt lat="49.33606" lon="1.1687">
        <ele>106</ele>
        <time>2017-04-25T17:18:18Z</time>
      </trkpt>
      <trkpt lat="49.33606" lon="1.16868">
        <ele>106</ele>
        <time>2017-04-25T17:18:18Z</time>
      </trkpt>
      <trkpt lat="49.33608" lon="1.16867">
        <ele>106</ele>
        <time>2017-04-25T17:18:18Z</time>
      </trkpt>
      <trkpt lat="49.33619" lon="1.16868">
        <ele>106</ele>
        <time>2017-04-25T17:19:02Z</time>
      </trkpt>
      <trkpt lat="49.33619" lon="1.16869">
        <ele>106</ele>
        <time>2017-04-25T17:19:02Z</time>
      </trkpt>
      <trkpt lat="49.3362" lon="1.1687">
        <ele>106</ele>
        <time>2017-04-25T17:19:02Z</time>
      </trkpt>
      <trkpt lat="49.33621" lon="1.16871">
        <ele>106</ele>
        <time>2017-04-25T17:19:02Z</time>
      </trkpt>
      <trkpt lat="49.33621" lon="1.1687">
        <ele>106</ele>
        <time>2017-04-25T17:19:03Z</time>
      </trkpt>
      <trkpt lat="49.33621" lon="1.16871">
        <ele>106</ele>
        <time>2017-04-25T17:21:50Z</time>
      </trkpt>
      <trkpt lat="49.33621" lon="1.16873">
        <ele>106</ele>
        <time>2017-04-25T17:21:50Z</time>
      </trkpt>
      <trkpt lat="49.33622" lon="1.16875">
        <ele>106</ele>
        <time>2017-04-25T17:21:50Z</time>
      </trkpt>
      <trkpt lat="49.33624" lon="1.1688">
        <ele>107</ele>
        <time>2017-04-25T17:21:50Z</time>
      </trkpt>
      <trkpt lat="49.33626" lon="1.16885">
        <ele>110</ele>
        <time>2017-04-25T17:21:51Z</time>
      </trkpt>
      <trkpt lat="49.3363" lon="1.16891">
        <ele>110</ele>
        <time>2017-04-25T17:22:06Z</time>
      </trkpt>
      <trkpt lat="49.33633" lon="1.16895">
        <ele>110</ele>
        <time>2017-04-25T17:22:06Z</time>
      </trkpt>
      <trkpt lat="49.33635" lon="1.169">
        <ele>110</ele>
        <time>2017-04-25T17:22:06Z</time>
      </trkpt>
      <trkpt lat="49.33639" lon="1.16908">
        <ele>110</ele>
        <time>2017-04-25T17:22:06Z</time>
      </trkpt>
      <trkpt lat="49.33645" lon="1.16914">
        <ele>110</ele>
        <time>2017-04-25T17:22:22Z</time>
      </trkpt>
      <trkpt lat="49.3365" lon="1.1692">
        <ele>110</ele>
        <time>2017-04-25T17:22:22Z</time>
      </trkpt>
      <trkpt lat="49.33654" lon="1.16924">
        <ele>110</ele>
        <time>2017-04-25T17:22:22Z</time>
      </trkpt>
      <trkpt lat="49.33658" lon="1.16927">
        <ele>110</ele>
        <time>2017-04-25T17:22:22Z</time>
      </trkpt>
      <trkpt lat="49.3366" lon="1.16934">
        <ele>110</ele>
        <time>2017-04-25T17:22:38Z</time>
      </trkpt>
      <trkpt lat="49.33664" lon="1.16939">
        <ele>110</ele>
        <time>2017-04-25T17:22:38Z</time>
      </trkpt>
      <trkpt lat="49.33668" lon="1.16949">
        <ele>110</ele>
        <time>2017-04-25T17:22:38Z</time>
      </trkpt>
      <trkpt lat="49.33669" lon="1.16954">
        <ele>110</ele>
        <time>2017-04-25T17:22:39Z</time>
      </trkpt>
      <trkpt lat="49.33672" lon="1.16959">
        <ele>112</ele>
        <time>2017-04-25T17:22:54Z</time>
      </trkpt>
      <trkpt lat="49.33675" lon="1.16964">
        <ele>112</ele>
        <time>2017-04-25T17:22:54Z</time>
      </trkpt>
      <trkpt lat="49.33676" lon="1.16969">
        <ele>112</ele>
        <time>2017-04-25T17:22:55Z</time>
      </trkpt>
      <trkpt lat="49.33679" lon="1.16972">
        <ele>112</ele>
        <time>2017-04-25T17:22:55Z</time>
      </trkpt>
      <trkpt lat="49.33684" lon="1.16977">
        <ele>112</ele>
        <time>2017-04-25T17:23:10Z</time>
      </trkpt>
      <trkpt lat="49.33688" lon="1.16982">
        <ele>112</ele>
        <time>2017-04-25T17:23:10Z</time>
      </trkpt>
      <trkpt lat="49.33692" lon="1.16985">
        <ele>112</ele>
        <time>2017-04-25T17:23:10Z</time>
      </trkpt>
      <trkpt lat="49.33696" lon="1.16991">
        <ele>112</ele>
        <time>2017-04-25T17:23:10Z</time>
      </trkpt>
      <trkpt lat="49.337" lon="1.16995">
        <ele>112</ele>
        <time>2017-04-25T17:23:26Z</time>
      </trkpt>
      <trkpt lat="49.33701" lon="1.16998">
        <ele>112</ele>
        <time>2017-04-25T17:23:26Z</time>
      </trkpt>
      <trkpt lat="49.33707" lon="1.17005">
        <ele>112</ele>
        <time>2017-04-25T17:23:26Z</time>
      </trkpt>
      <trkpt lat="49.33711" lon="1.1701">
        <ele>115</ele>
        <time>2017-04-25T17:23:26Z</time>
      </trkpt>
      <trkpt lat="49.33713" lon="1.17014">
        <ele>115</ele>
        <time>2017-04-25T17:23:42Z</time>
      </trkpt>
      <trkpt lat="49.33719" lon="1.17023">
        <ele>115</ele>
        <time>2017-04-25T17:23:42Z</time>
      </trkpt>
      <trkpt lat="49.33723" lon="1.17027">
        <ele>115</ele>
        <time>2017-04-25T17:23:42Z</time>
      </trkpt>
      <trkpt lat="49.33727" lon="1.1703">
        <ele>115</ele>
        <time>2017-04-25T17:23:42Z</time>
      </trkpt>
      <trkpt lat="49.33731" lon="1.17033">
        <ele>115</ele>
        <time>2017-04-25T17:23:58Z</time>
      </trkpt>
      <trkpt lat="49.33736" lon="1.17041">
        <ele>115</ele>
        <time>2017-04-25T17:23:58Z</time>
      </trkpt>
      <trkpt lat="49.33737" lon="1.17043">
        <ele>117</ele>
        <time>2017-04-25T17:23:58Z</time>
      </trkpt>
      <trkpt lat="49.33739" lon="1.17046">
        <ele>117</ele>
        <time>2017-04-25T17:23:58Z</time>
      </trkpt>
      <trkpt lat="49.33742" lon="1.17052">
        <ele>117</ele>
        <time>2017-04-25T17:24:14Z</time>
      </trkpt>
      <trkpt lat="49.33743" lon="1.17057">
        <ele>117</ele>
        <time>2017-04-25T17:24:14Z</time>
      </trkpt>
      <trkpt lat="49.33746" lon="1.17061">
        <ele>117</ele>
        <time>2017-04-25T17:24:14Z</time>
      </trkpt>
      <trkpt lat="49.33748" lon="1.17064">
        <ele>117</ele>
        <time>2017-04-25T17:24:15Z</time>
      </trkpt>
      <trkpt lat="49.33751" lon="1.17069">
        <ele>117</ele>
        <time>2017-04-25T17:24:30Z</time>
      </trkpt>
      <trkpt lat="49.33755" lon="1.17077">
        <ele>117</ele>
        <time>2017-04-25T17:24:30Z</time>
      </trkpt>
      <trkpt lat="49.3376" lon="1.17083">
        <ele>117</ele>
        <time>2017-04-25T17:24:30Z</time>
      </trkpt>
      <trkpt lat="49.33765" lon="1.17087">
        <ele>117</ele>
        <time>2017-04-25T17:24:30Z</time>
      </trkpt>
      <trkpt lat="49.33767" lon="1.17092">
        <ele>117</ele>
        <time>2017-04-25T17:24:46Z</time>
      </trkpt>
      <trkpt lat="49.33768" lon="1.17097">
        <ele>117</ele>
        <time>2017-04-25T17:24:46Z</time>
      </trkpt>
      <trkpt lat="49.33771" lon="1.171">
        <ele>117</ele>
        <time>2017-04-25T17:24:46Z</time>
      </trkpt>
      <trkpt lat="49.33774" lon="1.17106">
        <ele>117</ele>
        <time>2017-04-25T17:24:46Z</time>
      </trkpt>
      <trkpt lat="49.33776" lon="1.17108">
        <ele>117</ele>
        <time>2017-04-25T17:25:02Z</time>
      </trkpt>
      <trkpt lat="49.33779" lon="1.17111">
        <ele>117</ele>
        <time>2017-04-25T17:25:02Z</time>
      </trkpt>
      <trkpt lat="49.33787" lon="1.17117">
        <ele>117</ele>
        <time>2017-04-25T17:25:02Z</time>
      </trkpt>
      <trkpt lat="49.33792" lon="1.17123">
        <ele>120</ele>
        <time>2017-04-25T17:25:02Z</time>
      </trkpt>
      <trkpt lat="49.33799" lon="1.17131">
        <ele>121</ele>
        <time>2017-04-25T17:25:22Z</time>
      </trkpt>
      <trkpt lat="49.33801" lon="1.17135">
        <ele>121</ele>
        <time>2017-04-25T17:25:22Z</time>
      </trkpt>
      <trkpt lat="49.33803" lon="1.17138">
        <ele>121</ele>
        <time>2017-04-25T17:25:22Z</time>
      </trkpt>
      <trkpt lat="49.33805" lon="1.17141">
        <ele>121</ele>
        <time>2017-04-25T17:25:23Z</time>
      </trkpt>
      <trkpt lat="49.33807" lon="1.17143">
        <ele>121</ele>
        <time>2017-04-25T17:25:23Z</time>
      </trkpt>
      <trkpt lat="49.33811" lon="1.17145">
        <ele>121</ele>
        <time>2017-04-25T17:25:38Z</time>
      </trkpt>
      <trkpt lat="49.33815" lon="1.17149">
        <ele>121</ele>
        <time>2017-04-25T17:25:38Z</time>
      </trkpt>
      <trkpt lat="49.33817" lon="1.17154">
        <ele>121</ele>
        <time>2017-04-25T17:25:38Z</time>
      </trkpt>
      <trkpt lat="49.33819" lon="1.17158">
        <ele>121</ele>
        <time>2017-04-25T17:25:38Z</time>
      </trkpt>
      <trkpt lat="49.33823" lon="1.17161">
        <ele>121</ele>
        <time>2017-04-25T17:25:54Z</time>
      </trkpt>
      <trkpt lat="49.33826" lon="1.17167">
        <ele>121</ele>
        <time>2017-04-25T17:25:54Z</time>
      </trkpt>
      <trkpt lat="49.3383" lon="1.17174">
        <ele>121</ele>
        <time>2017-04-25T17:25:54Z</time>
      </trkpt>
      <trkpt lat="49.33833" lon="1.17182">
        <ele>121</ele>
        <time>2017-04-25T17:25:55Z</time>
      </trkpt>
      <trkpt lat="49.33839" lon="1.17188">
        <ele>121</ele>
        <time>2017-04-25T17:26:10Z</time>
      </trkpt>
      <trkpt lat="49.33842" lon="1.17192">
        <ele>121</ele>
        <time>2017-04-25T17:26:10Z</time>
      </trkpt>
      <trkpt lat="49.33846" lon="1.17198">
        <ele>121</ele>
        <time>2017-04-25T17:26:10Z</time>
      </trkpt>
      <trkpt lat="49.33848" lon="1.17201">
        <ele>121</ele>
        <time>2017-04-25T17:26:10Z</time>
      </trkpt>
      <trkpt lat="49.33851" lon="1.17204">
        <ele>121</ele>
        <time>2017-04-25T17:26:26Z</time>
      </trkpt>
      <trkpt lat="49.33857" lon="1.1721">
        <ele>122</ele>
        <time>2017-04-25T17:26:26Z</time>
      </trkpt>
      <trkpt lat="49.33862" lon="1.17213">
        <ele>122</ele>
        <time>2017-04-25T17:26:27Z</time>
      </trkpt>
      <trkpt lat="49.33865" lon="1.17214">
        <ele>122</ele>
        <time>2017-04-25T17:26:27Z</time>
      </trkpt>
      <trkpt lat="49.33867" lon="1.17213">
        <ele>122</ele>
        <time>2017-04-25T17:26:42Z</time>
      </trkpt>
      <trkpt lat="49.33872" lon="1.1721">
        <ele>122</ele>
        <time>2017-04-25T17:26:42Z</time>
      </trkpt>
      <trkpt lat="49.33875" lon="1.17207">
        <ele>124</ele>
        <time>2017-04-25T17:26:42Z</time>
      </trkpt>
      <trkpt lat="49.33878" lon="1.17206">
        <ele>124</ele>
        <time>2017-04-25T17:26:42Z</time>
      </trkpt>
      <trkpt lat="49.3388" lon="1.17203">
        <ele>124</ele>
        <time>2017-04-25T17:26:58Z</time>
      </trkpt>
      <trkpt lat="49.33885" lon="1.17199">
        <ele>124</ele>
        <time>2017-04-25T17:26:58Z</time>
      </trkpt>
      <trkpt lat="49.33888" lon="1.17194">
        <ele>124</ele>
        <time>2017-04-25T17:26:58Z</time>
      </trkpt>
      <trkpt lat="49.33894" lon="1.17186">
        <ele>124</ele>
        <time>2017-04-25T17:26:59Z</time>
      </trkpt>
      <trkpt lat="49.33899" lon="1.17182">
        <ele>124</ele>
        <time>2017-04-25T17:27:14Z</time>
      </trkpt>
      <trkpt lat="49.33901" lon="1.17178">
        <ele>124</ele>
        <time>2017-04-25T17:27:14Z</time>
      </trkpt>
      <trkpt lat="49.33904" lon="1.17174">
        <ele>124</ele>
        <time>2017-04-25T17:27:14Z</time>
      </trkpt>
      <trkpt lat="49.33908" lon="1.1717">
        <ele>124</ele>
        <time>2017-04-25T17:27:15Z</time>
      </trkpt>
      <trkpt lat="49.3391" lon="1.17166">
        <ele>124</ele>
        <time>2017-04-25T17:27:38Z</time>
      </trkpt>
      <trkpt lat="49.33911" lon="1.17166">
        <ele>124</ele>
        <time>2017-04-25T17:27:38Z</time>
      </trkpt>
      <trkpt lat="49.33914" lon="1.17167">
        <ele>124</ele>
        <time>2017-04-25T17:27:38Z</time>
      </trkpt>
      <trkpt lat="49.33916" lon="1.17167">
        <ele>124</ele>
        <time>2017-04-25T17:27:38Z</time>
      </trkpt>
      <trkpt lat="49.33918" lon="1.17167">
        <ele>124</ele>
        <time>2017-04-25T17:27:38Z</time>
      </trkpt>
      <trkpt lat="49.3392" lon="1.17166">
        <ele>124</ele>
        <time>2017-04-25T17:27:54Z</time>
      </trkpt>
      <trkpt lat="49.33924" lon="1.17163">
        <ele>124</ele>
        <time>2017-04-25T17:27:54Z</time>
      </trkpt>
      <trkpt lat="49.33928" lon="1.17158">
        <ele>124</ele>
        <time>2017-04-25T17:27:54Z</time>
      </trkpt>
      <trkpt lat="49.33933" lon="1.17154">
        <ele>124</ele>
        <time>2017-04-25T17:27:54Z</time>
      </trkpt>
      <trkpt lat="49.33936" lon="1.17151">
        <ele>124</ele>
        <time>2017-04-25T17:28:14Z</time>
      </trkpt>
      <trkpt lat="49.33937" lon="1.17151">
        <ele>124</ele>
        <time>2017-04-25T17:28:15Z</time>
      </trkpt>
      <trkpt lat="49.3394" lon="1.17153">
        <ele>124</ele>
        <time>2017-04-25T17:28:15Z</time>
      </trkpt>
      <trkpt lat="49.33945" lon="1.17155">
        <ele>124</ele>
        <time>2017-04-25T17:28:15Z</time>
      </trkpt>
      <trkpt lat="49.33949" lon="1.17156">
        <ele>124</ele>
        <time>2017-04-25T17:28:15Z</time>
      </trkpt>
      <trkpt lat="49.33953" lon="1.17158">
        <ele>124</ele>
        <time>2017-04-25T17:28:30Z</time>
      </trkpt>
      <trkpt lat="49.33957" lon="1.1716">
        <ele>124</ele>
        <time>2017-04-25T17:28:30Z</time>
      </trkpt>
      <trkpt lat="49.33964" lon="1.17161">
        <ele>128</ele>
        <time>2017-04-25T17:28:30Z</time>
      </trkpt>
      <trkpt lat="49.3397" lon="1.1716">
        <ele>128</ele>
        <time>2017-04-25T17:28:30Z</time>
      </trkpt>
      <trkpt lat="49.33975" lon="1.17161">
        <ele>128</ele>
        <time>2017-04-25T17:28:46Z</time>
      </trkpt>
      <trkpt lat="49.33979" lon="1.17163">
        <ele>128</ele>
        <time>2017-04-25T17:28:46Z</time>
      </trkpt>
      <trkpt lat="49.33984" lon="1.17164">
        <ele>128</ele>
        <time>2017-04-25T17:28:46Z</time>
      </trkpt>
      <trkpt lat="49.33988" lon="1.17166">
        <ele>128</ele>
        <time>2017-04-25T17:28:46Z</time>
      </trkpt>
      <trkpt lat="49.33989" lon="1.17165">
        <ele>128</ele>
        <time>2017-04-25T17:29:06Z</time>
      </trkpt>
      <trkpt lat="49.33991" lon="1.17165">
        <ele>128</ele>
        <time>2017-04-25T17:29:06Z</time>
      </trkpt>
      <trkpt lat="49.33993" lon="1.17167">
        <ele>128</ele>
        <time>2017-04-25T17:29:06Z</time>
      </trkpt>
      <trkpt lat="49.33995" lon="1.17169">
        <ele>128</ele>
        <time>2017-04-25T17:29:06Z</time>
      </trkpt>
      <trkpt lat="49.33999" lon="1.17169">
        <ele>128</ele>
        <time>2017-04-25T17:29:07Z</time>
      </trkpt>
      <trkpt lat="49.34004" lon="1.17168">
        <ele>128</ele>
        <time>2017-04-25T17:29:22Z</time>
      </trkpt>
      <trkpt lat="49.34008" lon="1.17167">
        <ele>128</ele>
        <time>2017-04-25T17:29:22Z</time>
      </trkpt>
      <trkpt lat="49.34012" lon="1.17169">
        <ele>128</ele>
        <time>2017-04-25T17:29:22Z</time>
      </trkpt>
      <trkpt lat="49.34021" lon="1.17173">
        <ele>128</ele>
        <time>2017-04-25T17:29:22Z</time>
      </trkpt>
      <trkpt lat="49.34025" lon="1.17174">
        <ele>128</ele>
        <time>2017-04-25T17:29:38Z</time>
      </trkpt>
      <trkpt lat="49.34028" lon="1.17174">
        <ele>128</ele>
        <time>2017-04-25T17:29:38Z</time>
      </trkpt>
      <trkpt lat="49.34033" lon="1.17174">
        <ele>128</ele>
        <time>2017-04-25T17:29:38Z</time>
      </trkpt>
      <trkpt lat="49.34036" lon="1.17173">
        <ele>128</ele>
        <time>2017-04-25T17:29:38Z</time>
      </trkpt>
      <trkpt lat="49.34041" lon="1.17169">
        <ele>128</ele>
        <time>2017-04-25T17:29:54Z</time>
      </trkpt>
      <trkpt lat="49.34047" lon="1.17169">
        <ele>130</ele>
        <time>2017-04-25T17:29:54Z</time>
      </trkpt>
      <trkpt lat="49.34052" lon="1.17167">
        <ele>130</ele>
        <time>2017-04-25T17:29:54Z</time>
      </trkpt>
      <trkpt lat="49.34058" lon="1.17165">
        <ele>130</ele>
        <time>2017-04-25T17:29:54Z</time>
      </trkpt>
      <trkpt lat="49.34062" lon="1.17164">
        <ele>130</ele>
        <time>2017-04-25T17:30:10Z</time>
      </trkpt>
      <trkpt lat="49.34066" lon="1.17164">
        <ele>130</ele>
        <time>2017-04-25T17:30:10Z</time>
      </trkpt>
      <trkpt lat="49.34071" lon="1.17164">
        <ele>130</ele>
        <time>2017-04-25T17:30:10Z</time>
      </trkpt>
      <trkpt lat="49.34074" lon="1.17166">
        <ele>130</ele>
        <time>2017-04-25T17:30:10Z</time>
      </trkpt>
      <trkpt lat="49.34076" lon="1.17167">
        <ele>130</ele>
        <time>2017-04-25T17:30:26Z</time>
      </trkpt>
      <trkpt lat="49.34082" lon="1.17167">
        <ele>130</ele>
        <time>2017-04-25T17:30:26Z</time>
      </trkpt>
      <trkpt lat="49.34091" lon="1.17169">
        <ele>130</ele>
        <time>2017-04-25T17:30:26Z</time>
      </trkpt>
      <trkpt lat="49.34094" lon="1.17169">
        <ele>130</ele>
        <time>2017-04-25T17:30:26Z</time>
      </trkpt>
      <trkpt lat="49.34096" lon="1.1717">
        <ele>130</ele>
        <time>2017-04-25T17:30:42Z</time>
      </trkpt>
      <trkpt lat="49.341" lon="1.17172">
        <ele>130</ele>
        <time>2017-04-25T17:30:42Z</time>
      </trkpt>
      <trkpt lat="49.34104" lon="1.17171">
        <ele>130</ele>
        <time>2017-04-25T17:30:42Z</time>
      </trkpt>
      <trkpt lat="49.3411" lon="1.17174">
        <ele>130</ele>
        <time>2017-04-25T17:30:42Z</time>
      </trkpt>
      <trkpt lat="49.34115" lon="1.17177">
        <ele>130</ele>
        <time>2017-04-25T17:30:58Z</time>
      </trkpt>
      <trkpt lat="49.34118" lon="1.17179">
        <ele>130</ele>
        <time>2017-04-25T17:30:58Z</time>
      </trkpt>
      <trkpt lat="49.34122" lon="1.17182">
        <ele>130</ele>
        <time>2017-04-25T17:30:58Z</time>
      </trkpt>
      <trkpt lat="49.34126" lon="1.17186">
        <ele>127</ele>
        <time>2017-04-25T17:30:59Z</time>
      </trkpt>
      <trkpt lat="49.3413" lon="1.17189">
        <ele>127</ele>
        <time>2017-04-25T17:31:14Z</time>
      </trkpt>
      <trkpt lat="49.34135" lon="1.17193">
        <ele>127</ele>
        <time>2017-04-25T17:31:14Z</time>
      </trkpt>
      <trkpt lat="49.34139" lon="1.17197">
        <ele>127</ele>
        <time>2017-04-25T17:31:14Z</time>
      </trkpt>
      <trkpt lat="49.34143" lon="1.172">
        <ele>127</ele>
        <time>2017-04-25T17:31:14Z</time>
      </trkpt>
      <trkpt lat="49.34147" lon="1.17203">
        <ele>127</ele>
        <time>2017-04-25T17:31:30Z</time>
      </trkpt>
      <trkpt lat="49.34149" lon="1.17209">
        <ele>131</ele>
        <time>2017-04-25T17:31:30Z</time>
      </trkpt>
      <trkpt lat="49.34151" lon="1.17216">
        <ele>131</ele>
        <time>2017-04-25T17:31:30Z</time>
      </trkpt>
      <trkpt lat="49.34153" lon="1.1722">
        <ele>131</ele>
        <time>2017-04-25T17:31:30Z</time>
      </trkpt>
      <trkpt lat="49.34156" lon="1.17227">
        <ele>131</ele>
        <time>2017-04-25T17:31:46Z</time>
      </trkpt>
      <trkpt lat="49.34158" lon="1.17234">
        <ele>131</ele>
        <time>2017-04-25T17:31:46Z</time>
      </trkpt>
      <trkpt lat="49.34161" lon="1.17242">
        <ele>131</ele>
        <time>2017-04-25T17:31:46Z</time>
      </trkpt>
      <trkpt lat="49.34164" lon="1.17249">
        <ele>131</ele>
        <time>2017-04-25T17:31:47Z</time>
      </trkpt>
      <trkpt lat="49.34167" lon="1.17255">
        <ele>131</ele>
        <time>2017-04-25T17:32:02Z</time>
      </trkpt>
      <trkpt lat="49.34168" lon="1.17262">
        <ele>131</ele>
        <time>2017-04-25T17:32:02Z</time>
      </trkpt>
      <trkpt lat="49.34169" lon="1.17264">
        <ele>131</ele>
        <time>2017-04-25T17:32:02Z</time>
      </trkpt>
      <trkpt lat="49.34172" lon="1.17269">
        <ele>131</ele>
        <time>2017-04-25T17:32:02Z</time>
      </trkpt>
      <trkpt lat="49.34174" lon="1.17273">
        <ele>131</ele>
        <time>2017-04-25T17:32:18Z</time>
      </trkpt>
      <trkpt lat="49.34176" lon="1.17279">
        <ele>131</ele>
        <time>2017-04-25T17:32:18Z</time>
      </trkpt>
      <trkpt lat="49.34177" lon="1.17287">
        <ele>131</ele>
        <time>2017-04-25T17:32:18Z</time>
      </trkpt>
      <trkpt lat="49.34179" lon="1.17297">
        <ele>133</ele>
        <time>2017-04-25T17:32:19Z</time>
      </trkpt>
      <trkpt lat="49.3418" lon="1.17303">
        <ele>133</ele>
        <time>2017-04-25T17:32:34Z</time>
      </trkpt>
      <trkpt lat="49.34181" lon="1.17312">
        <ele>133</ele>
        <time>2017-04-25T17:32:34Z</time>
      </trkpt>
      <trkpt lat="49.34182" lon="1.17317">
        <ele>133</ele>
        <time>2017-04-25T17:32:34Z</time>
      </trkpt>
      <trkpt lat="49.34186" lon="1.17327">
        <ele>133</ele>
        <time>2017-04-25T17:32:34Z</time>
      </trkpt>
      <trkpt lat="49.34191" lon="1.17332">
        <ele>133</ele>
        <time>2017-04-25T17:32:50Z</time>
      </trkpt>
      <trkpt lat="49.34195" lon="1.17336">
        <ele>133</ele>
        <time>2017-04-25T17:32:50Z</time>
      </trkpt>
      <trkpt lat="49.342" lon="1.17341">
        <ele>133</ele>
        <time>2017-04-25T17:32:50Z</time>
      </trkpt>
      <trkpt lat="49.34204" lon="1.17346">
        <ele>133</ele>
        <time>2017-04-25T17:32:51Z</time>
      </trkpt>
      <trkpt lat="49.34209" lon="1.1735">
        <ele>133</ele>
        <time>2017-04-25T17:33:10Z</time>
      </trkpt>
      <trkpt lat="49.34211" lon="1.17351">
        <ele>133</ele>
        <time>2017-04-25T17:33:10Z</time>
      </trkpt>
      <trkpt lat="49.34213" lon="1.17353">
        <ele>133</ele>
        <time>2017-04-25T17:33:10Z</time>
      </trkpt>
      <trkpt lat="49.34216" lon="1.17355">
        <ele>133</ele>
        <time>2017-04-25T17:33:10Z</time>
      </trkpt>
      <trkpt lat="49.3422" lon="1.17358">
        <ele>133</ele>
        <time>2017-04-25T17:33:11Z</time>
      </trkpt>
      <trkpt lat="49.34223" lon="1.17358">
        <ele>133</ele>
        <time>2017-04-25T17:33:26Z</time>
      </trkpt>
      <trkpt lat="49.34229" lon="1.17357">
        <ele>133</ele>
        <time>2017-04-25T17:33:26Z</time>
      </trkpt>
      <trkpt lat="49.34233" lon="1.17357">
        <ele>133</ele>
        <time>2017-04-25T17:33:26Z</time>
      </trkpt>
      <trkpt lat="49.34241" lon="1.17355">
        <ele>133</ele>
        <time>2017-04-25T17:33:26Z</time>
      </trkpt>
      <trkpt lat="49.34248" lon="1.17352">
        <ele>133</ele>
        <time>2017-04-25T17:33:42Z</time>
      </trkpt>
      <trkpt lat="49.34255" lon="1.17351">
        <ele>133</ele>
        <time>2017-04-25T17:33:42Z</time>
      </trkpt>
      <trkpt lat="49.34258" lon="1.17353">
        <ele>133</ele>
        <time>2017-04-25T17:33:42Z</time>
      </trkpt>
      <trkpt lat="49.3426" lon="1.17354">
        <ele>133</ele>
        <time>2017-04-25T17:33:42Z</time>
      </trkpt>
      <trkpt lat="49.34263" lon="1.17353">
        <ele>133</ele>
        <time>2017-04-25T17:33:58Z</time>
      </trkpt>
      <trkpt lat="49.34267" lon="1.17353">
        <ele>133</ele>
        <time>2017-04-25T17:33:58Z</time>
      </trkpt>
      <trkpt lat="49.34273" lon="1.1735">
        <ele>133</ele>
        <time>2017-04-25T17:33:58Z</time>
      </trkpt>
      <trkpt lat="49.34276" lon="1.17349">
        <ele>133</ele>
        <time>2017-04-25T17:33:58Z</time>
      </trkpt>
      <trkpt lat="49.3428" lon="1.17348">
        <ele>133</ele>
        <time>2017-04-25T17:34:14Z</time>
      </trkpt>
      <trkpt lat="49.34285" lon="1.17347">
        <ele>133</ele>
        <time>2017-04-25T17:34:14Z</time>
      </trkpt>
      <trkpt lat="49.34291" lon="1.17344">
        <ele>133</ele>
        <time>2017-04-25T17:34:14Z</time>
      </trkpt>
      <trkpt lat="49.34295" lon="1.17343">
        <ele>135</ele>
        <time>2017-04-25T17:34:14Z</time>
      </trkpt>
      <trkpt lat="49.34299" lon="1.17343">
        <ele>135</ele>
        <time>2017-04-25T17:34:30Z</time>
      </trkpt>
      <trkpt lat="49.34303" lon="1.17341">
        <ele>135</ele>
        <time>2017-04-25T17:34:30Z</time>
      </trkpt>
      <trkpt lat="49.34309" lon="1.17341">
        <ele>135</ele>
        <time>2017-04-25T17:34:31Z</time>
      </trkpt>
      <trkpt lat="49.34312" lon="1.17341">
        <ele>135</ele>
        <time>2017-04-25T17:34:31Z</time>
      </trkpt>
      <trkpt lat="49.34315" lon="1.17341">
        <ele>135</ele>
        <time>2017-04-25T17:34:50Z</time>
      </trkpt>
      <trkpt lat="49.34317" lon="1.1734">
        <ele>135</ele>
        <time>2017-04-25T17:34:50Z</time>
      </trkpt>
      <trkpt lat="49.3432" lon="1.1734">
        <ele>135</ele>
        <time>2017-04-25T17:34:50Z</time>
      </trkpt>
      <trkpt lat="49.34323" lon="1.1734">
        <ele>135</ele>
        <time>2017-04-25T17:34:50Z</time>
      </trkpt>
      <trkpt lat="49.34325" lon="1.17339">
        <ele>135</ele>
        <time>2017-04-25T17:34:51Z</time>
      </trkpt>
      <trkpt lat="49.34329" lon="1.1734">
        <ele>135</ele>
        <time>2017-04-25T17:35:06Z</time>
      </trkpt>
      <trkpt lat="49.34335" lon="1.1734">
        <ele>135</ele>
        <time>2017-04-25T17:35:06Z</time>
      </trkpt>
      <trkpt lat="49.34341" lon="1.17339">
        <ele>135</ele>
        <time>2017-04-25T17:35:06Z</time>
      </trkpt>
      <trkpt lat="49.34345" lon="1.17338">
        <ele>135</ele>
        <time>2017-04-25T17:35:06Z</time>
      </trkpt>
      <trkpt lat="49.3435" lon="1.17335">
        <ele>135</ele>
        <time>2017-04-25T17:35:22Z</time>
      </trkpt>
      <trkpt lat="49.34353" lon="1.17335">
        <ele>135</ele>
        <time>2017-04-25T17:35:22Z</time>
      </trkpt>
      <trkpt lat="49.34358" lon="1.17334">
        <ele>135</ele>
        <time>2017-04-25T17:35:22Z</time>
      </trkpt>
      <trkpt lat="49.34361" lon="1.17334">
        <ele>135</ele>
        <time>2017-04-25T17:35:22Z</time>
      </trkpt>
      <trkpt lat="49.34364" lon="1.17332">
        <ele>135</ele>
        <time>2017-04-25T17:35:38Z</time>
      </trkpt>
      <trkpt lat="49.34373" lon="1.17331">
        <ele>135</ele>
        <time>2017-04-25T17:35:38Z</time>
      </trkpt>
      <trkpt lat="49.3438" lon="1.1733">
        <ele>133</ele>
        <time>2017-04-25T17:35:38Z</time>
      </trkpt>
      <trkpt lat="49.34381" lon="1.17329">
        <ele>133</ele>
        <time>2017-04-25T17:35:38Z</time>
      </trkpt>
      <trkpt lat="49.34385" lon="1.17329">
        <ele>133</ele>
        <time>2017-04-25T17:35:54Z</time>
      </trkpt>
      <trkpt lat="49.34392" lon="1.17328">
        <ele>133</ele>
        <time>2017-04-25T17:35:54Z</time>
      </trkpt>
      <trkpt lat="49.34398" lon="1.17329">
        <ele>133</ele>
        <time>2017-04-25T17:35:54Z</time>
      </trkpt>
      <trkpt lat="49.34401" lon="1.17326">
        <ele>133</ele>
        <time>2017-04-25T17:35:54Z</time>
      </trkpt>
      <trkpt lat="49.34407" lon="1.17323">
        <ele>133</ele>
        <time>2017-04-25T17:36:10Z</time>
      </trkpt>
      <trkpt lat="49.34412" lon="1.17324">
        <ele>133</ele>
        <time>2017-04-25T17:36:10Z</time>
      </trkpt>
      <trkpt lat="49.34418" lon="1.17325">
        <ele>133</ele>
        <time>2017-04-25T17:36:10Z</time>
      </trkpt>
      <trkpt lat="49.34423" lon="1.17325">
        <ele>133</ele>
        <time>2017-04-25T17:36:11Z</time>
      </trkpt>
      <trkpt lat="49.34429" lon="1.17323">
        <ele>133</ele>
        <time>2017-04-25T17:36:26Z</time>
      </trkpt>
      <trkpt lat="49.34435" lon="1.17322">
        <ele>133</ele>
        <time>2017-04-25T17:36:26Z</time>
      </trkpt>
      <trkpt lat="49.34442" lon="1.17323">
        <ele>133</ele>
        <time>2017-04-25T17:36:26Z</time>
      </trkpt>
      <trkpt lat="49.34448" lon="1.17324">
        <ele>133</ele>
        <time>2017-04-25T17:36:27Z</time>
      </trkpt>
      <trkpt lat="49.34454" lon="1.17323">
        <ele>133</ele>
        <time>2017-04-25T17:36:42Z</time>
      </trkpt>
      <trkpt lat="49.34461" lon="1.1732">
        <ele>131</ele>
        <time>2017-04-25T17:36:42Z</time>
      </trkpt>
      <trkpt lat="49.34468" lon="1.17318">
        <ele>131</ele>
        <time>2017-04-25T17:36:42Z</time>
      </trkpt>
      <trkpt lat="49.34473" lon="1.17316">
        <ele>131</ele>
        <time>2017-04-25T17:36:42Z</time>
      </trkpt>
      <trkpt lat="49.34478" lon="1.17315">
        <ele>131</ele>
        <time>2017-04-25T17:36:58Z</time>
      </trkpt>
      <trkpt lat="49.34481" lon="1.17314">
        <ele>131</ele>
        <time>2017-04-25T17:36:58Z</time>
      </trkpt>
      <trkpt lat="49.34487" lon="1.17312">
        <ele>131</ele>
        <time>2017-04-25T17:36:58Z</time>
      </trkpt>
      <trkpt lat="49.34491" lon="1.17309">
        <ele>131</ele>
        <time>2017-04-25T17:36:59Z</time>
      </trkpt>
      <trkpt lat="49.34496" lon="1.17309">
        <ele>131</ele>
        <time>2017-04-25T17:37:14Z</time>
      </trkpt>
      <trkpt lat="49.34503" lon="1.17308">
        <ele>131</ele>
        <time>2017-04-25T17:37:14Z</time>
      </trkpt>
      <trkpt lat="49.34508" lon="1.17306">
        <ele>131</ele>
        <time>2017-04-25T17:37:14Z</time>
      </trkpt>
      <trkpt lat="49.34512" lon="1.17305">
        <ele>131</ele>
        <time>2017-04-25T17:37:14Z</time>
      </trkpt>
      <trkpt lat="49.34516" lon="1.17304">
        <ele>131</ele>
        <time>2017-04-25T17:37:30Z</time>
      </trkpt>
      <trkpt lat="49.34522" lon="1.17303">
        <ele>131</ele>
        <time>2017-04-25T17:37:30Z</time>
      </trkpt>
      <trkpt lat="49.34528" lon="1.17302">
        <ele>131</ele>
        <time>2017-04-25T17:37:30Z</time>
      </trkpt>
      <trkpt lat="49.34534" lon="1.17301">
        <ele>131</ele>
        <time>2017-04-25T17:37:31Z</time>
      </trkpt>
      <trkpt lat="49.34539" lon="1.173">
        <ele>131</ele>
        <time>2017-04-25T17:37:46Z</time>
      </trkpt>
      <trkpt lat="49.34543" lon="1.17299">
        <ele>131</ele>
        <time>2017-04-25T17:37:46Z</time>
      </trkpt>
      <trkpt lat="49.34549" lon="1.17297">
        <ele>131</ele>
        <time>2017-04-25T17:37:46Z</time>
      </trkpt>
      <trkpt lat="49.34554" lon="1.17295">
        <ele>131</ele>
        <time>2017-04-25T17:37:46Z</time>
      </trkpt>
      <trkpt lat="49.34559" lon="1.17292">
        <ele>131</ele>
        <time>2017-04-25T17:38:02Z</time>
      </trkpt>
      <trkpt lat="49.34564" lon="1.17289">
        <ele>130</ele>
        <time>2017-04-25T17:38:02Z</time>
      </trkpt>
      <trkpt lat="49.34568" lon="1.17287">
        <ele>130</ele>
        <time>2017-04-25T17:38:02Z</time>
      </trkpt>
      <trkpt lat="49.34573" lon="1.17285">
        <ele>130</ele>
        <time>2017-04-25T17:38:03Z</time>
      </trkpt>
      <trkpt lat="49.34577" lon="1.17282">
        <ele>130</ele>
        <time>2017-04-25T17:38:18Z</time>
      </trkpt>
      <trkpt lat="49.34583" lon="1.1728">
        <ele>130</ele>
        <time>2017-04-25T17:38:18Z</time>
      </trkpt>
      <trkpt lat="49.34589" lon="1.17275">
        <ele>130</ele>
        <time>2017-04-25T17:38:18Z</time>
      </trkpt>
      <trkpt lat="49.34593" lon="1.17274">
        <ele>130</ele>
        <time>2017-04-25T17:38:18Z</time>
      </trkpt>
      <trkpt lat="49.34598" lon="1.17272">
        <ele>130</ele>
        <time>2017-04-25T17:38:34Z</time>
      </trkpt>
      <trkpt lat="49.34604" lon="1.17269">
        <ele>130</ele>
        <time>2017-04-25T17:38:34Z</time>
      </trkpt>
      <trkpt lat="49.3461" lon="1.17266">
        <ele>130</ele>
        <time>2017-04-25T17:38:34Z</time>
      </trkpt>
      <trkpt lat="49.34614" lon="1.17264">
        <ele>130</ele>
        <time>2017-04-25T17:38:34Z</time>
      </trkpt>
      <trkpt lat="49.34619" lon="1.17263">
        <ele>130</ele>
        <time>2017-04-25T17:38:50Z</time>
      </trkpt>
      <trkpt lat="49.34623" lon="1.17261">
        <ele>130</ele>
        <time>2017-04-25T17:38:50Z</time>
      </trkpt>
      <trkpt lat="49.34626" lon="1.17259">
        <ele>126</ele>
        <time>2017-04-25T17:38:50Z</time>
      </trkpt>
      <trkpt lat="49.34629" lon="1.17257">
        <ele>126</ele>
        <time>2017-04-25T17:38:51Z</time>
      </trkpt>
      <trkpt lat="49.34634" lon="1.17255">
        <ele>126</ele>
        <time>2017-04-25T17:39:06Z</time>
      </trkpt>
      <trkpt lat="49.34639" lon="1.17253">
        <ele>126</ele>
        <time>2017-04-25T17:39:06Z</time>
      </trkpt>
      <trkpt lat="49.34643" lon="1.17251">
        <ele>126</ele>
        <time>2017-04-25T17:39:06Z</time>
      </trkpt>
      <trkpt lat="49.34649" lon="1.17252">
        <ele>126</ele>
        <time>2017-04-25T17:39:06Z</time>
      </trkpt>
      <trkpt lat="49.34652" lon="1.17252">
        <ele>126</ele>
        <time>2017-04-25T17:39:22Z</time>
      </trkpt>
      <trkpt lat="49.34656" lon="1.17253">
        <ele>126</ele>
        <time>2017-04-25T17:39:22Z</time>
      </trkpt>
      <trkpt lat="49.34659" lon="1.17258">
        <ele>126</ele>
        <time>2017-04-25T17:39:22Z</time>
      </trkpt>
      <trkpt lat="49.34662" lon="1.17265">
        <ele>126</ele>
        <time>2017-04-25T17:39:22Z</time>
      </trkpt>
      <trkpt lat="49.34663" lon="1.1727">
        <ele>126</ele>
        <time>2017-04-25T17:39:38Z</time>
      </trkpt>
      <trkpt lat="49.34665" lon="1.17278">
        <ele>126</ele>
        <time>2017-04-25T17:39:38Z</time>
      </trkpt>
      <trkpt lat="49.34668" lon="1.17285">
        <ele>126</ele>
        <time>2017-04-25T17:39:38Z</time>
      </trkpt>
      <trkpt lat="49.34669" lon="1.17293">
        <ele>127</ele>
        <time>2017-04-25T17:39:38Z</time>
      </trkpt>
      <trkpt lat="49.34671" lon="1.173">
        <ele>127</ele>
        <time>2017-04-25T17:39:54Z</time>
      </trkpt>
      <trkpt lat="49.34673" lon="1.17306">
        <ele>127</ele>
        <time>2017-04-25T17:39:54Z</time>
      </trkpt>
      <trkpt lat="49.34674" lon="1.17312">
        <ele>127</ele>
        <time>2017-04-25T17:39:54Z</time>
      </trkpt>
      <trkpt lat="49.34676" lon="1.17319">
        <ele>127</ele>
        <time>2017-04-25T17:39:54Z</time>
      </trkpt>
      <trkpt lat="49.34675" lon="1.17325">
        <ele>127</ele>
        <time>2017-04-25T17:40:10Z</time>
      </trkpt>
      <trkpt lat="49.34675" lon="1.17331">
        <ele>127</ele>
        <time>2017-04-25T17:40:10Z</time>
      </trkpt>
      <trkpt lat="49.34678" lon="1.17336">
        <ele>127</ele>
        <time>2017-04-25T17:40:10Z</time>
      </trkpt>
      <trkpt lat="49.34679" lon="1.17345">
        <ele>127</ele>
        <time>2017-04-25T17:40:10Z</time>
      </trkpt>
      <trkpt lat="49.3468" lon="1.17352">
        <ele>127</ele>
        <time>2017-04-25T17:40:26Z</time>
      </trkpt>
      <trkpt lat="49.34682" lon="1.17358">
        <ele>127</ele>
        <time>2017-04-25T17:40:26Z</time>
      </trkpt>
      <trkpt lat="49.34685" lon="1.17366">
        <ele>127</ele>
        <time>2017-04-25T17:40:26Z</time>
      </trkpt>
      <trkpt lat="49.34688" lon="1.1737">
        <ele>127</ele>
        <time>2017-04-25T17:40:26Z</time>
      </trkpt>
      <trkpt lat="49.34691" lon="1.17376">
        <ele>128</ele>
        <time>2017-04-25T17:40:42Z</time>
      </trkpt>
      <trkpt lat="49.34696" lon="1.17382">
        <ele>128</ele>
        <time>2017-04-25T17:40:42Z</time>
      </trkpt>
      <trkpt lat="49.34699" lon="1.17388">
        <ele>128</ele>
        <time>2017-04-25T17:40:42Z</time>
      </trkpt>
      <trkpt lat="49.34702" lon="1.17394">
        <ele>128</ele>
        <time>2017-04-25T17:40:42Z</time>
      </trkpt>
      <trkpt lat="49.34705" lon="1.17398">
        <ele>128</ele>
        <time>2017-04-25T17:40:58Z</time>
      </trkpt>
      <trkpt lat="49.34708" lon="1.17402">
        <ele>128</ele>
        <time>2017-04-25T17:40:58Z</time>
      </trkpt>
      <trkpt lat="49.3471" lon="1.17406">
        <ele>126</ele>
        <time>2017-04-25T17:40:58Z</time>
      </trkpt>
      <trkpt lat="49.34714" lon="1.1741">
        <ele>126</ele>
        <time>2017-04-25T17:40:58Z</time>
      </trkpt>
      <trkpt lat="49.34718" lon="1.17415">
        <ele>126</ele>
        <time>2017-04-25T17:41:14Z</time>
      </trkpt>
      <trkpt lat="49.34725" lon="1.1742">
        <ele>126</ele>
        <time>2017-04-25T17:41:14Z</time>
      </trkpt>
      <trkpt lat="49.34729" lon="1.17425">
        <ele>126</ele>
        <time>2017-04-25T17:41:14Z</time>
      </trkpt>
      <trkpt lat="49.34733" lon="1.17429">
        <ele>126</ele>
        <time>2017-04-25T17:41:14Z</time>
      </trkpt>
      <trkpt lat="49.34736" lon="1.17433">
        <ele>126</ele>
        <time>2017-04-25T17:41:30Z</time>
      </trkpt>
      <trkpt lat="49.3474" lon="1.17436">
        <ele>126</ele>
        <time>2017-04-25T17:41:30Z</time>
      </trkpt>
      <trkpt lat="49.34744" lon="1.1744">
        <ele>126</ele>
        <time>2017-04-25T17:41:30Z</time>
      </trkpt>
      <trkpt lat="49.34747" lon="1.17444">
        <ele>126</ele>
        <time>2017-04-25T17:41:30Z</time>
      </trkpt>
      <trkpt lat="49.34749" lon="1.17449">
        <ele>126</ele>
        <time>2017-04-25T17:41:46Z</time>
      </trkpt>
      <trkpt lat="49.34753" lon="1.17453">
        <ele>126</ele>
        <time>2017-04-25T17:41:46Z</time>
      </trkpt>
      <trkpt lat="49.34757" lon="1.17458">
        <ele>126</ele>
        <time>2017-04-25T17:41:46Z</time>
      </trkpt>
      <trkpt lat="49.3476" lon="1.17463">
        <ele>130</ele>
        <time>2017-04-25T17:41:47Z</time>
      </trkpt>
      <trkpt lat="49.34764" lon="1.17466">
        <ele>130</ele>
        <time>2017-04-25T17:42:02Z</time>
      </trkpt>
      <trkpt lat="49.34767" lon="1.17471">
        <ele>130</ele>
        <time>2017-04-25T17:42:02Z</time>
      </trkpt>
      <trkpt lat="49.34773" lon="1.17475">
        <ele>130</ele>
        <time>2017-04-25T17:42:02Z</time>
      </trkpt>
      <trkpt lat="49.34776" lon="1.17478">
        <ele>130</ele>
        <time>2017-04-25T17:42:02Z</time>
      </trkpt>
      <trkpt lat="49.3478" lon="1.17485">
        <ele>130</ele>
        <time>2017-04-25T17:42:18Z</time>
      </trkpt>
      <trkpt lat="49.34784" lon="1.17492">
        <ele>130</ele>
        <time>2017-04-25T17:42:18Z</time>
      </trkpt>
      <trkpt lat="49.3479" lon="1.17496">
        <ele>130</ele>
        <time>2017-04-25T17:42:18Z</time>
      </trkpt>
      <trkpt lat="49.34794" lon="1.17499">
        <ele>128</ele>
        <time>2017-04-25T17:42:18Z</time>
      </trkpt>
      <trkpt lat="49.34799" lon="1.17503">
        <ele>128</ele>
        <time>2017-04-25T17:42:34Z</time>
      </trkpt>
      <trkpt lat="49.34803" lon="1.17507">
        <ele>128</ele>
        <time>2017-04-25T17:42:34Z</time>
      </trkpt>
      <trkpt lat="49.34807" lon="1.17511">
        <ele>128</ele>
        <time>2017-04-25T17:42:35Z</time>
      </trkpt>
      <trkpt lat="49.34811" lon="1.17516">
        <ele>128</ele>
        <time>2017-04-25T17:42:35Z</time>
      </trkpt>
      <trkpt lat="49.34815" lon="1.17519">
        <ele>128</ele>
        <time>2017-04-25T17:42:50Z</time>
      </trkpt>
      <trkpt lat="49.34818" lon="1.17522">
        <ele>128</ele>
        <time>2017-04-25T17:42:50Z</time>
      </trkpt>
      <trkpt lat="49.34822" lon="1.17526">
        <ele>128</ele>
        <time>2017-04-25T17:42:50Z</time>
      </trkpt>
      <trkpt lat="49.34827" lon="1.17529">
        <ele>128</ele>
        <time>2017-04-25T17:42:50Z</time>
      </trkpt>
      <trkpt lat="49.34832" lon="1.17533">
        <ele>128</ele>
        <time>2017-04-25T17:43:06Z</time>
      </trkpt>
      <trkpt lat="49.34838" lon="1.17536">
        <ele>128</ele>
        <time>2017-04-25T17:43:06Z</time>
      </trkpt>
      <trkpt lat="49.34843" lon="1.17539">
        <ele>128</ele>
        <time>2017-04-25T17:43:06Z</time>
      </trkpt>
      <trkpt lat="49.34846" lon="1.17539">
        <ele>128</ele>
        <time>2017-04-25T17:43:06Z</time>
      </trkpt>
      <trkpt lat="49.34851" lon="1.17541">
        <ele>128</ele>
        <time>2017-04-25T17:43:22Z</time>
      </trkpt>
      <trkpt lat="49.34858" lon="1.1754">
        <ele>128</ele>
        <time>2017-04-25T17:43:22Z</time>
      </trkpt>
      <trkpt lat="49.34862" lon="1.1754">
        <ele>128</ele>
        <time>2017-04-25T17:43:22Z</time>
      </trkpt>
      <trkpt lat="49.34867" lon="1.17538">
        <ele>128</ele>
        <time>2017-04-25T17:43:22Z</time>
      </trkpt>
      <trkpt lat="49.34872" lon="1.17534">
        <ele>128</ele>
        <time>2017-04-25T17:43:38Z</time>
      </trkpt>
      <trkpt lat="49.34875" lon="1.17531">
        <ele>131</ele>
        <time>2017-04-25T17:43:38Z</time>
      </trkpt>
      <trkpt lat="49.3488" lon="1.17528">
        <ele>131</ele>
        <time>2017-04-25T17:43:38Z</time>
      </trkpt>
      <trkpt lat="49.34884" lon="1.17525">
        <ele>131</ele>
        <time>2017-04-25T17:43:38Z</time>
      </trkpt>
      <trkpt lat="49.34889" lon="1.17522">
        <ele>131</ele>
        <time>2017-04-25T17:43:54Z</time>
      </trkpt>
      <trkpt lat="49.34894" lon="1.1752">
        <ele>131</ele>
        <time>2017-04-25T17:43:54Z</time>
      </trkpt>
      <trkpt lat="49.34898" lon="1.17519">
        <ele>131</ele>
        <time>2017-04-25T17:43:54Z</time>
      </trkpt>
      <trkpt lat="49.34903" lon="1.17517">
        <ele>131</ele>
        <time>2017-04-25T17:43:54Z</time>
      </trkpt>
      <trkpt lat="49.34909" lon="1.17521">
        <ele>131</ele>
        <time>2017-04-25T17:44:10Z</time>
      </trkpt>
      <trkpt lat="49.34913" lon="1.17525">
        <ele>131</ele>
        <time>2017-04-25T17:44:10Z</time>
      </trkpt>
      <trkpt lat="49.34916" lon="1.17527">
        <ele>131</ele>
        <time>2017-04-25T17:44:10Z</time>
      </trkpt>
      <trkpt lat="49.3492" lon="1.17531">
        <ele>131</ele>
        <time>2017-04-25T17:44:10Z</time>
      </trkpt>
      <trkpt lat="49.34923" lon="1.17534">
        <ele>131</ele>
        <time>2017-04-25T17:44:26Z</time>
      </trkpt>
      <trkpt lat="49.34926" lon="1.17537">
        <ele>131</ele>
        <time>2017-04-25T17:44:26Z</time>
      </trkpt>
      <trkpt lat="49.3493" lon="1.17541">
        <ele>131</ele>
        <time>2017-04-25T17:44:27Z</time>
      </trkpt>
      <trkpt lat="49.34935" lon="1.17544">
        <ele>132</ele>
        <time>2017-04-25T17:44:27Z</time>
      </trkpt>
      <trkpt lat="49.34939" lon="1.17545">
        <ele>132</ele>
        <time>2017-04-25T17:44:42Z</time>
      </trkpt>
      <trkpt lat="49.34944" lon="1.1755">
        <ele>132</ele>
        <time>2017-04-25T17:44:42Z</time>
      </trkpt>
      <trkpt lat="49.34947" lon="1.17555">
        <ele>132</ele>
        <time>2017-04-25T17:44:42Z</time>
      </trkpt>
      <trkpt lat="49.34951" lon="1.17559">
        <ele>132</ele>
        <time>2017-04-25T17:44:43Z</time>
      </trkpt>
      <trkpt lat="49.34955" lon="1.17564">
        <ele>132</ele>
        <time>2017-04-25T17:44:58Z</time>
      </trkpt>
      <trkpt lat="49.34959" lon="1.1757">
        <ele>135</ele>
        <time>2017-04-25T17:44:58Z</time>
      </trkpt>
      <trkpt lat="49.34962" lon="1.17577">
        <ele>135</ele>
        <time>2017-04-25T17:44:59Z</time>
      </trkpt>
      <trkpt lat="49.34966" lon="1.17584">
        <ele>135</ele>
        <time>2017-04-25T17:44:59Z</time>
      </trkpt>
      <trkpt lat="49.34969" lon="1.17588">
        <ele>135</ele>
        <time>2017-04-25T17:45:14Z</time>
      </trkpt>
      <trkpt lat="49.34972" lon="1.17595">
        <ele>135</ele>
        <time>2017-04-25T17:45:14Z</time>
      </trkpt>
      <trkpt lat="49.34975" lon="1.17602">
        <ele>135</ele>
        <time>2017-04-25T17:45:14Z</time>
      </trkpt>
      <trkpt lat="49.34977" lon="1.17608">
        <ele>135</ele>
        <time>2017-04-25T17:45:14Z</time>
      </trkpt>
      <trkpt lat="49.3498" lon="1.17613">
        <ele>135</ele>
        <time>2017-04-25T17:45:30Z</time>
      </trkpt>
      <trkpt lat="49.34982" lon="1.17621">
        <ele>135</ele>
        <time>2017-04-25T17:45:30Z</time>
      </trkpt>
      <trkpt lat="49.34984" lon="1.17626">
        <ele>135</ele>
        <time>2017-04-25T17:45:30Z</time>
      </trkpt>
      <trkpt lat="49.34984" lon="1.17631">
        <ele>135</ele>
        <time>2017-04-25T17:45:31Z</time>
      </trkpt>
      <trkpt lat="49.34986" lon="1.17635">
        <ele>135</ele>
        <time>2017-04-25T17:45:46Z</time>
      </trkpt>
      <trkpt lat="49.34989" lon="1.17643">
        <ele>135</ele>
        <time>2017-04-25T17:45:46Z</time>
      </trkpt>
      <trkpt lat="49.34991" lon="1.1765">
        <ele>135</ele>
        <time>2017-04-25T17:45:46Z</time>
      </trkpt>
      <trkpt lat="49.34994" lon="1.17656">
        <ele>135</ele>
        <time>2017-04-25T17:45:46Z</time>
      </trkpt>
      <trkpt lat="49.34996" lon="1.17663">
        <ele>135</ele>
        <time>2017-04-25T17:46:02Z</time>
      </trkpt>
      <trkpt lat="49.34997" lon="1.17668">
        <ele>135</ele>
        <time>2017-04-25T17:46:02Z</time>
      </trkpt>
      <trkpt lat="49.35" lon="1.17675">
        <ele>135</ele>
        <time>2017-04-25T17:46:02Z</time>
      </trkpt>
      <trkpt lat="49.35004" lon="1.17683">
        <ele>135</ele>
        <time>2017-04-25T17:46:02Z</time>
      </trkpt>
      <trkpt lat="49.35006" lon="1.17689">
        <ele>135</ele>
        <time>2017-04-25T17:46:18Z</time>
      </trkpt>
      <trkpt lat="49.35009" lon="1.17695">
        <ele>135</ele>
        <time>2017-04-25T17:46:18Z</time>
      </trkpt>
      <trkpt lat="49.35011" lon="1.177">
        <ele>135</ele>
        <time>2017-04-25T17:46:18Z</time>
      </trkpt>
      <trkpt lat="49.35014" lon="1.17708">
        <ele>135</ele>
        <time>2017-04-25T17:46:18Z</time>
      </trkpt>
      <trkpt lat="49.35017" lon="1.17715">
        <ele>136</ele>
        <time>2017-04-25T17:46:34Z</time>
      </trkpt>
      <trkpt lat="49.3502" lon="1.1772">
        <ele>136</ele>
        <time>2017-04-25T17:46:34Z</time>
      </trkpt>
      <trkpt lat="49.35023" lon="1.17724">
        <ele>136</ele>
        <time>2017-04-25T17:46:34Z</time>
      </trkpt>
      <trkpt lat="49.35029" lon="1.17722">
        <ele>136</ele>
        <time>2017-04-25T17:46:34Z</time>
      </trkpt>
      <trkpt lat="49.35034" lon="1.17722">
        <ele>136</ele>
        <time>2017-04-25T17:46:50Z</time>
      </trkpt>
      <trkpt lat="49.35038" lon="1.17722">
        <ele>136</ele>
        <time>2017-04-25T17:46:50Z</time>
      </trkpt>
      <trkpt lat="49.35042" lon="1.17717">
        <ele>140</ele>
        <time>2017-04-25T17:46:51Z</time>
      </trkpt>
      <trkpt lat="49.35046" lon="1.17716">
        <ele>140</ele>
        <time>2017-04-25T17:46:51Z</time>
      </trkpt>
      <trkpt lat="49.35049" lon="1.17715">
        <ele>140</ele>
        <time>2017-04-25T17:47:06Z</time>
      </trkpt>
      <trkpt lat="49.35053" lon="1.17714">
        <ele>140</ele>
        <time>2017-04-25T17:47:06Z</time>
      </trkpt>
      <trkpt lat="49.35058" lon="1.17715">
        <ele>140</ele>
        <time>2017-04-25T17:47:06Z</time>
      </trkpt>
      <trkpt lat="49.35064" lon="1.17719">
        <ele>140</ele>
        <time>2017-04-25T17:47:06Z</time>
      </trkpt>
      <trkpt lat="49.35068" lon="1.17718">
        <ele>140</ele>
        <time>2017-04-25T17:47:22Z</time>
      </trkpt>
      <trkpt lat="49.35074" lon="1.17715">
        <ele>140</ele>
        <time>2017-04-25T17:47:22Z</time>
      </trkpt>
      <trkpt lat="49.35077" lon="1.17713">
        <ele>140</ele>
        <time>2017-04-25T17:47:22Z</time>
      </trkpt>
      <trkpt lat="49.35082" lon="1.1771">
        <ele>140</ele>
        <time>2017-04-25T17:47:22Z</time>
      </trkpt>
      <trkpt lat="49.35086" lon="1.1771">
        <ele>140</ele>
        <time>2017-04-25T17:47:38Z</time>
      </trkpt>
      <trkpt lat="49.35091" lon="1.17708">
        <ele>139</ele>
        <time>2017-04-25T17:47:38Z</time>
      </trkpt>
      <trkpt lat="49.35094" lon="1.17705">
        <ele>139</ele>
        <time>2017-04-25T17:47:38Z</time>
      </trkpt>
      <trkpt lat="49.35097" lon="1.17703">
        <ele>139</ele>
        <time>2017-04-25T17:47:38Z</time>
      </trkpt>
      <trkpt lat="49.35108" lon="1.17695">
        <ele>139</ele>
        <time>2017-04-25T17:48:10Z</time>
      </trkpt>
      <trkpt lat="49.35109" lon="1.17696">
        <ele>139</ele>
        <time>2017-04-25T17:48:10Z</time>
      </trkpt>
      <trkpt lat="49.35111" lon="1.17697">
        <ele>139</ele>
        <time>2017-04-25T17:48:10Z</time>
      </trkpt>
      <trkpt lat="49.35113" lon="1.17698">
        <ele>139</ele>
        <time>2017-04-25T17:48:10Z</time>
      </trkpt>
      <trkpt lat="49.35113" lon="1.17699">
        <ele>139</ele>
        <time>2017-04-25T17:48:10Z</time>
      </trkpt>
    </trkseg>
  </trk>
</gpx>